<?xml version='1.0' encoding='UTF-8'?><gpx version="1.1" creator="JPX - https://github.com/jenetics/jpx" xmlns="http://www.topografix.com/GPX/1/1"><trk><trkseg><trkpt lat="41.213802054546306" lon="14.69860504740532"><ele>90.0</ele><time>2026-03-22T07:52:53Z</time></trkpt><trkpt lat="41.213891414502214" lon="14.698620204592048"><ele>90.0</ele><time>2026-03-22T07:53:27Z</time></trkpt><trkpt lat="41.213888667244866" lon="14.698757647551933"><ele>90.0</ele><time>2026-03-22T07:53:29Z</time></trkpt><trkpt lat="41.21383910555762" lon="14.69883459401601"><ele>90.0</ele><time>2026-03-22T07:53:31Z</time></trkpt><trkpt lat="41.21390563029893" lon="14.698937329434967"><ele>90.0</ele><time>2026-03-22T07:53:38Z</time></trkpt><trkpt lat="41.21398220965511" lon="14.698967501762727"><ele>90.6</ele><time>2026-03-22T07:53:39Z</time></trkpt><trkpt lat="41.21407666280857" lon="14.699009368850893"><ele>91.2</ele><time>2026-03-22T07:53:40Z</time></trkpt><trkpt lat="41.21419748852568" lon="14.699048612210358"><ele>91.80000000000001</ele><time>2026-03-22T07:53:41Z</time></trkpt><trkpt lat="41.214291968742764" lon="14.69907520488489"><ele>92.4</ele><time>2026-03-22T07:53:42Z</time></trkpt><trkpt lat="41.21437325845922" lon="14.699100328220931"><ele>93.0</ele><time>2026-03-22T07:53:43Z</time></trkpt><trkpt lat="41.21446021617894" lon="14.699139179248226"><ele>93.0</ele><time>2026-03-22T07:53:44Z</time></trkpt><trkpt lat="41.21454491283598" lon="14.69918582519284"><ele>93.0</ele><time>2026-03-22T07:53:45Z</time></trkpt><trkpt lat="41.214633647766554" lon="14.69924120768751"><ele>93.0</ele><time>2026-03-22T07:53:46Z</time></trkpt><trkpt lat="41.21470889706146" lon="14.699327797770083"><ele>93.0</ele><time>2026-03-22T07:53:47Z</time></trkpt><trkpt lat="41.21477156799382" lon="14.69941582836644"><ele>93.0</ele><time>2026-03-22T07:53:48Z</time></trkpt><trkpt lat="41.21481183926565" lon="14.699522853694695"><ele>94.4</ele><time>2026-03-22T07:53:49Z</time></trkpt><trkpt lat="41.21484077183622" lon="14.69964005329137"><ele>95.80000000000001</ele><time>2026-03-22T07:53:50Z</time></trkpt><trkpt lat="41.2148677784913" lon="14.699767635244099"><ele>97.2</ele><time>2026-03-22T07:53:51Z</time></trkpt><trkpt lat="41.214893746182454" lon="14.69991848910632"><ele>98.6</ele><time>2026-03-22T07:53:52Z</time></trkpt><trkpt lat="41.21491504767541" lon="14.700091612803481"><ele>100.0</ele><time>2026-03-22T07:53:53Z</time></trkpt><trkpt lat="41.21492995536152" lon="14.700265088817295"><ele>100.4</ele><time>2026-03-22T07:53:54Z</time></trkpt><trkpt lat="41.214934409843835" lon="14.700420753814976"><ele>100.8</ele><time>2026-03-22T07:53:55Z</time></trkpt><trkpt lat="41.214931922252774" lon="14.70054728268092"><ele>101.19999999999999</ele><time>2026-03-22T07:53:56Z</time></trkpt><trkpt lat="41.214934724465145" lon="14.70065746065663"><ele>101.6</ele><time>2026-03-22T07:53:57Z</time></trkpt><trkpt lat="41.21494075762493" lon="14.70074873280825"><ele>102.0</ele><time>2026-03-22T07:53:58Z</time></trkpt><trkpt lat="41.21495032122565" lon="14.700877187156204"><ele>102.0</ele><time>2026-03-22T07:54:00Z</time></trkpt><trkpt lat="41.21495783607018" lon="14.700993749461981"><ele>102.0</ele><time>2026-03-22T07:54:01Z</time></trkpt><trkpt lat="41.21496620370395" lon="14.701148354219585"><ele>102.0</ele><time>2026-03-22T07:54:02Z</time></trkpt><trkpt lat="41.21495742875151" lon="14.701314112459919"><ele>102.0</ele><time>2026-03-22T07:54:03Z</time></trkpt><trkpt lat="41.21497465343422" lon="14.701483577506687"><ele>102.8</ele><time>2026-03-22T07:54:04Z</time></trkpt><trkpt lat="41.21497545634003" lon="14.701643220512564"><ele>103.6</ele><time>2026-03-22T07:54:05Z</time></trkpt><trkpt lat="41.21497363261766" lon="14.701781653242538"><ele>104.39999999999999</ele><time>2026-03-22T07:54:06Z</time></trkpt><trkpt lat="41.21497502558233" lon="14.701898836824505"><ele>105.19999999999999</ele><time>2026-03-22T07:54:07Z</time></trkpt><trkpt lat="41.214970272688625" lon="14.701988093861384"><ele>106.0</ele><time>2026-03-22T07:54:08Z</time></trkpt><trkpt lat="41.214986139179885" lon="14.70211178075351"><ele>106.0</ele><time>2026-03-22T07:54:10Z</time></trkpt><trkpt lat="41.215099999181234" lon="14.702010190027464"><ele>106.0</ele><time>2026-03-22T07:54:12.999Z</time></trkpt><trkpt lat="41.21511006585998" lon="14.701889762633952"><ele>106.0</ele><time>2026-03-22T07:54:13.999Z</time></trkpt><trkpt lat="41.21511735088515" lon="14.70173078729542"><ele>106.0</ele><time>2026-03-22T07:54:14.999Z</time></trkpt><trkpt lat="41.215122758255966" lon="14.701557680481978"><ele>106.0</ele><time>2026-03-22T07:54:15.999Z</time></trkpt><trkpt lat="41.21513203879346" lon="14.701385852526304"><ele>106.0</ele><time>2026-03-22T07:54:16.999Z</time></trkpt><trkpt lat="41.2151535878743" lon="14.701227980476748"><ele>106.0</ele><time>2026-03-22T07:54:17.999Z</time></trkpt><trkpt lat="41.21516323955253" lon="14.701057945800317"><ele>106.0</ele><time>2026-03-22T07:54:18.999Z</time></trkpt><trkpt lat="41.21517103760478" lon="14.700871024194955"><ele>105.0</ele><time>2026-03-22T07:54:19.999Z</time></trkpt><trkpt lat="41.21518161414485" lon="14.700663655550413"><ele>104.0</ele><time>2026-03-22T07:54:20.999Z</time></trkpt><trkpt lat="41.215193403031634" lon="14.700485610669395"><ele>103.0</ele><time>2026-03-22T07:54:21.999Z</time></trkpt><trkpt lat="41.21520764282188" lon="14.700324911853683"><ele>102.0</ele><time>2026-03-22T07:54:22.999Z</time></trkpt><trkpt lat="41.21521891431367" lon="14.700174802077276"><ele>101.6</ele><time>2026-03-22T07:54:23.999Z</time></trkpt><trkpt lat="41.21522640939403" lon="14.70001091579771"><ele>101.19999999999999</ele><time>2026-03-22T07:54:24.999Z</time></trkpt><trkpt lat="41.21523387835264" lon="14.699867912107813"><ele>100.8</ele><time>2026-03-22T07:54:25.999Z</time></trkpt><trkpt lat="41.21524322521275" lon="14.699749115014672"><ele>100.4</ele><time>2026-03-22T07:54:26.999Z</time></trkpt><trkpt lat="41.21524966784934" lon="14.699635772962523"><ele>100.0</ele><time>2026-03-22T07:54:27.999Z</time></trkpt><trkpt lat="41.21526085577451" lon="14.699524185572733"><ele>99.75</ele><time>2026-03-22T07:54:28.999Z</time></trkpt><trkpt lat="41.21526738969387" lon="14.69941338044902"><ele>99.5</ele><time>2026-03-22T07:54:29.999Z</time></trkpt><trkpt lat="41.21527789766584" lon="14.699273699059113"><ele>99.25</ele><time>2026-03-22T07:54:30.999Z</time></trkpt><trkpt lat="41.21526546312499" lon="14.699108343584161"><ele>99.0</ele><time>2026-03-22T07:54:31.999Z</time></trkpt><trkpt lat="41.21528585771162" lon="14.698920146201036"><ele>99.0</ele><time>2026-03-22T07:54:32.999Z</time></trkpt><trkpt lat="41.21528430488972" lon="14.69874504208492"><ele>99.0</ele><time>2026-03-22T07:54:33.999Z</time></trkpt><trkpt lat="41.21524655337821" lon="14.698571983082251"><ele>99.0</ele><time>2026-03-22T07:54:34.999Z</time></trkpt><trkpt lat="41.21520878710828" lon="14.698390017111114"><ele>99.0</ele><time>2026-03-22T07:54:35.999Z</time></trkpt><trkpt lat="41.21517366055281" lon="14.698199884993537"><ele>99.0</ele><time>2026-03-22T07:54:36.999Z</time></trkpt><trkpt lat="41.21513938682857" lon="14.698011864436376"><ele>99.0</ele><time>2026-03-22T07:54:37.999Z</time></trkpt><trkpt lat="41.215104801514705" lon="14.69783127529249"><ele>99.0</ele><time>2026-03-22T07:54:38.999Z</time></trkpt><trkpt lat="41.215070637191324" lon="14.697651204349427"><ele>99.0</ele><time>2026-03-22T07:54:39.999Z</time></trkpt><trkpt lat="41.21504010811535" lon="14.69746968245178"><ele>99.25</ele><time>2026-03-22T07:54:40.999Z</time></trkpt><trkpt lat="41.215007328943905" lon="14.697285554529719"><ele>99.5</ele><time>2026-03-22T07:54:41.999Z</time></trkpt><trkpt lat="41.21497299626165" lon="14.6971013603134"><ele>99.75</ele><time>2026-03-22T07:54:42.999Z</time></trkpt><trkpt lat="41.21494935567455" lon="14.696911107498687"><ele>100.0</ele><time>2026-03-22T07:54:43.999Z</time></trkpt><trkpt lat="41.21492834255497" lon="14.696742356529938"><ele>101.0</ele><time>2026-03-22T07:54:44.999Z</time></trkpt><trkpt lat="41.21489967895926" lon="14.696579304242684"><ele>102.0</ele><time>2026-03-22T07:54:45.999Z</time></trkpt><trkpt lat="41.21487379901481" lon="14.69641548814206"><ele>103.0</ele><time>2026-03-22T07:54:46.999Z</time></trkpt><trkpt lat="41.21483633330862" lon="14.696251505854779"><ele>104.0</ele><time>2026-03-22T07:54:47.999Z</time></trkpt><trkpt lat="41.21481940194054" lon="14.696069081102308"><ele>100.5</ele><time>2026-03-22T07:54:48.999Z</time></trkpt><trkpt lat="41.21478830446055" lon="14.695900097539862"><ele>97.0</ele><time>2026-03-22T07:54:49.999Z</time></trkpt><trkpt lat="41.214762263887714" lon="14.695718482365319"><ele>93.5</ele><time>2026-03-22T07:54:50.999Z</time></trkpt><trkpt lat="41.21474382149726" lon="14.695559297022335"><ele>90.0</ele><time>2026-03-22T07:54:51.999Z</time></trkpt><trkpt lat="41.21472111503864" lon="14.695407140180679"><ele>90.25</ele><time>2026-03-22T07:54:52.999Z</time></trkpt><trkpt lat="41.21469536569408" lon="14.695253704034977"><ele>90.5</ele><time>2026-03-22T07:54:53.999Z</time></trkpt><trkpt lat="41.214697228353124" lon="14.695095895622725"><ele>90.75</ele><time>2026-03-22T07:54:54.999Z</time></trkpt><trkpt lat="41.214689487079006" lon="14.694941713590229"><ele>91.0</ele><time>2026-03-22T07:54:55.999Z</time></trkpt><trkpt lat="41.21468645768662" lon="14.694775872147577"><ele>91.0</ele><time>2026-03-22T07:54:56.999Z</time></trkpt><trkpt lat="41.21468645768765" lon="14.694596825022016"><ele>91.0</ele><time>2026-03-22T07:54:57.999Z</time></trkpt><trkpt lat="41.21468535680454" lon="14.694411151862742"><ele>91.0</ele><time>2026-03-22T07:54:59Z</time></trkpt><trkpt lat="41.21467197057128" lon="14.694229597297381"><ele>91.0</ele><time>2026-03-22T07:55:00Z</time></trkpt><trkpt lat="41.21467334265062" lon="14.694034102629765"><ele>91.19999999999999</ele><time>2026-03-22T07:55:01Z</time></trkpt><trkpt lat="41.21467004609378" lon="14.693858347458693"><ele>91.39999999999999</ele><time>2026-03-22T07:55:02Z</time></trkpt><trkpt lat="41.21466880313319" lon="14.693708190411693"><ele>91.6</ele><time>2026-03-22T07:55:03Z</time></trkpt><trkpt lat="41.21467063762307" lon="14.693572910803333"><ele>91.8</ele><time>2026-03-22T07:55:04Z</time></trkpt><trkpt lat="41.214667039768415" lon="14.693456618872322"><ele>92.0</ele><time>2026-03-22T07:55:05Z</time></trkpt><trkpt lat="41.21466224687183" lon="14.693363691888935"><ele>93.39999999999999</ele><time>2026-03-22T07:55:06Z</time></trkpt><trkpt lat="41.214662952951734" lon="14.693217668466147"><ele>94.8</ele><time>2026-03-22T07:55:08Z</time></trkpt><trkpt lat="41.214698134309316" lon="14.693144174553703"><ele>96.2</ele><time>2026-03-22T07:55:10Z</time></trkpt><trkpt lat="41.21483044697301" lon="14.693172187704343"><ele>97.6</ele><time>2026-03-22T07:55:11Z</time></trkpt><trkpt lat="41.21493006482671" lon="14.693181377612284"><ele>99.0</ele><time>2026-03-22T07:55:12Z</time></trkpt><trkpt lat="41.2150091092047" lon="14.69313934328088"><ele>100.66666666666667</ele><time>2026-03-22T07:55:13Z</time></trkpt><trkpt lat="41.215064316499415" lon="14.693067882573876"><ele>102.33333333333334</ele><time>2026-03-22T07:55:14Z</time></trkpt><trkpt lat="41.21511195681537" lon="14.692992850067037"><ele>104.0</ele><time>2026-03-22T07:55:15Z</time></trkpt><trkpt lat="41.21515757352122" lon="14.692922929616168"><ele>105.66666666666667</ele><time>2026-03-22T07:55:16Z</time></trkpt><trkpt lat="41.21523127610984" lon="14.692900944650823"><ele>107.33333333333334</ele><time>2026-03-22T07:55:17Z</time></trkpt><trkpt lat="41.21531879105933" lon="14.692870261684172"><ele>109.0</ele><time>2026-03-22T07:55:18Z</time></trkpt><trkpt lat="41.215407887116115" lon="14.692823460834424"><ele>109.00000000000001</ele><time>2026-03-22T07:55:19Z</time></trkpt><trkpt lat="41.21548564969725" lon="14.692773398840203"><ele>109.0</ele><time>2026-03-22T07:55:20Z</time></trkpt><trkpt lat="41.2155677486023" lon="14.692742532088703"><ele>109.0</ele><time>2026-03-22T07:55:21Z</time></trkpt><trkpt lat="41.21565686460764" lon="14.692730152895916"><ele>109.0</ele><time>2026-03-22T07:55:22Z</time></trkpt><trkpt lat="41.215741609341265" lon="14.692753766391514"><ele>109.00000000000001</ele><time>2026-03-22T07:55:23Z</time></trkpt><trkpt lat="41.21582294464146" lon="14.692734094390996"><ele>109.0</ele><time>2026-03-22T07:55:24Z</time></trkpt><trkpt lat="41.215896246551" lon="14.692720447519775"><ele>113.16666666666667</ele><time>2026-03-22T07:55:25Z</time></trkpt><trkpt lat="41.215961017581186" lon="14.692692597940693"><ele>117.33333333333334</ele><time>2026-03-22T07:55:26Z</time></trkpt><trkpt lat="41.21602723189783" lon="14.692664310934209"><ele>121.5</ele><time>2026-03-22T07:55:27Z</time></trkpt><trkpt lat="41.216145630013266" lon="14.692660876052562"><ele>125.66666666666666</ele><time>2026-03-22T07:55:29Z</time></trkpt><trkpt lat="41.21621448466069" lon="14.692676109004976"><ele>129.83333333333331</ele><time>2026-03-22T07:55:30Z</time></trkpt><trkpt lat="41.2162900725549" lon="14.692675135845432"><ele>134.0</ele><time>2026-03-22T07:55:31Z</time></trkpt><trkpt lat="41.21635610939099" lon="14.692659686315077"><ele>134.0</ele><time>2026-03-22T07:55:32Z</time></trkpt><trkpt lat="41.216422437185194" lon="14.692657369472137"><ele>134.0</ele><time>2026-03-22T07:55:33Z</time></trkpt><trkpt lat="41.21649101160505" lon="14.692655864004529"><ele>134.0</ele><time>2026-03-22T07:55:34Z</time></trkpt><trkpt lat="41.216558389345806" lon="14.692676255211312"><ele>134.0</ele><time>2026-03-22T07:55:35Z</time></trkpt><trkpt lat="41.21662186346257" lon="14.69269444060748"><ele>134.0</ele><time>2026-03-22T07:55:36Z</time></trkpt><trkpt lat="41.21673524161092" lon="14.69272976015339"><ele>134.0</ele><time>2026-03-22T07:55:38Z</time></trkpt><trkpt lat="41.216831119955145" lon="14.692633947311585"><ele>135.2</ele><time>2026-03-22T07:55:40Z</time></trkpt><trkpt lat="41.21679879442789" lon="14.692523203046392"><ele>136.4</ele><time>2026-03-22T07:55:41Z</time></trkpt><trkpt lat="41.21676424237824" lon="14.692445001406814"><ele>137.6</ele><time>2026-03-22T07:55:42Z</time></trkpt><trkpt lat="41.21676381144119" lon="14.692349636210318"><ele>138.8</ele><time>2026-03-22T07:55:46Z</time></trkpt><trkpt lat="41.21680352758933" lon="14.692281427991011"><ele>140.0</ele><time>2026-03-22T07:55:49Z</time></trkpt><trkpt lat="41.217099693899385" lon="14.692229920833672"><ele>140.0</ele><time>2026-03-22T07:55:51Z</time></trkpt><trkpt lat="41.21722844418345" lon="14.692276310568497"><ele>140.0</ele><time>2026-03-22T07:55:52Z</time></trkpt><trkpt lat="41.217354080924615" lon="14.692247721496706"><ele>140.0</ele><time>2026-03-22T07:55:53Z</time></trkpt><trkpt lat="41.217480894241135" lon="14.692218839661308"><ele>140.0</ele><time>2026-03-22T07:55:54Z</time></trkpt><trkpt lat="41.2176093820433" lon="14.692149136719376"><ele>141.2</ele><time>2026-03-22T07:55:55Z</time></trkpt><trkpt lat="41.21773132865174" lon="14.692118115950857"><ele>142.4</ele><time>2026-03-22T07:55:56Z</time></trkpt><trkpt lat="41.217840535511264" lon="14.692093178556481"><ele>143.6</ele><time>2026-03-22T07:55:57Z</time></trkpt><trkpt lat="41.217943322112404" lon="14.692086375487332"><ele>144.8</ele><time>2026-03-22T07:55:58Z</time></trkpt><trkpt lat="41.21804614555191" lon="14.692123239247731"><ele>146.0</ele><time>2026-03-22T07:55:59Z</time></trkpt><trkpt lat="41.21813673594733" lon="14.692181364962305"><ele>147.5</ele><time>2026-03-22T07:56:00Z</time></trkpt><trkpt lat="41.21821918254183" lon="14.692247372962253"><ele>149.0</ele><time>2026-03-22T07:56:01Z</time></trkpt><trkpt lat="41.21830272926445" lon="14.69230383956511"><ele>150.5</ele><time>2026-03-22T07:56:02Z</time></trkpt><trkpt lat="41.2183853621623" lon="14.692341920053886"><ele>152.0</ele><time>2026-03-22T07:56:03Z</time></trkpt><trkpt lat="41.21847400915401" lon="14.69233178386594"><ele>153.5</ele><time>2026-03-22T07:56:04Z</time></trkpt><trkpt lat="41.21854722686477" lon="14.692319157187075"><ele>155.0</ele><time>2026-03-22T07:56:05Z</time></trkpt><trkpt lat="41.218624648836595" lon="14.692316932172185"><ele>155.0</ele><time>2026-03-22T07:56:06Z</time></trkpt><trkpt lat="41.218700516637846" lon="14.6923013742662"><ele>155.0</ele><time>2026-03-22T07:56:07Z</time></trkpt><trkpt lat="41.21876170895411" lon="14.692281411391496"><ele>155.0</ele><time>2026-03-22T07:56:08Z</time></trkpt><trkpt lat="41.21883363996989" lon="14.692307606844153"><ele>155.0</ele><time>2026-03-22T07:56:09Z</time></trkpt><trkpt lat="41.218900085121845" lon="14.692306561092515"><ele>155.0</ele><time>2026-03-22T07:56:10Z</time></trkpt><trkpt lat="41.218970672319294" lon="14.692317515647229"><ele>155.0</ele><time>2026-03-22T07:56:11Z</time></trkpt><trkpt lat="41.21904437491975" lon="14.692343808107928"><ele>155.0</ele><time>2026-03-22T07:56:12Z</time></trkpt><trkpt lat="41.21913459444049" lon="14.692373892586387"><ele>155.83333333333331</ele><time>2026-03-22T07:56:13Z</time></trkpt><trkpt lat="41.21919731951992" lon="14.692387767907045"><ele>156.66666666666666</ele><time>2026-03-22T07:56:14Z</time></trkpt><trkpt lat="41.219264745756945" lon="14.692404319484906"><ele>157.5</ele><time>2026-03-22T07:56:15Z</time></trkpt><trkpt lat="41.21933606951199" lon="14.692413245683698"><ele>158.33333333333334</ele><time>2026-03-22T07:56:16Z</time></trkpt><trkpt lat="41.219413372839256" lon="14.692420038960453"><ele>159.16666666666669</ele><time>2026-03-22T07:56:17Z</time></trkpt><trkpt lat="41.21951323758984" lon="14.692398216344637"><ele>160.0</ele><time>2026-03-22T07:56:18Z</time></trkpt><trkpt lat="41.21962261551926" lon="14.692357788778967"><ele>160.0</ele><time>2026-03-22T07:56:19Z</time></trkpt><trkpt lat="41.21972705104064" lon="14.692373524697066"><ele>160.0</ele><time>2026-03-22T07:56:19.999Z</time></trkpt><trkpt lat="41.219832899191324" lon="14.692419124920661"><ele>160.0</ele><time>2026-03-22T07:56:20.999Z</time></trkpt><trkpt lat="41.219945686244316" lon="14.692454228718088"><ele>160.0</ele><time>2026-03-22T07:56:21.999Z</time></trkpt><trkpt lat="41.220064576778796" lon="14.69245489936522"><ele>160.4</ele><time>2026-03-22T07:56:22.999Z</time></trkpt><trkpt lat="41.22018418714422" lon="14.692434497517779"><ele>160.8</ele><time>2026-03-22T07:56:23.999Z</time></trkpt><trkpt lat="41.22029214079761" lon="14.692415537306143"><ele>161.2</ele><time>2026-03-22T07:56:24.999Z</time></trkpt><trkpt lat="41.220386557184106" lon="14.692389116708949"><ele>161.6</ele><time>2026-03-22T07:56:25.999Z</time></trkpt><trkpt lat="41.22046771682681" lon="14.692362227965717"><ele>162.0</ele><time>2026-03-22T07:56:26.999Z</time></trkpt><trkpt lat="41.2205556882931" lon="14.692317389574383"><ele>164.6</ele><time>2026-03-22T07:56:27.999Z</time></trkpt><trkpt lat="41.22065007419536" lon="14.6923018790113"><ele>167.2</ele><time>2026-03-22T07:56:28.999Z</time></trkpt><trkpt lat="41.220745608220646" lon="14.692260673188274"><ele>169.8</ele><time>2026-03-22T07:56:29.999Z</time></trkpt><trkpt lat="41.22084194458978" lon="14.692204140538093"><ele>172.4</ele><time>2026-03-22T07:56:30.999Z</time></trkpt><trkpt lat="41.220912955792734" lon="14.692123410172794"><ele>175.0</ele><time>2026-03-22T07:56:31.999Z</time></trkpt><trkpt lat="41.22100075921656" lon="14.692023222164652"><ele>175.0</ele><time>2026-03-22T07:56:33.999Z</time></trkpt><trkpt lat="41.22105426581974" lon="14.691965242462162"><ele>175.0</ele><time>2026-03-22T07:56:34.999Z</time></trkpt><trkpt lat="41.221107939647354" lon="14.6919058140488"><ele>175.0</ele><time>2026-03-22T07:56:35.999Z</time></trkpt><trkpt lat="41.22121698391864" lon="14.691831277259148"><ele>175.0</ele><time>2026-03-22T07:56:37.999Z</time></trkpt><trkpt lat="41.22128619135017" lon="14.691817530727805"><ele>175.0</ele><time>2026-03-22T07:56:38.999Z</time></trkpt><trkpt lat="41.221355898026594" lon="14.691807695153372"><ele>175.0</ele><time>2026-03-22T07:56:39.999Z</time></trkpt><trkpt lat="41.22141975991309" lon="14.691798498714437"><ele>170.2</ele><time>2026-03-22T07:56:40.999Z</time></trkpt><trkpt lat="41.22152587085703" lon="14.691786017077884"><ele>165.4</ele><time>2026-03-22T07:56:42.999Z</time></trkpt><trkpt lat="41.221614129515956" lon="14.691764456481314"><ele>160.6</ele><time>2026-03-22T07:56:44.999Z</time></trkpt><trkpt lat="41.22170614381543" lon="14.691758926666424"><ele>155.8</ele><time>2026-03-22T07:56:46.999Z</time></trkpt><trkpt lat="41.22180951972214" lon="14.69178420107528"><ele>151.0</ele><time>2026-03-22T07:56:48.999Z</time></trkpt><trkpt lat="41.221897952623635" lon="14.691812301647795"><ele>151.00000000000003</ele><time>2026-03-22T07:56:50.999Z</time></trkpt><trkpt lat="41.22196980447922" lon="14.691833196030302"><ele>151.0</ele><time>2026-03-22T07:56:52.999Z</time></trkpt><trkpt lat="41.22203283530935" lon="14.691843439633322"><ele>151.0</ele><time>2026-03-22T07:56:54.999Z</time></trkpt><trkpt lat="41.22211574245252" lon="14.69183228807302"><ele>151.0</ele><time>2026-03-22T07:56:56.999Z</time></trkpt><trkpt lat="41.22219471674241" lon="14.69180204677244"><ele>151.0</ele><time>2026-03-22T07:56:58.999Z</time></trkpt><trkpt lat="41.22226666991085" lon="14.691799606548804"><ele>151.00000000000003</ele><time>2026-03-22T07:57:09Z</time></trkpt><trkpt lat="41.22232789081359" lon="14.691839236620263"><ele>151.0</ele><time>2026-03-22T07:57:11Z</time></trkpt><trkpt lat="41.2224322675184" lon="14.691863510770288"><ele>149.8</ele><time>2026-03-22T07:57:13Z</time></trkpt><trkpt lat="41.22255649885276" lon="14.69187068450795"><ele>148.6</ele><time>2026-03-22T07:57:15Z</time></trkpt><trkpt lat="41.22261983999583" lon="14.691902796936581"><ele>147.4</ele><time>2026-03-22T07:57:16Z</time></trkpt><trkpt lat="41.22269188897597" lon="14.691918569179158"><ele>146.2</ele><time>2026-03-22T07:57:17Z</time></trkpt><trkpt lat="41.22280889817269" lon="14.691964558739032"><ele>145.0</ele><time>2026-03-22T07:57:19Z</time></trkpt><trkpt lat="41.222872694993725" lon="14.69199588660303"><ele>146.66666666666669</ele><time>2026-03-22T07:57:20Z</time></trkpt><trkpt lat="41.22294303934578" lon="14.692011919711812"><ele>148.33333333333334</ele><time>2026-03-22T07:57:21Z</time></trkpt><trkpt lat="41.223011527709765" lon="14.692036359067668"><ele>150.0</ele><time>2026-03-22T07:57:22Z</time></trkpt><trkpt lat="41.223078995895655" lon="14.692055065221185"><ele>151.66666666666666</ele><time>2026-03-22T07:57:23Z</time></trkpt><trkpt lat="41.22314618270242" lon="14.692070435130214"><ele>153.33333333333331</ele><time>2026-03-22T07:57:24Z</time></trkpt><trkpt lat="41.22321412406929" lon="14.692116619716098"><ele>155.0</ele><time>2026-03-22T07:57:25Z</time></trkpt><trkpt lat="41.22332648729127" lon="14.692177410083849"><ele>155.0</ele><time>2026-03-22T07:57:27Z</time></trkpt><trkpt lat="41.22347235970925" lon="14.692210484337197"><ele>155.0</ele><time>2026-03-22T07:57:29Z</time></trkpt><trkpt lat="41.223508977461414" lon="14.692282192426617"><ele>155.0</ele><time>2026-03-22T07:57:30Z</time></trkpt><trkpt lat="41.22355207009404" lon="14.692392644156987"><ele>155.0</ele><time>2026-03-22T07:57:32Z</time></trkpt><trkpt lat="41.22358707071904" lon="14.692482354091489"><ele>155.0</ele><time>2026-03-22T07:57:33Z</time></trkpt><trkpt lat="41.223623083926526" lon="14.692574659352674"><ele>155.0</ele><time>2026-03-22T07:57:34Z</time></trkpt><trkpt lat="41.22365652322059" lon="14.692660367441967"><ele>155.0</ele><time>2026-03-22T07:57:35Z</time></trkpt><trkpt lat="41.22344466930099" lon="14.692921206873468"><ele>155.0</ele><time>2026-03-22T07:57:36Z</time></trkpt><trkpt lat="41.22343780898414" lon="14.693032069144925"><ele>155.0</ele><time>2026-03-22T07:57:37Z</time></trkpt><trkpt lat="41.22342443296534" lon="14.693134997622915"><ele>158.0</ele><time>2026-03-22T07:57:38Z</time></trkpt><trkpt lat="41.22342431216718" lon="14.693234841076148"><ele>161.0</ele><time>2026-03-22T07:57:39Z</time></trkpt><trkpt lat="41.22342913474986" lon="14.693330241964446"><ele>164.0</ele><time>2026-03-22T07:57:40Z</time></trkpt><trkpt lat="41.223456705349555" lon="14.693420000961508"><ele>167.0</ele><time>2026-03-22T07:57:41Z</time></trkpt><trkpt lat="41.22350188569225" lon="14.69350012682511"><ele>170.0</ele><time>2026-03-22T07:57:42Z</time></trkpt><trkpt lat="41.22350709115939" lon="14.693666522164317"><ele>173.0</ele><time>2026-03-22T07:57:44Z</time></trkpt><trkpt lat="41.223484602245364" lon="14.693792785048773"><ele>176.4</ele><time>2026-03-22T07:57:46Z</time></trkpt><trkpt lat="41.22349106147162" lon="14.693895421684024"><ele>179.8</ele><time>2026-03-22T07:57:48Z</time></trkpt><trkpt lat="41.22353527028652" lon="14.693979079249697"><ele>183.2</ele><time>2026-03-22T07:57:50Z</time></trkpt><trkpt lat="41.22360715063316" lon="14.694032147666654"><ele>186.6</ele><time>2026-03-22T07:57:52Z</time></trkpt><trkpt lat="41.223675096700234" lon="14.694134603079496"><ele>190.0</ele><time>2026-03-22T07:57:54Z</time></trkpt><trkpt lat="41.22378423213198" lon="14.69420079660374"><ele>190.0</ele><time>2026-03-22T07:57:56Z</time></trkpt><trkpt lat="41.223860985643825" lon="14.694200852957293"><ele>190.0</ele><time>2026-03-22T07:57:57Z</time></trkpt><trkpt lat="41.223945648770005" lon="14.694200032450048"><ele>190.0</ele><time>2026-03-22T07:57:58Z</time></trkpt><trkpt lat="41.22401343147051" lon="14.694212812604896"><ele>190.0</ele><time>2026-03-22T07:57:59Z</time></trkpt><trkpt lat="41.224125055406034" lon="14.694203001166436"><ele>190.0</ele><time>2026-03-22T07:58:01Z</time></trkpt><trkpt lat="41.22423740141771" lon="14.69421242845768"><ele>191.2</ele><time>2026-03-22T07:58:03Z</time></trkpt><trkpt lat="41.22435697099913" lon="14.694246551247899"><ele>192.4</ele><time>2026-03-22T07:58:05Z</time></trkpt><trkpt lat="41.22448148989298" lon="14.694249947086979"><ele>193.60000000000002</ele><time>2026-03-22T07:58:07Z</time></trkpt><trkpt lat="41.22456515656899" lon="14.694310492404519"><ele>194.8</ele><time>2026-03-22T07:58:09Z</time></trkpt><trkpt lat="41.224580313307094" lon="14.69444181781942"><ele>196.0</ele><time>2026-03-22T07:58:11Z</time></trkpt><trkpt lat="41.224589186069394" lon="14.694534375419149"><ele>195.99999999999997</ele><time>2026-03-22T07:58:12Z</time></trkpt><trkpt lat="41.224611981309586" lon="14.694663132086577"><ele>196.0</ele><time>2026-03-22T07:58:13Z</time></trkpt><trkpt lat="41.22462494498585" lon="14.694772608984017"><ele>196.0</ele><time>2026-03-22T07:58:14Z</time></trkpt><trkpt lat="41.22462961122298" lon="14.694869737549313"><ele>196.0</ele><time>2026-03-22T07:58:15Z</time></trkpt><trkpt lat="41.22464333480874" lon="14.694965545979255"><ele>195.99999999999997</ele><time>2026-03-22T07:58:16Z</time></trkpt><trkpt lat="41.22464278052585" lon="14.695065497255563"><ele>196.0</ele><time>2026-03-22T07:58:17Z</time></trkpt><trkpt lat="41.22464900971012" lon="14.695156618889557"><ele>198.20000000000002</ele><time>2026-03-22T07:58:18Z</time></trkpt><trkpt lat="41.22465894076908" lon="14.69531467606072"><ele>200.4</ele><time>2026-03-22T07:58:20Z</time></trkpt><trkpt lat="41.224657862265644" lon="14.695467530822647"><ele>202.6</ele><time>2026-03-22T07:58:22Z</time></trkpt><trkpt lat="41.224665779468786" lon="14.695558527191434"><ele>204.8</ele><time>2026-03-22T07:58:23Z</time></trkpt><trkpt lat="41.22467657465726" lon="14.69564762167521"><ele>207.0</ele><time>2026-03-22T07:58:24Z</time></trkpt><trkpt lat="41.224682211106206" lon="14.695780267419222"><ele>207.0</ele><time>2026-03-22T07:58:26Z</time></trkpt><trkpt lat="41.2247220960764" lon="14.695850210509603"><ele>207.0</ele><time>2026-03-22T07:58:28Z</time></trkpt><trkpt lat="41.22480038270165" lon="14.695843099239065"><ele>207.0</ele><time>2026-03-22T07:58:28.999Z</time></trkpt><trkpt lat="41.22491308910153" lon="14.695790160273496"><ele>207.0</ele><time>2026-03-22T07:58:29.999Z</time></trkpt><trkpt lat="41.22505665271327" lon="14.695762442712672"><ele>207.0</ele><time>2026-03-22T07:58:30.999Z</time></trkpt><trkpt lat="41.225168406097154" lon="14.695715776686887"><ele>206.8</ele><time>2026-03-22T07:58:31.999Z</time></trkpt><trkpt lat="41.225260585038264" lon="14.695713897441122"><ele>206.6</ele><time>2026-03-22T07:58:32.999Z</time></trkpt><trkpt lat="41.225339170233504" lon="14.695701089810054"><ele>206.4</ele><time>2026-03-22T07:58:33.999Z</time></trkpt><trkpt lat="41.22541912432913" lon="14.695681424275783"><ele>206.20000000000002</ele><time>2026-03-22T07:58:34.999Z</time></trkpt><trkpt lat="41.22551024880103" lon="14.695662484422144"><ele>206.0</ele><time>2026-03-22T07:58:35.999Z</time></trkpt><trkpt lat="41.22561709961597" lon="14.695644747795516"><ele>206.0</ele><time>2026-03-22T07:58:36.999Z</time></trkpt><trkpt lat="41.22573861712763" lon="14.69564399515905"><ele>206.0</ele><time>2026-03-22T07:58:37.999Z</time></trkpt><trkpt lat="41.225872114504476" lon="14.695657376336596"><ele>206.0</ele><time>2026-03-22T07:58:38.999Z</time></trkpt><trkpt lat="41.22600392725998" lon="14.695671796826367"><ele>206.0</ele><time>2026-03-22T07:58:39.999Z</time></trkpt><trkpt lat="41.226126314077945" lon="14.695688038013968"><ele>206.0</ele><time>2026-03-22T07:58:40.999Z</time></trkpt><trkpt lat="41.226251494642334" lon="14.695702194926932"><ele>206.0</ele><time>2026-03-22T07:58:41.999Z</time></trkpt><trkpt lat="41.22638591198867" lon="14.695716660962068"><ele>206.0</ele><time>2026-03-22T07:58:42.999Z</time></trkpt><trkpt lat="41.22650872373754" lon="14.695738664741969"><ele>206.0</ele><time>2026-03-22T07:58:43.999Z</time></trkpt><trkpt lat="41.22662273033361" lon="14.695762423595754"><ele>205.0</ele><time>2026-03-22T07:58:44.999Z</time></trkpt><trkpt lat="41.22674602120583" lon="14.69577211532053"><ele>204.0</ele><time>2026-03-22T07:58:45.999Z</time></trkpt><trkpt lat="41.22687714502445" lon="14.695767568901287"><ele>203.0</ele><time>2026-03-22T07:58:46.999Z</time></trkpt><trkpt lat="41.2270081578806" lon="14.695761114002924"><ele>202.0</ele><time>2026-03-22T07:58:47.999Z</time></trkpt><trkpt lat="41.22713402796297" lon="14.695672272610969"><ele>202.0</ele><time>2026-03-22T07:58:48.999Z</time></trkpt><trkpt lat="41.22725206626142" lon="14.695580586992186"><ele>202.0</ele><time>2026-03-22T07:58:49.999Z</time></trkpt><trkpt lat="41.22738358968884" lon="14.695512968851402"><ele>202.0</ele><time>2026-03-22T07:58:50.999Z</time></trkpt><trkpt lat="41.22749865113424" lon="14.695437721663309"><ele>202.0</ele><time>2026-03-22T07:58:51.999Z</time></trkpt><trkpt lat="41.227607052472436" lon="14.695356197141063"><ele>199.5</ele><time>2026-03-22T07:58:52.999Z</time></trkpt><trkpt lat="41.22771316730238" lon="14.69525217609667"><ele>197.0</ele><time>2026-03-22T07:58:53.999Z</time></trkpt><trkpt lat="41.22782614900598" lon="14.69516742511857"><ele>194.5</ele><time>2026-03-22T07:58:54.999Z</time></trkpt><trkpt lat="41.22793273718846" lon="14.695082714964146"><ele>192.0</ele><time>2026-03-22T07:58:55.999Z</time></trkpt><trkpt lat="41.22803016752777" lon="14.695010754044308"><ele>192.0</ele><time>2026-03-22T07:58:56.999Z</time></trkpt><trkpt lat="41.22813492072554" lon="14.694991650691708"><ele>192.0</ele><time>2026-03-22T07:58:57.999Z</time></trkpt><trkpt lat="41.228246229987455" lon="14.695003661375488"><ele>192.0</ele><time>2026-03-22T07:58:58.999Z</time></trkpt><trkpt lat="41.22837268052827" lon="14.695019241979566"><ele>192.0</ele><time>2026-03-22T07:58:59.998Z</time></trkpt><trkpt lat="41.228517123321694" lon="14.69503239358675"><ele>192.25</ele><time>2026-03-22T07:59:00.998Z</time></trkpt><trkpt lat="41.22865453054941" lon="14.695066910192338"><ele>192.5</ele><time>2026-03-22T07:59:01.998Z</time></trkpt><trkpt lat="41.22878546670449" lon="14.69509916359671"><ele>192.75</ele><time>2026-03-22T07:59:02.998Z</time></trkpt><trkpt lat="41.2289170107635" lon="14.695134388501256"><ele>193.0</ele><time>2026-03-22T07:59:03.998Z</time></trkpt><trkpt lat="41.22905172747114" lon="14.695165774869478"><ele>190.25</ele><time>2026-03-22T07:59:04.998Z</time></trkpt><trkpt lat="41.22916994963341" lon="14.695192200678148"><ele>187.5</ele><time>2026-03-22T07:59:05.998Z</time></trkpt><trkpt lat="41.22929561421248" lon="14.69521244385925"><ele>184.75</ele><time>2026-03-22T07:59:06.998Z</time></trkpt><trkpt lat="41.229403320170725" lon="14.695239233871678"><ele>182.0</ele><time>2026-03-22T07:59:07.998Z</time></trkpt><trkpt lat="41.229504401410445" lon="14.695230027865703"><ele>182.0</ele><time>2026-03-22T07:59:08.998Z</time></trkpt><trkpt lat="41.22960082748036" lon="14.695174059366373"><ele>182.0</ele><time>2026-03-22T07:59:09.998Z</time></trkpt><trkpt lat="41.22971819187609" lon="14.695085773123237"><ele>182.0</ele><time>2026-03-22T07:59:10.999Z</time></trkpt><trkpt lat="41.2298312507219" lon="14.695020715792706"><ele>182.0</ele><time>2026-03-22T07:59:11.999Z</time></trkpt><trkpt lat="41.229924246250995" lon="14.694964112225312"><ele>182.25</ele><time>2026-03-22T07:59:12.999Z</time></trkpt><trkpt lat="41.23005254752564" lon="14.694891445273626"><ele>182.5</ele><time>2026-03-22T07:59:13.999Z</time></trkpt><trkpt lat="41.230181790476166" lon="14.694813401922714"><ele>182.75</ele><time>2026-03-22T07:59:14.999Z</time></trkpt><trkpt lat="41.23031333705171" lon="14.694740107117116"><ele>183.0</ele><time>2026-03-22T07:59:15.999Z</time></trkpt><trkpt lat="41.230449459982815" lon="14.694657076956183"><ele>183.0</ele><time>2026-03-22T07:59:16.999Z</time></trkpt><trkpt lat="41.23057796444165" lon="14.69456950138339"><ele>183.0</ele><time>2026-03-22T07:59:17.999Z</time></trkpt><trkpt lat="41.23071091464823" lon="14.694487545867162"><ele>183.0</ele><time>2026-03-22T07:59:18.999Z</time></trkpt><trkpt lat="41.23083663556172" lon="14.694413746180942"><ele>183.0</ele><time>2026-03-22T07:59:19.999Z</time></trkpt><trkpt lat="41.23096367840821" lon="14.694339749830721"><ele>180.5</ele><time>2026-03-22T07:59:20.999Z</time></trkpt><trkpt lat="41.231084341717185" lon="14.694278286925707"><ele>178.0</ele><time>2026-03-22T07:59:21.999Z</time></trkpt><trkpt lat="41.231210419344094" lon="14.694239075248248"><ele>175.5</ele><time>2026-03-22T07:59:22.999Z</time></trkpt><trkpt lat="41.23135862605116" lon="14.694254934695069"><ele>173.0</ele><time>2026-03-22T07:59:23.999Z</time></trkpt><trkpt lat="41.23148929988383" lon="14.69434870145936"><ele>175.5</ele><time>2026-03-22T07:59:24.999Z</time></trkpt><trkpt lat="41.23160960039699" lon="14.694424465028114"><ele>178.0</ele><time>2026-03-22T07:59:25.999Z</time></trkpt><trkpt lat="41.231730574708365" lon="14.694480301476862"><ele>180.5</ele><time>2026-03-22T07:59:26.999Z</time></trkpt><trkpt lat="41.23183700701597" lon="14.694536104161076"><ele>183.0</ele><time>2026-03-22T07:59:27.999Z</time></trkpt><trkpt lat="41.231933855707375" lon="14.69458825906109"><ele>183.0</ele><time>2026-03-22T07:59:28.999Z</time></trkpt><trkpt lat="41.232030715234686" lon="14.694574358504838"><ele>183.0</ele><time>2026-03-22T07:59:29.999Z</time></trkpt><trkpt lat="41.23210625067147" lon="14.694519075405982"><ele>183.0</ele><time>2026-03-22T07:59:30.999Z</time></trkpt><trkpt lat="41.23218147049721" lon="14.694407615149673"><ele>183.0</ele><time>2026-03-22T07:59:31.999Z</time></trkpt><trkpt lat="41.23228361047889" lon="14.694315615935613"><ele>183.0</ele><time>2026-03-22T07:59:32.999Z</time></trkpt><trkpt lat="41.23240858161389" lon="14.694271723872255"><ele>181.25</ele><time>2026-03-22T07:59:33.999Z</time></trkpt><trkpt lat="41.232549621227086" lon="14.694232574673055"><ele>179.5</ele><time>2026-03-22T07:59:34.999Z</time></trkpt><trkpt lat="41.23269033281158" lon="14.69419941659144"><ele>177.75</ele><time>2026-03-22T07:59:35.999Z</time></trkpt><trkpt lat="41.23282910950021" lon="14.694163684520978"><ele>176.0</ele><time>2026-03-22T07:59:36.999Z</time></trkpt><trkpt lat="41.23296151491451" lon="14.69412710407187"><ele>176.0</ele><time>2026-03-22T07:59:37.999Z</time></trkpt><trkpt lat="41.23309349198785" lon="14.69409620273999"><ele>176.0</ele><time>2026-03-22T07:59:38.999Z</time></trkpt><trkpt lat="41.23322094421645" lon="14.694071114857987"><ele>176.0</ele><time>2026-03-22T07:59:39.999Z</time></trkpt><trkpt lat="41.23333929335965" lon="14.694031711497674"><ele>176.0</ele><time>2026-03-22T07:59:40.999Z</time></trkpt><trkpt lat="41.23345794375393" lon="14.694011273816214"><ele>176.33333333333331</ele><time>2026-03-22T07:59:41.999Z</time></trkpt><trkpt lat="41.233562281604925" lon="14.693980462868506"><ele>176.66666666666666</ele><time>2026-03-22T07:59:42.999Z</time></trkpt><trkpt lat="41.23365163625747" lon="14.69394539152904"><ele>177.0</ele><time>2026-03-22T07:59:43.999Z</time></trkpt><trkpt lat="41.233737154861565" lon="14.693933256160438"><ele>177.33333333333334</ele><time>2026-03-22T07:59:44.999Z</time></trkpt><trkpt lat="41.23380626405742" lon="14.693887561122581"><ele>177.66666666666669</ele><time>2026-03-22T07:59:45.999Z</time></trkpt><trkpt lat="41.23387249572209" lon="14.693870157543808"><ele>178.0</ele><time>2026-03-22T07:59:46.999Z</time></trkpt><trkpt lat="41.233965886308575" lon="14.693866998395965"><ele>178.0</ele><time>2026-03-22T07:59:48.999Z</time></trkpt><trkpt lat="41.23396069406294" lon="14.69369810556088"><ele>178.0</ele><time>2026-03-22T07:59:49.999Z</time></trkpt><trkpt lat="41.23396556833057" lon="14.693600423947505"><ele>178.0</ele><time>2026-03-22T07:59:50.999Z</time></trkpt><trkpt lat="41.23397513645233" lon="14.693499462313891"><ele>178.0</ele><time>2026-03-22T07:59:51.999Z</time></trkpt><trkpt lat="41.233992625038894" lon="14.693408527129307"><ele>178.0</ele><time>2026-03-22T07:59:52.999Z</time></trkpt><trkpt lat="41.234011015195826" lon="14.693315119703442"><ele>178.0</ele><time>2026-03-22T07:59:53.999Z</time></trkpt><trkpt lat="41.234035609520866" lon="14.693230638279944"><ele>176.60000000000002</ele><time>2026-03-22T07:59:54.999Z</time></trkpt><trkpt lat="41.23407743364359" lon="14.69307745867012"><ele>175.20000000000002</ele><time>2026-03-22T07:59:56.999Z</time></trkpt><trkpt lat="41.23409249705029" lon="14.69299503810056"><ele>173.8</ele><time>2026-03-22T07:59:57.999Z</time></trkpt><trkpt lat="41.234122293172376" lon="14.692875720412314"><ele>172.4</ele><time>2026-03-22T07:59:59.999Z</time></trkpt><trkpt lat="41.234158062444244" lon="14.692765073748694"><ele>171.0</ele><time>2026-03-22T08:00:01.999Z</time></trkpt><trkpt lat="41.23416735331374" lon="14.692620426008785"><ele>170.33333333333334</ele><time>2026-03-22T08:00:03.999Z</time></trkpt><trkpt lat="41.234188041222886" lon="14.692501817907857"><ele>169.66666666666666</ele><time>2026-03-22T08:00:05.999Z</time></trkpt><trkpt lat="41.23422732782305" lon="14.692363876773356"><ele>169.0</ele><time>2026-03-22T08:00:07.999Z</time></trkpt><trkpt lat="41.23425174910312" lon="14.692222424532835"><ele>168.33333333333331</ele><time>2026-03-22T08:00:09.999Z</time></trkpt><trkpt lat="41.234265899211884" lon="14.692140464708155"><ele>167.66666666666666</ele><time>2026-03-22T08:00:10.999Z</time></trkpt><trkpt lat="41.23428032570362" lon="14.692056903948489"><ele>167.0</ele><time>2026-03-22T08:00:11.999Z</time></trkpt><trkpt lat="41.23429446190336" lon="14.691975024649805"><ele>165.83333333333331</ele><time>2026-03-22T08:00:12.999Z</time></trkpt><trkpt lat="41.23430924646942" lon="14.69188799654926"><ele>164.66666666666666</ele><time>2026-03-22T08:00:13.999Z</time></trkpt><trkpt lat="41.234324328883794" lon="14.691796338397335"><ele>163.5</ele><time>2026-03-22T08:00:14.999Z</time></trkpt><trkpt lat="41.23433787055161" lon="14.69171404355074"><ele>162.33333333333334</ele><time>2026-03-22T08:00:15.999Z</time></trkpt><trkpt lat="41.234352715689425" lon="14.691623827360814"><ele>161.16666666666669</ele><time>2026-03-22T08:00:16.999Z</time></trkpt><trkpt lat="41.23436681063111" lon="14.691538170212992"><ele>160.0</ele><time>2026-03-22T08:00:17.999Z</time></trkpt><trkpt lat="41.23439347148588" lon="14.691376148075383"><ele>160.0</ele><time>2026-03-22T08:00:19.999Z</time></trkpt><trkpt lat="41.23440602390245" lon="14.691223087690059"><ele>160.0</ele><time>2026-03-22T08:00:21.999Z</time></trkpt><trkpt lat="41.23444214415652" lon="14.691079388663217"><ele>160.0</ele><time>2026-03-22T08:00:23.999Z</time></trkpt><trkpt lat="41.234464001990524" lon="14.690929805800298"><ele>160.0</ele><time>2026-03-22T08:00:25.999Z</time></trkpt><trkpt lat="41.23447797514364" lon="14.690808360825788"><ele>160.0</ele><time>2026-03-22T08:00:27.999Z</time></trkpt><trkpt lat="41.234492714653165" lon="14.690716922729722"><ele>158.6</ele><time>2026-03-22T08:00:29.999Z</time></trkpt><trkpt lat="41.23461149199647" lon="14.690717646925249"><ele>157.2</ele><time>2026-03-22T08:00:31.999Z</time></trkpt><trkpt lat="41.23468006414079" lon="14.690753710677326"><ele>155.8</ele><time>2026-03-22T08:00:32.999Z</time></trkpt><trkpt lat="41.23474790642518" lon="14.690789380499622"><ele>154.4</ele><time>2026-03-22T08:00:33.999Z</time></trkpt><trkpt lat="41.23486133956184" lon="14.690834846507062"><ele>153.0</ele><time>2026-03-22T08:00:35.999Z</time></trkpt><trkpt lat="41.23496480117638" lon="14.690878849738672"><ele>152.0</ele><time>2026-03-22T08:00:37.999Z</time></trkpt><trkpt lat="41.23507481857841" lon="14.690939095955061"><ele>151.0</ele><time>2026-03-22T08:00:39.999Z</time></trkpt><trkpt lat="41.23515027507899" lon="14.690970738628915"><ele>150.0</ele><time>2026-03-22T08:00:41.998Z</time></trkpt><trkpt lat="41.2352110959887" lon="14.691009043444694"><ele>149.0</ele><time>2026-03-22T08:00:43.998Z</time></trkpt><trkpt lat="41.2352922305741" lon="14.691046481254777"><ele>148.0</ele><time>2026-03-22T08:00:45.998Z</time></trkpt><trkpt lat="41.23538222340397" lon="14.691066543622078"><ele>147.0</ele><time>2026-03-22T08:00:47.998Z</time></trkpt><trkpt lat="41.235473038761576" lon="14.69107178191119"><ele>147.0</ele><time>2026-03-22T08:00:49.998Z</time></trkpt><trkpt lat="41.23556470320764" lon="14.691073149567233"><ele>147.0</ele><time>2026-03-22T08:00:51.998Z</time></trkpt><trkpt lat="41.23565531365992" lon="14.691086814921261"><ele>147.0</ele><time>2026-03-22T08:00:53.998Z</time></trkpt><trkpt lat="41.23574700332641" lon="14.691087729148306"><ele>147.0</ele><time>2026-03-22T08:00:55.998Z</time></trkpt><trkpt lat="41.23581477176512" lon="14.691089062079357"><ele>147.0</ele><time>2026-03-22T08:00:57.998Z</time></trkpt><trkpt lat="41.235900497889155" lon="14.691094502593705"><ele>147.0</ele><time>2026-03-22T08:00:59.998Z</time></trkpt><trkpt lat="41.235982335502435" lon="14.691163076160581"><ele>145.79999999999998</ele><time>2026-03-22T08:01:02.998Z</time></trkpt><trkpt lat="41.23606765350945" lon="14.691212139298223"><ele>144.6</ele><time>2026-03-22T08:01:05.998Z</time></trkpt><trkpt lat="41.23613121420975" lon="14.691264243923854"><ele>143.39999999999998</ele><time>2026-03-22T08:01:07.998Z</time></trkpt><trkpt lat="41.23620154128921" lon="14.69132442055275"><ele>142.2</ele><time>2026-03-22T08:01:09.998Z</time></trkpt><trkpt lat="41.23627735228259" lon="14.691380884330927"><ele>141.0</ele><time>2026-03-22T08:01:11.998Z</time></trkpt><trkpt lat="41.23636685038669" lon="14.69147338003313"><ele>141.0</ele><time>2026-03-22T08:01:13.998Z</time></trkpt><trkpt lat="41.236427546619616" lon="14.691573816098316"><ele>141.0</ele><time>2026-03-22T08:01:15.998Z</time></trkpt><trkpt lat="41.236504504175" lon="14.691656556799758"><ele>141.0</ele><time>2026-03-22T08:01:18Z</time></trkpt><trkpt lat="41.23661282564989" lon="14.691685435506644"><ele>141.0</ele><time>2026-03-22T08:01:20Z</time></trkpt><trkpt lat="41.23667905997862" lon="14.69169705702679"><ele>141.0</ele><time>2026-03-22T08:01:21Z</time></trkpt><trkpt lat="41.23681108090918" lon="14.691744665809638"><ele>139.0</ele><time>2026-03-22T08:01:23Z</time></trkpt><trkpt lat="41.23688119147495" lon="14.691773766266056"><ele>137.0</ele><time>2026-03-22T08:01:24Z</time></trkpt><trkpt lat="41.23699784822294" lon="14.69176460873758"><ele>135.0</ele><time>2026-03-22T08:01:26Z</time></trkpt><trkpt lat="41.237109320441576" lon="14.691709132032484"><ele>133.0</ele><time>2026-03-22T08:01:28Z</time></trkpt><trkpt lat="41.23719005995511" lon="14.691642909781812"><ele>131.0</ele><time>2026-03-22T08:01:30Z</time></trkpt><trkpt lat="41.23723330008813" lon="14.691546907316635"><ele>131.0</ele><time>2026-03-22T08:01:32Z</time></trkpt><trkpt lat="41.23725664055706" lon="14.691451898770005"><ele>131.0</ele><time>2026-03-22T08:01:35Z</time></trkpt><trkpt lat="41.23728487396347" lon="14.691343828798226"><ele>131.0</ele><time>2026-03-22T08:01:37.999Z</time></trkpt><trkpt lat="41.23731806823716" lon="14.69125538593159"><ele>131.0</ele><time>2026-03-22T08:01:40.999Z</time></trkpt><trkpt lat="41.23733557004164" lon="14.691154913944104"><ele>131.0</ele><time>2026-03-22T08:01:43.999Z</time></trkpt><trkpt lat="41.23734695493799" lon="14.69105950780972"><ele>131.0</ele><time>2026-03-22T08:01:45.999Z</time></trkpt><trkpt lat="41.23737905037054" lon="14.690956922146292"><ele>130.5</ele><time>2026-03-22T08:01:47.999Z</time></trkpt><trkpt lat="41.23735933885594" lon="14.690862065906101"><ele>130.0</ele><time>2026-03-22T08:01:50.999Z</time></trkpt><trkpt lat="41.237287187094424" lon="14.690810380808157"><ele>129.5</ele><time>2026-03-22T08:01:52.999Z</time></trkpt><trkpt lat="41.23722380850073" lon="14.690782523211222"><ele>129.0</ele><time>2026-03-22T08:01:54.999Z</time></trkpt><trkpt lat="41.237143369753845" lon="14.69070007824239"><ele>128.5</ele><time>2026-03-22T08:01:56.999Z</time></trkpt><trkpt lat="41.2370603807444" lon="14.690591185523791"><ele>128.0</ele><time>2026-03-22T08:02:12.999Z</time></trkpt><trkpt lat="41.237013665614356" lon="14.690524042851429"><ele>127.80000000000001</ele><time>2026-03-22T08:02:13.999Z</time></trkpt><trkpt lat="41.236959640869586" lon="14.690431859931392"><ele>127.60000000000001</ele><time>2026-03-22T08:02:14.999Z</time></trkpt><trkpt lat="41.23691114612628" lon="14.690367595508205"><ele>127.39999999999999</ele><time>2026-03-22T08:02:15.999Z</time></trkpt><trkpt lat="41.236866662183225" lon="14.690298584334117"><ele>127.19999999999999</ele><time>2026-03-22T08:02:16.999Z</time></trkpt><trkpt lat="41.23678554066387" lon="14.690179334756909"><ele>127.0</ele><time>2026-03-22T08:02:18.999Z</time></trkpt><trkpt lat="41.236728796547816" lon="14.690058799001504"><ele>127.0</ele><time>2026-03-22T08:02:20.999Z</time></trkpt><trkpt lat="41.236727412471566" lon="14.689935021480705"><ele>126.99999999999999</ele><time>2026-03-22T08:02:22.999Z</time></trkpt><trkpt lat="41.236751939739996" lon="14.689817690548745"><ele>126.99999999999999</ele><time>2026-03-22T08:02:24.999Z</time></trkpt><trkpt lat="41.23675664309006" lon="14.689680634499473"><ele>127.0</ele><time>2026-03-22T08:02:26.999Z</time></trkpt><trkpt lat="41.236746841777354" lon="14.68953676944732"><ele>127.0</ele><time>2026-03-22T08:02:28.999Z</time></trkpt><trkpt lat="41.23673590387543" lon="14.689419235439436"><ele>127.0</ele><time>2026-03-22T08:02:30.999Z</time></trkpt><trkpt lat="41.23672448001733" lon="14.68929283699851"><ele>126.99999999999999</ele><time>2026-03-22T08:02:32.999Z</time></trkpt><trkpt lat="41.236753017750516" lon="14.689166078765947"><ele>126.99999999999999</ele><time>2026-03-22T08:02:34.999Z</time></trkpt><trkpt lat="41.236829292769926" lon="14.689045481374688"><ele>127.0</ele><time>2026-03-22T08:02:36.999Z</time></trkpt><trkpt lat="41.236909666039814" lon="14.688917845980455"><ele>127.0</ele><time>2026-03-22T08:02:38.999Z</time></trkpt><trkpt lat="41.236980980765104" lon="14.688772160238482"><ele>127.00000000000001</ele><time>2026-03-22T08:02:40.999Z</time></trkpt><trkpt lat="41.23702173732841" lon="14.688695496874773"><ele>127.0</ele><time>2026-03-22T08:02:41.999Z</time></trkpt><trkpt lat="41.237063054925784" lon="14.688625442806599"><ele>127.0</ele><time>2026-03-22T08:02:42.999Z</time></trkpt><trkpt lat="41.23710006390178" lon="14.688489919361691"><ele>127.0</ele><time>2026-03-22T08:02:44.999Z</time></trkpt><trkpt lat="41.2371001857166" lon="14.688358948850812"><ele>127.00000000000001</ele><time>2026-03-22T08:02:46.999Z</time></trkpt><trkpt lat="41.23711066415706" lon="14.688223966738233"><ele>127.0</ele><time>2026-03-22T08:02:48.999Z</time></trkpt><trkpt lat="41.237155345533345" lon="14.688098937809677"><ele>127.66666666666667</ele><time>2026-03-22T08:02:50.998Z</time></trkpt><trkpt lat="41.237209633981216" lon="14.688007522533692"><ele>128.33333333333334</ele><time>2026-03-22T08:02:52.998Z</time></trkpt><trkpt lat="41.23725611894438" lon="14.687902558867284"><ele>129.0</ele><time>2026-03-22T08:02:54.998Z</time></trkpt><trkpt lat="41.237297039779676" lon="14.68779323198186"><ele>129.66666666666666</ele><time>2026-03-22T08:02:56.998Z</time></trkpt><trkpt lat="41.23729468609359" lon="14.687692792071116"><ele>130.33333333333331</ele><time>2026-03-22T08:02:59.998Z</time></trkpt><trkpt lat="41.23729738676947" lon="14.68755902276271"><ele>131.0</ele><time>2026-03-22T08:03:00.998Z</time></trkpt><trkpt lat="41.23730900486545" lon="14.68742438431627"><ele>132.33333333333331</ele><time>2026-03-22T08:03:02.998Z</time></trkpt><trkpt lat="41.237304350652074" lon="14.68730764163735"><ele>133.66666666666666</ele><time>2026-03-22T08:03:04.998Z</time></trkpt><trkpt lat="41.23729818953529" lon="14.687186495882308"><ele>135.0</ele><time>2026-03-22T08:03:06.998Z</time></trkpt><trkpt lat="41.23726953659987" lon="14.687068216189301"><ele>136.33333333333334</ele><time>2026-03-22T08:03:08.998Z</time></trkpt><trkpt lat="41.23723159457248" lon="14.686977429116533"><ele>137.66666666666669</ele><time>2026-03-22T08:03:10.998Z</time></trkpt><trkpt lat="41.237179037556054" lon="14.686869231200319"><ele>139.0</ele><time>2026-03-22T08:03:12.998Z</time></trkpt><trkpt lat="41.237164971619755" lon="14.686773104652717"><ele>140.33333333333334</ele><time>2026-03-22T08:03:14.998Z</time></trkpt><trkpt lat="41.237145850642015" lon="14.686675533984522"><ele>141.66666666666669</ele><time>2026-03-22T08:03:16.998Z</time></trkpt><trkpt lat="41.237229458023684" lon="14.686606367304222"><ele>143.0</ele><time>2026-03-22T08:03:18.998Z</time></trkpt><trkpt lat="41.23727844837517" lon="14.686540468589838"><ele>144.33333333333334</ele><time>2026-03-22T08:03:19.998Z</time></trkpt><trkpt lat="41.2372865328133" lon="14.686453468490043"><ele>145.66666666666666</ele><time>2026-03-22T08:03:20.998Z</time></trkpt><trkpt lat="41.23735915115472" lon="14.68635637071897"><ele>147.0</ele><time>2026-03-22T08:03:23Z</time></trkpt><trkpt lat="41.23742118939571" lon="14.686266079409764"><ele>149.4</ele><time>2026-03-22T08:03:25Z</time></trkpt><trkpt lat="41.23747872859942" lon="14.68612836944294"><ele>151.79999999999998</ele><time>2026-03-22T08:03:27Z</time></trkpt><trkpt lat="41.237522230691205" lon="14.686058963415862"><ele>154.2</ele><time>2026-03-22T08:03:28Z</time></trkpt><trkpt lat="41.23759592010108" lon="14.685939767151542"><ele>156.6</ele><time>2026-03-22T08:03:30Z</time></trkpt><trkpt lat="41.23767217389735" lon="14.685803965625803"><ele>159.0</ele><time>2026-03-22T08:03:32Z</time></trkpt><trkpt lat="41.23771121713737" lon="14.685729371287708"><ele>160.0</ele><time>2026-03-22T08:03:33Z</time></trkpt><trkpt lat="41.23775284349703" lon="14.685649518204519"><ele>161.0</ele><time>2026-03-22T08:03:34Z</time></trkpt><trkpt lat="41.23779193414926" lon="14.685575455068047"><ele>162.0</ele><time>2026-03-22T08:03:35Z</time></trkpt><trkpt lat="41.23783220559846" lon="14.685495494805133"><ele>163.0</ele><time>2026-03-22T08:03:36Z</time></trkpt><trkpt lat="41.2378841449272" lon="14.685375786706524"><ele>164.0</ele><time>2026-03-22T08:03:38Z</time></trkpt><trkpt lat="41.237883823778404" lon="14.685253131097252"><ele>165.0</ele><time>2026-03-22T08:03:40Z</time></trkpt><trkpt lat="41.23786235170223" lon="14.685134020506824"><ele>166.4</ele><time>2026-03-22T08:03:42Z</time></trkpt><trkpt lat="41.237892251942604" lon="14.685005490131221"><ele>167.8</ele><time>2026-03-22T08:03:44Z</time></trkpt><trkpt lat="41.23793551662567" lon="14.684917012069047"><ele>169.2</ele><time>2026-03-22T08:03:46Z</time></trkpt><trkpt lat="41.23801390032826" lon="14.68475784242916"><ele>170.6</ele><time>2026-03-22T08:03:47.999Z</time></trkpt><trkpt lat="41.238078899601064" lon="14.684629386640013"><ele>172.0</ele><time>2026-03-22T08:03:49.999Z</time></trkpt><trkpt lat="41.238141192991144" lon="14.684512022392228"><ele>176.0</ele><time>2026-03-22T08:03:51.999Z</time></trkpt><trkpt lat="41.23819356925045" lon="14.684403139246204"><ele>180.0</ele><time>2026-03-22T08:03:53.999Z</time></trkpt><trkpt lat="41.238244586781256" lon="14.684280868869347"><ele>184.0</ele><time>2026-03-22T08:03:55.999Z</time></trkpt><trkpt lat="41.23830227255546" lon="14.68422317035791"><ele>188.0</ele><time>2026-03-22T08:03:57.999Z</time></trkpt><trkpt lat="41.238363678310904" lon="14.684246929788959"><ele>192.0</ele><time>2026-03-22T08:04:00.999Z</time></trkpt><trkpt lat="41.238533347726644" lon="14.684358751522941"><ele>192.0</ele><time>2026-03-22T08:04:04.999Z</time></trkpt><trkpt lat="41.23858784911098" lon="14.684415065056534"><ele>192.0</ele><time>2026-03-22T08:04:05.999Z</time></trkpt><trkpt lat="41.238675265951755" lon="14.684522553771135"><ele>192.0</ele><time>2026-03-22T08:04:06.999Z</time></trkpt><trkpt lat="41.23875509654029" lon="14.6846182842543"><ele>192.0</ele><time>2026-03-22T08:04:07.999Z</time></trkpt><trkpt lat="41.2388229488131" lon="14.684710169254462"><ele>192.0</ele><time>2026-03-22T08:04:08.999Z</time></trkpt><trkpt lat="41.23889285959281" lon="14.684847070847773"><ele>191.0</ele><time>2026-03-22T08:04:09.999Z</time></trkpt><trkpt lat="41.23896365071583" lon="14.684989517287608"><ele>190.0</ele><time>2026-03-22T08:04:10.999Z</time></trkpt><trkpt lat="41.239039057147316" lon="14.685122685023467"><ele>189.0</ele><time>2026-03-22T08:04:11.999Z</time></trkpt><trkpt lat="41.23911203913567" lon="14.685238354274968"><ele>188.0</ele><time>2026-03-22T08:04:12.999Z</time></trkpt><trkpt lat="41.239187523918474" lon="14.685325756652043"><ele>188.0</ele><time>2026-03-22T08:04:13.999Z</time></trkpt><trkpt lat="41.239287063760734" lon="14.685380597473"><ele>188.0</ele><time>2026-03-22T08:04:14.999Z</time></trkpt><trkpt lat="41.23937178370589" lon="14.685446164555596"><ele>188.0</ele><time>2026-03-22T08:04:15.999Z</time></trkpt><trkpt lat="41.23948178489779" lon="14.68549146217651"><ele>188.0</ele><time>2026-03-22T08:04:16.999Z</time></trkpt><trkpt lat="41.23959149081812" lon="14.685528301098046"><ele>188.0</ele><time>2026-03-22T08:04:17.999Z</time></trkpt><trkpt lat="41.23971600188092" lon="14.685542722773407"><ele>188.5</ele><time>2026-03-22T08:04:18.999Z</time></trkpt><trkpt lat="41.23986302829613" lon="14.68529077178294"><ele>189.0</ele><time>2026-03-22T08:04:19.999Z</time></trkpt><trkpt lat="41.240022865901985" lon="14.685035749468536"><ele>193.66666666666669</ele><time>2026-03-22T08:04:20.999Z</time></trkpt><trkpt lat="41.24016444554752" lon="14.684887674756935"><ele>198.33333333333334</ele><time>2026-03-22T08:04:21.999Z</time></trkpt><trkpt lat="41.24029715800348" lon="14.684689800934269"><ele>203.0</ele><time>2026-03-22T08:04:22.999Z</time></trkpt><trkpt lat="41.24039562280618" lon="14.68459508356648"><ele>203.0</ele><time>2026-03-22T08:04:23.999Z</time></trkpt><trkpt lat="41.240498348819585" lon="14.684491953797734"><ele>203.0</ele><time>2026-03-22T08:04:24.999Z</time></trkpt><trkpt lat="41.24060265652301" lon="14.68438657020153"><ele>203.0</ele><time>2026-03-22T08:04:25.999Z</time></trkpt><trkpt lat="41.24069973510789" lon="14.684289673358876"><ele>203.0</ele><time>2026-03-22T08:04:26.999Z</time></trkpt><trkpt lat="41.24081323375195" lon="14.684266006596273"><ele>206.0</ele><time>2026-03-22T08:04:27.999Z</time></trkpt><trkpt lat="41.24091614358186" lon="14.684272368342286"><ele>209.0</ele><time>2026-03-22T08:04:28.999Z</time></trkpt><trkpt lat="41.24102346197763" lon="14.684292983448413"><ele>212.0</ele><time>2026-03-22T08:04:29.999Z</time></trkpt><trkpt lat="41.24115147836085" lon="14.684324445038481"><ele>215.0</ele><time>2026-03-22T08:04:30.999Z</time></trkpt><trkpt lat="41.241288653668114" lon="14.684356196001318"><ele>215.0</ele><time>2026-03-22T08:04:31.999Z</time></trkpt><trkpt lat="41.241435838581594" lon="14.684351008895833"><ele>215.0</ele><time>2026-03-22T08:04:32.999Z</time></trkpt><trkpt lat="41.24155989533234" lon="14.684373359114861"><ele>215.0</ele><time>2026-03-22T08:04:33.999Z</time></trkpt><trkpt lat="41.241662715976496" lon="14.684397552824976"><ele>215.0</ele><time>2026-03-22T08:04:34.999Z</time></trkpt><trkpt lat="41.24176913628896" lon="14.684424170258463"><ele>213.5</ele><time>2026-03-22T08:04:35.999Z</time></trkpt><trkpt lat="41.24188644348162" lon="14.684440918801323"><ele>212.0</ele><time>2026-03-22T08:04:36.999Z</time></trkpt><trkpt lat="41.24201630610437" lon="14.684432613682008"><ele>210.5</ele><time>2026-03-22T08:04:37.999Z</time></trkpt><trkpt lat="41.2421568322173" lon="14.684370133463789"><ele>209.0</ele><time>2026-03-22T08:04:38.999Z</time></trkpt><trkpt lat="41.24228639688952" lon="14.684312006774828"><ele>213.0</ele><time>2026-03-22T08:04:39.999Z</time></trkpt><trkpt lat="41.24241454375248" lon="14.684246022812866"><ele>217.0</ele><time>2026-03-22T08:04:40.999Z</time></trkpt><trkpt lat="41.24254367820034" lon="14.684208559628201"><ele>221.0</ele><time>2026-03-22T08:04:41.999Z</time></trkpt><trkpt lat="41.24266697926894" lon="14.684145356921748"><ele>225.0</ele><time>2026-03-22T08:04:42.999Z</time></trkpt><trkpt lat="41.242780665010166" lon="14.684057216882273"><ele>225.0</ele><time>2026-03-22T08:04:43.999Z</time></trkpt><trkpt lat="41.242902966412515" lon="14.684004270281521"><ele>225.0</ele><time>2026-03-22T08:04:44.999Z</time></trkpt><trkpt lat="41.24301244231131" lon="14.683936327125858"><ele>225.0</ele><time>2026-03-22T08:04:45.999Z</time></trkpt><trkpt lat="41.243125477353324" lon="14.683871067285112"><ele>225.0</ele><time>2026-03-22T08:04:46.999Z</time></trkpt><trkpt lat="41.2432393868485" lon="14.683812457553051"><ele>225.5</ele><time>2026-03-22T08:04:47.999Z</time></trkpt><trkpt lat="41.243359269505305" lon="14.68377064886739"><ele>226.0</ele><time>2026-03-22T08:04:48.999Z</time></trkpt><trkpt lat="41.243487351576235" lon="14.68373210103936"><ele>226.5</ele><time>2026-03-22T08:04:49.999Z</time></trkpt><trkpt lat="41.24361585669764" lon="14.683691369764787"><ele>227.0</ele><time>2026-03-22T08:04:50.999Z</time></trkpt><trkpt lat="41.243747363318725" lon="14.683647791249557"><ele>229.25</ele><time>2026-03-22T08:04:51.999Z</time></trkpt><trkpt lat="41.24387051486537" lon="14.683590945278512"><ele>231.5</ele><time>2026-03-22T08:04:52.999Z</time></trkpt><trkpt lat="41.24398102757804" lon="14.683522235268056"><ele>233.75</ele><time>2026-03-22T08:04:53.999Z</time></trkpt><trkpt lat="41.244087984347175" lon="14.683445718438417"><ele>236.0</ele><time>2026-03-22T08:04:54.999Z</time></trkpt><trkpt lat="41.24419256558995" lon="14.683369485868228"><ele>236.5</ele><time>2026-03-22T08:04:55.999Z</time></trkpt><trkpt lat="41.24430142051566" lon="14.68329927940907"><ele>237.0</ele><time>2026-03-22T08:04:56.999Z</time></trkpt><trkpt lat="41.24441953750524" lon="14.683273188607442"><ele>237.5</ele><time>2026-03-22T08:04:57.999Z</time></trkpt><trkpt lat="41.24454498679228" lon="14.683268390883478"><ele>238.0</ele><time>2026-03-22T08:04:58.999Z</time></trkpt><trkpt lat="41.24466821523166" lon="14.683272084322905"><ele>239.0</ele><time>2026-03-22T08:04:59.999Z</time></trkpt><trkpt lat="41.244801136844494" lon="14.683280491364004"><ele>240.0</ele><time>2026-03-22T08:05:00.999Z</time></trkpt><trkpt lat="41.24492792189215" lon="14.683289249538463"><ele>241.0</ele><time>2026-03-22T08:05:01.999Z</time></trkpt><trkpt lat="41.2450469983065" lon="14.683297992864118"><ele>242.0</ele><time>2026-03-22T08:05:02.998Z</time></trkpt><trkpt lat="41.24516578319921" lon="14.683307177260616"><ele>242.0</ele><time>2026-03-22T08:05:03.998Z</time></trkpt><trkpt lat="41.24528822800894" lon="14.683316644639504"><ele>242.0</ele><time>2026-03-22T08:05:04.998Z</time></trkpt><trkpt lat="41.24541590213705" lon="14.683323008534797"><ele>242.0</ele><time>2026-03-22T08:05:05.998Z</time></trkpt><trkpt lat="41.24554889837432" lon="14.683328707025057"><ele>242.0</ele><time>2026-03-22T08:05:06.998Z</time></trkpt><trkpt lat="41.24567609421674" lon="14.68334094469893"><ele>242.5</ele><time>2026-03-22T08:05:07.998Z</time></trkpt><trkpt lat="41.24578484955601" lon="14.683372640147404"><ele>243.0</ele><time>2026-03-22T08:05:08.998Z</time></trkpt><trkpt lat="41.24589583207391" lon="14.683419639065317"><ele>243.5</ele><time>2026-03-22T08:05:09.998Z</time></trkpt><trkpt lat="41.24600443536593" lon="14.6835009825233"><ele>244.0</ele><time>2026-03-22T08:05:10.998Z</time></trkpt><trkpt lat="41.246116364768575" lon="14.683623021798983"><ele>244.0</ele><time>2026-03-22T08:05:11.998Z</time></trkpt><trkpt lat="41.24622311863348" lon="14.683761460461103"><ele>244.0</ele><time>2026-03-22T08:05:12.998Z</time></trkpt><trkpt lat="41.246293533730075" lon="14.683910906852292"><ele>244.0</ele><time>2026-03-22T08:05:13.998Z</time></trkpt><trkpt lat="41.24635628481272" lon="14.684078045826185"><ele>244.0</ele><time>2026-03-22T08:05:14.998Z</time></trkpt><trkpt lat="41.246413794348435" lon="14.68425429390726"><ele>245.25</ele><time>2026-03-22T08:05:15.998Z</time></trkpt><trkpt lat="41.246475778010975" lon="14.684426635186712"><ele>246.5</ele><time>2026-03-22T08:05:16.998Z</time></trkpt><trkpt lat="41.24653946633984" lon="14.684596319708332"><ele>247.75</ele><time>2026-03-22T08:05:17.998Z</time></trkpt><trkpt lat="41.24662870658407" lon="14.684748018574243"><ele>249.0</ele><time>2026-03-22T08:05:18.998Z</time></trkpt><trkpt lat="41.246734226566005" lon="14.684877082931674"><ele>249.0</ele><time>2026-03-22T08:05:19.998Z</time></trkpt><trkpt lat="41.24685184108905" lon="14.684988357410443"><ele>249.0</ele><time>2026-03-22T08:05:20.998Z</time></trkpt><trkpt lat="41.24696750370744" lon="14.685091759306307"><ele>249.0</ele><time>2026-03-22T08:05:21.998Z</time></trkpt><trkpt lat="41.24708392373645" lon="14.68520441034913"><ele>249.0</ele><time>2026-03-22T08:05:22.998Z</time></trkpt><trkpt lat="41.2471799722986" lon="14.685340326570431"><ele>249.0</ele><time>2026-03-22T08:05:23.998Z</time></trkpt><trkpt lat="41.247288331633214" lon="14.68546429431851"><ele>249.0</ele><time>2026-03-22T08:05:24.998Z</time></trkpt><trkpt lat="41.247387999864074" lon="14.68556785765515"><ele>249.0</ele><time>2026-03-22T08:05:25.998Z</time></trkpt><trkpt lat="41.24748457795847" lon="14.685656918055589"><ele>249.0</ele><time>2026-03-22T08:05:26.998Z</time></trkpt><trkpt lat="41.24758261871285" lon="14.685747688521625"><ele>249.0</ele><time>2026-03-22T08:05:28Z</time></trkpt><trkpt lat="41.24766808562094" lon="14.685832720685625"><ele>248.99999999999997</ele><time>2026-03-22T08:05:29Z</time></trkpt><trkpt lat="41.247735146452094" lon="14.685928864027813"><ele>248.99999999999997</ele><time>2026-03-22T08:05:30Z</time></trkpt><trkpt lat="41.247761393533736" lon="14.686054297927967"><ele>249.0</ele><time>2026-03-22T08:05:31Z</time></trkpt><trkpt lat="41.24776424489325" lon="14.686207851277002"><ele>249.0</ele><time>2026-03-22T08:05:32Z</time></trkpt><trkpt lat="41.2477561988434" lon="14.686392089538556"><ele>248.5</ele><time>2026-03-22T08:05:33Z</time></trkpt><trkpt lat="41.24773903395033" lon="14.686570570828753"><ele>248.0</ele><time>2026-03-22T08:05:34Z</time></trkpt><trkpt lat="41.24769894559235" lon="14.686734863663384"><ele>247.5</ele><time>2026-03-22T08:05:35Z</time></trkpt><trkpt lat="41.24766113215022" lon="14.686894060048513"><ele>247.0</ele><time>2026-03-22T08:05:36Z</time></trkpt><trkpt lat="41.247641330140816" lon="14.687015574273673"><ele>247.0</ele><time>2026-03-22T08:05:37Z</time></trkpt><trkpt lat="41.2476496911416" lon="14.687135419733918"><ele>247.0</ele><time>2026-03-22T08:05:38Z</time></trkpt><trkpt lat="41.247717168286975" lon="14.68724661621878"><ele>247.0</ele><time>2026-03-22T08:05:39Z</time></trkpt><trkpt lat="41.24777850345659" lon="14.687326631502273"><ele>247.0</ele><time>2026-03-22T08:05:40Z</time></trkpt><trkpt lat="41.24794106438545" lon="14.687362253322569"><ele>247.0</ele><time>2026-03-22T08:05:41Z</time></trkpt><trkpt lat="41.24807367380312" lon="14.687374675250982"><ele>249.5</ele><time>2026-03-22T08:05:42Z</time></trkpt><trkpt lat="41.24817848828633" lon="14.687419741265952"><ele>252.0</ele><time>2026-03-22T08:05:43Z</time></trkpt><trkpt lat="41.24828424455532" lon="14.687448334431693"><ele>254.5</ele><time>2026-03-22T08:05:44Z</time></trkpt><trkpt lat="41.24839016502743" lon="14.687504034358764"><ele>257.0</ele><time>2026-03-22T08:05:45Z</time></trkpt><trkpt lat="41.248490897910976" lon="14.687602461008549"><ele>257.0</ele><time>2026-03-22T08:05:46Z</time></trkpt><trkpt lat="41.248565300777024" lon="14.687746494637794"><ele>257.0</ele><time>2026-03-22T08:05:47Z</time></trkpt><trkpt lat="41.24864275928674" lon="14.687885302343856"><ele>257.0</ele><time>2026-03-22T08:05:48Z</time></trkpt><trkpt lat="41.248709984014695" lon="14.688021986723195"><ele>257.0</ele><time>2026-03-22T08:05:49Z</time></trkpt><trkpt lat="41.24878335428889" lon="14.688161918147605"><ele>256.0</ele><time>2026-03-22T08:05:50Z</time></trkpt><trkpt lat="41.248861090050326" lon="14.688308588334895"><ele>255.0</ele><time>2026-03-22T08:05:51Z</time></trkpt><trkpt lat="41.248932747874676" lon="14.6884557567104"><ele>254.0</ele><time>2026-03-22T08:05:52Z</time></trkpt><trkpt lat="41.24902747424931" lon="14.688583151566103"><ele>253.0</ele><time>2026-03-22T08:05:53Z</time></trkpt><trkpt lat="41.24916308413937" lon="14.68864481528745"><ele>253.0</ele><time>2026-03-22T08:05:54Z</time></trkpt><trkpt lat="41.249299397012656" lon="14.688678545310662"><ele>253.0</ele><time>2026-03-22T08:05:55Z</time></trkpt><trkpt lat="41.24944027242263" lon="14.688735223085724"><ele>253.0</ele><time>2026-03-22T08:05:56Z</time></trkpt><trkpt lat="41.24957639601588" lon="14.68877843432866"><ele>253.0</ele><time>2026-03-22T08:05:56.999Z</time></trkpt><trkpt lat="41.249703772514415" lon="14.688823647875319"><ele>256.25</ele><time>2026-03-22T08:05:57.999Z</time></trkpt><trkpt lat="41.2498096673846" lon="14.688916859343308"><ele>259.5</ele><time>2026-03-22T08:05:58.999Z</time></trkpt><trkpt lat="41.24990851056143" lon="14.689040014378776"><ele>262.75</ele><time>2026-03-22T08:05:59.999Z</time></trkpt><trkpt lat="41.25001105639324" lon="14.689170195470576"><ele>266.0</ele><time>2026-03-22T08:06:00.999Z</time></trkpt><trkpt lat="41.250101257867335" lon="14.689296580618363"><ele>266.0</ele><time>2026-03-22T08:06:01.999Z</time></trkpt><trkpt lat="41.2501775384476" lon="14.689425229972931"><ele>266.0</ele><time>2026-03-22T08:06:02.999Z</time></trkpt><trkpt lat="41.25019132568245" lon="14.68958114839608"><ele>266.0</ele><time>2026-03-22T08:06:03.999Z</time></trkpt><trkpt lat="41.25021989417853" lon="14.689759093158534"><ele>266.0</ele><time>2026-03-22T08:06:04.999Z</time></trkpt><trkpt lat="41.250247898416" lon="14.689933523262068"><ele>263.75</ele><time>2026-03-22T08:06:05.999Z</time></trkpt><trkpt lat="41.25028010232775" lon="14.690119727847256"><ele>261.5</ele><time>2026-03-22T08:06:06.999Z</time></trkpt><trkpt lat="41.250314536500575" lon="14.690298277797682"><ele>259.25</ele><time>2026-03-22T08:06:07.999Z</time></trkpt><trkpt lat="41.250351950527424" lon="14.690444736822089"><ele>257.0</ele><time>2026-03-22T08:06:08.999Z</time></trkpt><trkpt lat="41.25041155967881" lon="14.690573911669379"><ele>256.25</ele><time>2026-03-22T08:06:09.999Z</time></trkpt><trkpt lat="41.25051815190759" lon="14.690656337831683"><ele>255.5</ele><time>2026-03-22T08:06:10.999Z</time></trkpt><trkpt lat="41.250647714096765" lon="14.690719258582208"><ele>254.75</ele><time>2026-03-22T08:06:11.999Z</time></trkpt><trkpt lat="41.250793304922354" lon="14.690755588746839"><ele>254.0</ele><time>2026-03-22T08:06:12.999Z</time></trkpt><trkpt lat="41.25093070982921" lon="14.690827540679786"><ele>257.0</ele><time>2026-03-22T08:06:13.999Z</time></trkpt><trkpt lat="41.25106647362897" lon="14.690880522947815"><ele>260.0</ele><time>2026-03-22T08:06:14.999Z</time></trkpt><trkpt lat="41.25120306067889" lon="14.690933896438246"><ele>263.0</ele><time>2026-03-22T08:06:15.999Z</time></trkpt><trkpt lat="41.25134064873407" lon="14.690985119946063"><ele>266.0</ele><time>2026-03-22T08:06:16.999Z</time></trkpt><trkpt lat="41.251476117815415" lon="14.691033933406715"><ele>265.5</ele><time>2026-03-22T08:06:17.999Z</time></trkpt><trkpt lat="41.25160682819435" lon="14.691093741405037"><ele>265.0</ele><time>2026-03-22T08:06:18.999Z</time></trkpt><trkpt lat="41.251725902244175" lon="14.691170606281501"><ele>264.5</ele><time>2026-03-22T08:06:19.999Z</time></trkpt><trkpt lat="41.2518229883949" lon="14.691256928540135"><ele>264.0</ele><time>2026-03-22T08:06:20.999Z</time></trkpt><trkpt lat="41.25190617556953" lon="14.69134332568468"><ele>264.0</ele><time>2026-03-22T08:06:21.999Z</time></trkpt><trkpt lat="41.25198400123695" lon="14.691448088817163"><ele>264.0</ele><time>2026-03-22T08:06:22.999Z</time></trkpt><trkpt lat="41.25206397827274" lon="14.691582380574358"><ele>264.0</ele><time>2026-03-22T08:06:23.999Z</time></trkpt><trkpt lat="41.25214239961832" lon="14.69173552476859"><ele>264.0</ele><time>2026-03-22T08:06:24.999Z</time></trkpt><trkpt lat="41.252204710077" lon="14.691891779892243"><ele>262.5</ele><time>2026-03-22T08:06:25.999Z</time></trkpt><trkpt lat="41.25225689604364" lon="14.692058445689405"><ele>261.0</ele><time>2026-03-22T08:06:26.999Z</time></trkpt><trkpt lat="41.252284370372294" lon="14.692232353434248"><ele>259.5</ele><time>2026-03-22T08:06:27.999Z</time></trkpt><trkpt lat="41.252318901496864" lon="14.692422821550222"><ele>258.0</ele><time>2026-03-22T08:06:28.999Z</time></trkpt><trkpt lat="41.25235399282853" lon="14.692610842306317"><ele>261.75</ele><time>2026-03-22T08:06:29.999Z</time></trkpt><trkpt lat="41.25238618873668" lon="14.692781097377177"><ele>265.5</ele><time>2026-03-22T08:06:30.999Z</time></trkpt><trkpt lat="41.25242074875597" lon="14.692956819311272"><ele>269.25</ele><time>2026-03-22T08:06:31.999Z</time></trkpt><trkpt lat="41.252457281288635" lon="14.693145159600947"><ele>273.0</ele><time>2026-03-22T08:06:32.999Z</time></trkpt><trkpt lat="41.2524900413484" lon="14.693334883661514"><ele>273.0</ele><time>2026-03-22T08:06:33.999Z</time></trkpt><trkpt lat="41.25252198360319" lon="14.693510737920436"><ele>273.0</ele><time>2026-03-22T08:06:34.999Z</time></trkpt><trkpt lat="41.252556285310824" lon="14.6936786002033"><ele>273.0</ele><time>2026-03-22T08:06:35.999Z</time></trkpt><trkpt lat="41.25261654746801" lon="14.6938154904747"><ele>273.0</ele><time>2026-03-22T08:06:36.999Z</time></trkpt><trkpt lat="41.25267835755273" lon="14.693916365478769"><ele>271.25</ele><time>2026-03-22T08:06:37.999Z</time></trkpt><trkpt lat="41.25277057380867" lon="14.693954757756766"><ele>269.5</ele><time>2026-03-22T08:06:38.999Z</time></trkpt><trkpt lat="41.252878852135375" lon="14.693949135944557"><ele>267.75</ele><time>2026-03-22T08:06:39.999Z</time></trkpt><trkpt lat="41.25299888204842" lon="14.693884603886858"><ele>266.0</ele><time>2026-03-22T08:06:40.999Z</time></trkpt><trkpt lat="41.253119543211" lon="14.693789322143655"><ele>266.0</ele><time>2026-03-22T08:06:41.999Z</time></trkpt><trkpt lat="41.25324507591452" lon="14.693692454401672"><ele>266.0</ele><time>2026-03-22T08:06:42.999Z</time></trkpt><trkpt lat="41.253372238734244" lon="14.693588702937314"><ele>266.0</ele><time>2026-03-22T08:06:43.999Z</time></trkpt><trkpt lat="41.25348577542466" lon="14.693468719415602"><ele>266.0</ele><time>2026-03-22T08:06:44.999Z</time></trkpt><trkpt lat="41.25359504941102" lon="14.693358760594657"><ele>266.75</ele><time>2026-03-22T08:06:45.999Z</time></trkpt><trkpt lat="41.25370212477721" lon="14.693244344326633"><ele>267.5</ele><time>2026-03-22T08:06:46.999Z</time></trkpt><trkpt lat="41.25381170367136" lon="14.693133950787141"><ele>268.25</ele><time>2026-03-22T08:06:47.999Z</time></trkpt><trkpt lat="41.25392451868735" lon="14.693015098944924"><ele>269.0</ele><time>2026-03-22T08:06:48.999Z</time></trkpt><trkpt lat="41.25405609133955" lon="14.692941707784977"><ele>269.0</ele><time>2026-03-22T08:06:49.999Z</time></trkpt><trkpt lat="41.25418917045642" lon="14.692884554588872"><ele>269.0</ele><time>2026-03-22T08:06:50.999Z</time></trkpt><trkpt lat="41.25432737452894" lon="14.692840865711993"><ele>269.0</ele><time>2026-03-22T08:06:51.999Z</time></trkpt><trkpt lat="41.25446017138904" lon="14.692769826073127"><ele>269.0</ele><time>2026-03-22T08:06:52.999Z</time></trkpt><trkpt lat="41.254596389046846" lon="14.692709185931644"><ele>270.75</ele><time>2026-03-22T08:06:53.999Z</time></trkpt><trkpt lat="41.25472096544087" lon="14.692653753574396"><ele>272.5</ele><time>2026-03-22T08:06:54.999Z</time></trkpt><trkpt lat="41.25483712617309" lon="14.692580335788858"><ele>274.25</ele><time>2026-03-22T08:06:55.999Z</time></trkpt><trkpt lat="41.25493787532577" lon="14.692456081724476"><ele>276.0</ele><time>2026-03-22T08:06:56.999Z</time></trkpt><trkpt lat="41.25502509248358" lon="14.692297208845819"><ele>276.0</ele><time>2026-03-22T08:06:57.999Z</time></trkpt><trkpt lat="41.25509468653861" lon="14.692129237843137"><ele>276.0</ele><time>2026-03-22T08:06:58.999Z</time></trkpt><trkpt lat="41.25516917313898" lon="14.691974230075024"><ele>276.0</ele><time>2026-03-22T08:06:59.999Z</time></trkpt><trkpt lat="41.25525596275551" lon="14.691819053861966"><ele>276.0</ele><time>2026-03-22T08:07:00.999Z</time></trkpt><trkpt lat="41.255354744425155" lon="14.691679412315615"><ele>275.25</ele><time>2026-03-22T08:07:01.999Z</time></trkpt><trkpt lat="41.25546648131527" lon="14.691560642845577"><ele>274.5</ele><time>2026-03-22T08:07:02.999Z</time></trkpt><trkpt lat="41.25559817321424" lon="14.691477328603382"><ele>273.75</ele><time>2026-03-22T08:07:03.999Z</time></trkpt><trkpt lat="41.255724160845276" lon="14.691379831662102"><ele>273.0</ele><time>2026-03-22T08:07:04.999Z</time></trkpt><trkpt lat="41.25584886639533" lon="14.691285267568373"><ele>273.0</ele><time>2026-03-22T08:07:05.999Z</time></trkpt><trkpt lat="41.25597794982555" lon="14.69122763969837"><ele>273.0</ele><time>2026-03-22T08:07:06.999Z</time></trkpt><trkpt lat="41.25611757924263" lon="14.691211508314085"><ele>273.0</ele><time>2026-03-22T08:07:07.999Z</time></trkpt><trkpt lat="41.2562612832161" lon="14.691205848302468"><ele>273.0</ele><time>2026-03-22T08:07:08.999Z</time></trkpt><trkpt lat="41.25640278151485" lon="14.691186750314388"><ele>272.25</ele><time>2026-03-22T08:07:09.999Z</time></trkpt><trkpt lat="41.25653767477" lon="14.691110460168089"><ele>271.5</ele><time>2026-03-22T08:07:10.999Z</time></trkpt><trkpt lat="41.2566564958025" lon="14.691000607134098"><ele>270.75</ele><time>2026-03-22T08:07:11.998Z</time></trkpt><trkpt lat="41.25676686231982" lon="14.690893269367747"><ele>270.0</ele><time>2026-03-22T08:07:12.998Z</time></trkpt><trkpt lat="41.25689216990926" lon="14.69080655191602"><ele>271.6</ele><time>2026-03-22T08:07:13.998Z</time></trkpt><trkpt lat="41.2569851912955" lon="14.690740329111852"><ele>273.2</ele><time>2026-03-22T08:07:14.998Z</time></trkpt><trkpt lat="41.25706022004224" lon="14.690687566125378"><ele>274.8</ele><time>2026-03-22T08:07:15.998Z</time></trkpt><trkpt lat="41.25714356845938" lon="14.690701310298136"><ele>276.4</ele><time>2026-03-22T08:07:16.998Z</time></trkpt><trkpt lat="41.25721393472061" lon="14.690777782683591"><ele>278.0</ele><time>2026-03-22T08:07:17.998Z</time></trkpt><trkpt lat="41.25724440347374" lon="14.69091268817579"><ele>278.0</ele><time>2026-03-22T08:07:18.998Z</time></trkpt><trkpt lat="41.25725762076653" lon="14.691076955397204"><ele>278.0</ele><time>2026-03-22T08:07:19.998Z</time></trkpt><trkpt lat="41.25730605000054" lon="14.691259399758536"><ele>278.0</ele><time>2026-03-22T08:07:20.998Z</time></trkpt><trkpt lat="41.25731147515877" lon="14.691464161327739"><ele>278.0</ele><time>2026-03-22T08:07:21.998Z</time></trkpt><trkpt lat="41.25731703543773" lon="14.6916593578738"><ele>278.0</ele><time>2026-03-22T08:07:22.998Z</time></trkpt><trkpt lat="41.25733024400992" lon="14.691822464040492"><ele>278.0</ele><time>2026-03-22T08:07:23.998Z</time></trkpt><trkpt lat="41.25735598462694" lon="14.691953407227718"><ele>278.0</ele><time>2026-03-22T08:07:24.998Z</time></trkpt><trkpt lat="41.25740874477507" lon="14.692069865665829"><ele>278.0</ele><time>2026-03-22T08:07:25.998Z</time></trkpt><trkpt lat="41.25749255177732" lon="14.692187855259194"><ele>278.0</ele><time>2026-03-22T08:07:26.998Z</time></trkpt><trkpt lat="41.257574486693485" lon="14.692300662147709"><ele>276.8</ele><time>2026-03-22T08:07:27.998Z</time></trkpt><trkpt lat="41.25764866407272" lon="14.692402788581386"><ele>275.6</ele><time>2026-03-22T08:07:28.998Z</time></trkpt><trkpt lat="41.25772563162228" lon="14.692512053390976"><ele>274.4</ele><time>2026-03-22T08:07:29.998Z</time></trkpt><trkpt lat="41.25779508441148" lon="14.692612788166084"><ele>273.2</ele><time>2026-03-22T08:07:30.998Z</time></trkpt><trkpt lat="41.25784360043493" lon="14.692687564841279"><ele>272.0</ele><time>2026-03-22T08:07:31.998Z</time></trkpt><trkpt lat="41.257884763329734" lon="14.692755096603456"><ele>271.57142857142856</ele><time>2026-03-22T08:07:32.998Z</time></trkpt><trkpt lat="41.25792759580357" lon="14.69282721590685"><ele>271.1428571428571</ele><time>2026-03-22T08:07:34Z</time></trkpt><trkpt lat="41.25797059081673" lon="14.69290238263471"><ele>270.7142857142857</ele><time>2026-03-22T08:07:35Z</time></trkpt><trkpt lat="41.258013029835" lon="14.692976577341351"><ele>270.2857142857143</ele><time>2026-03-22T08:07:36Z</time></trkpt><trkpt lat="41.25805603455704" lon="14.693052612871844"><ele>269.8571428571429</ele><time>2026-03-22T08:07:37Z</time></trkpt><trkpt lat="41.25810017886832" lon="14.693124392831203"><ele>269.42857142857144</ele><time>2026-03-22T08:07:38Z</time></trkpt><trkpt lat="41.25814398817482" lon="14.693195628233035"><ele>269.0</ele><time>2026-03-22T08:07:39Z</time></trkpt><trkpt lat="41.25820420252542" lon="14.693292463688092"><ele>271.2</ele><time>2026-03-22T08:07:41Z</time></trkpt><trkpt lat="41.25826894369632" lon="14.693406738190419"><ele>273.4</ele><time>2026-03-22T08:07:43Z</time></trkpt><trkpt lat="41.25830584742805" lon="14.69356849943514"><ele>275.6</ele><time>2026-03-22T08:07:45Z</time></trkpt><trkpt lat="41.25829680678415" lon="14.69370351726823"><ele>277.8</ele><time>2026-03-22T08:07:47Z</time></trkpt><trkpt lat="41.25830470112724" lon="14.693805925628102"><ele>280.0</ele><time>2026-03-22T08:07:48Z</time></trkpt><trkpt lat="41.25831368586333" lon="14.693922478974734"><ele>280.0</ele><time>2026-03-22T08:07:49Z</time></trkpt><trkpt lat="41.25832184681389" lon="14.694044218021286"><ele>280.0</ele><time>2026-03-22T08:07:50Z</time></trkpt><trkpt lat="41.25832863492763" lon="14.694166057311254"><ele>280.0</ele><time>2026-03-22T08:07:51Z</time></trkpt><trkpt lat="41.258329791399234" lon="14.694289937910122"><ele>280.0</ele><time>2026-03-22T08:07:52Z</time></trkpt><trkpt lat="41.25833322340771" lon="14.694413168536126"><ele>280.0</ele><time>2026-03-22T08:07:53Z</time></trkpt><trkpt lat="41.25834410146903" lon="14.694537590273791"><ele>279.6</ele><time>2026-03-22T08:07:54Z</time></trkpt><trkpt lat="41.258365547928" lon="14.694647572096804"><ele>279.2</ele><time>2026-03-22T08:07:55Z</time></trkpt><trkpt lat="41.258443517395634" lon="14.694745230420372"><ele>278.8</ele><time>2026-03-22T08:07:56Z</time></trkpt><trkpt lat="41.25850469963747" lon="14.694847504191195"><ele>278.4</ele><time>2026-03-22T08:07:57Z</time></trkpt><trkpt lat="41.258557288447264" lon="14.69497052811927"><ele>278.0</ele><time>2026-03-22T08:07:58Z</time></trkpt><trkpt lat="41.25862853819416" lon="14.695087170322811"><ele>278.0</ele><time>2026-03-22T08:07:59Z</time></trkpt><trkpt lat="41.258696556763304" lon="14.695198515652198"><ele>278.0</ele><time>2026-03-22T08:08:00Z</time></trkpt><trkpt lat="41.25876587270706" lon="14.695306792688005"><ele>278.0</ele><time>2026-03-22T08:08:01Z</time></trkpt><trkpt lat="41.25884051147176" lon="14.695420851457476"><ele>278.0</ele><time>2026-03-22T08:08:02Z</time></trkpt><trkpt lat="41.258925613446685" lon="14.695540469900829"><ele>278.6</ele><time>2026-03-22T08:08:03Z</time></trkpt><trkpt lat="41.259011667991196" lon="14.695618531334095"><ele>279.20000000000005</ele><time>2026-03-22T08:08:04Z</time></trkpt><trkpt lat="41.259082160976774" lon="14.695711330513044"><ele>279.8</ele><time>2026-03-22T08:08:05Z</time></trkpt><trkpt lat="41.25918531401906" lon="14.695744456257323"><ele>280.40000000000003</ele><time>2026-03-22T08:08:05.999Z</time></trkpt><trkpt lat="41.25928602112639" lon="14.695796848823575"><ele>281.0</ele><time>2026-03-22T08:08:06.999Z</time></trkpt><trkpt lat="41.25939079167849" lon="14.695830005897793"><ele>281.0</ele><time>2026-03-22T08:08:07.999Z</time></trkpt><trkpt lat="41.259510817304616" lon="14.695868911039435"><ele>281.0</ele><time>2026-03-22T08:08:08.999Z</time></trkpt><trkpt lat="41.259628269087386" lon="14.695887913978577"><ele>281.0</ele><time>2026-03-22T08:08:09.999Z</time></trkpt><trkpt lat="41.25974427778494" lon="14.6959423817473"><ele>281.0</ele><time>2026-03-22T08:08:10.999Z</time></trkpt><trkpt lat="41.25985493448878" lon="14.695975999544759"><ele>281.5</ele><time>2026-03-22T08:08:11.999Z</time></trkpt><trkpt lat="41.25996648021605" lon="14.695989013307088"><ele>282.0</ele><time>2026-03-22T08:08:12.999Z</time></trkpt><trkpt lat="41.260079705552556" lon="14.696024949468434"><ele>282.5</ele><time>2026-03-22T08:08:13.999Z</time></trkpt><trkpt lat="41.2602139607478" lon="14.696057294533459"><ele>283.0</ele><time>2026-03-22T08:08:14.999Z</time></trkpt><trkpt lat="41.26036268750672" lon="14.69611998376265"><ele>283.0</ele><time>2026-03-22T08:08:15.999Z</time></trkpt><trkpt lat="41.260501856418145" lon="14.696158550261968"><ele>283.0</ele><time>2026-03-22T08:08:16.999Z</time></trkpt><trkpt lat="41.260622960638635" lon="14.696192110680027"><ele>283.0</ele><time>2026-03-22T08:08:17.999Z</time></trkpt><trkpt lat="41.26073180648904" lon="14.696222274050308"><ele>283.0</ele><time>2026-03-22T08:08:18.999Z</time></trkpt><trkpt lat="41.260846211915066" lon="14.696253978075697"><ele>283.4</ele><time>2026-03-22T08:08:19.999Z</time></trkpt><trkpt lat="41.26094299629617" lon="14.696280798892177"><ele>283.8</ele><time>2026-03-22T08:08:20.999Z</time></trkpt><trkpt lat="41.26102913356559" lon="14.696308624852652"><ele>284.2</ele><time>2026-03-22T08:08:21.999Z</time></trkpt><trkpt lat="41.26113798782606" lon="14.696368313817226"><ele>284.6</ele><time>2026-03-22T08:08:23.999Z</time></trkpt><trkpt lat="41.261191797409154" lon="14.696428248029152"><ele>285.0</ele><time>2026-03-22T08:08:24.999Z</time></trkpt><trkpt lat="41.26125863572444" lon="14.696471616174868"><ele>285.0</ele><time>2026-03-22T08:08:25.999Z</time></trkpt><trkpt lat="41.2613248020601" lon="14.696504370048626"><ele>285.0</ele><time>2026-03-22T08:08:26.999Z</time></trkpt><trkpt lat="41.26139819773163" lon="14.69649970219691"><ele>285.0</ele><time>2026-03-22T08:08:27.999Z</time></trkpt><trkpt lat="41.26146782297953" lon="14.696341496135735"><ele>285.0</ele><time>2026-03-22T08:08:28.999Z</time></trkpt><trkpt lat="41.26152349361559" lon="14.696207516762945"><ele>285.0</ele><time>2026-03-22T08:08:29.999Z</time></trkpt><trkpt lat="41.26159273057404" lon="14.696068447879888"><ele>284.8</ele><time>2026-03-22T08:08:30.999Z</time></trkpt><trkpt lat="41.26168533405171" lon="14.695999585842017"><ele>284.6</ele><time>2026-03-22T08:08:31.999Z</time></trkpt><trkpt lat="41.261773149397854" lon="14.696027941196334"><ele>284.4</ele><time>2026-03-22T08:08:32.999Z</time></trkpt><trkpt lat="41.26188505478869" lon="14.696119638410241"><ele>284.2</ele><time>2026-03-22T08:08:34.999Z</time></trkpt><trkpt lat="41.26199180488294" lon="14.69614069490436"><ele>284.0</ele><time>2026-03-22T08:08:35.999Z</time></trkpt><trkpt lat="41.26210918114832" lon="14.696170001661187"><ele>284.0</ele><time>2026-03-22T08:08:36.999Z</time></trkpt><trkpt lat="41.262224123221344" lon="14.69619365328752"><ele>284.0</ele><time>2026-03-22T08:08:37.999Z</time></trkpt><trkpt lat="41.2623502277022" lon="14.696208809895507"><ele>284.0</ele><time>2026-03-22T08:08:38.999Z</time></trkpt><trkpt lat="41.26246140229053" lon="14.696211181448573"><ele>284.0</ele><time>2026-03-22T08:08:39.999Z</time></trkpt><trkpt lat="41.262582037810674" lon="14.696211579173173"><ele>285.6666666666667</ele><time>2026-03-22T08:08:40.999Z</time></trkpt><trkpt lat="41.26268356771131" lon="14.696211913911464"><ele>287.33333333333337</ele><time>2026-03-22T08:08:41.999Z</time></trkpt><trkpt lat="41.2627778612511" lon="14.696212224789765"><ele>289.0</ele><time>2026-03-22T08:08:42.999Z</time></trkpt><trkpt lat="41.26286861010654" lon="14.696217987848462"><ele>290.6666666666667</ele><time>2026-03-22T08:08:43.999Z</time></trkpt><trkpt lat="41.26294001916325" lon="14.696234453435732"><ele>292.3333333333333</ele><time>2026-03-22T08:08:44.999Z</time></trkpt><trkpt lat="41.26300826641787" lon="14.696244489702982"><ele>294.0</ele><time>2026-03-22T08:08:45.999Z</time></trkpt><trkpt lat="41.263047218798654" lon="14.696013886761254"><ele>294.3333333333333</ele><time>2026-03-22T08:08:47.999Z</time></trkpt><trkpt lat="41.2630500578245" lon="14.695902279249994"><ele>294.6666666666667</ele><time>2026-03-22T08:08:48.999Z</time></trkpt><trkpt lat="41.263028506072516" lon="14.695768200800131"><ele>295.0</ele><time>2026-03-22T08:08:49.999Z</time></trkpt><trkpt lat="41.263034983540805" lon="14.69565860524315"><ele>295.33333333333337</ele><time>2026-03-22T08:08:50.999Z</time></trkpt><trkpt lat="41.26307139410137" lon="14.695567702506606"><ele>295.6666666666667</ele><time>2026-03-22T08:08:51.999Z</time></trkpt><trkpt lat="41.26314901463283" lon="14.695506674430531"><ele>296.0</ele><time>2026-03-22T08:08:52.999Z</time></trkpt><trkpt lat="41.263238223538806" lon="14.695516143619813"><ele>299.0</ele><time>2026-03-22T08:08:53.999Z</time></trkpt><trkpt lat="41.263308604587586" lon="14.695534973923838"><ele>302.0</ele><time>2026-03-22T08:08:54.999Z</time></trkpt><trkpt lat="41.263390442474794" lon="14.69553595559345"><ele>305.0</ele><time>2026-03-22T08:08:55.999Z</time></trkpt><trkpt lat="41.263470792818914" lon="14.69554317649653"><ele>308.0</ele><time>2026-03-22T08:08:56.999Z</time></trkpt><trkpt lat="41.26353817020472" lon="14.69556126500349"><ele>311.0</ele><time>2026-03-22T08:08:57.999Z</time></trkpt><trkpt lat="41.26359369764221" lon="14.695604864224242"><ele>314.0</ele><time>2026-03-22T08:08:58.999Z</time></trkpt><trkpt lat="41.26363977153631" lon="14.69566268344887"><ele>317.0</ele><time>2026-03-22T08:08:59.999Z</time></trkpt><trkpt lat="41.26370846781917" lon="14.695797128775721"><ele>317.0</ele><time>2026-03-22T08:09:01.999Z</time></trkpt><trkpt lat="41.26377485062852" lon="14.695906669460362"><ele>317.0</ele><time>2026-03-22T08:09:03.999Z</time></trkpt><trkpt lat="41.26388938530553" lon="14.695822806470273"><ele>317.0</ele><time>2026-03-22T08:09:04.999Z</time></trkpt><trkpt lat="41.26395427331215" lon="14.69576379482159"><ele>317.0</ele><time>2026-03-22T08:09:05.999Z</time></trkpt><trkpt lat="41.264013489541256" lon="14.695681353747466"><ele>317.0</ele><time>2026-03-22T08:09:06.999Z</time></trkpt><trkpt lat="41.26406139800774" lon="14.695591213277854"><ele>319.25</ele><time>2026-03-22T08:09:07.999Z</time></trkpt><trkpt lat="41.264125700278754" lon="14.695481338153739"><ele>321.5</ele><time>2026-03-22T08:09:09.999Z</time></trkpt><trkpt lat="41.26419592114698" lon="14.695428789989123"><ele>323.75</ele><time>2026-03-22T08:09:11.999Z</time></trkpt><trkpt lat="41.26423034105868" lon="14.69532788568042"><ele>326.0</ele><time>2026-03-22T08:09:13.999Z</time></trkpt><trkpt lat="41.26442126408337" lon="14.695424271756286"><ele>326.0</ele><time>2026-03-22T08:09:14.999Z</time></trkpt><trkpt lat="41.26450662033762" lon="14.695435494460343"><ele>326.0</ele><time>2026-03-22T08:09:15.999Z</time></trkpt><trkpt lat="41.2645830671755" lon="14.695441912602833"><ele>326.0</ele><time>2026-03-22T08:09:16.999Z</time></trkpt><trkpt lat="41.26465665312311" lon="14.695446720438948"><ele>326.0</ele><time>2026-03-22T08:09:17.999Z</time></trkpt><trkpt lat="41.26473729697805" lon="14.695448007734504"><ele>326.0</ele><time>2026-03-22T08:09:18.999Z</time></trkpt><trkpt lat="41.264816560401435" lon="14.695438609310164"><ele>326.0</ele><time>2026-03-22T08:09:19.999Z</time></trkpt><trkpt lat="41.264882500027845" lon="14.695415351895718"><ele>325.6666666666667</ele><time>2026-03-22T08:09:20.998Z</time></trkpt><trkpt lat="41.264947447625346" lon="14.695368495334517"><ele>325.33333333333337</ele><time>2026-03-22T08:09:21.998Z</time></trkpt><trkpt lat="41.26501471720729" lon="14.69530481674346"><ele>325.0</ele><time>2026-03-22T08:09:22.998Z</time></trkpt><trkpt lat="41.265094322348666" lon="14.695234016346657"><ele>324.6666666666667</ele><time>2026-03-22T08:09:23.998Z</time></trkpt><trkpt lat="41.26517255579155" lon="14.695174609284491"><ele>324.3333333333333</ele><time>2026-03-22T08:09:24.998Z</time></trkpt><trkpt lat="41.265248934800226" lon="14.695148531748348"><ele>324.0</ele><time>2026-03-22T08:09:25.998Z</time></trkpt><trkpt lat="41.265334196278445" lon="14.695157735741839"><ele>325.0</ele><time>2026-03-22T08:09:26.998Z</time></trkpt><trkpt lat="41.265425304632615" lon="14.695190154207157"><ele>326.0</ele><time>2026-03-22T08:09:27.998Z</time></trkpt><trkpt lat="41.26550961845064" lon="14.695216968226584"><ele>327.0</ele><time>2026-03-22T08:09:28.998Z</time></trkpt><trkpt lat="41.26559329484413" lon="14.695208887653507"><ele>328.0</ele><time>2026-03-22T08:09:29.998Z</time></trkpt><trkpt lat="41.26567918090322" lon="14.695166450688552"><ele>329.0</ele><time>2026-03-22T08:09:30.998Z</time></trkpt><trkpt lat="41.265760591314915" lon="14.69508573291919"><ele>326.33333333333337</ele><time>2026-03-22T08:09:31.998Z</time></trkpt><trkpt lat="41.265835426173304" lon="14.694993473156673"><ele>323.6666666666667</ele><time>2026-03-22T08:09:32.998Z</time></trkpt><trkpt lat="41.265902059131335" lon="14.694911797858223"><ele>321.0</ele><time>2026-03-22T08:09:33.998Z</time></trkpt><trkpt lat="41.265963543467095" lon="14.694841638603899"><ele>318.3333333333333</ele><time>2026-03-22T08:09:34.998Z</time></trkpt><trkpt lat="41.26602874410838" lon="14.69477239880549"><ele>315.66666666666663</ele><time>2026-03-22T08:09:35.998Z</time></trkpt><trkpt lat="41.26608947744767" lon="14.694712688350366"><ele>313.0</ele><time>2026-03-22T08:09:36.998Z</time></trkpt><trkpt lat="41.26614077008062" lon="14.694661929261647"><ele>313.0</ele><time>2026-03-22T08:09:37.998Z</time></trkpt><trkpt lat="41.26619257672877" lon="14.694609610482404"><ele>313.0</ele><time>2026-03-22T08:09:38.998Z</time></trkpt><trkpt lat="41.266252485645765" lon="14.694547638548954"><ele>313.0</ele><time>2026-03-22T08:09:40Z</time></trkpt><trkpt lat="41.26631677868644" lon="14.69448469162471"><ele>313.0</ele><time>2026-03-22T08:09:41Z</time></trkpt><trkpt lat="41.2663790701664" lon="14.6944322523976"><ele>313.0</ele><time>2026-03-22T08:09:42Z</time></trkpt><trkpt lat="41.26649614558349" lon="14.694381624008408"><ele>313.0</ele><time>2026-03-22T08:09:44Z</time></trkpt><trkpt lat="41.266599477774875" lon="14.694369481506813"><ele>312.66666666666663</ele><time>2026-03-22T08:09:46Z</time></trkpt><trkpt lat="41.26668247378341" lon="14.694393817347018"><ele>312.3333333333333</ele><time>2026-03-22T08:09:48Z</time></trkpt><trkpt lat="41.26676006002382" lon="14.694402157012442"><ele>312.0</ele><time>2026-03-22T08:09:51Z</time></trkpt><trkpt lat="41.26682866966584" lon="14.694351234637876"><ele>311.6666666666667</ele><time>2026-03-22T08:09:54Z</time></trkpt><trkpt lat="41.26688407100396" lon="14.694306331608791"><ele>311.33333333333337</ele><time>2026-03-22T08:09:58Z</time></trkpt><trkpt lat="41.26693736732851" lon="14.694236926114332"><ele>311.0</ele><time>2026-03-22T08:10:10Z</time></trkpt><trkpt lat="41.267010771673164" lon="14.694141373186401"><ele>311.0</ele><time>2026-03-22T08:10:12Z</time></trkpt><trkpt lat="41.267124992854505" lon="14.694048978698309"><ele>311.0</ele><time>2026-03-22T08:10:13.999Z</time></trkpt><trkpt lat="41.26719746599093" lon="14.693993627200614"><ele>311.0</ele><time>2026-03-22T08:10:14.999Z</time></trkpt><trkpt lat="41.267255618958316" lon="14.693937177935034"><ele>311.0</ele><time>2026-03-22T08:10:15.999Z</time></trkpt><trkpt lat="41.267311376199" lon="14.693881027914728"><ele>311.0</ele><time>2026-03-22T08:10:16.999Z</time></trkpt><trkpt lat="41.26737357398214" lon="14.693828890036245"><ele>311.0</ele><time>2026-03-22T08:10:17.999Z</time></trkpt><trkpt lat="41.26744763575189" lon="14.693800016740136"><ele>311.2</ele><time>2026-03-22T08:10:18.999Z</time></trkpt><trkpt lat="41.267538892598836" lon="14.693810043398663"><ele>311.40000000000003</ele><time>2026-03-22T08:10:19.999Z</time></trkpt><trkpt lat="41.26763297242472" lon="14.693809012345179"><ele>311.6</ele><time>2026-03-22T08:10:20.999Z</time></trkpt><trkpt lat="41.267724377545605" lon="14.693783414566582"><ele>311.8</ele><time>2026-03-22T08:10:21.999Z</time></trkpt><trkpt lat="41.26782018282265" lon="14.69373258815545"><ele>312.0</ele><time>2026-03-22T08:10:22.999Z</time></trkpt><trkpt lat="41.26788687103026" lon="14.69368533235847"><ele>312.0</ele><time>2026-03-22T08:10:23.999Z</time></trkpt><trkpt lat="41.2679472437891" lon="14.69365274126902"><ele>312.0</ele><time>2026-03-22T08:10:24.999Z</time></trkpt><trkpt lat="41.26806447672862" lon="14.693572073452923"><ele>312.0</ele><time>2026-03-22T08:10:26.999Z</time></trkpt><trkpt lat="41.26811910056311" lon="14.693514617055445"><ele>312.0</ele><time>2026-03-22T08:10:27.999Z</time></trkpt><trkpt lat="41.268219845593904" lon="14.6934324061726"><ele>312.0</ele><time>2026-03-22T08:10:29.999Z</time></trkpt><trkpt lat="41.26830437438313" lon="14.693365842539555"><ele>313.8</ele><time>2026-03-22T08:10:31.999Z</time></trkpt><trkpt lat="41.268373808415966" lon="14.693328700236695"><ele>315.6</ele><time>2026-03-22T08:10:32.999Z</time></trkpt><trkpt lat="41.26845130725145" lon="14.693265579030268"><ele>317.40000000000003</ele><time>2026-03-22T08:10:34.999Z</time></trkpt><trkpt lat="41.268534944159306" lon="14.693217645368657"><ele>319.2</ele><time>2026-03-22T08:10:36.999Z</time></trkpt><trkpt lat="41.2685881444219" lon="14.693103557832913"><ele>321.0</ele><time>2026-03-22T08:10:38.999Z</time></trkpt><trkpt lat="41.268636045889735" lon="14.692993270693407"><ele>321.0</ele><time>2026-03-22T08:10:40.999Z</time></trkpt><trkpt lat="41.26871190621827" lon="14.69291723578691"><ele>321.0</ele><time>2026-03-22T08:10:42.999Z</time></trkpt><trkpt lat="41.26877263988233" lon="14.6928617378386"><ele>321.0</ele><time>2026-03-22T08:10:44.999Z</time></trkpt><trkpt lat="41.268842377465326" lon="14.692779761377672"><ele>321.0</ele><time>2026-03-22T08:10:47.999Z</time></trkpt><trkpt lat="41.26892772265392" lon="14.692716457866561"><ele>321.0</ele><time>2026-03-22T08:10:49.999Z</time></trkpt><trkpt lat="41.2689917092167" lon="14.69264291195278"><ele>321.0</ele><time>2026-03-22T08:10:51.999Z</time></trkpt><trkpt lat="41.26903889994668" lon="14.692586552536962"><ele>321.3333333333333</ele><time>2026-03-22T08:10:53.999Z</time></trkpt><trkpt lat="41.269089117532715" lon="14.69249930375409"><ele>321.6666666666667</ele><time>2026-03-22T08:10:56.999Z</time></trkpt><trkpt lat="41.269145895893125" lon="14.692419887099133"><ele>322.0</ele><time>2026-03-22T08:10:58.999Z</time></trkpt><trkpt lat="41.269191335897865" lon="14.69233140343534"><ele>322.33333333333337</ele><time>2026-03-22T08:11:00.999Z</time></trkpt><trkpt lat="41.26922611173821" lon="14.692259349070227"><ele>322.6666666666667</ele><time>2026-03-22T08:11:02.999Z</time></trkpt><trkpt lat="41.26929645576433" lon="14.692172225252312"><ele>323.0</ele><time>2026-03-22T08:11:05.999Z</time></trkpt><trkpt lat="41.26936635171822" lon="14.692102170632086"><ele>323.0</ele><time>2026-03-22T08:11:07.999Z</time></trkpt><trkpt lat="41.26944193562184" lon="14.692013754651724"><ele>323.0</ele><time>2026-03-22T08:11:09.999Z</time></trkpt><trkpt lat="41.26949094183461" lon="14.691955227879374"><ele>323.0</ele><time>2026-03-22T08:11:10.999Z</time></trkpt><trkpt lat="41.269581270600995" lon="14.691878337893804"><ele>323.0</ele><time>2026-03-22T08:11:12.999Z</time></trkpt><trkpt lat="41.26966196123285" lon="14.691768333659507"><ele>323.0</ele><time>2026-03-22T08:11:14.999Z</time></trkpt><trkpt lat="41.26972359580673" lon="14.69171353205875"><ele>323.6666666666667</ele><time>2026-03-22T08:11:16.999Z</time></trkpt><trkpt lat="41.269778941211115" lon="14.691623675449513"><ele>324.33333333333337</ele><time>2026-03-22T08:11:19.999Z</time></trkpt><trkpt lat="41.26983972410158" lon="14.69156815293947"><ele>325.0</ele><time>2026-03-22T08:11:21.999Z</time></trkpt><trkpt lat="41.2698826409452" lon="14.691477363014393"><ele>325.6666666666667</ele><time>2026-03-22T08:11:24.999Z</time></trkpt><trkpt lat="41.269933167937516" lon="14.691414080165279"><ele>326.3333333333333</ele><time>2026-03-22T08:11:26.999Z</time></trkpt><trkpt lat="41.26999267770213" lon="14.69137411316692"><ele>327.0</ele><time>2026-03-22T08:11:27.998Z</time></trkpt><trkpt lat="41.27008976581427" lon="14.691337744764692"><ele>327.0</ele><time>2026-03-22T08:11:29.998Z</time></trkpt><trkpt lat="41.27019813716534" lon="14.691298239518678"><ele>327.0</ele><time>2026-03-22T08:11:31.998Z</time></trkpt><trkpt lat="41.27029298414087" lon="14.691265627049988"><ele>327.0</ele><time>2026-03-22T08:11:33.998Z</time></trkpt><trkpt lat="41.27035644849278" lon="14.69118264342023"><ele>327.0</ele><time>2026-03-22T08:11:36.998Z</time></trkpt><trkpt lat="41.270449050601854" lon="14.691124973916752"><ele>327.0</ele><time>2026-03-22T08:11:38.998Z</time></trkpt><trkpt lat="41.2705348925312" lon="14.691098198610213"><ele>328.20000000000005</ele><time>2026-03-22T08:11:40.998Z</time></trkpt><trkpt lat="41.27064143286006" lon="14.691061479502741"><ele>329.4</ele><time>2026-03-22T08:11:42.998Z</time></trkpt><trkpt lat="41.27070821716927" lon="14.691019967937724"><ele>330.6</ele><time>2026-03-22T08:11:44.998Z</time></trkpt><trkpt lat="41.270799918853" lon="14.690987987082552"><ele>331.79999999999995</ele><time>2026-03-22T08:11:47Z</time></trkpt><trkpt lat="41.270867968951734" lon="14.690954691973737"><ele>333.0</ele><time>2026-03-22T08:11:49Z</time></trkpt><trkpt lat="41.27110391651814" lon="14.690933837260246"><ele>333.0</ele><time>2026-03-22T08:11:56Z</time></trkpt><trkpt lat="41.27118655591379" lon="14.690935818959982"><ele>333.0</ele><time>2026-03-22T08:11:58Z</time></trkpt><trkpt lat="41.271252403993714" lon="14.690957326767302"><ele>333.0</ele><time>2026-03-22T08:12:01Z</time></trkpt><trkpt lat="41.271304073254456" lon="14.691024211621391"><ele>333.0</ele><time>2026-03-22T08:12:03Z</time></trkpt><trkpt lat="41.27137777168459" lon="14.69104398618351"><ele>333.0</ele><time>2026-03-22T08:12:06Z</time></trkpt><trkpt lat="41.27149013566105" lon="14.691007005272967"><ele>333.0</ele><time>2026-03-22T08:12:09Z</time></trkpt><trkpt lat="41.27155579240057" lon="14.691004017019894"><ele>333.2</ele><time>2026-03-22T08:12:10Z</time></trkpt><trkpt lat="41.27165208671023" lon="14.690992035336592"><ele>333.4</ele><time>2026-03-22T08:12:12Z</time></trkpt><trkpt lat="41.27175277491635" lon="14.690972376126345"><ele>333.59999999999997</ele><time>2026-03-22T08:12:15Z</time></trkpt><trkpt lat="41.27186717223708" lon="14.69095342060574"><ele>333.79999999999995</ele><time>2026-03-22T08:12:17Z</time></trkpt><trkpt lat="41.271971671453436" lon="14.690959297857631"><ele>334.0</ele><time>2026-03-22T08:12:19Z</time></trkpt><trkpt lat="41.27203636238574" lon="14.690948452747874"><ele>334.0</ele><time>2026-03-22T08:12:21Z</time></trkpt><trkpt lat="41.27211630833287" lon="14.690964888980949"><ele>334.0</ele><time>2026-03-22T08:12:23Z</time></trkpt><trkpt lat="41.272147019454906" lon="14.691054062863431"><ele>334.0</ele><time>2026-03-22T08:12:25.999Z</time></trkpt><trkpt lat="41.27221912639937" lon="14.691113390293232"><ele>334.0</ele><time>2026-03-22T08:12:28.999Z</time></trkpt><trkpt lat="41.27228758405899" lon="14.691114311842336"><ele>334.0</ele><time>2026-03-22T08:12:32.999Z</time></trkpt><trkpt lat="41.272370660164654" lon="14.69111353848957"><ele>334.0</ele><time>2026-03-22T08:12:35.999Z</time></trkpt><trkpt lat="41.27244962039707" lon="14.69112336303705"><ele>334.3333333333333</ele><time>2026-03-22T08:12:38.999Z</time></trkpt><trkpt lat="41.27251888593667" lon="14.691146610754277"><ele>334.66666666666663</ele><time>2026-03-22T08:12:40.999Z</time></trkpt><trkpt lat="41.272600621398205" lon="14.691154024386767"><ele>335.0</ele><time>2026-03-22T08:12:42.999Z</time></trkpt><trkpt lat="41.27266932724917" lon="14.691117317997259"><ele>335.3333333333333</ele><time>2026-03-22T08:12:44.999Z</time></trkpt><trkpt lat="41.272746709669896" lon="14.691070575866489"><ele>335.6666666666667</ele><time>2026-03-22T08:12:46.999Z</time></trkpt><trkpt lat="41.27279545593069" lon="14.691010870657205"><ele>336.0</ele><time>2026-03-22T08:12:48.999Z</time></trkpt><trkpt lat="41.27287007881328" lon="14.69094699506639"><ele>336.14285714285717</ele><time>2026-03-22T08:12:51.999Z</time></trkpt><trkpt lat="41.27293467971728" lon="14.690934253930699"><ele>336.2857142857143</ele><time>2026-03-22T08:12:52.999Z</time></trkpt><trkpt lat="41.27299076679024" lon="14.690894053267577"><ele>336.42857142857144</ele><time>2026-03-22T08:12:54.999Z</time></trkpt><trkpt lat="41.273050114374605" lon="14.690865100233655"><ele>336.57142857142856</ele><time>2026-03-22T08:12:56.999Z</time></trkpt><trkpt lat="41.273130789112045" lon="14.690855112360234"><ele>336.7142857142857</ele><time>2026-03-22T08:12:59.999Z</time></trkpt><trkpt lat="41.27306055426197" lon="14.690772234441349"><ele>336.8571428571429</ele><time>2026-03-22T08:13:03.999Z</time></trkpt><trkpt lat="41.273025326357484" lon="14.690680207401599"><ele>337.0</ele><time>2026-03-22T08:13:06.999Z</time></trkpt><trkpt lat="41.273017314252016" lon="14.690574420633784"><ele>337.0</ele><time>2026-03-22T08:13:10.999Z</time></trkpt><trkpt lat="41.27299807193316" lon="14.690485191804177"><ele>337.0</ele><time>2026-03-22T08:13:12.999Z</time></trkpt><trkpt lat="41.273072198450535" lon="14.690484659039408"><ele>337.0</ele><time>2026-03-22T08:13:20.999Z</time></trkpt><trkpt lat="41.27315386013347" lon="14.690554493767964"><ele>337.0</ele><time>2026-03-22T08:13:23.999Z</time></trkpt><trkpt lat="41.27323001465186" lon="14.690598980741507"><ele>337.0</ele><time>2026-03-22T08:13:25.999Z</time></trkpt><trkpt lat="41.27331920071242" lon="14.690644825990557"><ele>337.0</ele><time>2026-03-22T08:13:27.999Z</time></trkpt><trkpt lat="41.27342376295211" lon="14.690671704788848"><ele>336.6</ele><time>2026-03-22T08:13:29.999Z</time></trkpt><trkpt lat="41.273526111638326" lon="14.69068897156707"><ele>336.20000000000005</ele><time>2026-03-22T08:13:31.999Z</time></trkpt><trkpt lat="41.27364098209829" lon="14.69068835765965"><ele>335.8</ele><time>2026-03-22T08:13:33.999Z</time></trkpt><trkpt lat="41.27370574735381" lon="14.69068618524785"><ele>335.4</ele><time>2026-03-22T08:13:34.999Z</time></trkpt><trkpt lat="41.27377429156082" lon="14.69067357751125"><ele>335.0</ele><time>2026-03-22T08:13:35.999Z</time></trkpt><trkpt lat="41.27387906038561" lon="14.690647588212855"><ele>335.8</ele><time>2026-03-22T08:13:37.999Z</time></trkpt><trkpt lat="41.27396839128753" lon="14.690629619602595"><ele>336.6</ele><time>2026-03-22T08:13:39.998Z</time></trkpt><trkpt lat="41.27406920997283" lon="14.690624411831456"><ele>337.4</ele><time>2026-03-22T08:13:41.998Z</time></trkpt><trkpt lat="41.27415040340948" lon="14.690614309531776"><ele>338.2</ele><time>2026-03-22T08:13:42.998Z</time></trkpt><trkpt lat="41.27425107323818" lon="14.690613424660112"><ele>339.0</ele><time>2026-03-22T08:13:44.998Z</time></trkpt><trkpt lat="41.27429098827862" lon="14.690699823681419"><ele>339.0</ele><time>2026-03-22T08:13:48.998Z</time></trkpt><trkpt lat="41.27428819736441" lon="14.690833064051235"><ele>339.0</ele><time>2026-03-22T08:13:51Z</time></trkpt><trkpt lat="41.2743449438243" lon="14.690933012314705"><ele>339.0</ele><time>2026-03-22T08:13:53Z</time></trkpt><trkpt lat="41.27444280313534" lon="14.690973019413509"><ele>339.0</ele><time>2026-03-22T08:13:55Z</time></trkpt><trkpt lat="41.27450678419486" lon="14.690960611346428"><ele>339.0</ele><time>2026-03-22T08:13:56Z</time></trkpt><trkpt lat="41.274573895616086" lon="14.69094312201482"><ele>339.0</ele><time>2026-03-22T08:13:57Z</time></trkpt><trkpt lat="41.27467567493284" lon="14.69089491839951"><ele>339.0</ele><time>2026-03-22T08:13:59Z</time></trkpt><trkpt lat="41.274736961437405" lon="14.690868441269354"><ele>339.0</ele><time>2026-03-22T08:14:02Z</time></trkpt><trkpt lat="41.27491955317165" lon="14.690838460640464"><ele>339.0</ele><time>2026-03-22T08:14:41.999Z</time></trkpt><trkpt lat="41.27504154977143" lon="14.690799508392704"><ele>339.0</ele><time>2026-03-22T08:14:43.999Z</time></trkpt><trkpt lat="41.27514778647357" lon="14.690764134605054"><ele>339.0</ele><time>2026-03-22T08:14:45.999Z</time></trkpt><trkpt lat="41.27526388420626" lon="14.6907366915158"><ele>339.0</ele><time>2026-03-22T08:14:47.999Z</time></trkpt><trkpt lat="41.275361597354994" lon="14.690689482045578"><ele>339.0</ele><time>2026-03-22T08:14:49.999Z</time></trkpt><trkpt lat="41.275431599304774" lon="14.69066243000511"><ele>339.0</ele><time>2026-03-22T08:14:50.999Z</time></trkpt><trkpt lat="41.275542064658815" lon="14.690620796649165"><ele>339.0</ele><time>2026-03-22T08:14:52.999Z</time></trkpt><trkpt lat="41.27563406710112" lon="14.690571605878338"><ele>339.0</ele><time>2026-03-22T08:14:54.999Z</time></trkpt><trkpt lat="41.27575325736582" lon="14.69053530974152"><ele>339.0</ele><time>2026-03-22T08:14:56.999Z</time></trkpt><trkpt lat="41.275818925619895" lon="14.690530283395127"><ele>339.0</ele><time>2026-03-22T08:14:57.999Z</time></trkpt><trkpt lat="41.27588457751483" lon="14.690526584960072"><ele>339.0</ele><time>2026-03-22T08:14:58.999Z</time></trkpt><trkpt lat="41.276009646650046" lon="14.690525715014077"><ele>339.0</ele><time>2026-03-22T08:15:00.999Z</time></trkpt><trkpt lat="41.27608861671101" lon="14.690669152386803"><ele>339.0</ele><time>2026-03-22T08:15:01.999Z</time></trkpt><trkpt lat="41.276197135188575" lon="14.690678426635944"><ele>339.0</ele><time>2026-03-22T08:15:03.999Z</time></trkpt><trkpt lat="41.27626366289085" lon="14.690553611830287"><ele>339.0</ele><time>2026-03-22T08:15:04.999Z</time></trkpt><trkpt lat="41.27637353367075" lon="14.6905174481221"><ele>339.0</ele><time>2026-03-22T08:15:06.999Z</time></trkpt><trkpt lat="41.27647625351034" lon="14.690486777915831"><ele>339.0</ele><time>2026-03-22T08:15:08.999Z</time></trkpt><trkpt lat="41.27657334237431" lon="14.690479700936162"><ele>339.6</ele><time>2026-03-22T08:15:10.999Z</time></trkpt><trkpt lat="41.2766926925975" lon="14.690473519680204"><ele>340.2</ele><time>2026-03-22T08:15:12.999Z</time></trkpt><trkpt lat="41.27679225502461" lon="14.690470116326036"><ele>340.8</ele><time>2026-03-22T08:15:14.999Z</time></trkpt><trkpt lat="41.276870038151884" lon="14.690466081554137"><ele>341.40000000000003</ele><time>2026-03-22T08:15:17.999Z</time></trkpt><trkpt lat="41.27692742144692" lon="14.690405558780867"><ele>342.0</ele><time>2026-03-22T08:15:19.999Z</time></trkpt><trkpt lat="41.27703075056309" lon="14.690389039943016"><ele>342.0</ele><time>2026-03-22T08:15:21.999Z</time></trkpt><trkpt lat="41.27710104454414" lon="14.690380920340077"><ele>342.0</ele><time>2026-03-22T08:15:23.999Z</time></trkpt><trkpt lat="41.27717429712282" lon="14.690437653365898"><ele>342.0</ele><time>2026-03-22T08:15:25.999Z</time></trkpt><trkpt lat="41.27729269778268" lon="14.690458715889191"><ele>342.0</ele><time>2026-03-22T08:15:27.999Z</time></trkpt><trkpt lat="41.277356239061376" lon="14.690463070842371"><ele>342.0</ele><time>2026-03-22T08:15:28.999Z</time></trkpt><trkpt lat="41.277425421852826" lon="14.690497031286617"><ele>342.0</ele><time>2026-03-22T08:15:29.999Z</time></trkpt><trkpt lat="41.27749326012998" lon="14.690524920966462"><ele>342.0</ele><time>2026-03-22T08:15:30.999Z</time></trkpt><trkpt lat="41.277560278418576" lon="14.690535418004815"><ele>342.0</ele><time>2026-03-22T08:15:31.999Z</time></trkpt><trkpt lat="41.27762585688739" lon="14.690527462925271"><ele>342.0</ele><time>2026-03-22T08:15:32.999Z</time></trkpt><trkpt lat="41.27773394046231" lon="14.690555954422868"><ele>342.0</ele><time>2026-03-22T08:15:34.999Z</time></trkpt><trkpt lat="41.27779863351487" lon="14.690571172098206"><ele>342.0</ele><time>2026-03-22T08:15:35.999Z</time></trkpt><trkpt lat="41.277866782644786" lon="14.690585578419594"><ele>342.0</ele><time>2026-03-22T08:15:36.999Z</time></trkpt><trkpt lat="41.27797700233366" lon="14.690599103812358"><ele>342.0</ele><time>2026-03-22T08:15:38.999Z</time></trkpt><trkpt lat="41.27806401397075" lon="14.690604513026086"><ele>342.0</ele><time>2026-03-22T08:15:40.999Z</time></trkpt><trkpt lat="41.27816613960646" lon="14.690643787907419"><ele>342.0</ele><time>2026-03-22T08:15:42.998Z</time></trkpt><trkpt lat="41.278257874747695" lon="14.690692708981276"><ele>342.0</ele><time>2026-03-22T08:15:44.998Z</time></trkpt><trkpt lat="41.27832701295708" lon="14.690728985720716"><ele>342.0</ele><time>2026-03-22T08:15:45.998Z</time></trkpt><trkpt lat="41.27842689444419" lon="14.690772599299999"><ele>342.8</ele><time>2026-03-22T08:15:47.998Z</time></trkpt><trkpt lat="41.27851726754769" lon="14.690786498072685"><ele>343.6</ele><time>2026-03-22T08:15:48.998Z</time></trkpt><trkpt lat="41.27861787083774" lon="14.690849919698572"><ele>344.40000000000003</ele><time>2026-03-22T08:15:50.998Z</time></trkpt><trkpt lat="41.27872573793749" lon="14.690877570514903"><ele>345.20000000000005</ele><time>2026-03-22T08:15:52.998Z</time></trkpt><trkpt lat="41.27883904630764" lon="14.690887104783712"><ele>346.0</ele><time>2026-03-22T08:15:54.998Z</time></trkpt><trkpt lat="41.27891707468758" lon="14.690895692537568"><ele>346.1428571428571</ele><time>2026-03-22T08:15:57Z</time></trkpt><trkpt lat="41.278978233780286" lon="14.690916130833324"><ele>346.28571428571433</ele><time>2026-03-22T08:15:59Z</time></trkpt><trkpt lat="41.279040427724155" lon="14.690944802894087"><ele>346.42857142857144</ele><time>2026-03-22T08:16:01Z</time></trkpt><trkpt lat="41.27909663121914" lon="14.69098753360474"><ele>346.57142857142856</ele><time>2026-03-22T08:16:03Z</time></trkpt><trkpt lat="41.279157460188195" lon="14.6910275996607"><ele>346.71428571428567</ele><time>2026-03-22T08:16:05Z</time></trkpt><trkpt lat="41.27923349724553" lon="14.691085761748417"><ele>346.8571428571429</ele><time>2026-03-22T08:16:08Z</time></trkpt><trkpt lat="41.27929876278322" lon="14.691127414439162"><ele>347.0</ele><time>2026-03-22T08:16:11Z</time></trkpt><trkpt lat="41.279373572957056" lon="14.691205731447408"><ele>347.0</ele><time>2026-03-22T08:16:14Z</time></trkpt><trkpt lat="41.279437039518854" lon="14.691263987160719"><ele>347.0</ele><time>2026-03-22T08:16:17Z</time></trkpt><trkpt lat="41.2794893499015" lon="14.691337480195727"><ele>347.0</ele><time>2026-03-22T08:16:20Z</time></trkpt><trkpt lat="41.279564252836984" lon="14.691422430263772"><ele>347.0</ele><time>2026-03-22T08:16:23Z</time></trkpt><trkpt lat="41.279625323623556" lon="14.691457643309212"><ele>347.0</ele><time>2026-03-22T08:16:25Z</time></trkpt><trkpt lat="41.27969911436686" lon="14.691522803677664"><ele>347.0</ele><time>2026-03-22T08:16:27Z</time></trkpt><trkpt lat="41.27978009553452" lon="14.691579493908558"><ele>348.0</ele><time>2026-03-22T08:16:31Z</time></trkpt><trkpt lat="41.279853952714234" lon="14.69161398289629"><ele>349.0</ele><time>2026-03-22T08:16:34Z</time></trkpt><trkpt lat="41.27995613477144" lon="14.69160296917419"><ele>350.0</ele><time>2026-03-22T08:16:36Z</time></trkpt><trkpt lat="41.280019829166555" lon="14.691594918142467"><ele>351.0</ele><time>2026-03-22T08:16:37Z</time></trkpt><trkpt lat="41.28012435008054" lon="14.691563885623411"><ele>352.0</ele><time>2026-03-22T08:16:39Z</time></trkpt><trkpt lat="41.28023795057324" lon="14.691565704221828"><ele>352.0</ele><time>2026-03-22T08:16:41Z</time></trkpt><trkpt lat="41.280333472322845" lon="14.69154788055855"><ele>352.0</ele><time>2026-03-22T08:16:42Z</time></trkpt><trkpt lat="41.28045630471211" lon="14.691502066945429"><ele>352.0</ele><time>2026-03-22T08:16:43.999Z</time></trkpt><trkpt lat="41.2805509984443" lon="14.691484935100448"><ele>352.0</ele><time>2026-03-22T08:16:45.999Z</time></trkpt><trkpt lat="41.280654195180695" lon="14.691411174098999"><ele>352.0</ele><time>2026-03-22T08:16:47.999Z</time></trkpt><trkpt lat="41.280741308769464" lon="14.691355509566126"><ele>352.3333333333333</ele><time>2026-03-22T08:16:49.999Z</time></trkpt><trkpt lat="41.280808405564976" lon="14.69132824323483"><ele>352.66666666666663</ele><time>2026-03-22T08:16:51.999Z</time></trkpt><trkpt lat="41.28087699042279" lon="14.691278623943065"><ele>353.0</ele><time>2026-03-22T08:16:53.999Z</time></trkpt><trkpt lat="41.28096219434244" lon="14.69122564944721"><ele>353.3333333333333</ele><time>2026-03-22T08:16:55.999Z</time></trkpt><trkpt lat="41.2810507923194" lon="14.69117595171957"><ele>353.6666666666667</ele><time>2026-03-22T08:16:57.999Z</time></trkpt><trkpt lat="41.281122344343224" lon="14.691109576708621"><ele>354.0</ele><time>2026-03-22T08:17:01.999Z</time></trkpt><trkpt lat="41.28120304182618" lon="14.691157448504548"><ele>354.0</ele><time>2026-03-22T08:17:03.999Z</time></trkpt><trkpt lat="41.2812851779905" lon="14.69122416224189"><ele>354.0</ele><time>2026-03-22T08:17:05.999Z</time></trkpt><trkpt lat="41.281350888968454" lon="14.691319034034052"><ele>354.0</ele><time>2026-03-22T08:17:07.999Z</time></trkpt><trkpt lat="41.281386137408816" lon="14.69143100217317"><ele>354.0</ele><time>2026-03-22T08:17:09.999Z</time></trkpt><trkpt lat="41.28137491627388" lon="14.691551837075101"><ele>354.0</ele><time>2026-03-22T08:17:11.999Z</time></trkpt><trkpt lat="41.281401710954235" lon="14.691719671516289"><ele>355.0</ele><time>2026-03-22T08:17:13.999Z</time></trkpt><trkpt lat="41.28143984458488" lon="14.6918736913171"><ele>356.0</ele><time>2026-03-22T08:17:15.999Z</time></trkpt><trkpt lat="41.28151126310552" lon="14.691875072739288"><ele>357.0</ele><time>2026-03-22T08:17:16.999Z</time></trkpt><trkpt lat="41.28158630656853" lon="14.691883522470034"><ele>358.0</ele><time>2026-03-22T08:17:17.999Z</time></trkpt><trkpt lat="41.2816561587611" lon="14.691933168480537"><ele>359.0</ele><time>2026-03-22T08:17:18.999Z</time></trkpt><trkpt lat="41.281733596059944" lon="14.69194232733596"><ele>360.0</ele><time>2026-03-22T08:17:19.999Z</time></trkpt><trkpt lat="41.28178444181819" lon="14.6919995253879"><ele>361.0</ele><time>2026-03-22T08:17:20.999Z</time></trkpt><trkpt lat="41.28177468053578" lon="14.692089246270907"><ele>362.0</ele><time>2026-03-22T08:17:21.999Z</time></trkpt><trkpt lat="41.28179840955223" lon="14.692178824059551"><ele>363.0</ele><time>2026-03-22T08:17:22.999Z</time></trkpt><trkpt lat="41.281816711492084" lon="14.692280311612246"><ele>364.0</ele><time>2026-03-22T08:17:23.999Z</time></trkpt><trkpt lat="41.28184307147667" lon="14.69239762488271"><ele>365.0</ele><time>2026-03-22T08:17:24.999Z</time></trkpt><trkpt lat="41.28188051636424" lon="14.692525591247783"><ele>366.0</ele><time>2026-03-22T08:17:25.999Z</time></trkpt><trkpt lat="41.28192466587164" lon="14.692640311838801"><ele>366.5</ele><time>2026-03-22T08:17:26.999Z</time></trkpt><trkpt lat="41.281971590734344" lon="14.69276979569629"><ele>367.0</ele><time>2026-03-22T08:17:27.999Z</time></trkpt><trkpt lat="41.282019598768635" lon="14.692920403421379"><ele>367.5</ele><time>2026-03-22T08:17:28.999Z</time></trkpt><trkpt lat="41.28206350061777" lon="14.693058166648626"><ele>368.0</ele><time>2026-03-22T08:17:29.999Z</time></trkpt><trkpt lat="41.282115485907134" lon="14.693218601063258"><ele>368.0</ele><time>2026-03-22T08:17:30.999Z</time></trkpt><trkpt lat="41.282163085389705" lon="14.69336075816812"><ele>368.0</ele><time>2026-03-22T08:17:31.999Z</time></trkpt><trkpt lat="41.28222186552373" lon="14.693478902681703"><ele>368.0</ele><time>2026-03-22T08:17:32.999Z</time></trkpt><trkpt lat="41.282218196543155" lon="14.693592786491575"><ele>368.0</ele><time>2026-03-22T08:17:33.999Z</time></trkpt><trkpt lat="41.28221455571999" lon="14.693740834557861"><ele>368.0</ele><time>2026-03-22T08:17:35.999Z</time></trkpt><trkpt lat="41.28231938496776" lon="14.693839998716125"><ele>369.8571428571429</ele><time>2026-03-22T08:17:36.999Z</time></trkpt><trkpt lat="41.282361174447104" lon="14.693926306964306"><ele>371.71428571428567</ele><time>2026-03-22T08:17:37.999Z</time></trkpt><trkpt lat="41.28238800046191" lon="14.694005943451131"><ele>373.57142857142856</ele><time>2026-03-22T08:17:38.999Z</time></trkpt><trkpt lat="41.2824014714369" lon="14.69409169074368"><ele>375.42857142857144</ele><time>2026-03-22T08:17:39.999Z</time></trkpt><trkpt lat="41.28243025491325" lon="14.694166653845915"><ele>377.28571428571433</ele><time>2026-03-22T08:17:40.999Z</time></trkpt><trkpt lat="41.28246569150976" lon="14.694258944179293"><ele>379.1428571428571</ele><time>2026-03-22T08:17:41.999Z</time></trkpt><trkpt lat="41.28250694063145" lon="14.694353674147823"><ele>381.0</ele><time>2026-03-22T08:17:42.999Z</time></trkpt><trkpt lat="41.282553754823574" lon="14.694432804054282"><ele>381.0</ele><time>2026-03-22T08:17:43.999Z</time></trkpt><trkpt lat="41.28260655757364" lon="14.694486539506777"><ele>381.0</ele><time>2026-03-22T08:17:44.999Z</time></trkpt><trkpt lat="41.28270380384794" lon="14.694458210820303"><ele>381.0</ele><time>2026-03-22T08:17:46.999Z</time></trkpt><trkpt lat="41.2827379530853" lon="14.694325916270724"><ele>381.0</ele><time>2026-03-22T08:17:48.999Z</time></trkpt><trkpt lat="41.282760538362204" lon="14.694217168675499"><ele>381.0</ele><time>2026-03-22T08:17:49.999Z</time></trkpt><trkpt lat="41.28276423184992" lon="14.694113828248913"><ele>381.0</ele><time>2026-03-22T08:17:50.999Z</time></trkpt><trkpt lat="41.282786911721146" lon="14.693988118450257"><ele>383.25</ele><time>2026-03-22T08:17:51.999Z</time></trkpt><trkpt lat="41.28281715836636" lon="14.693856150181771"><ele>385.5</ele><time>2026-03-22T08:17:52.999Z</time></trkpt><trkpt lat="41.2828615479361" lon="14.693713547977335"><ele>387.75</ele><time>2026-03-22T08:17:53.999Z</time></trkpt><trkpt lat="41.28292229395465" lon="14.693560185487334"><ele>390.0</ele><time>2026-03-22T08:17:54.999Z</time></trkpt><trkpt lat="41.28297739496662" lon="14.69343956926456"><ele>390.5</ele><time>2026-03-22T08:17:55.999Z</time></trkpt><trkpt lat="41.2830771844233" lon="14.693283492697882"><ele>391.0</ele><time>2026-03-22T08:17:56.998Z</time></trkpt><trkpt lat="41.28314371174861" lon="14.693107544670553"><ele>391.5</ele><time>2026-03-22T08:17:57.998Z</time></trkpt><trkpt lat="41.28320820059015" lon="14.693014655491197"><ele>392.0</ele><time>2026-03-22T08:17:58.998Z</time></trkpt><trkpt lat="41.28332002766209" lon="14.692880163795145"><ele>395.5</ele><time>2026-03-22T08:18:00.998Z</time></trkpt><trkpt lat="41.283407686895565" lon="14.692790140158273"><ele>399.0</ele><time>2026-03-22T08:18:01.998Z</time></trkpt><trkpt lat="41.283487291705214" lon="14.69271626301953"><ele>402.5</ele><time>2026-03-22T08:18:03Z</time></trkpt><trkpt lat="41.28360466619373" lon="14.69261985662306"><ele>406.0</ele><time>2026-03-22T08:18:04Z</time></trkpt><trkpt lat="41.28362981941978" lon="14.692466040361955"><ele>406.0</ele><time>2026-03-22T08:18:05Z</time></trkpt><trkpt lat="41.28366949256564" lon="14.692400942358768"><ele>406.0</ele><time>2026-03-22T08:18:06Z</time></trkpt><trkpt lat="41.283766648134375" lon="14.692537509497436"><ele>406.0</ele><time>2026-03-22T08:18:07Z</time></trkpt><trkpt lat="41.283828699917386" lon="14.692574519827732"><ele>406.0</ele><time>2026-03-22T08:18:10Z</time></trkpt><trkpt lat="41.28392950212437" lon="14.692681977461904"><ele>406.0</ele><time>2026-03-22T08:18:12Z</time></trkpt><trkpt lat="41.283992651254515" lon="14.692760016861204"><ele>409.50000000000006</ele><time>2026-03-22T08:18:13Z</time></trkpt><trkpt lat="41.28406455112062" lon="14.69282547828831"><ele>413.0</ele><time>2026-03-22T08:18:14Z</time></trkpt><trkpt lat="41.2841300334121" lon="14.692872324784501"><ele>416.5</ele><time>2026-03-22T08:18:15Z</time></trkpt><trkpt lat="41.284202405322084" lon="14.692920444210404"><ele>420.0</ele><time>2026-03-22T08:18:16Z</time></trkpt><trkpt lat="41.284263078670705" lon="14.69296006444829"><ele>423.50000000000006</ele><time>2026-03-22T08:18:17Z</time></trkpt><trkpt lat="41.28433258106526" lon="14.693005017494531"><ele>427.0</ele><time>2026-03-22T08:18:18Z</time></trkpt><trkpt lat="41.28439798831881" lon="14.69304672454856"><ele>427.00000000000006</ele><time>2026-03-22T08:18:19Z</time></trkpt><trkpt lat="41.28448558911915" lon="14.69309597860305"><ele>427.0</ele><time>2026-03-22T08:18:20Z</time></trkpt><trkpt lat="41.28456193684661" lon="14.693124879262088"><ele>427.0</ele><time>2026-03-22T08:18:21Z</time></trkpt><trkpt lat="41.28463035703158" lon="14.693134336616984"><ele>427.0</ele><time>2026-03-22T08:18:22Z</time></trkpt><trkpt lat="41.28473171801601" lon="14.693092496602349"><ele>427.00000000000006</ele><time>2026-03-22T08:18:23Z</time></trkpt><trkpt lat="41.284801445367826" lon="14.693053892553033"><ele>427.0</ele><time>2026-03-22T08:18:24Z</time></trkpt><trkpt lat="41.28489954915267" lon="14.6930562809636"><ele>431.8</ele><time>2026-03-22T08:18:26Z</time></trkpt><trkpt lat="41.28493868171572" lon="14.693216208806367"><ele>436.6</ele><time>2026-03-22T08:18:28Z</time></trkpt><trkpt lat="41.284961422390715" lon="14.693326086764058"><ele>441.40000000000003</ele><time>2026-03-22T08:18:29Z</time></trkpt><trkpt lat="41.284978792092666" lon="14.693443894301453"><ele>446.20000000000005</ele><time>2026-03-22T08:18:30Z</time></trkpt><trkpt lat="41.284997235126696" lon="14.693567719979711"><ele>451.0</ele><time>2026-03-22T08:18:31Z</time></trkpt><trkpt lat="41.2850164838525" lon="14.693696955079073"><ele>451.6</ele><time>2026-03-22T08:18:32Z</time></trkpt><trkpt lat="41.28503725810401" lon="14.69383643246449"><ele>452.20000000000005</ele><time>2026-03-22T08:18:33Z</time></trkpt><trkpt lat="41.285061367029286" lon="14.693986859482377"><ele>452.79999999999995</ele><time>2026-03-22T08:18:34Z</time></trkpt><trkpt lat="41.28508898691649" lon="14.694125078323479"><ele>453.4</ele><time>2026-03-22T08:18:35Z</time></trkpt><trkpt lat="41.28512390536632" lon="14.694276194677462"><ele>454.0</ele><time>2026-03-22T08:18:36Z</time></trkpt><trkpt lat="41.285160848475954" lon="14.694425187863997"><ele>452.79999999999995</ele><time>2026-03-22T08:18:37Z</time></trkpt><trkpt lat="41.28520151536714" lon="14.694570828244382"><ele>451.59999999999997</ele><time>2026-03-22T08:18:38Z</time></trkpt><trkpt lat="41.28524514202142" lon="14.694699005270603"><ele>450.4</ele><time>2026-03-22T08:18:39Z</time></trkpt><trkpt lat="41.285306650277704" lon="14.69479518326724"><ele>449.2</ele><time>2026-03-22T08:18:40Z</time></trkpt><trkpt lat="41.28535304089244" lon="14.694873037637754"><ele>448.0</ele><time>2026-03-22T08:18:41Z</time></trkpt><trkpt lat="41.28540037541976" lon="14.69493424474358"><ele>448.0</ele><time>2026-03-22T08:18:42Z</time></trkpt><trkpt lat="41.28545137982952" lon="14.695009780162033"><ele>448.0</ele><time>2026-03-22T08:18:43Z</time></trkpt><trkpt lat="41.28550304927313" lon="14.695065694388456"><ele>448.0</ele><time>2026-03-22T08:18:44Z</time></trkpt><trkpt lat="41.285560743813306" lon="14.695118989900688"><ele>448.0</ele><time>2026-03-22T08:18:45Z</time></trkpt><trkpt lat="41.28562846773557" lon="14.695173191776913"><ele>448.0</ele><time>2026-03-22T08:18:46Z</time></trkpt><trkpt lat="41.28569932822009" lon="14.695202701970048"><ele>448.0</ele><time>2026-03-22T08:18:46.999Z</time></trkpt><trkpt lat="41.28575868871022" lon="14.69523856637075"><ele>448.0</ele><time>2026-03-22T08:18:47.999Z</time></trkpt><trkpt lat="41.2858753991323" lon="14.695261746920133"><ele>448.4</ele><time>2026-03-22T08:18:49.999Z</time></trkpt><trkpt lat="41.285999109044766" lon="14.695255078173272"><ele>448.79999999999995</ele><time>2026-03-22T08:18:51.999Z</time></trkpt><trkpt lat="41.28609861771246" lon="14.695244388876773"><ele>449.2</ele><time>2026-03-22T08:18:53.999Z</time></trkpt><trkpt lat="41.286188077323075" lon="14.69523068170882"><ele>449.6</ele><time>2026-03-22T08:18:55.999Z</time></trkpt><trkpt lat="41.286292040731084" lon="14.695202266279349"><ele>450.0</ele><time>2026-03-22T08:18:57.999Z</time></trkpt><trkpt lat="41.28640136635317" lon="14.695179849787715"><ele>458.6</ele><time>2026-03-22T08:18:59.999Z</time></trkpt><trkpt lat="41.28649090344092" lon="14.695153814986517"><ele>467.2</ele><time>2026-03-22T08:19:01.999Z</time></trkpt><trkpt lat="41.28659246545676" lon="14.69512448159804"><ele>475.79999999999995</ele><time>2026-03-22T08:19:03.999Z</time></trkpt><trkpt lat="41.28671824652482" lon="14.695111440299106"><ele>484.4</ele><time>2026-03-22T08:19:05.999Z</time></trkpt><trkpt lat="41.28681721114737" lon="14.695088133174881"><ele>493.0</ele><time>2026-03-22T08:19:07.999Z</time></trkpt><trkpt lat="41.28694455735509" lon="14.694867573114266"><ele>493.0</ele><time>2026-03-22T08:19:14.999Z</time></trkpt><trkpt lat="41.28695312780246" lon="14.694772942689955"><ele>492.99999999999994</ele><time>2026-03-22T08:19:15.999Z</time></trkpt><trkpt lat="41.28697016410221" lon="14.69465311840383"><ele>492.99999999999994</ele><time>2026-03-22T08:19:16.999Z</time></trkpt><trkpt lat="41.28698106670308" lon="14.694504968325544"><ele>493.0</ele><time>2026-03-22T08:19:17.999Z</time></trkpt><trkpt lat="41.28700105581384" lon="14.694345598737556"><ele>493.0</ele><time>2026-03-22T08:19:18.999Z</time></trkpt><trkpt lat="41.28701655210553" lon="14.69418085981881"><ele>495.75</ele><time>2026-03-22T08:19:19.999Z</time></trkpt><trkpt lat="41.28703105272033" lon="14.69401583650312"><ele>498.5</ele><time>2026-03-22T08:19:20.999Z</time></trkpt><trkpt lat="41.28704574582944" lon="14.693853504807832"><ele>501.25</ele><time>2026-03-22T08:19:21.999Z</time></trkpt><trkpt lat="41.28705355268804" lon="14.693689941602736"><ele>504.0</ele><time>2026-03-22T08:19:22.999Z</time></trkpt><trkpt lat="41.28706780645155" lon="14.693524661579344"><ele>504.5</ele><time>2026-03-22T08:19:23.999Z</time></trkpt><trkpt lat="41.28707701974761" lon="14.693361127599363"><ele>505.0</ele><time>2026-03-22T08:19:24.999Z</time></trkpt><trkpt lat="41.287087072375" lon="14.69319686139849"><ele>505.5</ele><time>2026-03-22T08:19:25.999Z</time></trkpt><trkpt lat="41.28709313007648" lon="14.6930495843655"><ele>506.0</ele><time>2026-03-22T08:19:26.999Z</time></trkpt><trkpt lat="41.28709863137751" lon="14.69290425535055"><ele>506.0</ele><time>2026-03-22T08:19:27.999Z</time></trkpt><trkpt lat="41.287112718330725" lon="14.692779201149264"><ele>506.0</ele><time>2026-03-22T08:19:28.999Z</time></trkpt><trkpt lat="41.287104213127535" lon="14.692659957160869"><ele>506.0</ele><time>2026-03-22T08:19:29.999Z</time></trkpt><trkpt lat="41.287125455639156" lon="14.692522556963441"><ele>506.0</ele><time>2026-03-22T08:19:30.999Z</time></trkpt><trkpt lat="41.287154480148324" lon="14.692397036143275"><ele>506.0</ele><time>2026-03-22T08:19:31.999Z</time></trkpt><trkpt lat="41.28714224233307" lon="14.692285951736439"><ele>504.8</ele><time>2026-03-22T08:19:32.999Z</time></trkpt><trkpt lat="41.287144680102486" lon="14.692184905424757"><ele>503.6</ele><time>2026-03-22T08:19:33.999Z</time></trkpt><trkpt lat="41.28727252904385" lon="14.692084116834943"><ele>502.4</ele><time>2026-03-22T08:19:34.999Z</time></trkpt><trkpt lat="41.287361885226524" lon="14.692027296657365"><ele>501.2</ele><time>2026-03-22T08:19:35.999Z</time></trkpt><trkpt lat="41.28744809970984" lon="14.691962511575234"><ele>500.0</ele><time>2026-03-22T08:19:36.999Z</time></trkpt><trkpt lat="41.28753191402998" lon="14.691897247210292"><ele>499.8</ele><time>2026-03-22T08:19:37.999Z</time></trkpt><trkpt lat="41.287597112796846" lon="14.691846878338795"><ele>499.6</ele><time>2026-03-22T08:19:38.999Z</time></trkpt><trkpt lat="41.28766748448997" lon="14.691792379865218"><ele>499.4</ele><time>2026-03-22T08:19:39.999Z</time></trkpt><trkpt lat="41.28775832417901" lon="14.691721454915259"><ele>499.2</ele><time>2026-03-22T08:19:40.999Z</time></trkpt><trkpt lat="41.28786961499261" lon="14.691636490323155"><ele>499.0</ele><time>2026-03-22T08:19:41.999Z</time></trkpt><trkpt lat="41.28798494454085" lon="14.691548442538387"><ele>497.75</ele><time>2026-03-22T08:19:42.999Z</time></trkpt><trkpt lat="41.28810821068476" lon="14.691452031857672"><ele>496.5</ele><time>2026-03-22T08:19:43.999Z</time></trkpt><trkpt lat="41.28823568599974" lon="14.691351064315079"><ele>495.25</ele><time>2026-03-22T08:19:44.999Z</time></trkpt><trkpt lat="41.28835226990199" lon="14.691270547170905"><ele>494.0</ele><time>2026-03-22T08:19:45.999Z</time></trkpt><trkpt lat="41.288464198844984" lon="14.69119972343533"><ele>494.0</ele><time>2026-03-22T08:19:46.999Z</time></trkpt><trkpt lat="41.28855157649179" lon="14.691161134827667"><ele>494.0</ele><time>2026-03-22T08:19:47.999Z</time></trkpt><trkpt lat="41.2886316498111" lon="14.691142018000235"><ele>494.0</ele><time>2026-03-22T08:19:48.999Z</time></trkpt><trkpt lat="41.288738863269565" lon="14.691124665960809"><ele>494.0</ele><time>2026-03-22T08:19:49.999Z</time></trkpt><trkpt lat="41.288872063693866" lon="14.691121150618903"><ele>494.0</ele><time>2026-03-22T08:19:50.999Z</time></trkpt><trkpt lat="41.28901579781693" lon="14.691122900189942"><ele>494.0</ele><time>2026-03-22T08:19:51.999Z</time></trkpt><trkpt lat="41.28915880573685" lon="14.691128958427479"><ele>494.0</ele><time>2026-03-22T08:19:52.999Z</time></trkpt><trkpt lat="41.28929970842321" lon="14.691135159202956"><ele>494.0</ele><time>2026-03-22T08:19:53.999Z</time></trkpt><trkpt lat="41.28944642379024" lon="14.691140136502959"><ele>494.0</ele><time>2026-03-22T08:19:54.999Z</time></trkpt><trkpt lat="41.28958855116655" lon="14.691143879275042"><ele>494.0</ele><time>2026-03-22T08:19:55.999Z</time></trkpt><trkpt lat="41.28973233817453" lon="14.691146842823501"><ele>494.0</ele><time>2026-03-22T08:19:56.999Z</time></trkpt><trkpt lat="41.28987557283614" lon="14.691149371819275"><ele>494.0</ele><time>2026-03-22T08:19:57.999Z</time></trkpt><trkpt lat="41.290000848778924" lon="14.691106178990024"><ele>494.0</ele><time>2026-03-22T08:19:58.998Z</time></trkpt><trkpt lat="41.29011137622595" lon="14.691114093059708"><ele>494.2</ele><time>2026-03-22T08:19:59.998Z</time></trkpt><trkpt lat="41.290211302792514" lon="14.691120352879103"><ele>494.4</ele><time>2026-03-22T08:20:00.998Z</time></trkpt><trkpt lat="41.290281763957275" lon="14.691118505633552"><ele>494.6</ele><time>2026-03-22T08:20:01.998Z</time></trkpt><trkpt lat="41.29034964708079" lon="14.691126733092418"><ele>494.8</ele><time>2026-03-22T08:20:02.998Z</time></trkpt><trkpt lat="41.290417650195465" lon="14.69111042408176"><ele>495.0</ele><time>2026-03-22T08:20:04.998Z</time></trkpt><trkpt lat="41.290396566349216" lon="14.690878750544734"><ele>495.0</ele><time>2026-03-22T08:20:21Z</time></trkpt><trkpt lat="41.29037287013895" lon="14.690762773702359"><ele>495.0</ele><time>2026-03-22T08:20:22Z</time></trkpt><trkpt lat="41.290368358310026" lon="14.69059770422681"><ele>495.0</ele><time>2026-03-22T08:20:23Z</time></trkpt><trkpt lat="41.29038551371362" lon="14.69046002611395"><ele>495.0</ele><time>2026-03-22T08:20:24Z</time></trkpt><trkpt lat="41.290425707914146" lon="14.6902956095406"><ele>495.0</ele><time>2026-03-22T08:20:25Z</time></trkpt><trkpt lat="41.29049457632525" lon="14.690153104327296"><ele>497.25</ele><time>2026-03-22T08:20:26Z</time></trkpt><trkpt lat="41.29061142787076" lon="14.690067340147102"><ele>499.5</ele><time>2026-03-22T08:20:27Z</time></trkpt><trkpt lat="41.29072640538872" lon="14.689973197480823"><ele>501.75</ele><time>2026-03-22T08:20:28Z</time></trkpt><trkpt lat="41.29086318900837" lon="14.68987236367307"><ele>504.0</ele><time>2026-03-22T08:20:29Z</time></trkpt><trkpt lat="41.290980798245634" lon="14.689756693517339"><ele>504.0</ele><time>2026-03-22T08:20:30Z</time></trkpt><trkpt lat="41.291090861490716" lon="14.689665874415422"><ele>504.0</ele><time>2026-03-22T08:20:31Z</time></trkpt><trkpt lat="41.291194999273024" lon="14.689552454350528"><ele>504.0</ele><time>2026-03-22T08:20:32Z</time></trkpt><trkpt lat="41.291282194628025" lon="14.689430592472874"><ele>504.0</ele><time>2026-03-22T08:20:33Z</time></trkpt><trkpt lat="41.291339549232184" lon="14.689283472407453"><ele>504.25</ele><time>2026-03-22T08:20:34Z</time></trkpt><trkpt lat="41.2913693424325" lon="14.689115667997065"><ele>504.5</ele><time>2026-03-22T08:20:35Z</time></trkpt><trkpt lat="41.29139001881603" lon="14.688937929480717"><ele>504.75</ele><time>2026-03-22T08:20:36Z</time></trkpt><trkpt lat="41.29141389403949" lon="14.688755264291444"><ele>505.0</ele><time>2026-03-22T08:20:37Z</time></trkpt><trkpt lat="41.29143568838359" lon="14.688569189291217"><ele>505.0</ele><time>2026-03-22T08:20:38Z</time></trkpt><trkpt lat="41.29144762127496" lon="14.688380328492709"><ele>505.0</ele><time>2026-03-22T08:20:39Z</time></trkpt><trkpt lat="41.291454034842275" lon="14.688187245246034"><ele>505.0</ele><time>2026-03-22T08:20:40Z</time></trkpt><trkpt lat="41.291463289055024" lon="14.687995281665165"><ele>505.0</ele><time>2026-03-22T08:20:41Z</time></trkpt><trkpt lat="41.291488248090005" lon="14.687818061271846"><ele>502.5</ele><time>2026-03-22T08:20:42Z</time></trkpt><trkpt lat="41.29154349702745" lon="14.687651832112172"><ele>500.0</ele><time>2026-03-22T08:20:43Z</time></trkpt><trkpt lat="41.291621191758104" lon="14.687489469313666"><ele>497.5</ele><time>2026-03-22T08:20:44Z</time></trkpt><trkpt lat="41.29172515379241" lon="14.687346782792531"><ele>495.0</ele><time>2026-03-22T08:20:45Z</time></trkpt><trkpt lat="41.291840230123945" lon="14.687235492478266"><ele>495.0</ele><time>2026-03-22T08:20:46Z</time></trkpt><trkpt lat="41.29197603104203" lon="14.687166358520754"><ele>495.0</ele><time>2026-03-22T08:20:47Z</time></trkpt><trkpt lat="41.29212342482529" lon="14.68714115585235"><ele>495.0</ele><time>2026-03-22T08:20:48Z</time></trkpt><trkpt lat="41.29226194691958" lon="14.687097226120638"><ele>495.0</ele><time>2026-03-22T08:20:49Z</time></trkpt><trkpt lat="41.292402427821884" lon="14.68711189281552"><ele>496.5</ele><time>2026-03-22T08:20:50Z</time></trkpt><trkpt lat="41.292533214477935" lon="14.687160383758629"><ele>498.0</ele><time>2026-03-22T08:20:51Z</time></trkpt><trkpt lat="41.292653795800575" lon="14.687191484672827"><ele>499.5</ele><time>2026-03-22T08:20:52Z</time></trkpt><trkpt lat="41.2927524045472" lon="14.68718020920664"><ele>501.0</ele><time>2026-03-22T08:20:53Z</time></trkpt><trkpt lat="41.29284104068651" lon="14.687118052433537"><ele>501.0</ele><time>2026-03-22T08:20:54Z</time></trkpt><trkpt lat="41.29292518554829" lon="14.686998113356514"><ele>501.0</ele><time>2026-03-22T08:20:55Z</time></trkpt><trkpt lat="41.29298995229579" lon="14.68683131804153"><ele>501.0</ele><time>2026-03-22T08:20:56Z</time></trkpt><trkpt lat="41.29303648563066" lon="14.686641361978369"><ele>501.0</ele><time>2026-03-22T08:20:57Z</time></trkpt><trkpt lat="41.29308273872983" lon="14.686447765751625"><ele>499.0</ele><time>2026-03-22T08:20:58Z</time></trkpt><trkpt lat="41.29312730579164" lon="14.686271427643467"><ele>497.0</ele><time>2026-03-22T08:20:58.999Z</time></trkpt><trkpt lat="41.29317303961678" lon="14.686092096015505"><ele>495.0</ele><time>2026-03-22T08:20:59.999Z</time></trkpt><trkpt lat="41.293224425812284" lon="14.685935443273204"><ele>493.0</ele><time>2026-03-22T08:21:00.999Z</time></trkpt><trkpt lat="41.29329022384727" lon="14.68580545232971"><ele>492.0</ele><time>2026-03-22T08:21:01.999Z</time></trkpt><trkpt lat="41.293399991330766" lon="14.685749900767991"><ele>491.0</ele><time>2026-03-22T08:21:02.999Z</time></trkpt><trkpt lat="41.293518297328845" lon="14.685707252716789"><ele>490.0</ele><time>2026-03-22T08:21:03.999Z</time></trkpt><trkpt lat="41.29364588650481" lon="14.685648417895749"><ele>489.0</ele><time>2026-03-22T08:21:04.999Z</time></trkpt><trkpt lat="41.293787510983506" lon="14.68560632203532"><ele>488.25</ele><time>2026-03-22T08:21:05.999Z</time></trkpt><trkpt lat="41.29392339183575" lon="14.685553843669652"><ele>487.5</ele><time>2026-03-22T08:21:06.999Z</time></trkpt><trkpt lat="41.29403840728643" lon="14.685487375806394"><ele>486.75</ele><time>2026-03-22T08:21:07.999Z</time></trkpt><trkpt lat="41.29414217345758" lon="14.685390554592734"><ele>486.0</ele><time>2026-03-22T08:21:08.999Z</time></trkpt><trkpt lat="41.2942245153842" lon="14.685235561404626"><ele>486.0</ele><time>2026-03-22T08:21:09.999Z</time></trkpt><trkpt lat="41.294288828837715" lon="14.685053525427632"><ele>486.0</ele><time>2026-03-22T08:21:10.999Z</time></trkpt><trkpt lat="41.29435216833932" lon="14.684882134490696"><ele>486.0</ele><time>2026-03-22T08:21:11.999Z</time></trkpt><trkpt lat="41.294420775087914" lon="14.684719385956368"><ele>486.0</ele><time>2026-03-22T08:21:12.999Z</time></trkpt><trkpt lat="41.294490224773924" lon="14.684548080106941"><ele>485.25</ele><time>2026-03-22T08:21:13.999Z</time></trkpt><trkpt lat="41.29455879001279" lon="14.684387176050635"><ele>484.5</ele><time>2026-03-22T08:21:14.999Z</time></trkpt><trkpt lat="41.29462710145821" lon="14.684225026327"><ele>483.75</ele><time>2026-03-22T08:21:15.999Z</time></trkpt><trkpt lat="41.29470244797789" lon="14.684064848677918"><ele>483.0</ele><time>2026-03-22T08:21:16.999Z</time></trkpt><trkpt lat="41.294777303861586" lon="14.683929264855673"><ele>483.59999999999997</ele><time>2026-03-22T08:21:17.999Z</time></trkpt><trkpt lat="41.29486343579887" lon="14.683811951073219"><ele>484.19999999999993</ele><time>2026-03-22T08:21:18.999Z</time></trkpt><trkpt lat="41.29496476559944" lon="14.68372437976553"><ele>484.8</ele><time>2026-03-22T08:21:19.999Z</time></trkpt><trkpt lat="41.29505519116549" lon="14.683666737875841"><ele>485.4</ele><time>2026-03-22T08:21:20.999Z</time></trkpt><trkpt lat="41.29512342936012" lon="14.683635430227007"><ele>486.0</ele><time>2026-03-22T08:21:21.999Z</time></trkpt><trkpt lat="41.29518369993222" lon="14.68358144409645"><ele>486.0</ele><time>2026-03-22T08:21:23.999Z</time></trkpt><trkpt lat="41.2952579253542" lon="14.68356729159648"><ele>486.0</ele><time>2026-03-22T08:21:25.999Z</time></trkpt><trkpt lat="41.29527800132111" lon="14.683322132650405"><ele>486.0</ele><time>2026-03-22T08:21:26.999Z</time></trkpt><trkpt lat="41.295285809957846" lon="14.683162650508871"><ele>486.0</ele><time>2026-03-22T08:21:27.999Z</time></trkpt><trkpt lat="41.29528692602332" lon="14.682991083076242"><ele>486.0</ele><time>2026-03-22T08:21:28.999Z</time></trkpt><trkpt lat="41.2952755759837" lon="14.682822185489364"><ele>486.0</ele><time>2026-03-22T08:21:29.999Z</time></trkpt><trkpt lat="41.29526233291809" lon="14.682692457838883"><ele>486.0</ele><time>2026-03-22T08:21:30.999Z</time></trkpt><trkpt lat="41.295253827418655" lon="14.682600248600071"><ele>486.0</ele><time>2026-03-22T08:21:31.999Z</time></trkpt><trkpt lat="41.295371852736096" lon="14.682538852225687"><ele>486.0</ele><time>2026-03-22T08:21:33.999Z</time></trkpt><trkpt lat="41.29544455614913" lon="14.682494126436664"><ele>486.0</ele><time>2026-03-22T08:21:34.999Z</time></trkpt><trkpt lat="41.29552569143794" lon="14.682478312471103"><ele>486.0</ele><time>2026-03-22T08:21:35.999Z</time></trkpt><trkpt lat="41.29562230977897" lon="14.682477037548379"><ele>486.0</ele><time>2026-03-22T08:21:36.999Z</time></trkpt><trkpt lat="41.2956978404997" lon="14.682459244506035"><ele>486.0</ele><time>2026-03-22T08:21:37.999Z</time></trkpt><trkpt lat="41.29571120697793" lon="14.682342075140433"><ele>486.0</ele><time>2026-03-22T08:21:39.999Z</time></trkpt><trkpt lat="41.295650178975414" lon="14.68226688389749"><ele>486.0</ele><time>2026-03-22T08:21:40.999Z</time></trkpt><trkpt lat="41.29567420849345" lon="14.682147454050904"><ele>489.4</ele><time>2026-03-22T08:21:42.999Z</time></trkpt><trkpt lat="41.295798217998055" lon="14.682200085604883"><ele>492.8</ele><time>2026-03-22T08:21:44.999Z</time></trkpt><trkpt lat="41.295864183548616" lon="14.68220035375822"><ele>496.19999999999993</ele><time>2026-03-22T08:21:45.999Z</time></trkpt><trkpt lat="41.295974519126894" lon="14.682157163747627"><ele>499.59999999999997</ele><time>2026-03-22T08:21:46.999Z</time></trkpt><trkpt lat="41.29602492272522" lon="14.682078853620428"><ele>503.0</ele><time>2026-03-22T08:21:47.999Z</time></trkpt><trkpt lat="41.29606106020262" lon="14.681969187861506"><ele>505.49999999999994</ele><time>2026-03-22T08:21:48.999Z</time></trkpt><trkpt lat="41.296071081017416" lon="14.681851137101313"><ele>508.0</ele><time>2026-03-22T08:21:49.999Z</time></trkpt><trkpt lat="41.29610399430493" lon="14.681730549424701"><ele>510.5</ele><time>2026-03-22T08:21:50.999Z</time></trkpt><trkpt lat="41.29612772900993" lon="14.681620063523427"><ele>513.0</ele><time>2026-03-22T08:21:51.999Z</time></trkpt><trkpt lat="41.296191519832306" lon="14.68155203716903"><ele>515.5</ele><time>2026-03-22T08:21:52.999Z</time></trkpt><trkpt lat="41.296261139289925" lon="14.68148388318444"><ele>518.0</ele><time>2026-03-22T08:21:53.999Z</time></trkpt><trkpt lat="41.29633367715217" lon="14.681421968562482"><ele>519.0</ele><time>2026-03-22T08:21:54.999Z</time></trkpt><trkpt lat="41.296469189951715" lon="14.68135660354471"><ele>520.0</ele><time>2026-03-22T08:21:56.999Z</time></trkpt><trkpt lat="41.296554941490285" lon="14.68131805940202"><ele>521.0</ele><time>2026-03-22T08:21:57.999Z</time></trkpt><trkpt lat="41.29665073729944" lon="14.681278285976429"><ele>522.0</ele><time>2026-03-22T08:21:58.999Z</time></trkpt><trkpt lat="41.29674005860325" lon="14.681241671160782"><ele>523.0</ele><time>2026-03-22T08:22:00.999Z</time></trkpt><trkpt lat="41.2968547208795" lon="14.681178631901819"><ele>523.0</ele><time>2026-03-22T08:22:02.999Z</time></trkpt><trkpt lat="41.29692114711475" lon="14.681125503745617"><ele>523.0</ele><time>2026-03-22T08:22:03.999Z</time></trkpt><trkpt lat="41.296993201886075" lon="14.681031449134185"><ele>523.0</ele><time>2026-03-22T08:22:04.999Z</time></trkpt><trkpt lat="41.29705925690864" lon="14.680953846518133"><ele>523.0</ele><time>2026-03-22T08:22:05.999Z</time></trkpt><trkpt lat="41.297136089708836" lon="14.680873887830664"><ele>523.0</ele><time>2026-03-22T08:22:06.999Z</time></trkpt><trkpt lat="41.29721466792315" lon="14.680805456156188"><ele>524.6666666666667</ele><time>2026-03-22T08:22:07.999Z</time></trkpt><trkpt lat="41.297293545346065" lon="14.680768378712921"><ele>526.3333333333334</ele><time>2026-03-22T08:22:08.999Z</time></trkpt><trkpt lat="41.29736378832781" lon="14.680726129386377"><ele>528.0</ele><time>2026-03-22T08:22:09.999Z</time></trkpt><trkpt lat="41.297408296423505" lon="14.680661185361492"><ele>529.6666666666666</ele><time>2026-03-22T08:22:11.998Z</time></trkpt><trkpt lat="41.297318719760845" lon="14.680588515042801"><ele>531.3333333333333</ele><time>2026-03-22T08:22:15Z</time></trkpt><trkpt lat="41.29723351691378" lon="14.680603755220776"><ele>533.0</ele><time>2026-03-22T08:22:16Z</time></trkpt><trkpt lat="41.297127901344986" lon="14.680628128392257"><ele>534.25</ele><time>2026-03-22T08:22:17Z</time></trkpt><trkpt lat="41.29701326728818" lon="14.680648592525024"><ele>535.5</ele><time>2026-03-22T08:22:18Z</time></trkpt><trkpt lat="41.29688583195743" lon="14.680672344433278"><ele>536.75</ele><time>2026-03-22T08:22:19Z</time></trkpt><trkpt lat="41.29676060165472" lon="14.68070288663948"><ele>538.0</ele><time>2026-03-22T08:22:20Z</time></trkpt><trkpt lat="41.29662534060434" lon="14.680737192669243"><ele>538.0</ele><time>2026-03-22T08:22:21Z</time></trkpt><trkpt lat="41.296505737828674" lon="14.680753023015269"><ele>538.0</ele><time>2026-03-22T08:22:22Z</time></trkpt><trkpt lat="41.29640840463129" lon="14.680757612497528"><ele>538.0</ele><time>2026-03-22T08:22:23Z</time></trkpt><trkpt lat="41.296321271914636" lon="14.680718180485227"><ele>538.0</ele><time>2026-03-22T08:22:24Z</time></trkpt><trkpt lat="41.29624228795468" lon="14.680645954154349"><ele>538.0</ele><time>2026-03-22T08:22:25Z</time></trkpt><trkpt lat="41.29618039814355" lon="14.680555413400795"><ele>537.6666666666667</ele><time>2026-03-22T08:22:26Z</time></trkpt><trkpt lat="41.2961566692446" lon="14.680456117405207"><ele>537.3333333333334</ele><time>2026-03-22T08:22:27Z</time></trkpt><trkpt lat="41.29615896986292" lon="14.680347877798575"><ele>537.0</ele><time>2026-03-22T08:22:28Z</time></trkpt><trkpt lat="41.296222264277944" lon="14.68025620618849"><ele>536.6666666666666</ele><time>2026-03-22T08:22:29Z</time></trkpt><trkpt lat="41.29628466141009" lon="14.68017696057017"><ele>536.3333333333333</ele><time>2026-03-22T08:22:30Z</time></trkpt><trkpt lat="41.29633628258396" lon="14.680067828208434"><ele>536.0</ele><time>2026-03-22T08:22:31Z</time></trkpt><trkpt lat="41.296399381308824" lon="14.67996879307793"><ele>538.1666666666666</ele><time>2026-03-22T08:22:32Z</time></trkpt><trkpt lat="41.29645832688533" lon="14.679854334571278"><ele>540.3333333333333</ele><time>2026-03-22T08:22:33Z</time></trkpt><trkpt lat="41.296514661963336" lon="14.679753123910466"><ele>542.5</ele><time>2026-03-22T08:22:34Z</time></trkpt><trkpt lat="41.2965634846224" lon="14.679665616984277"><ele>544.6666666666666</ele><time>2026-03-22T08:22:35Z</time></trkpt><trkpt lat="41.29659737639" lon="14.679565950448612"><ele>546.8333333333334</ele><time>2026-03-22T08:22:36Z</time></trkpt><trkpt lat="41.29660406743476" lon="14.679457620414128"><ele>549.0</ele><time>2026-03-22T08:22:37Z</time></trkpt><trkpt lat="41.29657582443271" lon="14.679345055384212"><ele>549.6</ele><time>2026-03-22T08:22:38Z</time></trkpt><trkpt lat="41.296515874733416" lon="14.679252072146488"><ele>550.2</ele><time>2026-03-22T08:22:39Z</time></trkpt><trkpt lat="41.29644112519262" lon="14.679169909830993"><ele>550.8000000000001</ele><time>2026-03-22T08:22:40Z</time></trkpt><trkpt lat="41.29636997625595" lon="14.679076407533918"><ele>551.4</ele><time>2026-03-22T08:22:41Z</time></trkpt><trkpt lat="41.29631060912789" lon="14.678984521717036"><ele>552.0</ele><time>2026-03-22T08:22:42Z</time></trkpt><trkpt lat="41.296280626613175" lon="14.678892863219508"><ele>552.0</ele><time>2026-03-22T08:22:43Z</time></trkpt><trkpt lat="41.296298977510155" lon="14.678792708228064"><ele>552.0</ele><time>2026-03-22T08:22:44Z</time></trkpt><trkpt lat="41.29635447700437" lon="14.678710157891016"><ele>552.0</ele><time>2026-03-22T08:22:45Z</time></trkpt><trkpt lat="41.29645201319875" lon="14.67871650154215"><ele>552.0</ele><time>2026-03-22T08:22:46Z</time></trkpt><trkpt lat="41.29652753569461" lon="14.678666308523118"><ele>552.0</ele><time>2026-03-22T08:22:47Z</time></trkpt><trkpt lat="41.29659289219738" lon="14.678610962611666"><ele>552.0</ele><time>2026-03-22T08:22:48Z</time></trkpt><trkpt lat="41.29663228338651" lon="14.67849600368871"><ele>555.2</ele><time>2026-03-22T08:22:49Z</time></trkpt><trkpt lat="41.29663037964875" lon="14.678356628278426"><ele>558.4000000000001</ele><time>2026-03-22T08:22:50Z</time></trkpt><trkpt lat="41.29664858207028" lon="14.6782257054027"><ele>561.5999999999999</ele><time>2026-03-22T08:22:51Z</time></trkpt><trkpt lat="41.296677707954544" lon="14.678094544440093"><ele>564.8</ele><time>2026-03-22T08:22:52Z</time></trkpt><trkpt lat="41.296722091890395" lon="14.677970144061625"><ele>568.0</ele><time>2026-03-22T08:22:53Z</time></trkpt><trkpt lat="41.29676150441166" lon="14.677846444189598"><ele>569.1999999999999</ele><time>2026-03-22T08:22:54Z</time></trkpt><trkpt lat="41.29679831838045" lon="14.67772733384289"><ele>570.4</ele><time>2026-03-22T08:22:55Z</time></trkpt><trkpt lat="41.29683729852609" lon="14.677597189801896"><ele>571.5999999999999</ele><time>2026-03-22T08:22:56Z</time></trkpt><trkpt lat="41.2968779350632" lon="14.677464031262723"><ele>572.8</ele><time>2026-03-22T08:22:57Z</time></trkpt><trkpt lat="41.29691396416797" lon="14.677325444829915"><ele>574.0</ele><time>2026-03-22T08:22:58Z</time></trkpt><trkpt lat="41.29695916107357" lon="14.677182854385094"><ele>574.0</ele><time>2026-03-22T08:22:59Z</time></trkpt><trkpt lat="41.29700926704663" lon="14.677048243001003"><ele>574.0</ele><time>2026-03-22T08:23:00Z</time></trkpt><trkpt lat="41.29704968088596" lon="14.676918540219628"><ele>574.0</ele><time>2026-03-22T08:23:01Z</time></trkpt><trkpt lat="41.297076295687766" lon="14.676788039875891"><ele>574.0</ele><time>2026-03-22T08:23:02Z</time></trkpt><trkpt lat="41.297100925772135" lon="14.67666019106338"><ele>574.0</ele><time>2026-03-22T08:23:03Z</time></trkpt><trkpt lat="41.29713121810631" lon="14.676526074837314"><ele>574.8333333333334</ele><time>2026-03-22T08:23:04Z</time></trkpt><trkpt lat="41.297160039059285" lon="14.676399884191378"><ele>575.6666666666667</ele><time>2026-03-22T08:23:05Z</time></trkpt><trkpt lat="41.29718510706375" lon="14.676281542400092"><ele>576.5</ele><time>2026-03-22T08:23:06Z</time></trkpt><trkpt lat="41.2972165371678" lon="14.676175882926918"><ele>577.3333333333334</ele><time>2026-03-22T08:23:07Z</time></trkpt><trkpt lat="41.29726375483914" lon="14.676085247453804"><ele>578.1666666666666</ele><time>2026-03-22T08:23:07.999Z</time></trkpt><trkpt lat="41.29732114453281" lon="14.676004252419911"><ele>579.0</ele><time>2026-03-22T08:23:08.999Z</time></trkpt><trkpt lat="41.29735216780795" lon="14.675908799768692"><ele>580.4285714285713</ele><time>2026-03-22T08:23:09.999Z</time></trkpt><trkpt lat="41.29738603220239" lon="14.675819981140833"><ele>581.8571428571429</ele><time>2026-03-22T08:23:10.999Z</time></trkpt><trkpt lat="41.297430445758025" lon="14.675748049216093"><ele>583.2857142857142</ele><time>2026-03-22T08:23:11.999Z</time></trkpt><trkpt lat="41.297465113388526" lon="14.67566425114949"><ele>584.7142857142857</ele><time>2026-03-22T08:23:12.999Z</time></trkpt><trkpt lat="41.29749504881043" lon="14.675585845849302"><ele>586.1428571428571</ele><time>2026-03-22T08:23:13.999Z</time></trkpt><trkpt lat="41.297541616838366" lon="14.675503309831976"><ele>587.5714285714286</ele><time>2026-03-22T08:23:14.999Z</time></trkpt><trkpt lat="41.29758534774009" lon="14.67541837306243"><ele>589.0</ele><time>2026-03-22T08:23:15.999Z</time></trkpt><trkpt lat="41.297627422230136" lon="14.675320538097706"><ele>590.1666666666667</ele><time>2026-03-22T08:23:16.999Z</time></trkpt><trkpt lat="41.29766058673072" lon="14.675220086407919"><ele>591.3333333333334</ele><time>2026-03-22T08:23:17.999Z</time></trkpt><trkpt lat="41.29769183912062" lon="14.675124722081785"><ele>592.5</ele><time>2026-03-22T08:23:18.999Z</time></trkpt><trkpt lat="41.29772359419726" lon="14.675038124479466"><ele>593.6666666666666</ele><time>2026-03-22T08:23:19.999Z</time></trkpt><trkpt lat="41.297755321528214" lon="14.674952735031958"><ele>594.8333333333333</ele><time>2026-03-22T08:23:20.999Z</time></trkpt><trkpt lat="41.29778935587981" lon="14.67486373030164"><ele>596.0</ele><time>2026-03-22T08:23:21.999Z</time></trkpt><trkpt lat="41.29782545172487" lon="14.674771611771071"><ele>596.0</ele><time>2026-03-22T08:23:22.999Z</time></trkpt><trkpt lat="41.29786578389516" lon="14.67468237708201"><ele>596.0</ele><time>2026-03-22T08:23:23.999Z</time></trkpt><trkpt lat="41.297899618237615" lon="14.674600250940259"><ele>596.0</ele><time>2026-03-22T08:23:24.999Z</time></trkpt><trkpt lat="41.29792361158508" lon="14.674521369861207"><ele>596.0</ele><time>2026-03-22T08:23:25.999Z</time></trkpt><trkpt lat="41.29794435775376" lon="14.674433407034561"><ele>596.0</ele><time>2026-03-22T08:23:26.999Z</time></trkpt><trkpt lat="41.29796398828806" lon="14.674339020457477"><ele>596.0</ele><time>2026-03-22T08:23:27.999Z</time></trkpt><trkpt lat="41.298005620975424" lon="14.674198444231832"><ele>597.8</ele><time>2026-03-22T08:23:29.999Z</time></trkpt><trkpt lat="41.298031988830694" lon="14.674067589538947"><ele>599.6</ele><time>2026-03-22T08:23:31.999Z</time></trkpt><trkpt lat="41.29805739612538" lon="14.673935971715844"><ele>601.4</ele><time>2026-03-22T08:23:33.999Z</time></trkpt><trkpt lat="41.29808777490524" lon="14.673795947875004"><ele>603.2</ele><time>2026-03-22T08:23:35.999Z</time></trkpt><trkpt lat="41.29812212888387" lon="14.67366286349391"><ele>605.0</ele><time>2026-03-22T08:23:37.999Z</time></trkpt><trkpt lat="41.29814881438634" lon="14.673531788783963"><ele>606.8</ele><time>2026-03-22T08:23:39.999Z</time></trkpt><trkpt lat="41.29817325939236" lon="14.673449699357"><ele>608.6</ele><time>2026-03-22T08:23:42.999Z</time></trkpt><trkpt lat="41.29820929546514" lon="14.673307919640006"><ele>610.4</ele><time>2026-03-22T08:23:43.999Z</time></trkpt><trkpt lat="41.29824889611298" lon="14.67316062781761"><ele>612.2</ele><time>2026-03-22T08:23:45.999Z</time></trkpt><trkpt lat="41.29829342803516" lon="14.673029435393511"><ele>614.0</ele><time>2026-03-22T08:23:47.999Z</time></trkpt><trkpt lat="41.298320010677486" lon="14.67292630320922"><ele>614.0</ele><time>2026-03-22T08:23:49.999Z</time></trkpt><trkpt lat="41.298358894085055" lon="14.672808812190505"><ele>614.0</ele><time>2026-03-22T08:23:51.999Z</time></trkpt><trkpt lat="41.298403371855045" lon="14.672667265858871"><ele>614.0</ele><time>2026-03-22T08:23:53.999Z</time></trkpt><trkpt lat="41.29846118873759" lon="14.672519261696804"><ele>614.0</ele><time>2026-03-22T08:23:55.999Z</time></trkpt><trkpt lat="41.298518359354446" lon="14.672378547220642"><ele>615.6</ele><time>2026-03-22T08:23:57.999Z</time></trkpt><trkpt lat="41.298558749696646" lon="14.672234048468258"><ele>617.2</ele><time>2026-03-22T08:23:59.999Z</time></trkpt><trkpt lat="41.2985878346849" lon="14.672129746960184"><ele>618.8000000000001</ele><time>2026-03-22T08:24:01.999Z</time></trkpt><trkpt lat="41.29860561513788" lon="14.672004147533563"><ele>620.4</ele><time>2026-03-22T08:24:03.999Z</time></trkpt><trkpt lat="41.29862290036201" lon="14.671849489939353"><ele>622.0</ele><time>2026-03-22T08:24:05.999Z</time></trkpt><trkpt lat="41.29864168307968" lon="14.671693906674635"><ele>623.5</ele><time>2026-03-22T08:24:07.999Z</time></trkpt><trkpt lat="41.2986626294817" lon="14.671553072892173"><ele>625.0</ele><time>2026-03-22T08:24:09.999Z</time></trkpt><trkpt lat="41.29865227936021" lon="14.671455011701587"><ele>626.5</ele><time>2026-03-22T08:24:10.999Z</time></trkpt><trkpt lat="41.29865695374304" lon="14.671324635899408"><ele>628.0</ele><time>2026-03-22T08:24:12.999Z</time></trkpt><trkpt lat="41.29866599130909" lon="14.671210459899427"><ele>629.5</ele><time>2026-03-22T08:24:14.999Z</time></trkpt><trkpt lat="41.298687836914546" lon="14.671125710759284"><ele>631.0</ele><time>2026-03-22T08:24:15.999Z</time></trkpt><trkpt lat="41.29868869910919" lon="14.671038790423577"><ele>632.0</ele><time>2026-03-22T08:24:16.999Z</time></trkpt><trkpt lat="41.29870516571506" lon="14.670954521179112"><ele>633.0</ele><time>2026-03-22T08:24:17.999Z</time></trkpt><trkpt lat="41.29871603770387" lon="14.67086995527702"><ele>634.0</ele><time>2026-03-22T08:24:18.999Z</time></trkpt><trkpt lat="41.29874610524097" lon="14.670709902344626"><ele>635.0</ele><time>2026-03-22T08:24:21Z</time></trkpt><trkpt lat="41.29876692016115" lon="14.670630589374131"><ele>636.0</ele><time>2026-03-22T08:24:22Z</time></trkpt><trkpt lat="41.2987929495569" lon="14.670550033969551"><ele>637.0</ele><time>2026-03-22T08:24:23Z</time></trkpt><trkpt lat="41.29881967441534" lon="14.670396640527297"><ele>638.0</ele><time>2026-03-22T08:24:25Z</time></trkpt><trkpt lat="41.29884308935523" lon="14.670265876617323"><ele>639.0</ele><time>2026-03-22T08:24:27Z</time></trkpt><trkpt lat="41.29887604842057" lon="14.67010754829397"><ele>640.0</ele><time>2026-03-22T08:24:29Z</time></trkpt><trkpt lat="41.298883142460106" lon="14.670015659865046"><ele>641.0</ele><time>2026-03-22T08:24:30Z</time></trkpt><trkpt lat="41.298875462176255" lon="14.669914847320173"><ele>642.0</ele><time>2026-03-22T08:24:31Z</time></trkpt><trkpt lat="41.29886550680575" lon="14.669822711658146"><ele>643.0</ele><time>2026-03-22T08:24:32Z</time></trkpt><trkpt lat="41.298867157970506" lon="14.669729695676175"><ele>643.0</ele><time>2026-03-22T08:24:33Z</time></trkpt><trkpt lat="41.29887682813087" lon="14.669636882541413"><ele>643.0</ele><time>2026-03-22T08:24:34Z</time></trkpt><trkpt lat="41.298900303877886" lon="14.66953525816717"><ele>643.0</ele><time>2026-03-22T08:24:35Z</time></trkpt><trkpt lat="41.29893305242944" lon="14.669443063971832"><ele>643.0</ele><time>2026-03-22T08:24:36Z</time></trkpt><trkpt lat="41.298963331651684" lon="14.669353993808926"><ele>643.0</ele><time>2026-03-22T08:24:37Z</time></trkpt><trkpt lat="41.298988305994854" lon="14.669275327763067"><ele>643.0</ele><time>2026-03-22T08:24:38Z</time></trkpt><trkpt lat="41.29901201689454" lon="14.669190759475509"><ele>643.0</ele><time>2026-03-22T08:24:39Z</time></trkpt><trkpt lat="41.29903211253047" lon="14.66910150676265"><ele>642.1999999999999</ele><time>2026-03-22T08:24:40Z</time></trkpt><trkpt lat="41.29905617296565" lon="14.66897582458837"><ele>641.4</ele><time>2026-03-22T08:24:42Z</time></trkpt><trkpt lat="41.299047912363335" lon="14.668847565737643"><ele>640.5999999999999</ele><time>2026-03-22T08:24:44Z</time></trkpt><trkpt lat="41.29897586084943" lon="14.668727015301883"><ele>639.8</ele><time>2026-03-22T08:24:46Z</time></trkpt><trkpt lat="41.298890415698835" lon="14.668605916788875"><ele>639.0</ele><time>2026-03-22T08:24:48Z</time></trkpt><trkpt lat="41.29885604661516" lon="14.66853320491923"><ele>642.75</ele><time>2026-03-22T08:24:49Z</time></trkpt><trkpt lat="41.298824351651234" lon="14.66837676758494"><ele>646.5</ele><time>2026-03-22T08:24:51Z</time></trkpt><trkpt lat="41.29878086335749" lon="14.66822907337191"><ele>650.25</ele><time>2026-03-22T08:24:53Z</time></trkpt><trkpt lat="41.2987437023418" lon="14.66809009801667"><ele>654.0</ele><time>2026-03-22T08:24:55Z</time></trkpt><trkpt lat="41.29873260400729" lon="14.667935882455977"><ele>654.3333333333334</ele><time>2026-03-22T08:24:57Z</time></trkpt><trkpt lat="41.29871427575836" lon="14.667773433212302"><ele>654.6666666666666</ele><time>2026-03-22T08:24:59Z</time></trkpt><trkpt lat="41.298709181349736" lon="14.667683137505986"><ele>655.0</ele><time>2026-03-22T08:25:00Z</time></trkpt><trkpt lat="41.298704766418766" lon="14.667589195053845"><ele>655.3333333333333</ele><time>2026-03-22T08:25:01Z</time></trkpt><trkpt lat="41.29870128542145" lon="14.667491165021769"><ele>655.6666666666666</ele><time>2026-03-22T08:25:02Z</time></trkpt><trkpt lat="41.298696140948365" lon="14.66740219215047"><ele>656.0</ele><time>2026-03-22T08:25:03Z</time></trkpt><trkpt lat="41.29868560625564" lon="14.667313399359472"><ele>655.9999999999999</ele><time>2026-03-22T08:25:04Z</time></trkpt><trkpt lat="41.29867447940569" lon="14.667223754959247"><ele>656.0</ele><time>2026-03-22T08:25:05Z</time></trkpt><trkpt lat="41.298663035809" lon="14.66713270138854"><ele>656.0</ele><time>2026-03-22T08:25:06Z</time></trkpt><trkpt lat="41.29865252578631" lon="14.667037152663093"><ele>656.0</ele><time>2026-03-22T08:25:07Z</time></trkpt><trkpt lat="41.29865217092601" lon="14.666939446799741"><ele>656.0</ele><time>2026-03-22T08:25:08Z</time></trkpt><trkpt lat="41.29864984601986" lon="14.666840212057117"><ele>655.9999999999999</ele><time>2026-03-22T08:25:09Z</time></trkpt><trkpt lat="41.29864058690228" lon="14.666738426710225"><ele>656.0</ele><time>2026-03-22T08:25:10Z</time></trkpt><trkpt lat="41.29862794789207" lon="14.666640013451634"><ele>656.5</ele><time>2026-03-22T08:25:11Z</time></trkpt><trkpt lat="41.298616671895815" lon="14.666546263167435"><ele>657.0</ele><time>2026-03-22T08:25:12Z</time></trkpt><trkpt lat="41.29859770342998" lon="14.666451426351164"><ele>657.5</ele><time>2026-03-22T08:25:13Z</time></trkpt><trkpt lat="41.29857711207447" lon="14.666356181479282"><ele>658.0</ele><time>2026-03-22T08:25:14Z</time></trkpt><trkpt lat="41.29856181373562" lon="14.666259146425073"><ele>658.5</ele><time>2026-03-22T08:25:15Z</time></trkpt><trkpt lat="41.298563253590004" lon="14.666155155590703"><ele>659.0</ele><time>2026-03-22T08:25:16Z</time></trkpt><trkpt lat="41.29857183353463" lon="14.666051914410742"><ele>660.5</ele><time>2026-03-22T08:25:17Z</time></trkpt><trkpt lat="41.29857341265998" lon="14.665944573852093"><ele>662.0</ele><time>2026-03-22T08:25:17.999Z</time></trkpt><trkpt lat="41.298573899950554" lon="14.665835006641666"><ele>663.5</ele><time>2026-03-22T08:25:18.999Z</time></trkpt><trkpt lat="41.29857510938277" lon="14.665725464952796"><ele>665.0</ele><time>2026-03-22T08:25:19.999Z</time></trkpt><trkpt lat="41.29857356990216" lon="14.66561420745442"><ele>666.5</ele><time>2026-03-22T08:25:20.999Z</time></trkpt><trkpt lat="41.298570197823736" lon="14.665505092976455"><ele>668.0</ele><time>2026-03-22T08:25:21.999Z</time></trkpt><trkpt lat="41.298571588810006" lon="14.665399344770357"><ele>668.0</ele><time>2026-03-22T08:25:22.999Z</time></trkpt><trkpt lat="41.29857545499561" lon="14.665286870609982"><ele>668.0</ele><time>2026-03-22T08:25:23.999Z</time></trkpt><trkpt lat="41.29857093274882" lon="14.665171538549554"><ele>668.0</ele><time>2026-03-22T08:25:24.999Z</time></trkpt><trkpt lat="41.298563460829634" lon="14.66505356273332"><ele>668.0</ele><time>2026-03-22T08:25:25.999Z</time></trkpt><trkpt lat="41.298551791359" lon="14.664947061221035"><ele>668.0</ele><time>2026-03-22T08:25:26.999Z</time></trkpt><trkpt lat="41.29853175864387" lon="14.664850253395588"><ele>668.0</ele><time>2026-03-22T08:25:27.999Z</time></trkpt><trkpt lat="41.29851408336601" lon="14.66474642577536"><ele>669.5</ele><time>2026-03-22T08:25:28.999Z</time></trkpt><trkpt lat="41.29850003941926" lon="14.664646848039196"><ele>671.0</ele><time>2026-03-22T08:25:29.999Z</time></trkpt><trkpt lat="41.29848649333874" lon="14.664545101663306"><ele>672.5</ele><time>2026-03-22T08:25:30.999Z</time></trkpt><trkpt lat="41.29847579425392" lon="14.664436101284938"><ele>674.0</ele><time>2026-03-22T08:25:31.999Z</time></trkpt><trkpt lat="41.2984674777326" lon="14.664326354309324"><ele>675.5</ele><time>2026-03-22T08:25:32.999Z</time></trkpt><trkpt lat="41.29846602818995" lon="14.664215778229051"><ele>677.0</ele><time>2026-03-22T08:25:33.999Z</time></trkpt><trkpt lat="41.298461699559816" lon="14.664105086352789"><ele>678.1666666666666</ele><time>2026-03-22T08:25:34.999Z</time></trkpt><trkpt lat="41.298451013262884" lon="14.66399350518738"><ele>679.3333333333333</ele><time>2026-03-22T08:25:35.999Z</time></trkpt><trkpt lat="41.298439630526225" lon="14.663897727023308"><ele>680.5</ele><time>2026-03-22T08:25:36.999Z</time></trkpt><trkpt lat="41.2984238995369" lon="14.663800275235655"><ele>681.6666666666666</ele><time>2026-03-22T08:25:37.999Z</time></trkpt><trkpt lat="41.29840739533729" lon="14.66369435888938"><ele>682.8333333333334</ele><time>2026-03-22T08:25:38.999Z</time></trkpt><trkpt lat="41.29838772089985" lon="14.6635814458365"><ele>684.0</ele><time>2026-03-22T08:25:39.999Z</time></trkpt><trkpt lat="41.29836991272013" lon="14.663464432512683"><ele>685.6</ele><time>2026-03-22T08:25:40.999Z</time></trkpt><trkpt lat="41.29835204040264" lon="14.663349195326118"><ele>687.2</ele><time>2026-03-22T08:25:41.999Z</time></trkpt><trkpt lat="41.29831446306431" lon="14.66324118919129"><ele>688.8000000000001</ele><time>2026-03-22T08:25:42.999Z</time></trkpt><trkpt lat="41.29827820795888" lon="14.66312170666364"><ele>690.4000000000001</ele><time>2026-03-22T08:25:43.999Z</time></trkpt><trkpt lat="41.29823664495894" lon="14.66299617105441"><ele>692.0</ele><time>2026-03-22T08:25:44.999Z</time></trkpt><trkpt lat="41.298203782643895" lon="14.662893978517086"><ele>692.0</ele><time>2026-03-22T08:25:45.999Z</time></trkpt><trkpt lat="41.29816650186511" lon="14.662790576984415"><ele>692.0</ele><time>2026-03-22T08:25:46.999Z</time></trkpt><trkpt lat="41.29815126485445" lon="14.662684221943605"><ele>692.0</ele><time>2026-03-22T08:25:47.999Z</time></trkpt><trkpt lat="41.29811610595356" lon="14.662570584569025"><ele>692.0</ele><time>2026-03-22T08:25:48.999Z</time></trkpt><trkpt lat="41.29807052564679" lon="14.662459919080664"><ele>692.0</ele><time>2026-03-22T08:25:49.999Z</time></trkpt><trkpt lat="41.298015584939684" lon="14.662350317029588"><ele>694.6</ele><time>2026-03-22T08:25:50.999Z</time></trkpt><trkpt lat="41.29796470278214" lon="14.66224110759148"><ele>697.2</ele><time>2026-03-22T08:25:51.999Z</time></trkpt><trkpt lat="41.29792182775243" lon="14.66212063003099"><ele>699.8</ele><time>2026-03-22T08:25:52.999Z</time></trkpt><trkpt lat="41.297879517887054" lon="14.662002866803375"><ele>702.4</ele><time>2026-03-22T08:25:53.999Z</time></trkpt><trkpt lat="41.297843245432425" lon="14.661887108945976"><ele>705.0</ele><time>2026-03-22T08:25:54.999Z</time></trkpt><trkpt lat="41.29780263543994" lon="14.661772792716048"><ele>706.6</ele><time>2026-03-22T08:25:55.999Z</time></trkpt><trkpt lat="41.2977578474273" lon="14.661665246327397"><ele>708.2</ele><time>2026-03-22T08:25:56.999Z</time></trkpt><trkpt lat="41.297716501440405" lon="14.661550999019552"><ele>709.8</ele><time>2026-03-22T08:25:57.999Z</time></trkpt><trkpt lat="41.2976898323351" lon="14.661431955341696"><ele>711.4</ele><time>2026-03-22T08:25:58.999Z</time></trkpt><trkpt lat="41.297672459086435" lon="14.661307740358032"><ele>713.0</ele><time>2026-03-22T08:25:59.999Z</time></trkpt><trkpt lat="41.29764601892976" lon="14.66119556337749"><ele>714.8</ele><time>2026-03-22T08:26:00.999Z</time></trkpt><trkpt lat="41.29760988784531" lon="14.661092029466433"><ele>716.5999999999999</ele><time>2026-03-22T08:26:01.999Z</time></trkpt><trkpt lat="41.29757846590529" lon="14.660982154076553"><ele>718.4000000000001</ele><time>2026-03-22T08:26:02.999Z</time></trkpt><trkpt lat="41.29753754917953" lon="14.660864378704245"><ele>720.2</ele><time>2026-03-22T08:26:03.999Z</time></trkpt><trkpt lat="41.297499260013396" lon="14.660740632125496"><ele>722.0</ele><time>2026-03-22T08:26:04.999Z</time></trkpt><trkpt lat="41.297469147444396" lon="14.660612951537676"><ele>722.0</ele><time>2026-03-22T08:26:05.999Z</time></trkpt><trkpt lat="41.297444285646655" lon="14.660489672277695"><ele>722.0</ele><time>2026-03-22T08:26:06.999Z</time></trkpt><trkpt lat="41.29742516183775" lon="14.66039706189728"><ele>722.0</ele><time>2026-03-22T08:26:07.999Z</time></trkpt><trkpt lat="41.29741892323694" lon="14.660297309950824"><ele>722.0</ele><time>2026-03-22T08:26:09.999Z</time></trkpt><trkpt lat="41.29745532159555" lon="14.66022363599004"><ele>722.0</ele><time>2026-03-22T08:26:18.999Z</time></trkpt><trkpt lat="41.29750317552489" lon="14.66012089779481"><ele>722.0</ele><time>2026-03-22T08:26:20.999Z</time></trkpt><trkpt lat="41.29752933999786" lon="14.659950819947891"><ele>723.2</ele><time>2026-03-22T08:26:22.999Z</time></trkpt><trkpt lat="41.29754902184404" lon="14.659837633503999"><ele>724.4000000000001</ele><time>2026-03-22T08:26:23.999Z</time></trkpt><trkpt lat="41.29757631026869" lon="14.659712818771757"><ele>725.5999999999999</ele><time>2026-03-22T08:26:24.999Z</time></trkpt><trkpt lat="41.29760862978512" lon="14.65958062633309"><ele>726.8</ele><time>2026-03-22T08:26:25.999Z</time></trkpt><trkpt lat="41.297644951690835" lon="14.65944230142836"><ele>728.0</ele><time>2026-03-22T08:26:27Z</time></trkpt><trkpt lat="41.29768271788524" lon="14.659304683797759"><ele>728.8</ele><time>2026-03-22T08:26:28Z</time></trkpt><trkpt lat="41.29771974742573" lon="14.659171821250228"><ele>729.5999999999999</ele><time>2026-03-22T08:26:29Z</time></trkpt><trkpt lat="41.29775433072569" lon="14.6590437450028"><ele>730.4000000000001</ele><time>2026-03-22T08:26:30Z</time></trkpt><trkpt lat="41.29780553019542" lon="14.658932548150046"><ele>731.2</ele><time>2026-03-22T08:26:31Z</time></trkpt><trkpt lat="41.29783151938806" lon="14.658806532713278"><ele>732.0</ele><time>2026-03-22T08:26:32Z</time></trkpt><trkpt lat="41.29789227039637" lon="14.65869620629206"><ele>733.4000000000001</ele><time>2026-03-22T08:26:33Z</time></trkpt><trkpt lat="41.29793589101153" lon="14.65859759637589"><ele>734.8000000000001</ele><time>2026-03-22T08:26:34Z</time></trkpt><trkpt lat="41.29800303367282" lon="14.658492614128843"><ele>736.2</ele><time>2026-03-22T08:26:36Z</time></trkpt><trkpt lat="41.298030652376546" lon="14.65832062216316"><ele>737.6</ele><time>2026-03-22T08:26:39Z</time></trkpt><trkpt lat="41.29804434498436" lon="14.658212129223719"><ele>739.0</ele><time>2026-03-22T08:26:40Z</time></trkpt><trkpt lat="41.29808535640271" lon="14.658104185157146"><ele>740.4000000000001</ele><time>2026-03-22T08:26:41Z</time></trkpt><trkpt lat="41.29812390628827" lon="14.657990299642396"><ele>741.8</ele><time>2026-03-22T08:26:42Z</time></trkpt><trkpt lat="41.298170072578024" lon="14.657878467724293"><ele>743.2</ele><time>2026-03-22T08:26:43Z</time></trkpt><trkpt lat="41.29821720763306" lon="14.657761396399339"><ele>744.5999999999999</ele><time>2026-03-22T08:26:44Z</time></trkpt><trkpt lat="41.29826565480334" lon="14.657637016859288"><ele>746.0</ele><time>2026-03-22T08:26:45Z</time></trkpt><trkpt lat="41.29831831939942" lon="14.657518309335417"><ele>747.5999999999999</ele><time>2026-03-22T08:26:46Z</time></trkpt><trkpt lat="41.29837608726504" lon="14.657392635756255"><ele>749.2</ele><time>2026-03-22T08:26:47Z</time></trkpt><trkpt lat="41.2984411328114" lon="14.657277196836988"><ele>750.8</ele><time>2026-03-22T08:26:48Z</time></trkpt><trkpt lat="41.29849817966166" lon="14.657163517143228"><ele>752.4000000000001</ele><time>2026-03-22T08:26:49Z</time></trkpt><trkpt lat="41.29854160178315" lon="14.657029503143827"><ele>754.0</ele><time>2026-03-22T08:26:50Z</time></trkpt><trkpt lat="41.29861633217369" lon="14.656936663988114"><ele>754.6</ele><time>2026-03-22T08:26:51Z</time></trkpt><trkpt lat="41.29866239237778" lon="14.656808901297484"><ele>755.2</ele><time>2026-03-22T08:26:52Z</time></trkpt><trkpt lat="41.298707965986026" lon="14.65668541971764"><ele>755.8000000000001</ele><time>2026-03-22T08:26:53Z</time></trkpt><trkpt lat="41.29873711449041" lon="14.65654384023215"><ele>756.4000000000001</ele><time>2026-03-22T08:26:54Z</time></trkpt><trkpt lat="41.29879053766034" lon="14.656429041565934"><ele>757.0</ele><time>2026-03-22T08:26:55Z</time></trkpt><trkpt lat="41.29886906388415" lon="14.656355842974087"><ele>757.8</ele><time>2026-03-22T08:26:56Z</time></trkpt><trkpt lat="41.29893337947934" lon="14.65625716157635"><ele>758.6</ele><time>2026-03-22T08:26:57Z</time></trkpt><trkpt lat="41.29899035797121" lon="14.65614741478781"><ele>759.4</ele><time>2026-03-22T08:26:58Z</time></trkpt><trkpt lat="41.299013587013796" lon="14.656003985618272"><ele>760.1999999999999</ele><time>2026-03-22T08:26:59Z</time></trkpt><trkpt lat="41.29904511484676" lon="14.655877611518044"><ele>761.0</ele><time>2026-03-22T08:27:00Z</time></trkpt><trkpt lat="41.299103662543985" lon="14.655791489068784"><ele>763.0</ele><time>2026-03-22T08:27:01Z</time></trkpt><trkpt lat="41.29921941584784" lon="14.655804462485815"><ele>765.0</ele><time>2026-03-22T08:27:02Z</time></trkpt><trkpt lat="41.29931471520772" lon="14.655735990293717"><ele>767.0</ele><time>2026-03-22T08:27:03Z</time></trkpt><trkpt lat="41.299403464217924" lon="14.655648838579664"><ele>769.0</ele><time>2026-03-22T08:27:04Z</time></trkpt><trkpt lat="41.29947580032098" lon="14.655570868562064"><ele>771.0</ele><time>2026-03-22T08:27:05Z</time></trkpt><trkpt lat="41.29951103782476" lon="14.65547939285344"><ele>771.0</ele><time>2026-03-22T08:27:06Z</time></trkpt><trkpt lat="41.29953988845806" lon="14.655397652197218"><ele>771.0</ele><time>2026-03-22T08:27:07Z</time></trkpt><trkpt lat="41.29953346909443" lon="14.655310531360197"><ele>771.0</ele><time>2026-03-22T08:27:08Z</time></trkpt><trkpt lat="41.29950244653237" lon="14.655217489210028"><ele>771.0</ele><time>2026-03-22T08:27:09Z</time></trkpt><trkpt lat="41.29947001065953" lon="14.655027377721249"><ele>771.0</ele><time>2026-03-22T08:27:11Z</time></trkpt><trkpt lat="41.299454461600234" lon="14.6549215524346"><ele>771.0</ele><time>2026-03-22T08:27:12Z</time></trkpt><trkpt lat="41.299462804001806" lon="14.654803275697905"><ele>772.0</ele><time>2026-03-22T08:27:13Z</time></trkpt><trkpt lat="41.29948249288499" lon="14.654666719570917"><ele>773.0</ele><time>2026-03-22T08:27:14Z</time></trkpt><trkpt lat="41.29951300737834" lon="14.654547443263551"><ele>774.0</ele><time>2026-03-22T08:27:15Z</time></trkpt><trkpt lat="41.29952861611897" lon="14.654441611047728"><ele>775.0</ele><time>2026-03-22T08:27:16Z</time></trkpt><trkpt lat="41.29954242755268" lon="14.65435473853915"><ele>776.0</ele><time>2026-03-22T08:27:17Z</time></trkpt><trkpt lat="41.299599123132104" lon="14.65427584667945"><ele>777.0</ele><time>2026-03-22T08:27:18Z</time></trkpt><trkpt lat="41.29970187760281" lon="14.654200918877823"><ele>780.3333333333334</ele><time>2026-03-22T08:27:19Z</time></trkpt><trkpt lat="41.29979366840073" lon="14.65416909352925"><ele>783.6666666666667</ele><time>2026-03-22T08:27:20Z</time></trkpt><trkpt lat="41.299878740220215" lon="14.654136141846836"><ele>787.0</ele><time>2026-03-22T08:27:21Z</time></trkpt><trkpt lat="41.29994856923936" lon="14.654113347966444"><ele>790.3333333333334</ele><time>2026-03-22T08:27:22Z</time></trkpt><trkpt lat="41.2999756521383" lon="14.654035832387704"><ele>793.6666666666667</ele><time>2026-03-22T08:27:23Z</time></trkpt><trkpt lat="41.299989768319605" lon="14.65393175581288"><ele>797.0</ele><time>2026-03-22T08:27:24Z</time></trkpt><trkpt lat="41.29999029308633" lon="14.653820592000956"><ele>797.0000000000001</ele><time>2026-03-22T08:27:25Z</time></trkpt><trkpt lat="41.29997256775913" lon="14.653701501659974"><ele>797.0</ele><time>2026-03-22T08:27:26Z</time></trkpt><trkpt lat="41.29996841242132" lon="14.653589708874147"><ele>797.0</ele><time>2026-03-22T08:27:27Z</time></trkpt><trkpt lat="41.299964608162654" lon="14.65349000649185"><ele>797.0</ele><time>2026-03-22T08:27:28Z</time></trkpt><trkpt lat="41.3000077648789" lon="14.653394171773087"><ele>797.0000000000001</ele><time>2026-03-22T08:27:28.999Z</time></trkpt><trkpt lat="41.30006897285897" lon="14.653309242898217"><ele>797.0</ele><time>2026-03-22T08:27:29.999Z</time></trkpt><trkpt lat="41.30013736928097" lon="14.65322520779562"><ele>799.6</ele><time>2026-03-22T08:27:30.999Z</time></trkpt><trkpt lat="41.30021317358362" lon="14.653195507038788"><ele>802.2</ele><time>2026-03-22T08:27:31.999Z</time></trkpt><trkpt lat="41.30030231887522" lon="14.65314567373698"><ele>804.8</ele><time>2026-03-22T08:27:32.999Z</time></trkpt><trkpt lat="41.300366344075535" lon="14.653053820277183"><ele>807.4</ele><time>2026-03-22T08:27:33.999Z</time></trkpt><trkpt lat="41.30042799372263" lon="14.652950401138426"><ele>810.0</ele><time>2026-03-22T08:27:34.999Z</time></trkpt><trkpt lat="41.3004952666245" lon="14.652857605273725"><ele>811.2</ele><time>2026-03-22T08:27:35.999Z</time></trkpt><trkpt lat="41.30056438541875" lon="14.652770610683286"><ele>812.4</ele><time>2026-03-22T08:27:36.999Z</time></trkpt><trkpt lat="41.30063738903934" lon="14.652685657658283"><ele>813.5999999999999</ele><time>2026-03-22T08:27:37.999Z</time></trkpt><trkpt lat="41.300709228155405" lon="14.652596446992927"><ele>814.8</ele><time>2026-03-22T08:27:38.999Z</time></trkpt><trkpt lat="41.30077082311031" lon="14.652503755659922"><ele>816.0</ele><time>2026-03-22T08:27:39.999Z</time></trkpt><trkpt lat="41.300828073627095" lon="14.65240611066413"><ele>816.0</ele><time>2026-03-22T08:27:40.999Z</time></trkpt><trkpt lat="41.300878648591834" lon="14.652307134144205"><ele>816.0</ele><time>2026-03-22T08:27:41.999Z</time></trkpt><trkpt lat="41.300925537596314" lon="14.652206071262173"><ele>816.0</ele><time>2026-03-22T08:27:42.999Z</time></trkpt><trkpt lat="41.30096091798016" lon="14.6520970887206"><ele>816.0</ele><time>2026-03-22T08:27:43.999Z</time></trkpt><trkpt lat="41.30099471800983" lon="14.651993511205328"><ele>816.0</ele><time>2026-03-22T08:27:44.999Z</time></trkpt><trkpt lat="41.301020374199965" lon="14.651904181448458"><ele>816.0</ele><time>2026-03-22T08:27:45.999Z</time></trkpt><trkpt lat="41.30105001904162" lon="14.651820045554595"><ele>819.0</ele><time>2026-03-22T08:27:46.999Z</time></trkpt><trkpt lat="41.30107270196624" lon="14.651730409053428"><ele>822.0</ele><time>2026-03-22T08:27:47.999Z</time></trkpt><trkpt lat="41.30108856805395" lon="14.6516351486168"><ele>825.0</ele><time>2026-03-22T08:27:48.999Z</time></trkpt><trkpt lat="41.30110468029692" lon="14.651529139083511"><ele>828.0</ele><time>2026-03-22T08:27:49.999Z</time></trkpt><trkpt lat="41.3011260279816" lon="14.651422966149969"><ele>831.0</ele><time>2026-03-22T08:27:50.999Z</time></trkpt><trkpt lat="41.30114694139908" lon="14.651309957733675"><ele>834.0</ele><time>2026-03-22T08:27:51.999Z</time></trkpt><trkpt lat="41.30117186032945" lon="14.651183859231383"><ele>835.5</ele><time>2026-03-22T08:27:52.999Z</time></trkpt><trkpt lat="41.301193556478054" lon="14.651056951962554"><ele>837.0</ele><time>2026-03-22T08:27:53.999Z</time></trkpt><trkpt lat="41.301226355964126" lon="14.65094060093909"><ele>838.5</ele><time>2026-03-22T08:27:54.999Z</time></trkpt><trkpt lat="41.30127960396038" lon="14.65084427820617"><ele>840.0</ele><time>2026-03-22T08:27:55.999Z</time></trkpt><trkpt lat="41.30132840407678" lon="14.650755368759235"><ele>841.5</ele><time>2026-03-22T08:27:56.999Z</time></trkpt><trkpt lat="41.30136212357604" lon="14.650665579859211"><ele>843.0</ele><time>2026-03-22T08:27:57.999Z</time></trkpt><trkpt lat="41.30134592472835" lon="14.650571237367306"><ele>843.0</ele><time>2026-03-22T08:27:58.999Z</time></trkpt><trkpt lat="41.30130660257195" lon="14.650466746344897"><ele>843.0</ele><time>2026-03-22T08:27:59.999Z</time></trkpt><trkpt lat="41.30124666600201" lon="14.65037286138291"><ele>843.0</ele><time>2026-03-22T08:28:00.999Z</time></trkpt><trkpt lat="41.301174110754246" lon="14.650293568078833"><ele>843.0</ele><time>2026-03-22T08:28:01.999Z</time></trkpt><trkpt lat="41.301128215016675" lon="14.650220838492201"><ele>843.0</ele><time>2026-03-22T08:28:02.999Z</time></trkpt><trkpt lat="41.30114792177346" lon="14.650139067136806"><ele>843.0</ele><time>2026-03-22T08:28:03.999Z</time></trkpt><trkpt lat="41.301194848912886" lon="14.650058717272833"><ele>842.4</ele><time>2026-03-22T08:28:04.999Z</time></trkpt><trkpt lat="41.301253235346415" lon="14.650004208652257"><ele>841.8</ele><time>2026-03-22T08:28:05.999Z</time></trkpt><trkpt lat="41.301326141027694" lon="14.649945394140548"><ele>841.2</ele><time>2026-03-22T08:28:06.999Z</time></trkpt><trkpt lat="41.301411767047185" lon="14.649876866350843"><ele>840.6</ele><time>2026-03-22T08:28:07.999Z</time></trkpt><trkpt lat="41.30150865490075" lon="14.649823417212904"><ele>840.0</ele><time>2026-03-22T08:28:08.999Z</time></trkpt><trkpt lat="41.30160554766177" lon="14.649778473563972"><ele>840.0</ele><time>2026-03-22T08:28:09.999Z</time></trkpt><trkpt lat="41.301714553156124" lon="14.649762020258708"><ele>840.0</ele><time>2026-03-22T08:28:10.999Z</time></trkpt><trkpt lat="41.30180007392241" lon="14.649734816315538"><ele>840.0</ele><time>2026-03-22T08:28:11.999Z</time></trkpt><trkpt lat="41.30184969254055" lon="14.649672884087643"><ele>840.0</ele><time>2026-03-22T08:28:12.999Z</time></trkpt><trkpt lat="41.30187158357255" lon="14.649592167356907"><ele>840.0</ele><time>2026-03-22T08:28:13.999Z</time></trkpt><trkpt lat="41.301902876685" lon="14.649434801804247"><ele>843.8</ele><time>2026-03-22T08:28:15.999Z</time></trkpt><trkpt lat="41.30190593763072" lon="14.649319868619232"><ele>847.6</ele><time>2026-03-22T08:28:16.999Z</time></trkpt><trkpt lat="41.30190445448967" lon="14.649192171747462"><ele>851.4000000000001</ele><time>2026-03-22T08:28:17.999Z</time></trkpt><trkpt lat="41.30190456282364" lon="14.64905169519653"><ele>855.2</ele><time>2026-03-22T08:28:18.999Z</time></trkpt><trkpt lat="41.30190671778095" lon="14.648919730562389"><ele>859.0</ele><time>2026-03-22T08:28:19.999Z</time></trkpt><trkpt lat="41.30190536391994" lon="14.648788233794829"><ele>859.0</ele><time>2026-03-22T08:28:20.999Z</time></trkpt><trkpt lat="41.30190562095075" lon="14.648652537184832"><ele>859.0000000000001</ele><time>2026-03-22T08:28:21.999Z</time></trkpt><trkpt lat="41.30190621878786" lon="14.648520709041229"><ele>859.0000000000001</ele><time>2026-03-22T08:28:22.999Z</time></trkpt><trkpt lat="41.30191201927433" lon="14.648387738877082"><ele>859.0</ele><time>2026-03-22T08:28:23.999Z</time></trkpt><trkpt lat="41.30191337822626" lon="14.648262391593232"><ele>859.0</ele><time>2026-03-22T08:28:24.999Z</time></trkpt><trkpt lat="41.3019228056968" lon="14.648131597582982"><ele>861.4000000000001</ele><time>2026-03-22T08:28:25.999Z</time></trkpt><trkpt lat="41.30192879692647" lon="14.647997747488054"><ele>863.8000000000001</ele><time>2026-03-22T08:28:26.999Z</time></trkpt><trkpt lat="41.30193277372536" lon="14.64786430519197"><ele>866.1999999999999</ele><time>2026-03-22T08:28:27.999Z</time></trkpt><trkpt lat="41.30193166019155" lon="14.647721051358316"><ele>868.5999999999999</ele><time>2026-03-22T08:28:28.999Z</time></trkpt><trkpt lat="41.30193450033554" lon="14.64759465063378"><ele>871.0</ele><time>2026-03-22T08:28:29.999Z</time></trkpt><trkpt lat="41.301938424816235" lon="14.647457360953098"><ele>874.1999999999999</ele><time>2026-03-22T08:28:30.999Z</time></trkpt><trkpt lat="41.301956731302695" lon="14.647335268449288"><ele>877.3999999999999</ele><time>2026-03-22T08:28:31.999Z</time></trkpt><trkpt lat="41.30197388928095" lon="14.64721750927662"><ele>880.6</ele><time>2026-03-22T08:28:33Z</time></trkpt><trkpt lat="41.302017441762764" lon="14.647103079074006"><ele>883.8</ele><time>2026-03-22T08:28:34Z</time></trkpt><trkpt lat="41.30207777796125" lon="14.647008545600219"><ele>887.0</ele><time>2026-03-22T08:28:35Z</time></trkpt><trkpt lat="41.30214381689493" lon="14.64691940555916"><ele>886.2</ele><time>2026-03-22T08:28:36Z</time></trkpt><trkpt lat="41.302219169293096" lon="14.64682471751551"><ele>885.4000000000001</ele><time>2026-03-22T08:28:37Z</time></trkpt><trkpt lat="41.30230009544127" lon="14.646750306783945"><ele>884.5999999999999</ele><time>2026-03-22T08:28:38Z</time></trkpt><trkpt lat="41.30239098133969" lon="14.646672405566509"><ele>883.8</ele><time>2026-03-22T08:28:39Z</time></trkpt><trkpt lat="41.30249095845262" lon="14.646609788421616"><ele>883.0</ele><time>2026-03-22T08:28:40Z</time></trkpt><trkpt lat="41.302578043476096" lon="14.646562700348897"><ele>883.0</ele><time>2026-03-22T08:28:41Z</time></trkpt><trkpt lat="41.30265887962334" lon="14.6465211452798"><ele>883.0</ele><time>2026-03-22T08:28:42Z</time></trkpt><trkpt lat="41.302737069081125" lon="14.646469000417426"><ele>883.0</ele><time>2026-03-22T08:28:43Z</time></trkpt><trkpt lat="41.30283507903037" lon="14.646439669327265"><ele>883.0</ele><time>2026-03-22T08:28:44Z</time></trkpt><trkpt lat="41.30292607174588" lon="14.646471276251598"><ele>883.0</ele><time>2026-03-22T08:28:45Z</time></trkpt><trkpt lat="41.303042768332716" lon="14.64651872311803"><ele>885.5</ele><time>2026-03-22T08:28:46Z</time></trkpt><trkpt lat="41.30315231101251" lon="14.646543418350872"><ele>888.0</ele><time>2026-03-22T08:28:47Z</time></trkpt><trkpt lat="41.303281004622484" lon="14.646639724162682"><ele>890.5</ele><time>2026-03-22T08:28:48Z</time></trkpt><trkpt lat="41.303400723615326" lon="14.646682555935259"><ele>893.0</ele><time>2026-03-22T08:28:49Z</time></trkpt><trkpt lat="41.30349844675872" lon="14.64673190808937"><ele>893.0</ele><time>2026-03-22T08:28:50Z</time></trkpt><trkpt lat="41.30360350988538" lon="14.6467888563311"><ele>893.0</ele><time>2026-03-22T08:28:51Z</time></trkpt><trkpt lat="41.30370971017956" lon="14.64683501612129"><ele>893.0</ele><time>2026-03-22T08:28:52Z</time></trkpt><trkpt lat="41.303817728776544" lon="14.646859067283174"><ele>893.0</ele><time>2026-03-22T08:28:53Z</time></trkpt><trkpt lat="41.3039213556839" lon="14.64687623990372"><ele>893.0</ele><time>2026-03-22T08:28:54Z</time></trkpt><trkpt lat="41.304040841539944" lon="14.64691617920933"><ele>897.0</ele><time>2026-03-22T08:28:55Z</time></trkpt><trkpt lat="41.30414397433195" lon="14.646924799460493"><ele>901.0</ele><time>2026-03-22T08:28:56Z</time></trkpt><trkpt lat="41.30425811152864" lon="14.646915082867347"><ele>905.0</ele><time>2026-03-22T08:28:57Z</time></trkpt><trkpt lat="41.30437869062209" lon="14.646898374565863"><ele>909.0</ele><time>2026-03-22T08:28:58Z</time></trkpt><trkpt lat="41.30450409196565" lon="14.64688685749792"><ele>909.0</ele><time>2026-03-22T08:28:59Z</time></trkpt><trkpt lat="41.30460149882663" lon="14.646865900869331"><ele>909.0000000000001</ele><time>2026-03-22T08:29:00Z</time></trkpt><trkpt lat="41.30469216112183" lon="14.646824729921388"><ele>909.0000000000001</ele><time>2026-03-22T08:29:01Z</time></trkpt><trkpt lat="41.30477422388331" lon="14.646777814019098"><ele>909.0</ele><time>2026-03-22T08:29:02Z</time></trkpt><trkpt lat="41.30486502955357" lon="14.646741726389976"><ele>909.0</ele><time>2026-03-22T08:29:03Z</time></trkpt><trkpt lat="41.30494149849279" lon="14.64672395562559"><ele>910.0</ele><time>2026-03-22T08:29:04Z</time></trkpt><trkpt lat="41.30501655287457" lon="14.646721572433849"><ele>911.0</ele><time>2026-03-22T08:29:05Z</time></trkpt><trkpt lat="41.30509832345909" lon="14.646722532646352"><ele>912.0</ele><time>2026-03-22T08:29:06Z</time></trkpt><trkpt lat="41.30517350500352" lon="14.646725992379293"><ele>913.0</ele><time>2026-03-22T08:29:07Z</time></trkpt><trkpt lat="41.30523667800594" lon="14.646732023842729"><ele>914.0</ele><time>2026-03-22T08:29:08Z</time></trkpt><trkpt lat="41.30531474415011" lon="14.646711746352764"><ele>915.0</ele><time>2026-03-22T08:29:09Z</time></trkpt><trkpt lat="41.30538349378385" lon="14.646675524756832"><ele>916.0</ele><time>2026-03-22T08:29:10Z</time></trkpt><trkpt lat="41.3054682745478" lon="14.646649240378771"><ele>915.9999999999999</ele><time>2026-03-22T08:29:11Z</time></trkpt><trkpt lat="41.305544873049264" lon="14.646621179568369"><ele>916.0</ele><time>2026-03-22T08:29:12Z</time></trkpt><trkpt lat="41.305613660069504" lon="14.646588051216876"><ele>916.0</ele><time>2026-03-22T08:29:13Z</time></trkpt><trkpt lat="41.30569841457551" lon="14.64655673224144"><ele>916.0</ele><time>2026-03-22T08:29:14Z</time></trkpt><trkpt lat="41.30577277182933" lon="14.646523394599642"><ele>915.9999999999999</ele><time>2026-03-22T08:29:15Z</time></trkpt><trkpt lat="41.305843211517896" lon="14.64648980449291"><ele>916.0</ele><time>2026-03-22T08:29:16Z</time></trkpt><trkpt lat="41.30590807647771" lon="14.64646442276021"><ele>913.8333333333333</ele><time>2026-03-22T08:29:17Z</time></trkpt><trkpt lat="41.3059894404813" lon="14.646442166522757"><ele>911.6666666666666</ele><time>2026-03-22T08:29:18Z</time></trkpt><trkpt lat="41.306074961719006" lon="14.646406220444605"><ele>909.5</ele><time>2026-03-22T08:29:19Z</time></trkpt><trkpt lat="41.30615372363855" lon="14.646372554044504"><ele>907.3333333333333</ele><time>2026-03-22T08:29:20Z</time></trkpt><trkpt lat="41.3062333367905" lon="14.6463301163776"><ele>905.1666666666666</ele><time>2026-03-22T08:29:21Z</time></trkpt><trkpt lat="41.30630772465426" lon="14.646289757413774"><ele>903.0</ele><time>2026-03-22T08:29:22Z</time></trkpt><trkpt lat="41.306375368673706" lon="14.646237857000441"><ele>902.5</ele><time>2026-03-22T08:29:23Z</time></trkpt><trkpt lat="41.30645088656552" lon="14.646185969548359"><ele>902.0</ele><time>2026-03-22T08:29:24Z</time></trkpt><trkpt lat="41.306535340194515" lon="14.64614154806115"><ele>901.5</ele><time>2026-03-22T08:29:25Z</time></trkpt><trkpt lat="41.306621570298816" lon="14.646107928389796"><ele>901.0</ele><time>2026-03-22T08:29:26Z</time></trkpt><trkpt lat="41.30670248717951" lon="14.646077751355891"><ele>900.5</ele><time>2026-03-22T08:29:27Z</time></trkpt><trkpt lat="41.306778207681035" lon="14.646047473264547"><ele>900.0</ele><time>2026-03-22T08:29:28Z</time></trkpt><trkpt lat="41.306846848549036" lon="14.64601024459129"><ele>904.1666666666666</ele><time>2026-03-22T08:29:29Z</time></trkpt><trkpt lat="41.306907588174774" lon="14.645974424404455"><ele>908.3333333333333</ele><time>2026-03-22T08:29:30Z</time></trkpt><trkpt lat="41.30696954387976" lon="14.645838159153115"><ele>912.5</ele><time>2026-03-22T08:29:32Z</time></trkpt><trkpt lat="41.30698196046831" lon="14.645739794212108"><ele>916.6666666666666</ele><time>2026-03-22T08:29:33Z</time></trkpt><trkpt lat="41.30699332311852" lon="14.645632898225792"><ele>920.8333333333333</ele><time>2026-03-22T08:29:33.999Z</time></trkpt><trkpt lat="41.30700880475264" lon="14.645536282276495"><ele>925.0</ele><time>2026-03-22T08:29:34.999Z</time></trkpt><trkpt lat="41.30707994420707" lon="14.645415890382383"><ele>925.0</ele><time>2026-03-22T08:29:36.999Z</time></trkpt><trkpt lat="41.30719717173366" lon="14.645383013059933"><ele>925.0</ele><time>2026-03-22T08:29:38.999Z</time></trkpt><trkpt lat="41.30743361147717" lon="14.645450518686498"><ele>925.0</ele><time>2026-03-22T08:29:44.999Z</time></trkpt><trkpt lat="41.307502584462156" lon="14.645488809182035"><ele>925.0</ele><time>2026-03-22T08:29:45.999Z</time></trkpt><trkpt lat="41.3075814127689" lon="14.645483093769572"><ele>925.0</ele><time>2026-03-22T08:29:47.999Z</time></trkpt><trkpt lat="41.30766118989371" lon="14.645458204104775"><ele>925.0</ele><time>2026-03-22T08:29:49.999Z</time></trkpt><trkpt lat="41.307721854992174" lon="14.645394755153683"><ele>925.0</ele><time>2026-03-22T08:29:53.999Z</time></trkpt><trkpt lat="41.30775382715062" lon="14.645306196862355"><ele>925.0</ele><time>2026-03-22T08:29:55.999Z</time></trkpt><trkpt lat="41.30779144068343" lon="14.645223214082595"><ele>925.0</ele><time>2026-03-22T08:29:57.999Z</time></trkpt><trkpt lat="41.307832197481964" lon="14.645158089045513"><ele>925.0</ele><time>2026-03-22T08:29:59.999Z</time></trkpt><trkpt lat="41.3077674654575" lon="14.64514288492036"><ele>925.0</ele><time>2026-03-22T08:41:03.999Z</time></trkpt><trkpt lat="41.30770705615709" lon="14.64516822521833"><ele>924.9999999999999</ele><time>2026-03-22T08:41:05.999Z</time></trkpt><trkpt lat="41.30764159996513" lon="14.645199587063129"><ele>925.0</ele><time>2026-03-22T08:41:06.999Z</time></trkpt><trkpt lat="41.307551644837005" lon="14.645244226648762"><ele>925.0</ele><time>2026-03-22T08:41:08Z</time></trkpt><trkpt lat="41.307469861717074" lon="14.645265663604876"><ele>925.0</ele><time>2026-03-22T08:41:09Z</time></trkpt><trkpt lat="41.307393052824146" lon="14.645274820709131"><ele>924.9999999999999</ele><time>2026-03-22T08:41:10Z</time></trkpt><trkpt lat="41.30731920511264" lon="14.645296695942273"><ele>925.0</ele><time>2026-03-22T08:41:11Z</time></trkpt><trkpt lat="41.30721777339655" lon="14.645334242224976"><ele>925.0</ele><time>2026-03-22T08:41:13Z</time></trkpt><trkpt lat="41.30719364931864" lon="14.645249703374564"><ele>925.0</ele><time>2026-03-22T08:41:16Z</time></trkpt><trkpt lat="41.30722826229422" lon="14.645178243541318"><ele>925.0</ele><time>2026-03-22T08:41:24Z</time></trkpt><trkpt lat="41.30729350090324" lon="14.645116234464098"><ele>925.0</ele><time>2026-03-22T08:41:26Z</time></trkpt><trkpt lat="41.30732634100226" lon="14.6450432523128"><ele>925.0</ele><time>2026-03-22T08:41:27Z</time></trkpt><trkpt lat="41.307376907357636" lon="14.644990621566887"><ele>925.0</ele><time>2026-03-22T08:41:30Z</time></trkpt><trkpt lat="41.30743842506926" lon="14.644924964718369"><ele>925.0</ele><time>2026-03-22T08:41:33Z</time></trkpt><trkpt lat="41.30749857030358" lon="14.64485752421026"><ele>925.0</ele><time>2026-03-22T08:41:38Z</time></trkpt><trkpt lat="41.30760626117765" lon="14.644795116522873"><ele>925.0</ele><time>2026-03-22T08:41:41Z</time></trkpt><trkpt lat="41.3076865786216" lon="14.644748757581626"><ele>925.0</ele><time>2026-03-22T08:41:43Z</time></trkpt><trkpt lat="41.30777803608046" lon="14.644679214528354"><ele>925.0</ele><time>2026-03-22T08:41:45Z</time></trkpt><trkpt lat="41.30785369418191" lon="14.64463271877815"><ele>925.0</ele><time>2026-03-22T08:41:46Z</time></trkpt><trkpt lat="41.30792424839038" lon="14.644580178655746"><ele>924.9999999999999</ele><time>2026-03-22T08:41:47Z</time></trkpt><trkpt lat="41.307977397209214" lon="14.64452874177375"><ele>925.0</ele><time>2026-03-22T08:41:48Z</time></trkpt><trkpt lat="41.30808215619761" lon="14.644454192354598"><ele>925.0</ele><time>2026-03-22T08:41:50Z</time></trkpt><trkpt lat="41.308144288443366" lon="14.644421853348312"><ele>925.0</ele><time>2026-03-22T08:41:51Z</time></trkpt><trkpt lat="41.30821914330142" lon="14.644376710128597"><ele>924.9999999999999</ele><time>2026-03-22T08:41:52Z</time></trkpt><trkpt lat="41.30828992499349" lon="14.644342048066001"><ele>925.0</ele><time>2026-03-22T08:41:53Z</time></trkpt><trkpt lat="41.30835551566217" lon="14.644318089383859"><ele>923.6666666666666</ele><time>2026-03-22T08:41:54Z</time></trkpt><trkpt lat="41.30841497272143" lon="14.644274053667203"><ele>922.3333333333333</ele><time>2026-03-22T08:41:55Z</time></trkpt><trkpt lat="41.30849779622838" lon="14.644222233287895"><ele>921.0</ele><time>2026-03-22T08:41:56Z</time></trkpt><trkpt lat="41.308557426342816" lon="14.644178340229066"><ele>919.6666666666667</ele><time>2026-03-22T08:41:57Z</time></trkpt><trkpt lat="41.308616257372904" lon="14.644044037176508"><ele>918.3333333333334</ele><time>2026-03-22T08:41:59Z</time></trkpt><trkpt lat="41.30866230930426" lon="14.643934721120301"><ele>917.0</ele><time>2026-03-22T08:42:01Z</time></trkpt><trkpt lat="41.308724816777136" lon="14.643903556570288"><ele>917.0000000000001</ele><time>2026-03-22T08:42:03Z</time></trkpt><trkpt lat="41.30879810765537" lon="14.643838375713505"><ele>917.0</ele><time>2026-03-22T08:42:05Z</time></trkpt><trkpt lat="41.30884950561109" lon="14.643788112249178"><ele>917.0</ele><time>2026-03-22T08:42:07Z</time></trkpt><trkpt lat="41.30892827349435" lon="14.643738110999996"><ele>917.0</ele><time>2026-03-22T08:42:09Z</time></trkpt><trkpt lat="41.30899784380243" lon="14.643687125634218"><ele>917.0000000000001</ele><time>2026-03-22T08:42:11Z</time></trkpt><trkpt lat="41.3090874084582" lon="14.643648805045077"><ele>917.0</ele><time>2026-03-22T08:42:13Z</time></trkpt><trkpt lat="41.30915189106388" lon="14.643599142185694"><ele>915.1666666666667</ele><time>2026-03-22T08:42:15Z</time></trkpt><trkpt lat="41.3092110718593" lon="14.643538928506876"><ele>913.3333333333334</ele><time>2026-03-22T08:42:17Z</time></trkpt><trkpt lat="41.309275799278495" lon="14.643467085987243"><ele>911.5</ele><time>2026-03-22T08:42:19Z</time></trkpt><trkpt lat="41.30931371927992" lon="14.643397279272083"><ele>909.6666666666667</ele><time>2026-03-22T08:42:21Z</time></trkpt><trkpt lat="41.30936386472832" lon="14.643318961382455"><ele>907.8333333333334</ele><time>2026-03-22T08:42:23Z</time></trkpt><trkpt lat="41.309413599459496" lon="14.643235477295455"><ele>906.0</ele><time>2026-03-22T08:42:25Z</time></trkpt><trkpt lat="41.30948863639032" lon="14.643183651296033"><ele>906.0</ele><time>2026-03-22T08:42:27Z</time></trkpt><trkpt lat="41.30958237608038" lon="14.643123605025655"><ele>905.9999999999999</ele><time>2026-03-22T08:42:29Z</time></trkpt><trkpt lat="41.309682781554514" lon="14.64306366111019"><ele>905.9999999999999</ele><time>2026-03-22T08:42:31Z</time></trkpt><trkpt lat="41.30978267178403" lon="14.642991856219302"><ele>906.0</ele><time>2026-03-22T08:42:33Z</time></trkpt><trkpt lat="41.30987669166967" lon="14.642933924463879"><ele>906.0</ele><time>2026-03-22T08:42:34.998Z</time></trkpt><trkpt lat="41.309954555127526" lon="14.642874246612449"><ele>905.4</ele><time>2026-03-22T08:42:36.998Z</time></trkpt><trkpt lat="41.310046737131" lon="14.642803109431695"><ele>904.8</ele><time>2026-03-22T08:42:38.998Z</time></trkpt><trkpt lat="41.310138835191715" lon="14.642728472637296"><ele>904.1999999999999</ele><time>2026-03-22T08:42:40.998Z</time></trkpt><trkpt lat="41.31022674148695" lon="14.642647158739809"><ele>903.5999999999999</ele><time>2026-03-22T08:42:42.998Z</time></trkpt><trkpt lat="41.31029649163293" lon="14.642535621395849"><ele>903.0</ele><time>2026-03-22T08:42:44.998Z</time></trkpt><trkpt lat="41.31033964222471" lon="14.642425346289896"><ele>904.0</ele><time>2026-03-22T08:42:46.998Z</time></trkpt><trkpt lat="41.31036412650077" lon="14.642330114332818"><ele>905.0</ele><time>2026-03-22T08:42:48.998Z</time></trkpt><trkpt lat="41.31038511460045" lon="14.642248665051024"><ele>906.0</ele><time>2026-03-22T08:42:50.998Z</time></trkpt><trkpt lat="41.3103994750798" lon="14.642165905086735"><ele>907.0</ele><time>2026-03-22T08:42:52.998Z</time></trkpt><trkpt lat="41.31041272415158" lon="14.642083419704896"><ele>908.0</ele><time>2026-03-22T08:42:54.998Z</time></trkpt><trkpt lat="41.31040735051662" lon="14.64199306491275"><ele>909.0</ele><time>2026-03-22T08:42:57.998Z</time></trkpt><trkpt lat="41.310407546723034" lon="14.641903016282317"><ele>910.0</ele><time>2026-03-22T08:42:59.998Z</time></trkpt><trkpt lat="41.310408126294504" lon="14.641817673478247"><ele>909.4999999999999</ele><time>2026-03-22T08:43:01.998Z</time></trkpt><trkpt lat="41.31040329590225" lon="14.641684843516025"><ele>909.0</ele><time>2026-03-22T08:43:04.998Z</time></trkpt><trkpt lat="41.310435834452015" lon="14.641585601418416"><ele>908.5</ele><time>2026-03-22T08:43:06.998Z</time></trkpt><trkpt lat="41.310498526917954" lon="14.641507292832879"><ele>908.0</ele><time>2026-03-22T08:43:19Z</time></trkpt><trkpt lat="41.31055292380477" lon="14.64145181166729"><ele>907.4999999999999</ele><time>2026-03-22T08:43:21Z</time></trkpt><trkpt lat="41.3106180990332" lon="14.641402096488896"><ele>907.0</ele><time>2026-03-22T08:43:23Z</time></trkpt><trkpt lat="41.310671124444234" lon="14.641338975062729"><ele>906.9999999999999</ele><time>2026-03-22T08:43:26.999Z</time></trkpt><trkpt lat="41.3107712037716" lon="14.64126797772246"><ele>907.0</ele><time>2026-03-22T08:43:28.999Z</time></trkpt><trkpt lat="41.31082926891609" lon="14.641226907504082"><ele>907.0</ele><time>2026-03-22T08:43:29.999Z</time></trkpt><trkpt lat="41.31092469377572" lon="14.641137016413774"><ele>907.0</ele><time>2026-03-22T08:43:31.999Z</time></trkpt><trkpt lat="41.310991131620746" lon="14.641104561233918"><ele>906.9999999999999</ele><time>2026-03-22T08:43:32.999Z</time></trkpt><trkpt lat="41.31105412325888" lon="14.641061663257462"><ele>907.0</ele><time>2026-03-22T08:43:33.999Z</time></trkpt><trkpt lat="41.31112370219076" lon="14.641011428745948"><ele>906.6</ele><time>2026-03-22T08:43:34.999Z</time></trkpt><trkpt lat="41.31118243672501" lon="14.64096191945324"><ele>906.2</ele><time>2026-03-22T08:43:35.999Z</time></trkpt><trkpt lat="41.31125573987507" lon="14.640811487781612"><ele>905.8</ele><time>2026-03-22T08:43:37.999Z</time></trkpt><trkpt lat="41.3113302073098" lon="14.640726592022292"><ele>905.4</ele><time>2026-03-22T08:43:39.999Z</time></trkpt><trkpt lat="41.31140464994482" lon="14.64059551326423"><ele>905.0</ele><time>2026-03-22T08:43:41.999Z</time></trkpt><trkpt lat="41.311449467327336" lon="14.640478376308408"><ele>909.2</ele><time>2026-03-22T08:43:43.999Z</time></trkpt><trkpt lat="41.31140570681898" lon="14.640371925039034"><ele>913.4</ele><time>2026-03-22T08:43:45.999Z</time></trkpt><trkpt lat="41.311314314711346" lon="14.640267532194184"><ele>917.5999999999999</ele><time>2026-03-22T08:43:47.999Z</time></trkpt><trkpt lat="41.311248811405875" lon="14.640167003298027"><ele>921.8</ele><time>2026-03-22T08:43:49.999Z</time></trkpt><trkpt lat="41.311165672787" lon="14.640132577801712"><ele>926.0</ele><time>2026-03-22T08:43:51.999Z</time></trkpt><trkpt lat="41.3110894497135" lon="14.640049291842375"><ele>928.0000000000001</ele><time>2026-03-22T08:43:53.999Z</time></trkpt><trkpt lat="41.31101951209089" lon="14.63994653593165"><ele>930.0</ele><time>2026-03-22T08:43:55.999Z</time></trkpt><trkpt lat="41.31102408679514" lon="14.63982768441381"><ele>932.0</ele><time>2026-03-22T08:43:57.999Z</time></trkpt><trkpt lat="41.311065120555966" lon="14.63972629605157"><ele>934.0</ele><time>2026-03-22T08:44:00.999Z</time></trkpt><trkpt lat="41.311104419181454" lon="14.639617483729921"><ele>936.0000000000001</ele><time>2026-03-22T08:44:03.999Z</time></trkpt><trkpt lat="41.31114531471912" lon="14.639552096236535"><ele>938.0</ele><time>2026-03-22T08:44:05.999Z</time></trkpt><trkpt lat="41.31116148789263" lon="14.63946351781881"><ele>938.6666666666667</ele><time>2026-03-22T08:44:07.999Z</time></trkpt><trkpt lat="41.31120631338263" lon="14.63938506093973"><ele>939.3333333333334</ele><time>2026-03-22T08:44:09.999Z</time></trkpt><trkpt lat="41.31124703454388" lon="14.639310192741846"><ele>940.0</ele><time>2026-03-22T08:44:11.999Z</time></trkpt><trkpt lat="41.31131428187831" lon="14.63923488015715"><ele>940.6666666666667</ele><time>2026-03-22T08:44:14.999Z</time></trkpt><trkpt lat="41.311365929642264" lon="14.63918303747819"><ele>941.3333333333334</ele><time>2026-03-22T08:44:17.999Z</time></trkpt><trkpt lat="41.31142697917977" lon="14.639126100334039"><ele>942.0</ele><time>2026-03-22T08:44:20.999Z</time></trkpt><trkpt lat="41.31150504008074" lon="14.639070139461415"><ele>941.857142857143</ele><time>2026-03-22T08:44:23.999Z</time></trkpt><trkpt lat="41.311564562663804" lon="14.639020422871257"><ele>941.7142857142858</ele><time>2026-03-22T08:44:25.999Z</time></trkpt><trkpt lat="41.311616289617085" lon="14.638972580264335"><ele>941.5714285714286</ele><time>2026-03-22T08:44:27.999Z</time></trkpt><trkpt lat="41.31166295716432" lon="14.638906177032426"><ele>941.4285714285714</ele><time>2026-03-22T08:44:31.999Z</time></trkpt><trkpt lat="41.31170821138794" lon="14.638835051278608"><ele>941.2857142857142</ele><time>2026-03-22T08:44:34.999Z</time></trkpt><trkpt lat="41.311752140867625" lon="14.638743244665855"><ele>941.142857142857</ele><time>2026-03-22T08:44:37.999Z</time></trkpt><trkpt lat="41.31177821516231" lon="14.63866611195622"><ele>940.9999999999999</ele><time>2026-03-22T08:44:38.999Z</time></trkpt><trkpt lat="41.31178602659768" lon="14.638576092674787"><ele>941.0000000000001</ele><time>2026-03-22T08:44:40.999Z</time></trkpt><trkpt lat="41.31177415665386" lon="14.63847866533675"><ele>941.0</ele><time>2026-03-22T08:44:42.999Z</time></trkpt><trkpt lat="41.31175092677753" lon="14.638394331724767"><ele>941.0</ele><time>2026-03-22T08:44:44.999Z</time></trkpt><trkpt lat="41.31174026647257" lon="14.63827139623586"><ele>941.0</ele><time>2026-03-22T08:44:49.998Z</time></trkpt><trkpt lat="41.31176388686001" lon="14.638172105645616"><ele>941.0000000000001</ele><time>2026-03-22T08:44:53.998Z</time></trkpt><trkpt lat="41.31181403893895" lon="14.638084544557064"><ele>941.0</ele><time>2026-03-22T08:44:56.998Z</time></trkpt><trkpt lat="41.311860256320216" lon="14.638023966535457"><ele>940.9999999999999</ele><time>2026-03-22T08:45:03.998Z</time></trkpt><trkpt lat="41.31191069167219" lon="14.637939439379904"><ele>941.0</ele><time>2026-03-22T08:45:06.998Z</time></trkpt><trkpt lat="41.3119573547006" lon="14.637874190556346"><ele>940.9999999999999</ele><time>2026-03-22T08:45:08.998Z</time></trkpt><trkpt lat="41.312002095302134" lon="14.637802009636896"><ele>940.9999999999999</ele><time>2026-03-22T08:45:10.998Z</time></trkpt><trkpt lat="41.31205063287851" lon="14.637740353851052"><ele>941.0</ele><time>2026-03-22T08:45:12.998Z</time></trkpt><trkpt lat="41.312117642829826" lon="14.637701559933515"><ele>940.9999999999999</ele><time>2026-03-22T08:45:14.998Z</time></trkpt><trkpt lat="41.3121771453939" lon="14.637656415435934"><ele>940.9999999999999</ele><time>2026-03-22T08:45:16.998Z</time></trkpt><trkpt lat="41.31223537100353" lon="14.637594414200107"><ele>940.8333333333334</ele><time>2026-03-22T08:45:19Z</time></trkpt><trkpt lat="41.31228961693228" lon="14.637513301055693"><ele>940.6666666666667</ele><time>2026-03-22T08:45:21Z</time></trkpt><trkpt lat="41.31234136794895" lon="14.63742585198379"><ele>940.5</ele><time>2026-03-22T08:45:23Z</time></trkpt><trkpt lat="41.312389028426956" lon="14.637335413864509"><ele>940.3333333333333</ele><time>2026-03-22T08:45:25Z</time></trkpt><trkpt lat="41.312435736730876" lon="14.637270681321718"><ele>940.1666666666666</ele><time>2026-03-22T08:45:27Z</time></trkpt><trkpt lat="41.31250623408153" lon="14.637228243117786"><ele>940.0</ele><time>2026-03-22T08:45:30Z</time></trkpt><trkpt lat="41.3125761436836" lon="14.637225421921588"><ele>939.9999999999999</ele><time>2026-03-22T08:45:32Z</time></trkpt><trkpt lat="41.3126636049476" lon="14.637206000399383"><ele>940.0</ele><time>2026-03-22T08:45:35Z</time></trkpt><trkpt lat="41.31272374229996" lon="14.63713965189525"><ele>940.0</ele><time>2026-03-22T08:45:38.999Z</time></trkpt><trkpt lat="41.31278405147155" lon="14.637087417779192"><ele>940.0</ele><time>2026-03-22T08:45:42.999Z</time></trkpt><trkpt lat="41.312839866026074" lon="14.637040974149533"><ele>939.9999999999999</ele><time>2026-03-22T08:45:45.999Z</time></trkpt><trkpt lat="41.31289577425608" lon="14.63698331225892"><ele>940.0</ele><time>2026-03-22T08:45:48.999Z</time></trkpt><trkpt lat="41.31295174854724" lon="14.636913943380298"><ele>940.1666666666666</ele><time>2026-03-22T08:45:51.999Z</time></trkpt><trkpt lat="41.31300677380822" lon="14.636822944859494"><ele>940.3333333333333</ele><time>2026-03-22T08:45:53.999Z</time></trkpt><trkpt lat="41.313074512861625" lon="14.636734878604264"><ele>940.5</ele><time>2026-03-22T08:45:55.999Z</time></trkpt><trkpt lat="41.31311842795756" lon="14.636656046714764"><ele>940.6666666666667</ele><time>2026-03-22T08:45:57.999Z</time></trkpt><trkpt lat="41.313141693499205" lon="14.63657265540851"><ele>940.8333333333334</ele><time>2026-03-22T08:46:00.999Z</time></trkpt><trkpt lat="41.31316955804195" lon="14.636494647287186"><ele>941.0</ele><time>2026-03-22T08:46:11.999Z</time></trkpt><trkpt lat="41.313207293236545" lon="14.636570200138092"><ele>941.0000000000001</ele><time>2026-03-22T08:46:33.999Z</time></trkpt><trkpt lat="41.31326384754926" lon="14.636478245294562"><ele>941.0</ele><time>2026-03-22T08:47:53.999Z</time></trkpt><trkpt lat="41.31327833712965" lon="14.636380913706356"><ele>941.0</ele><time>2026-03-22T08:47:56.999Z</time></trkpt><trkpt lat="41.31333663897262" lon="14.636286643303915"><ele>941.0</ele><time>2026-03-22T08:47:59.999Z</time></trkpt><trkpt lat="41.313395339567556" lon="14.636216977737925"><ele>941.0000000000001</ele><time>2026-03-22T08:48:01.999Z</time></trkpt><trkpt lat="41.313454960418504" lon="14.63614032595926"><ele>941.0</ele><time>2026-03-22T08:48:03.999Z</time></trkpt><trkpt lat="41.313515350631135" lon="14.636067682810385"><ele>940.9999999999999</ele><time>2026-03-22T08:48:05.999Z</time></trkpt><trkpt lat="41.31358037683917" lon="14.63601483890476"><ele>941.0</ele><time>2026-03-22T08:48:07.999Z</time></trkpt><trkpt lat="41.313647399606666" lon="14.635993959087283"><ele>940.9999999999999</ele><time>2026-03-22T08:48:09.999Z</time></trkpt><trkpt lat="41.31370839953546" lon="14.635959104193223"><ele>940.9999999999999</ele><time>2026-03-22T08:48:11.999Z</time></trkpt><trkpt lat="41.31377800881074" lon="14.635925820624314"><ele>941.0</ele><time>2026-03-22T08:48:13.999Z</time></trkpt><trkpt lat="41.313850888679994" lon="14.635896485599124"><ele>940.9999999999999</ele><time>2026-03-22T08:48:16.999Z</time></trkpt><trkpt lat="41.3139275115183" lon="14.635855594598402"><ele>940.9999999999999</ele><time>2026-03-22T08:48:19.999Z</time></trkpt><trkpt lat="41.314014106977424" lon="14.635803488871929"><ele>941.0000000000001</ele><time>2026-03-22T08:48:22.999Z</time></trkpt><trkpt lat="41.314089098409184" lon="14.635795935488982"><ele>941.0</ele><time>2026-03-22T08:48:25.999Z</time></trkpt><trkpt lat="41.31417065014329" lon="14.635819903073449"><ele>941.0</ele><time>2026-03-22T08:48:28.999Z</time></trkpt><trkpt lat="41.31425137131668" lon="14.635851230558663"><ele>941.0</ele><time>2026-03-22T08:48:31.999Z</time></trkpt><trkpt lat="41.31431381784733" lon="14.635879372322336"><ele>941.0000000000001</ele><time>2026-03-22T08:48:34.999Z</time></trkpt><trkpt lat="41.31443844120306" lon="14.635831480449902"><ele>941.0</ele><time>2026-03-22T08:48:51.999Z</time></trkpt><trkpt lat="41.31451158378384" lon="14.635825293930695"><ele>941.0000000000001</ele><time>2026-03-22T08:48:53.999Z</time></trkpt><trkpt lat="41.31461438029215" lon="14.63574207900137"><ele>941.0</ele><time>2026-03-22T08:48:56.999Z</time></trkpt><trkpt lat="41.31467492919021" lon="14.635695429805223"><ele>941.0</ele><time>2026-03-22T08:48:58.999Z</time></trkpt><trkpt lat="41.31473609881385" lon="14.635647356942606"><ele>941.0</ele><time>2026-03-22T08:49:00.998Z</time></trkpt><trkpt lat="41.31480637870923" lon="14.635625544780767"><ele>941.0000000000001</ele><time>2026-03-22T08:49:02.998Z</time></trkpt><trkpt lat="41.31489823483655" lon="14.635631003824875"><ele>941.0</ele><time>2026-03-22T08:49:04.998Z</time></trkpt><trkpt lat="41.31498660745372" lon="14.63563593939382"><ele>941.1999999999999</ele><time>2026-03-22T08:49:06.998Z</time></trkpt><trkpt lat="41.31505313379109" lon="14.635696008985732"><ele>941.3999999999999</ele><time>2026-03-22T08:49:08.998Z</time></trkpt><trkpt lat="41.31515532891238" lon="14.635686011344433"><ele>941.6</ele><time>2026-03-22T08:49:11.998Z</time></trkpt><trkpt lat="41.315237346998074" lon="14.63568491114296"><ele>941.8</ele><time>2026-03-22T08:49:13.998Z</time></trkpt><trkpt lat="41.315335581251944" lon="14.635679827893803"><ele>942.0</ele><time>2026-03-22T08:49:15.998Z</time></trkpt><trkpt lat="41.31544027631185" lon="14.63565015215834"><ele>942.0</ele><time>2026-03-22T08:49:17.998Z</time></trkpt><trkpt lat="41.315535787881686" lon="14.635598073206658"><ele>942.0</ele><time>2026-03-22T08:49:19.998Z</time></trkpt><trkpt lat="41.31560381263641" lon="14.635530629883638"><ele>942.0</ele><time>2026-03-22T08:49:21.998Z</time></trkpt><trkpt lat="41.31567030975438" lon="14.635515245999178"><ele>942.0</ele><time>2026-03-22T08:49:23.998Z</time></trkpt><trkpt lat="41.31572933781529" lon="14.63546248380319"><ele>942.0</ele><time>2026-03-22T08:49:26.998Z</time></trkpt><trkpt lat="41.315800442091664" lon="14.635433842357891"><ele>942.0</ele><time>2026-03-22T08:49:30Z</time></trkpt><trkpt lat="41.315868655610366" lon="14.6353946367478"><ele>942.8333333333334</ele><time>2026-03-22T08:49:33Z</time></trkpt><trkpt lat="41.315917509470495" lon="14.635302296932057"><ele>943.6666666666667</ele><time>2026-03-22T08:49:36Z</time></trkpt><trkpt lat="41.315963760751565" lon="14.635213771661157"><ele>944.5</ele><time>2026-03-22T08:49:39Z</time></trkpt><trkpt lat="41.31601538254876" lon="14.635077033998176"><ele>945.3333333333334</ele><time>2026-03-22T08:49:42Z</time></trkpt><trkpt lat="41.3160680627952" lon="14.634986275630018"><ele>946.1666666666667</ele><time>2026-03-22T08:49:46Z</time></trkpt><trkpt lat="41.31609917504942" lon="14.634912243816542"><ele>947.0</ele><time>2026-03-22T08:49:48.999Z</time></trkpt><trkpt lat="41.31614048443124" lon="14.63482867062748"><ele>947.0000000000001</ele><time>2026-03-22T08:49:52.999Z</time></trkpt><trkpt lat="41.31618797843839" lon="14.63475647680407"><ele>947.0</ele><time>2026-03-22T08:49:55.999Z</time></trkpt><trkpt lat="41.316225521515754" lon="14.634682337374713"><ele>947.0</ele><time>2026-03-22T08:49:57.999Z</time></trkpt><trkpt lat="41.31626166403589" lon="14.6345986743181"><ele>947.0</ele><time>2026-03-22T08:49:59.999Z</time></trkpt><trkpt lat="41.316287469558326" lon="14.63450932649519"><ele>947.0000000000001</ele><time>2026-03-22T08:50:01.999Z</time></trkpt><trkpt lat="41.316343280244304" lon="14.63442640923621"><ele>947.0</ele><time>2026-03-22T08:50:03.999Z</time></trkpt><trkpt lat="41.316394254842535" lon="14.634333551393887"><ele>947.8333333333334</ele><time>2026-03-22T08:50:05.999Z</time></trkpt><trkpt lat="41.31643756022277" lon="14.634236574231661"><ele>948.6666666666667</ele><time>2026-03-22T08:50:07.999Z</time></trkpt><trkpt lat="41.31649321818786" lon="14.6341555409785"><ele>949.5</ele><time>2026-03-22T08:50:09.999Z</time></trkpt><trkpt lat="41.31653787611165" lon="14.634062945244633"><ele>950.3333333333333</ele><time>2026-03-22T08:50:11.999Z</time></trkpt><trkpt lat="41.31661042655595" lon="14.634028722944068"><ele>951.1666666666666</ele><time>2026-03-22T08:50:13.999Z</time></trkpt><trkpt lat="41.31669339279538" lon="14.634039267170193"><ele>952.0</ele><time>2026-03-22T08:50:15.999Z</time></trkpt><trkpt lat="41.31677302350922" lon="14.634049194531533"><ele>951.9999999999999</ele><time>2026-03-22T08:50:17.999Z</time></trkpt><trkpt lat="41.31683730654323" lon="14.634070474103813"><ele>952.0</ele><time>2026-03-22T08:50:19.999Z</time></trkpt><trkpt lat="41.316917908007994" lon="14.634074131008356"><ele>952.0</ele><time>2026-03-22T08:50:21.999Z</time></trkpt><trkpt lat="41.316994634612065" lon="14.634074474986022"><ele>952.0</ele><time>2026-03-22T08:50:23.999Z</time></trkpt><trkpt lat="41.31707897532853" lon="14.634030738215964"><ele>951.9999999999999</ele><time>2026-03-22T08:50:25.999Z</time></trkpt><trkpt lat="41.317154478826374" lon="14.633964190618277"><ele>952.0</ele><time>2026-03-22T08:50:27.999Z</time></trkpt><trkpt lat="41.31723066625394" lon="14.63387755565251"><ele>953.2</ele><time>2026-03-22T08:50:29.999Z</time></trkpt><trkpt lat="41.317309289075226" lon="14.63379830297819"><ele>954.4000000000001</ele><time>2026-03-22T08:50:31.999Z</time></trkpt><trkpt lat="41.317374848980144" lon="14.633734464384622"><ele>955.5999999999999</ele><time>2026-03-22T08:50:33.999Z</time></trkpt><trkpt lat="41.31742828682555" lon="14.633650363583873"><ele>956.8</ele><time>2026-03-22T08:50:35.999Z</time></trkpt><trkpt lat="41.31750015944012" lon="14.633556443021961"><ele>958.0</ele><time>2026-03-22T08:50:37.999Z</time></trkpt><trkpt lat="41.31758422663807" lon="14.63345624049391"><ele>958.4</ele><time>2026-03-22T08:50:39.999Z</time></trkpt><trkpt lat="41.317677416091094" lon="14.633373754341282"><ele>958.8</ele><time>2026-03-22T08:50:41.999Z</time></trkpt><trkpt lat="41.317777013788195" lon="14.633295219276832"><ele>959.2</ele><time>2026-03-22T08:50:43.999Z</time></trkpt><trkpt lat="41.31787890288973" lon="14.633219266317123"><ele>959.6</ele><time>2026-03-22T08:50:45.999Z</time></trkpt><trkpt lat="41.317945686920766" lon="14.63317343508721"><ele>960.0</ele><time>2026-03-22T08:50:46.999Z</time></trkpt><trkpt lat="41.31800738290661" lon="14.633133478296456"><ele>960.0</ele><time>2026-03-22T08:50:47.999Z</time></trkpt><trkpt lat="41.31809528736437" lon="14.633063267777889"><ele>960.0</ele><time>2026-03-22T08:50:49.999Z</time></trkpt><trkpt lat="41.31817015000195" lon="14.63297547501881"><ele>960.0</ele><time>2026-03-22T08:50:51.999Z</time></trkpt><trkpt lat="41.3182518450388" lon="14.6328865993538"><ele>960.0</ele><time>2026-03-22T08:50:53.999Z</time></trkpt><trkpt lat="41.318359000900685" lon="14.632859564952536"><ele>960.0</ele><time>2026-03-22T08:50:55.999Z</time></trkpt><trkpt lat="41.3184510258691" lon="14.632842982529025"><ele>960.0</ele><time>2026-03-22T08:50:57.999Z</time></trkpt><trkpt lat="41.31854290393324" lon="14.632788551261685"><ele>960.0</ele><time>2026-03-22T08:50:59.999Z</time></trkpt><trkpt lat="41.318627297510865" lon="14.632712665101318"><ele>960.0</ele><time>2026-03-22T08:51:01.999Z</time></trkpt><trkpt lat="41.31869977536461" lon="14.63262564735442"><ele>960.0</ele><time>2026-03-22T08:51:03.999Z</time></trkpt><trkpt lat="41.318751946726366" lon="14.632517084866244"><ele>960.0</ele><time>2026-03-22T08:51:05.999Z</time></trkpt><trkpt lat="41.318794754503095" lon="14.632433086252622"><ele>960.0</ele><time>2026-03-22T08:51:07.999Z</time></trkpt><trkpt lat="41.31886612103517" lon="14.632371410266785"><ele>960.0</ele><time>2026-03-22T08:51:09.999Z</time></trkpt><trkpt lat="41.31895129237264" lon="14.632308094714606"><ele>960.0</ele><time>2026-03-22T08:51:11.998Z</time></trkpt><trkpt lat="41.319022654022675" lon="14.632243072437742"><ele>960.0</ele><time>2026-03-22T08:51:13.998Z</time></trkpt><trkpt lat="41.31909642059703" lon="14.632222144267397"><ele>960.0</ele><time>2026-03-22T08:51:15.998Z</time></trkpt><trkpt lat="41.319164432372546" lon="14.632188117654124"><ele>960.0</ele><time>2026-03-22T08:51:17.998Z</time></trkpt><trkpt lat="41.31925212217313" lon="14.632137691516691"><ele>960.6666666666666</ele><time>2026-03-22T08:51:20.998Z</time></trkpt><trkpt lat="41.31933447329234" lon="14.632081547982148"><ele>961.3333333333333</ele><time>2026-03-22T08:51:22.998Z</time></trkpt><trkpt lat="41.31939798749215" lon="14.632051535958274"><ele>962.0</ele><time>2026-03-22T08:51:24.998Z</time></trkpt><trkpt lat="41.31945319174189" lon="14.632006058945363"><ele>962.6666666666666</ele><time>2026-03-22T08:51:44Z</time></trkpt><trkpt lat="41.319404775122045" lon="14.632060678829367"><ele>963.3333333333333</ele><time>2026-03-22T08:51:54.999Z</time></trkpt><trkpt lat="41.319475211936115" lon="14.631989898724315"><ele>964.0</ele><time>2026-03-22T08:53:39.996Z</time></trkpt><trkpt lat="41.31941616444972" lon="14.632049428150955"><ele>963.9999999999999</ele><time>2026-03-22T08:54:19.999Z</time></trkpt><trkpt lat="41.3193304655659" lon="14.632102889148769"><ele>964.0</ele><time>2026-03-22T08:54:22.999Z</time></trkpt><trkpt lat="41.319278041741725" lon="14.632163782080333"><ele>964.0</ele><time>2026-03-22T08:54:27.999Z</time></trkpt><trkpt lat="41.319336445271894" lon="14.632114371444494"><ele>964.0</ele><time>2026-03-22T08:54:36.999Z</time></trkpt><trkpt lat="41.319396345842165" lon="14.632065832907566"><ele>963.9999999999999</ele><time>2026-03-22T08:54:54.999Z</time></trkpt><trkpt lat="41.31946191207146" lon="14.632010021015823"><ele>964.0</ele><time>2026-03-22T08:54:56.999Z</time></trkpt><trkpt lat="41.31952667375771" lon="14.631967432650606"><ele>963.2</ele><time>2026-03-22T08:54:58.999Z</time></trkpt><trkpt lat="41.319611098152016" lon="14.631929786732902"><ele>962.4000000000001</ele><time>2026-03-22T08:55:38.999Z</time></trkpt><trkpt lat="41.31967638852372" lon="14.631894246837673"><ele>961.6</ele><time>2026-03-22T08:55:47Z</time></trkpt><trkpt lat="41.319776105054416" lon="14.631801730100738"><ele>960.8</ele><time>2026-03-22T08:55:49Z</time></trkpt><trkpt lat="41.319840025942554" lon="14.63169702818101"><ele>960.0</ele><time>2026-03-22T08:55:51Z</time></trkpt><trkpt lat="41.31989808890078" lon="14.631614264288055"><ele>961.8333333333334</ele><time>2026-03-22T08:55:53Z</time></trkpt><trkpt lat="41.31996978694652" lon="14.631532487482644"><ele>963.6666666666667</ele><time>2026-03-22T08:55:55Z</time></trkpt><trkpt lat="41.320045250561186" lon="14.6314853727308"><ele>965.5</ele><time>2026-03-22T08:55:57Z</time></trkpt><trkpt lat="41.32011521278281" lon="14.631414832270876"><ele>967.3333333333334</ele><time>2026-03-22T08:55:59Z</time></trkpt><trkpt lat="41.3201610825689" lon="14.631348171694258"><ele>969.1666666666667</ele><time>2026-03-22T08:56:01Z</time></trkpt><trkpt lat="41.320205982383726" lon="14.631269716190555"><ele>971.0</ele><time>2026-03-22T08:56:03Z</time></trkpt><trkpt lat="41.320225223539225" lon="14.63118339781917"><ele>971.1999999999999</ele><time>2026-03-22T08:56:05Z</time></trkpt><trkpt lat="41.32022795053908" lon="14.631042394290121"><ele>971.3999999999999</ele><time>2026-03-22T08:56:06Z</time></trkpt><trkpt lat="41.32025996905353" lon="14.630880222624835"><ele>971.6</ele><time>2026-03-22T08:56:08Z</time></trkpt><trkpt lat="41.32027784379069" lon="14.630796780688696"><ele>971.8</ele><time>2026-03-22T08:56:09Z</time></trkpt><trkpt lat="41.32033517187959" lon="14.630698766362512"><ele>972.0</ele><time>2026-03-22T08:56:11Z</time></trkpt><trkpt lat="41.32039290060155" lon="14.630639149951948"><ele>972.0</ele><time>2026-03-22T08:56:14Z</time></trkpt><trkpt lat="41.320388640061644" lon="14.630552452724727"><ele>972.0</ele><time>2026-03-22T08:56:18Z</time></trkpt><trkpt lat="41.32037532129503" lon="14.630432544641975"><ele>972.0</ele><time>2026-03-22T08:56:21Z</time></trkpt><trkpt lat="41.320344493173046" lon="14.63031421387147"><ele>972.0</ele><time>2026-03-22T08:56:23Z</time></trkpt><trkpt lat="41.32029558352361" lon="14.630191724929253"><ele>972.0</ele><time>2026-03-22T08:56:25Z</time></trkpt><trkpt lat="41.3202537184596" lon="14.63007362940762"><ele>972.4000000000001</ele><time>2026-03-22T08:56:27Z</time></trkpt><trkpt lat="41.32019462112839" lon="14.629947579389242"><ele>972.8000000000001</ele><time>2026-03-22T08:56:29Z</time></trkpt><trkpt lat="41.32015043177574" lon="14.629828278883874"><ele>973.2</ele><time>2026-03-22T08:56:31Z</time></trkpt><trkpt lat="41.32010823186813" lon="14.6297334255691"><ele>973.6</ele><time>2026-03-22T08:56:33Z</time></trkpt><trkpt lat="41.32002833483054" lon="14.629676211964073"><ele>974.0</ele><time>2026-03-22T08:56:35Z</time></trkpt><trkpt lat="41.31994215423602" lon="14.629595596633397"><ele>974.0</ele><time>2026-03-22T08:56:36.999Z</time></trkpt><trkpt lat="41.31987718869243" lon="14.629509832782578"><ele>974.0000000000001</ele><time>2026-03-22T08:56:38.999Z</time></trkpt><trkpt lat="41.31980830899695" lon="14.629404007034143"><ele>974.0000000000001</ele><time>2026-03-22T08:56:40.999Z</time></trkpt><trkpt lat="41.319780120732375" lon="14.62929124154371"><ele>974.0</ele><time>2026-03-22T08:56:43.999Z</time></trkpt><trkpt lat="41.31984467241178" lon="14.629218125611356"><ele>974.0</ele><time>2026-03-22T08:56:46.999Z</time></trkpt><trkpt lat="41.319932251233055" lon="14.62912004687487"><ele>974.1428571428571</ele><time>2026-03-22T08:56:47.999Z</time></trkpt><trkpt lat="41.31999308487328" lon="14.629081116259336"><ele>974.2857142857142</ele><time>2026-03-22T08:56:48.999Z</time></trkpt><trkpt lat="41.32005267034925" lon="14.629041339586346"><ele>974.4285714285713</ele><time>2026-03-22T08:56:49.999Z</time></trkpt><trkpt lat="41.32011360398399" lon="14.62899945240905"><ele>974.5714285714286</ele><time>2026-03-22T08:56:50.999Z</time></trkpt><trkpt lat="41.320173631413766" lon="14.628965637374757"><ele>974.7142857142856</ele><time>2026-03-22T08:56:51.999Z</time></trkpt><trkpt lat="41.3202351133204" lon="14.628930599857561"><ele>974.8571428571428</ele><time>2026-03-22T08:56:52.999Z</time></trkpt><trkpt lat="41.32029297884027" lon="14.62889201522928"><ele>975.0</ele><time>2026-03-22T08:56:53.999Z</time></trkpt><trkpt lat="41.32039183365049" lon="14.628807708441704"><ele>975.0</ele><time>2026-03-22T08:56:55.999Z</time></trkpt><trkpt lat="41.32047522505756" lon="14.628761581317207"><ele>975.0</ele><time>2026-03-22T08:56:57.999Z</time></trkpt><trkpt lat="41.32056121640443" lon="14.628697406961672"><ele>975.0</ele><time>2026-03-22T08:56:59.999Z</time></trkpt><trkpt lat="41.32065325289673" lon="14.62864746787871"><ele>975.0</ele><time>2026-03-22T08:57:01.999Z</time></trkpt><trkpt lat="41.32072445093504" lon="14.628611271505532"><ele>975.0</ele><time>2026-03-22T08:57:02.999Z</time></trkpt><trkpt lat="41.320800295381254" lon="14.628499931693403"><ele>975.25</ele><time>2026-03-22T08:57:04.999Z</time></trkpt><trkpt lat="41.32085933801402" lon="14.62836557400379"><ele>975.5</ele><time>2026-03-22T08:57:06.999Z</time></trkpt><trkpt lat="41.32090920717795" lon="14.628229357901207"><ele>975.75</ele><time>2026-03-22T08:57:08.999Z</time></trkpt><trkpt lat="41.32095844136256" lon="14.628095472367411"><ele>976.0</ele><time>2026-03-22T08:57:10.999Z</time></trkpt><trkpt lat="41.32101108536423" lon="14.6279484511077"><ele>975.9999999999999</ele><time>2026-03-22T08:57:12.999Z</time></trkpt><trkpt lat="41.32102992390674" lon="14.627867211211614"><ele>976.0</ele><time>2026-03-22T08:57:13.999Z</time></trkpt><trkpt lat="41.321049528588134" lon="14.627782395147918"><ele>976.0</ele><time>2026-03-22T08:57:14.999Z</time></trkpt><trkpt lat="41.32110937596684" lon="14.627662278551616"><ele>976.0</ele><time>2026-03-22T08:57:16.999Z</time></trkpt><trkpt lat="41.32114245132506" lon="14.627562837748295"><ele>975.9999999999999</ele><time>2026-03-22T08:57:18.999Z</time></trkpt><trkpt lat="41.32111081867733" lon="14.62745714223345"><ele>976.0</ele><time>2026-03-22T08:57:20.999Z</time></trkpt><trkpt lat="41.321059303509564" lon="14.627383428682862"><ele>976.9999999999999</ele><time>2026-03-22T08:57:22.999Z</time></trkpt><trkpt lat="41.321098951745554" lon="14.627314951007833"><ele>978.0</ele><time>2026-03-22T08:58:01Z</time></trkpt><trkpt lat="41.321155245522" lon="14.627227786703934"><ele>979.0</ele><time>2026-03-22T08:58:04Z</time></trkpt><trkpt lat="41.321215698983735" lon="14.627157978587036"><ele>980.0</ele><time>2026-03-22T08:58:07Z</time></trkpt><trkpt lat="41.32122835136239" lon="14.627045690236736"><ele>980.9999999999999</ele><time>2026-03-22T08:58:10Z</time></trkpt><trkpt lat="41.321257236964236" lon="14.62694318044035"><ele>982.0</ele><time>2026-03-22T08:58:12Z</time></trkpt><trkpt lat="41.321287725183666" lon="14.626833699657531"><ele>983.1666666666666</ele><time>2026-03-22T08:58:14Z</time></trkpt><trkpt lat="41.32132409762315" lon="14.626700575812633"><ele>984.3333333333333</ele><time>2026-03-22T08:58:16Z</time></trkpt><trkpt lat="41.3213204764824" lon="14.626587366577795"><ele>985.5</ele><time>2026-03-22T08:58:17Z</time></trkpt><trkpt lat="41.321394955180594" lon="14.626509333137662"><ele>986.6666666666667</ele><time>2026-03-22T08:58:20Z</time></trkpt><trkpt lat="41.32147467213236" lon="14.626519919936175"><ele>987.8333333333334</ele><time>2026-03-22T08:58:22Z</time></trkpt><trkpt lat="41.32155327497115" lon="14.626552650764863"><ele>989.0</ele><time>2026-03-22T08:58:24Z</time></trkpt><trkpt lat="41.32161176662529" lon="14.626487072494694"><ele>991.6666666666667</ele><time>2026-03-22T08:58:27Z</time></trkpt><trkpt lat="41.321668292907304" lon="14.62655313423905"><ele>994.3333333333334</ele><time>2026-03-22T08:58:30Z</time></trkpt><trkpt lat="41.32174218968077" lon="14.626512575699737"><ele>997.0</ele><time>2026-03-22T08:58:33Z</time></trkpt><trkpt lat="41.32183295395638" lon="14.626470914511867"><ele>999.6666666666667</ele><time>2026-03-22T08:58:35Z</time></trkpt><trkpt lat="41.32187050405268" lon="14.626358897981836"><ele>1002.3333333333334</ele><time>2026-03-22T08:58:40Z</time></trkpt><trkpt lat="41.32191162107667" lon="14.626238415607272"><ele>1005.0</ele><time>2026-03-22T08:58:42.999Z</time></trkpt><trkpt lat="41.321910248973644" lon="14.6261256707502"><ele>1005.25</ele><time>2026-03-22T08:58:44.999Z</time></trkpt><trkpt lat="41.32189208394438" lon="14.625969790446266"><ele>1005.5</ele><time>2026-03-22T08:58:46.999Z</time></trkpt><trkpt lat="41.32186153907147" lon="14.625780809372653"><ele>1005.75</ele><time>2026-03-22T08:58:48.999Z</time></trkpt><trkpt lat="41.321829461456296" lon="14.625618536392771"><ele>1006.0</ele><time>2026-03-22T08:58:50.999Z</time></trkpt><trkpt lat="41.32178829904814" lon="14.625464157194163"><ele>1006.0</ele><time>2026-03-22T08:58:52.999Z</time></trkpt><trkpt lat="41.32174770786426" lon="14.62534705764258"><ele>1005.9999999999999</ele><time>2026-03-22T08:58:54.999Z</time></trkpt><trkpt lat="41.32168379610042" lon="14.625256994488344"><ele>1005.9999999999999</ele><time>2026-03-22T08:58:56.999Z</time></trkpt><trkpt lat="41.321615413630035" lon="14.625135828542309"><ele>1006.0</ele><time>2026-03-22T08:58:58.999Z</time></trkpt><trkpt lat="41.321564174213876" lon="14.625023951897628"><ele>1006.0</ele><time>2026-03-22T08:59:00.999Z</time></trkpt><trkpt lat="41.32153263337448" lon="14.624918800148057"><ele>1006.0</ele><time>2026-03-22T08:59:03.999Z</time></trkpt><trkpt lat="41.321632171893185" lon="14.624895433482916"><ele>1005.9999999999999</ele><time>2026-03-22T08:59:09.999Z</time></trkpt><trkpt lat="41.321674119430696" lon="14.624811426029838"><ele>1005.9999999999999</ele><time>2026-03-22T08:59:12.999Z</time></trkpt><trkpt lat="41.3217272665187" lon="14.624674132232087"><ele>1006.0</ele><time>2026-03-22T08:59:15.999Z</time></trkpt><trkpt lat="41.321749462894914" lon="14.624561982265053"><ele>1006.0</ele><time>2026-03-22T08:59:17.999Z</time></trkpt><trkpt lat="41.32179215563181" lon="14.624412407936404"><ele>1005.9999999999999</ele><time>2026-03-22T08:59:19.999Z</time></trkpt><trkpt lat="41.32181321039799" lon="14.624322268218119"><ele>1006.0</ele><time>2026-03-22T08:59:20.999Z</time></trkpt><trkpt lat="41.321835610216425" lon="14.624226138970704"><ele>1006.0</ele><time>2026-03-22T08:59:21.999Z</time></trkpt><trkpt lat="41.32186998213002" lon="14.62412180005036"><ele>1006.0</ele><time>2026-03-22T08:59:22.999Z</time></trkpt><trkpt lat="41.321903322111396" lon="14.624012031871104"><ele>1005.9999999999999</ele><time>2026-03-22T08:59:23.999Z</time></trkpt><trkpt lat="41.321935922775936" lon="14.62389792333923"><ele>1006.0</ele><time>2026-03-22T08:59:24.999Z</time></trkpt><trkpt lat="41.321981829283075" lon="14.623778741725186"><ele>1006.0</ele><time>2026-03-22T08:59:25.999Z</time></trkpt><trkpt lat="41.322028535867325" lon="14.623651142682228"><ele>1005.9999999999999</ele><time>2026-03-22T08:59:26.999Z</time></trkpt><trkpt lat="41.322067496270336" lon="14.62352486842762"><ele>1005.9999999999999</ele><time>2026-03-22T08:59:27.999Z</time></trkpt><trkpt lat="41.32210787498615" lon="14.623416183562357"><ele>1006.0</ele><time>2026-03-22T08:59:28.999Z</time></trkpt><trkpt lat="41.32216067999271" lon="14.623328637920991"><ele>1006.0</ele><time>2026-03-22T08:59:29.999Z</time></trkpt><trkpt lat="41.322224007388705" lon="14.623254919443829"><ele>1006.4</ele><time>2026-03-22T08:59:30.999Z</time></trkpt><trkpt lat="41.322281914558495" lon="14.623198966728335"><ele>1006.8</ele><time>2026-03-22T08:59:31.999Z</time></trkpt><trkpt lat="41.32235102138968" lon="14.623077519055613"><ele>1007.1999999999999</ele><time>2026-03-22T08:59:33.999Z</time></trkpt><trkpt lat="41.322213539454076" lon="14.6229903009398"><ele>1007.5999999999999</ele><time>2026-03-22T08:59:35.999Z</time></trkpt><trkpt lat="41.32215894052137" lon="14.62289475414096"><ele>1008.0</ele><time>2026-03-22T08:59:39.999Z</time></trkpt><trkpt lat="41.32207919152732" lon="14.622833482707819"><ele>1009.0</ele><time>2026-03-22T08:59:41.999Z</time></trkpt><trkpt lat="41.32203536879919" lon="14.622743938266751"><ele>1010.0</ele><time>2026-03-22T08:59:43.999Z</time></trkpt><trkpt lat="41.321972021404925" lon="14.622679722124829"><ele>1011.0</ele><time>2026-03-22T08:59:45.999Z</time></trkpt><trkpt lat="41.32187173687209" lon="14.622549365811878"><ele>1012.0</ele><time>2026-03-22T08:59:47.999Z</time></trkpt><trkpt lat="41.32183763791594" lon="14.622457146583054"><ele>1013.0</ele><time>2026-03-22T08:59:48.999Z</time></trkpt><trkpt lat="41.32178823523504" lon="14.622402181523961"><ele>1014.0</ele><time>2026-03-22T08:59:49.999Z</time></trkpt><trkpt lat="41.32168800945857" lon="14.6223189594502"><ele>1014.0</ele><time>2026-03-22T08:59:51.999Z</time></trkpt><trkpt lat="41.3216281494145" lon="14.622266331639146"><ele>1014.0</ele><time>2026-03-22T08:59:52.999Z</time></trkpt><trkpt lat="41.32157797462008" lon="14.622192803005923"><ele>1014.0</ele><time>2026-03-22T08:59:53.999Z</time></trkpt><trkpt lat="41.32152334778671" lon="14.62214075418924"><ele>1014.0</ele><time>2026-03-22T08:59:54.998Z</time></trkpt><trkpt lat="41.321457602034265" lon="14.62208012782349"><ele>1014.0</ele><time>2026-03-22T08:59:55.998Z</time></trkpt><trkpt lat="41.32137846007229" lon="14.62201964313696"><ele>1014.0</ele><time>2026-03-22T08:59:56.998Z</time></trkpt><trkpt lat="41.321297990066306" lon="14.621962634102793"><ele>1015.4000000000001</ele><time>2026-03-22T08:59:57.998Z</time></trkpt><trkpt lat="41.32121399262065" lon="14.621901187827751"><ele>1016.8000000000001</ele><time>2026-03-22T08:59:59Z</time></trkpt><trkpt lat="41.32112627589382" lon="14.621828098124524"><ele>1018.1999999999999</ele><time>2026-03-22T09:00:00Z</time></trkpt><trkpt lat="41.32103499458172" lon="14.621745400892978"><ele>1019.5999999999999</ele><time>2026-03-22T09:00:01Z</time></trkpt><trkpt lat="41.32096312325722" lon="14.621677665030738"><ele>1021.0</ele><time>2026-03-22T09:00:02Z</time></trkpt><trkpt lat="41.3208963326645" lon="14.621613805458813"><ele>1020.9999999999999</ele><time>2026-03-22T09:00:03Z</time></trkpt><trkpt lat="41.320830980511396" lon="14.621551321205992"><ele>1021.0</ele><time>2026-03-22T09:00:04Z</time></trkpt><trkpt lat="41.32077171358338" lon="14.62149172824535"><ele>1021.0</ele><time>2026-03-22T09:00:05Z</time></trkpt><trkpt lat="41.320715790207935" lon="14.621429478005414"><ele>1021.0</ele><time>2026-03-22T09:00:06Z</time></trkpt><trkpt lat="41.32065400153667" lon="14.621386313641663"><ele>1020.9999999999999</ele><time>2026-03-22T09:00:07Z</time></trkpt><trkpt lat="41.32060292960354" lon="14.621322585425727"><ele>1021.0</ele><time>2026-03-22T09:00:08Z</time></trkpt><trkpt lat="41.32051246926954" lon="14.621211326135183"><ele>1023.0</ele><time>2026-03-22T09:00:10Z</time></trkpt><trkpt lat="41.32040704752359" lon="14.621148637666789"><ele>1025.0</ele><time>2026-03-22T09:00:12Z</time></trkpt><trkpt lat="41.32028659535985" lon="14.621124874565552"><ele>1027.0</ele><time>2026-03-22T09:00:14Z</time></trkpt><trkpt lat="41.3201745660444" lon="14.621135974640161"><ele>1029.0</ele><time>2026-03-22T09:00:16Z</time></trkpt><trkpt lat="41.32004888423999" lon="14.621154870644565"><ele>1029.3333333333333</ele><time>2026-03-22T09:00:18Z</time></trkpt><trkpt lat="41.31997594765464" lon="14.621169388235007"><ele>1029.6666666666667</ele><time>2026-03-22T09:00:19Z</time></trkpt><trkpt lat="41.319906892535336" lon="14.62119133242131"><ele>1030.0</ele><time>2026-03-22T09:00:20Z</time></trkpt><trkpt lat="41.31983423027473" lon="14.621214422875623"><ele>1030.3333333333335</ele><time>2026-03-22T09:00:21Z</time></trkpt><trkpt lat="41.319765327155835" lon="14.621232334310111"><ele>1030.6666666666667</ele><time>2026-03-22T09:00:22Z</time></trkpt><trkpt lat="41.31963778971393" lon="14.621258729395134"><ele>1031.0</ele><time>2026-03-22T09:00:24Z</time></trkpt><trkpt lat="41.31951961034892" lon="14.621262410109914"><ele>1031.0</ele><time>2026-03-22T09:00:26Z</time></trkpt><trkpt lat="41.31941862995437" lon="14.62124048702529"><ele>1031.0</ele><time>2026-03-22T09:00:28Z</time></trkpt><trkpt lat="41.319360632100384" lon="14.62115803348326"><ele>1031.0</ele><time>2026-03-22T09:00:30Z</time></trkpt><trkpt lat="41.31936638774468" lon="14.621070796538671"><ele>1031.0</ele><time>2026-03-22T09:00:31Z</time></trkpt><trkpt lat="41.319370635687285" lon="14.620969659203777"><ele>1031.0</ele><time>2026-03-22T09:00:32Z</time></trkpt><trkpt lat="41.31936796256718" lon="14.620882626652703"><ele>1031.0</ele><time>2026-03-22T09:00:33Z</time></trkpt><trkpt lat="41.319318798663545" lon="14.620745062463824"><ele>1031.0</ele><time>2026-03-22T09:00:35Z</time></trkpt><trkpt lat="41.31923463088833" lon="14.620650507605687"><ele>1031.0</ele><time>2026-03-22T09:00:37Z</time></trkpt><trkpt lat="41.31917099615616" lon="14.620619808151925"><ele>1031.0</ele><time>2026-03-22T09:00:38Z</time></trkpt><trkpt lat="41.3191008212486" lon="14.620602314731173"><ele>1031.0</ele><time>2026-03-22T09:00:39Z</time></trkpt><trkpt lat="41.31903576796763" lon="14.620580530785045"><ele>1031.0</ele><time>2026-03-22T09:00:40Z</time></trkpt><trkpt lat="41.31897139573265" lon="14.620557264081791"><ele>1031.0</ele><time>2026-03-22T09:00:41Z</time></trkpt><trkpt lat="41.318857806363525" lon="14.620510493629327"><ele>1030.25</ele><time>2026-03-22T09:00:43Z</time></trkpt><trkpt lat="41.31874482768793" lon="14.620459304709787"><ele>1029.5</ele><time>2026-03-22T09:00:45Z</time></trkpt><trkpt lat="41.31864180509524" lon="14.6203916789505"><ele>1028.75</ele><time>2026-03-22T09:00:46.999Z</time></trkpt><trkpt lat="41.31853795219672" lon="14.620322442460541"><ele>1028.0</ele><time>2026-03-22T09:00:48.999Z</time></trkpt><trkpt lat="41.31850207721043" lon="14.620179937463393"><ele>1029.0</ele><time>2026-03-22T09:00:50.999Z</time></trkpt><trkpt lat="41.31849559376768" lon="14.62009231364678"><ele>1030.0</ele><time>2026-03-22T09:00:51.999Z</time></trkpt><trkpt lat="41.31849070755129" lon="14.620007461519856"><ele>1031.0</ele><time>2026-03-22T09:00:52.999Z</time></trkpt><trkpt lat="41.318493543452526" lon="14.619923143166531"><ele>1032.0</ele><time>2026-03-22T09:00:53.999Z</time></trkpt><trkpt lat="41.31849047565897" lon="14.619786653623217"><ele>1033.0</ele><time>2026-03-22T09:00:55.999Z</time></trkpt><trkpt lat="41.31846675539919" lon="14.619675366655047"><ele>1034.0</ele><time>2026-03-22T09:00:57.999Z</time></trkpt><trkpt lat="41.318412582730815" lon="14.619589007188457"><ele>1034.0</ele><time>2026-03-22T09:00:59.999Z</time></trkpt><trkpt lat="41.31835898174237" lon="14.619502878049135"><ele>1034.0</ele><time>2026-03-22T09:01:01.999Z</time></trkpt><trkpt lat="41.31827456577571" lon="14.619467544172647"><ele>1034.0</ele><time>2026-03-22T09:01:03.999Z</time></trkpt><trkpt lat="41.31821075525458" lon="14.619401231600783"><ele>1034.0</ele><time>2026-03-22T09:01:05.999Z</time></trkpt><trkpt lat="41.31814908650746" lon="14.619316543164542"><ele>1034.0</ele><time>2026-03-22T09:01:07.999Z</time></trkpt><trkpt lat="41.318089122107914" lon="14.61925196825577"><ele>1034.0</ele><time>2026-03-22T09:01:09.999Z</time></trkpt><trkpt lat="41.318005927141954" lon="14.619194780730156"><ele>1032.8333333333335</ele><time>2026-03-22T09:01:11.999Z</time></trkpt><trkpt lat="41.31793293057449" lon="14.619131240024805"><ele>1031.6666666666667</ele><time>2026-03-22T09:01:13.999Z</time></trkpt><trkpt lat="41.317850184991435" lon="14.619089850801053"><ele>1030.5</ele><time>2026-03-22T09:01:15.999Z</time></trkpt><trkpt lat="41.317758756345484" lon="14.619051252775312"><ele>1029.3333333333333</ele><time>2026-03-22T09:01:17.999Z</time></trkpt><trkpt lat="41.317656156264384" lon="14.619028753418808"><ele>1028.1666666666665</ele><time>2026-03-22T09:01:19.999Z</time></trkpt><trkpt lat="41.31761442364299" lon="14.618963946394398"><ele>1027.0</ele><time>2026-03-22T09:01:20.999Z</time></trkpt><trkpt lat="41.317510675006396" lon="14.618936743516272"><ele>1027.0</ele><time>2026-03-22T09:01:22.999Z</time></trkpt><trkpt lat="41.317389171483995" lon="14.61890735383754"><ele>1027.0</ele><time>2026-03-22T09:01:24.999Z</time></trkpt><trkpt lat="41.31727479962474" lon="14.618871301736151"><ele>1027.0</ele><time>2026-03-22T09:01:26.999Z</time></trkpt><trkpt lat="41.31716436691634" lon="14.61882903888623"><ele>1027.0</ele><time>2026-03-22T09:01:28.999Z</time></trkpt><trkpt lat="41.31706764217075" lon="14.618760861695188"><ele>1027.8</ele><time>2026-03-22T09:01:30.999Z</time></trkpt><trkpt lat="41.316991741709124" lon="14.618659439703979"><ele>1028.6</ele><time>2026-03-22T09:01:32.999Z</time></trkpt><trkpt lat="41.31692933233545" lon="14.61855079494571"><ele>1029.3999999999999</ele><time>2026-03-22T09:01:34.999Z</time></trkpt><trkpt lat="41.316872611411924" lon="14.618455533800896"><ele>1030.2</ele><time>2026-03-22T09:01:36.999Z</time></trkpt><trkpt lat="41.316838574255684" lon="14.618348876007957"><ele>1031.0</ele><time>2026-03-22T09:01:38.999Z</time></trkpt><trkpt lat="41.31682100010306" lon="14.618257350625392"><ele>1029.7142857142858</ele><time>2026-03-22T09:01:40.999Z</time></trkpt><trkpt lat="41.316818043622405" lon="14.61816102893381"><ele>1028.4285714285713</ele><time>2026-03-22T09:01:42.999Z</time></trkpt><trkpt lat="41.31681730713319" lon="14.61807153759687"><ele>1027.142857142857</ele><time>2026-03-22T09:01:44.999Z</time></trkpt><trkpt lat="41.316826059902425" lon="14.617981468662274"><ele>1025.857142857143</ele><time>2026-03-22T09:01:46.999Z</time></trkpt><trkpt lat="41.31687091586787" lon="14.617905753475593"><ele>1024.5714285714284</ele><time>2026-03-22T09:01:48.999Z</time></trkpt><trkpt lat="41.31691801461957" lon="14.617822045951348"><ele>1023.2857142857142</ele><time>2026-03-22T09:01:51.999Z</time></trkpt><trkpt lat="41.3169690279922" lon="14.617734806110805"><ele>1022.0</ele><time>2026-03-22T09:01:55.999Z</time></trkpt><trkpt lat="41.31699499090209" lon="14.617651955388764"><ele>1019.3333333333334</ele><time>2026-03-22T09:01:58.998Z</time></trkpt><trkpt lat="41.316955824892354" lon="14.617547576657701"><ele>1016.6666666666667</ele><time>2026-03-22T09:02:23Z</time></trkpt><trkpt lat="41.3169042702532" lon="14.61745463467749"><ele>1014.0</ele><time>2026-03-22T09:02:26Z</time></trkpt><trkpt lat="41.31686016018005" lon="14.617366544133992"><ele>1011.3333333333333</ele><time>2026-03-22T09:02:29Z</time></trkpt><trkpt lat="41.31681348642661" lon="14.617272976944578"><ele>1008.6666666666666</ele><time>2026-03-22T09:02:32Z</time></trkpt><trkpt lat="41.31677514724501" lon="14.61720275769628"><ele>1006.0</ele><time>2026-03-22T09:02:35Z</time></trkpt><trkpt lat="41.31672111351564" lon="14.617125626011289"><ele>1006.0</ele><time>2026-03-22T09:02:38Z</time></trkpt><trkpt lat="41.316658340549736" lon="14.617034064267203"><ele>1005.9999999999999</ele><time>2026-03-22T09:02:41Z</time></trkpt><trkpt lat="41.31658107540924" lon="14.616933514258315"><ele>1005.9999999999999</ele><time>2026-03-22T09:02:43Z</time></trkpt><trkpt lat="41.316517632154934" lon="14.616850207648712"><ele>1006.0</ele><time>2026-03-22T09:02:46Z</time></trkpt><trkpt lat="41.316457927188154" lon="14.616775016388262"><ele>1006.0</ele><time>2026-03-22T09:02:49Z</time></trkpt><trkpt lat="41.316399512688484" lon="14.61670621594711"><ele>1004.0</ele><time>2026-03-22T09:02:51.999Z</time></trkpt><trkpt lat="41.31635289228382" lon="14.616632976186672"><ele>1002.0000000000001</ele><time>2026-03-22T09:02:56.999Z</time></trkpt><trkpt lat="41.316297166453204" lon="14.616589394735966"><ele>1000.0</ele><time>2026-03-22T09:03:00.999Z</time></trkpt><trkpt lat="41.3162272681817" lon="14.616540802990928"><ele>998.0</ele><time>2026-03-22T09:03:04.999Z</time></trkpt><trkpt lat="41.3161801404334" lon="14.616474032136479"><ele>996.0000000000001</ele><time>2026-03-22T09:03:41.999Z</time></trkpt><trkpt lat="41.316138144457916" lon="14.616404478918076"><ele>994.0</ele><time>2026-03-22T09:03:46.999Z</time></trkpt><trkpt lat="41.31606618607971" lon="14.616326042359383"><ele>992.0</ele><time>2026-03-22T09:03:49.999Z</time></trkpt><trkpt lat="41.31601626755487" lon="14.616272691633869"><ele>992.0000000000001</ele><time>2026-03-22T09:03:51.999Z</time></trkpt><trkpt lat="41.3159732456281" lon="14.616201531099037"><ele>992.0</ele><time>2026-03-22T09:03:53.999Z</time></trkpt><trkpt lat="41.31595368972204" lon="14.61608724596843"><ele>992.0</ele><time>2026-03-22T09:03:55.999Z</time></trkpt><trkpt lat="41.31593136792147" lon="14.61597988505273"><ele>992.0</ele><time>2026-03-22T09:03:57.999Z</time></trkpt><trkpt lat="41.31589827297257" lon="14.615867655343026"><ele>992.0000000000001</ele><time>2026-03-22T09:03:59.999Z</time></trkpt><trkpt lat="41.315860349321724" lon="14.615782241285817"><ele>992.0</ele><time>2026-03-22T09:04:01.999Z</time></trkpt><trkpt lat="41.315808081952525" lon="14.615690754438658"><ele>990.2</ele><time>2026-03-22T09:04:03.999Z</time></trkpt><trkpt lat="41.31573924254838" lon="14.615618492466824"><ele>988.4000000000001</ele><time>2026-03-22T09:04:05.998Z</time></trkpt><trkpt lat="41.31564148524636" lon="14.615578206989442"><ele>986.5999999999999</ele><time>2026-03-22T09:04:07.998Z</time></trkpt><trkpt lat="41.31555485322772" lon="14.615527097528995"><ele>984.8</ele><time>2026-03-22T09:04:09.998Z</time></trkpt><trkpt lat="41.31546480787955" lon="14.615482681495642"><ele>983.0</ele><time>2026-03-22T09:04:12Z</time></trkpt><trkpt lat="41.315380194209105" lon="14.61543434682724"><ele>983.0000000000001</ele><time>2026-03-22T09:04:14Z</time></trkpt><trkpt lat="41.3152831350317" lon="14.615367868867189"><ele>983.0</ele><time>2026-03-22T09:04:16Z</time></trkpt><trkpt lat="41.31521435280776" lon="14.615303004487616"><ele>983.0</ele><time>2026-03-22T09:04:18Z</time></trkpt><trkpt lat="41.31519225022093" lon="14.615216998863094"><ele>983.0</ele><time>2026-03-22T09:04:21Z</time></trkpt><trkpt lat="41.31527129128979" lon="14.615195497403768"><ele>983.0000000000001</ele><time>2026-03-22T09:04:23Z</time></trkpt><trkpt lat="41.31532363326398" lon="14.61524976108315"><ele>983.0</ele><time>2026-03-22T09:04:25Z</time></trkpt><trkpt lat="41.31528929812207" lon="14.615331693009633"><ele>983.0000000000001</ele><time>2026-03-22T09:04:27Z</time></trkpt><trkpt lat="41.31521852091191" lon="14.615323799610874"><ele>983.0</ele><time>2026-03-22T09:04:29Z</time></trkpt><trkpt lat="41.315149575696715" lon="14.61525153296125"><ele>983.0</ele><time>2026-03-22T09:04:31Z</time></trkpt><trkpt lat="41.31508936076972" lon="14.615159333863431"><ele>983.0</ele><time>2026-03-22T09:04:33Z</time></trkpt><trkpt lat="41.315036527511" lon="14.615068480467967"><ele>983.0000000000001</ele><time>2026-03-22T09:04:35Z</time></trkpt><trkpt lat="41.31503362920708" lon="14.614966455425883"><ele>983.0</ele><time>2026-03-22T09:04:37Z</time></trkpt><trkpt lat="41.31502528417903" lon="14.614781122534705"><ele>981.5000000000001</ele><time>2026-03-22T09:04:40Z</time></trkpt><trkpt lat="41.315042419729465" lon="14.614657417211111"><ele>980.0</ele><time>2026-03-22T09:04:42Z</time></trkpt><trkpt lat="41.31507963850253" lon="14.614568815384736"><ele>978.5</ele><time>2026-03-22T09:04:44Z</time></trkpt><trkpt lat="41.31510849237607" lon="14.614467184438155"><ele>977.0</ele><time>2026-03-22T09:04:46Z</time></trkpt><trkpt lat="41.315117358649424" lon="14.614349990917434"><ele>975.5000000000001</ele><time>2026-03-22T09:04:48Z</time></trkpt><trkpt lat="41.315130127515125" lon="14.614240358294005"><ele>974.0</ele><time>2026-03-22T09:04:50Z</time></trkpt><trkpt lat="41.31515086739055" lon="14.614128719405173"><ele>974.0</ele><time>2026-03-22T09:04:52Z</time></trkpt><trkpt lat="41.31516778972021" lon="14.614015077308743"><ele>974.0000000000001</ele><time>2026-03-22T09:04:54Z</time></trkpt><trkpt lat="41.31520657143729" lon="14.613902407926236"><ele>974.0000000000001</ele><time>2026-03-22T09:04:56Z</time></trkpt><trkpt lat="41.315294124361095" lon="14.613880869288217"><ele>974.0</ele><time>2026-03-22T09:04:58Z</time></trkpt><trkpt lat="41.31540900110284" lon="14.61385613524794"><ele>974.0</ele><time>2026-03-22T09:05:00Z</time></trkpt><trkpt lat="41.31548253392037" lon="14.613862247188049"><ele>974.2</ele><time>2026-03-22T09:05:01Z</time></trkpt><trkpt lat="41.31558225685984" lon="14.613847603198412"><ele>974.4000000000001</ele><time>2026-03-22T09:05:02.999Z</time></trkpt><trkpt lat="41.31566850406923" lon="14.613863807694415"><ele>974.6</ele><time>2026-03-22T09:05:04.999Z</time></trkpt><trkpt lat="41.3157657287378" lon="14.613886010082917"><ele>974.8</ele><time>2026-03-22T09:05:06.999Z</time></trkpt><trkpt lat="41.31586145499018" lon="14.61393541514286"><ele>975.0</ele><time>2026-03-22T09:05:08.999Z</time></trkpt><trkpt lat="41.315942014817715" lon="14.61403762946172"><ele>975.0</ele><time>2026-03-22T09:05:10.999Z</time></trkpt><trkpt lat="41.31601903318722" lon="14.614137784419492"><ele>975.0</ele><time>2026-03-22T09:05:12.999Z</time></trkpt><trkpt lat="41.31608777511346" lon="14.614219517551442"><ele>975.0</ele><time>2026-03-22T09:05:14.999Z</time></trkpt><trkpt lat="41.31608339323266" lon="14.614307270262149"><ele>975.0</ele><time>2026-03-22T09:05:16.999Z</time></trkpt><trkpt lat="41.316115067762404" lon="14.61438087605293"><ele>975.0</ele><time>2026-03-22T09:05:18.999Z</time></trkpt><trkpt lat="41.31617496452405" lon="14.61442306602573"><ele>975.0</ele><time>2026-03-22T09:05:19.999Z</time></trkpt><trkpt lat="41.31627974560926" lon="14.614451828291346"><ele>975.0</ele><time>2026-03-22T09:05:21.999Z</time></trkpt><trkpt lat="41.3163523031955" lon="14.614475207512665"><ele>975.0</ele><time>2026-03-22T09:05:23.999Z</time></trkpt><trkpt lat="41.31642920574215" lon="14.614519185876645"><ele>975.0</ele><time>2026-03-22T09:05:25.999Z</time></trkpt><trkpt lat="41.31649964628887" lon="14.61458808310774"><ele>975.0</ele><time>2026-03-22T09:05:27.999Z</time></trkpt><trkpt lat="41.31656845449736" lon="14.614638605448373"><ele>975.0</ele><time>2026-03-22T09:05:29.999Z</time></trkpt><trkpt lat="41.316639851310214" lon="14.614703852930894"><ele>975.0</ele><time>2026-03-22T09:05:32.999Z</time></trkpt><trkpt lat="41.31671045339434" lon="14.614710463619124"><ele>974.4</ele><time>2026-03-22T09:05:34.999Z</time></trkpt><trkpt lat="41.316800161469345" lon="14.61477014287461"><ele>973.8</ele><time>2026-03-22T09:05:36.999Z</time></trkpt><trkpt lat="41.31687491083853" lon="14.614872615051839"><ele>973.2</ele><time>2026-03-22T09:05:38.999Z</time></trkpt><trkpt lat="41.31695810966293" lon="14.614893995078777"><ele>972.6</ele><time>2026-03-22T09:05:40.999Z</time></trkpt><trkpt lat="41.31704416597503" lon="14.614911484866672"><ele>972.0</ele><time>2026-03-22T09:05:42.999Z</time></trkpt><trkpt lat="41.31713299594121" lon="14.61490266797729"><ele>972.0</ele><time>2026-03-22T09:05:44.999Z</time></trkpt><trkpt lat="41.31721766940738" lon="14.614865507750213"><ele>972.0</ele><time>2026-03-22T09:05:46.999Z</time></trkpt><trkpt lat="41.317290668271596" lon="14.614818266804429"><ele>972.0</ele><time>2026-03-22T09:05:48.999Z</time></trkpt><trkpt lat="41.317362420581745" lon="14.61480960529574"><ele>972.0</ele><time>2026-03-22T09:05:50.999Z</time></trkpt><trkpt lat="41.31743429907226" lon="14.614818622299717"><ele>972.0</ele><time>2026-03-22T09:05:52.999Z</time></trkpt><trkpt lat="41.31749807948533" lon="14.614782567882607"><ele>972.0</ele><time>2026-03-22T09:05:55.999Z</time></trkpt><trkpt lat="41.317554022828624" lon="14.614713318304984"><ele>972.4285714285713</ele><time>2026-03-22T09:05:59.999Z</time></trkpt><trkpt lat="41.317620586883145" lon="14.614674816078201"><ele>972.8571428571429</ele><time>2026-03-22T09:06:00.999Z</time></trkpt><trkpt lat="41.31764069409905" lon="14.614758040172964"><ele>973.2857142857142</ele><time>2026-03-22T09:06:02.999Z</time></trkpt><trkpt lat="41.31758902066476" lon="14.614820260539409"><ele>973.7142857142857</ele><time>2026-03-22T09:10:07.999Z</time></trkpt><trkpt lat="41.31751502993715" lon="14.614758817081334"><ele>974.1428571428571</ele><time>2026-03-22T09:10:10.999Z</time></trkpt><trkpt lat="41.31754824438902" lon="14.614668876911951"><ele>974.5714285714286</ele><time>2026-03-22T09:10:12.999Z</time></trkpt><trkpt lat="41.317605313723625" lon="14.614741655679127"><ele>975.0</ele><time>2026-03-22T09:10:22.999Z</time></trkpt><trkpt lat="41.31758269892167" lon="14.614833010395515"><ele>975.0</ele><time>2026-03-22T09:10:27.999Z</time></trkpt><trkpt lat="41.317522941983846" lon="14.614900085065884"><ele>975.0</ele><time>2026-03-22T09:10:31Z</time></trkpt><trkpt lat="41.317438650822865" lon="14.614902258783353"><ele>975.0</ele><time>2026-03-22T09:10:58Z</time></trkpt><trkpt lat="41.31736013267129" lon="14.61488805709352"><ele>975.0</ele><time>2026-03-22T09:11:13Z</time></trkpt><trkpt lat="41.317297329688714" lon="14.614927983021222"><ele>975.0</ele><time>2026-03-22T09:11:15Z</time></trkpt><trkpt lat="41.317226513883" lon="14.615007170468829"><ele>975.0</ele><time>2026-03-22T09:11:18Z</time></trkpt><trkpt lat="41.31716687534147" lon="14.61506390910758"><ele>974.7142857142857</ele><time>2026-03-22T09:11:20Z</time></trkpt><trkpt lat="41.31710886464238" lon="14.615131692791332"><ele>974.4285714285713</ele><time>2026-03-22T09:11:22Z</time></trkpt><trkpt lat="41.3170546177809" lon="14.615189430080466"><ele>974.1428571428571</ele><time>2026-03-22T09:11:24Z</time></trkpt><trkpt lat="41.316993209599694" lon="14.615254038776614"><ele>973.8571428571429</ele><time>2026-03-22T09:11:26Z</time></trkpt><trkpt lat="41.31692384591165" lon="14.615297301070461"><ele>973.5714285714286</ele><time>2026-03-22T09:11:28Z</time></trkpt><trkpt lat="41.316856426482516" lon="14.615288954041647"><ele>973.2857142857142</ele><time>2026-03-22T09:11:30Z</time></trkpt><trkpt lat="41.31678042688175" lon="14.61528715993447"><ele>973.0</ele><time>2026-03-22T09:11:33Z</time></trkpt><trkpt lat="41.3167318164641" lon="14.615359942110997"><ele>973.0</ele><time>2026-03-22T09:11:35.999Z</time></trkpt><trkpt lat="41.316703463196504" lon="14.615485837837834"><ele>973.0</ele><time>2026-03-22T09:11:38.999Z</time></trkpt><trkpt lat="41.316684558389575" lon="14.615603392906413"><ele>973.0</ele><time>2026-03-22T09:11:40.999Z</time></trkpt><trkpt lat="41.316602721140114" lon="14.615598784577895"><ele>973.0</ele><time>2026-03-22T09:11:43.999Z</time></trkpt><trkpt lat="41.31652442403537" lon="14.615621907531736"><ele>973.0</ele><time>2026-03-22T09:11:47.999Z</time></trkpt><trkpt lat="41.31640679655588" lon="14.615642041288005"><ele>973.4999999999999</ele><time>2026-03-22T09:11:49.999Z</time></trkpt><trkpt lat="41.3162930676544" lon="14.6156482985914"><ele>974.0</ele><time>2026-03-22T09:11:51.999Z</time></trkpt><trkpt lat="41.31622591542113" lon="14.615642520288745"><ele>974.5</ele><time>2026-03-22T09:11:52.999Z</time></trkpt><trkpt lat="41.31615472818746" lon="14.61563088913187"><ele>975.0</ele><time>2026-03-22T09:11:53.999Z</time></trkpt><trkpt lat="41.31608585692009" lon="14.615603165248626"><ele>975.4999999999999</ele><time>2026-03-22T09:11:54.999Z</time></trkpt><trkpt lat="41.315992509136926" lon="14.615566260415429"><ele>976.0</ele><time>2026-03-22T09:11:55.999Z</time></trkpt><trkpt lat="41.31590846869879" lon="14.615547618249428"><ele>975.9999999999999</ele><time>2026-03-22T09:11:56.999Z</time></trkpt><trkpt lat="41.3158306104603" lon="14.615526782130527"><ele>976.0</ele><time>2026-03-22T09:11:57.999Z</time></trkpt><trkpt lat="41.31575211215787" lon="14.615500005354171"><ele>976.0</ele><time>2026-03-22T09:11:58.999Z</time></trkpt><trkpt lat="41.31567301975253" lon="14.61547060081097"><ele>976.0</ele><time>2026-03-22T09:11:59.999Z</time></trkpt><trkpt lat="41.3155997354945" lon="14.615421258180342"><ele>975.9999999999999</ele><time>2026-03-22T09:12:00.999Z</time></trkpt><trkpt lat="41.31553530333732" lon="14.615373211579898"><ele>976.0</ele><time>2026-03-22T09:12:01.999Z</time></trkpt><trkpt lat="41.31542702397533" lon="14.615299636586746"><ele>975.4999999999999</ele><time>2026-03-22T09:12:03.999Z</time></trkpt><trkpt lat="41.315330826256606" lon="14.615253515751247"><ele>975.0</ele><time>2026-03-22T09:12:05.999Z</time></trkpt><trkpt lat="41.31521778769148" lon="14.61521265685228"><ele>974.5</ele><time>2026-03-22T09:12:07.999Z</time></trkpt><trkpt lat="41.31515300367084" lon="14.615206934579268"><ele>974.0</ele><time>2026-03-22T09:12:08.999Z</time></trkpt><trkpt lat="41.31507763427849" lon="14.615175623335611"><ele>973.4999999999999</ele><time>2026-03-22T09:12:10.999Z</time></trkpt><trkpt lat="41.315042379292635" lon="14.615085961363796"><ele>973.0</ele><time>2026-03-22T09:12:11.999Z</time></trkpt><trkpt lat="41.315031405347284" lon="14.615002085550016"><ele>972.9999999999999</ele><time>2026-03-22T09:12:12.999Z</time></trkpt><trkpt lat="41.31503579973136" lon="14.614917960972143"><ele>973.0</ele><time>2026-03-22T09:12:13.999Z</time></trkpt><trkpt lat="41.315047592628446" lon="14.614818309297492"><ele>973.0</ele><time>2026-03-22T09:12:14.999Z</time></trkpt><trkpt lat="41.31507435109027" lon="14.614680749976259"><ele>973.0</ele><time>2026-03-22T09:12:16.999Z</time></trkpt><trkpt lat="41.31511477313916" lon="14.61457021594524"><ele>972.9999999999999</ele><time>2026-03-22T09:12:18.999Z</time></trkpt><trkpt lat="41.31513871699991" lon="14.614432270799181"><ele>973.0</ele><time>2026-03-22T09:12:20.999Z</time></trkpt><trkpt lat="41.31515398167374" lon="14.614287579398995"><ele>973.25</ele><time>2026-03-22T09:12:22.999Z</time></trkpt><trkpt lat="41.31518170329685" lon="14.614145833945674"><ele>973.5</ele><time>2026-03-22T09:12:24.999Z</time></trkpt><trkpt lat="41.315207125323035" lon="14.614004872406586"><ele>973.75</ele><time>2026-03-22T09:12:26.999Z</time></trkpt><trkpt lat="41.31523328004043" lon="14.61386328775325"><ele>974.0</ele><time>2026-03-22T09:12:28.999Z</time></trkpt><trkpt lat="41.315214714076376" lon="14.613696474878047"><ele>973.1666666666667</ele><time>2026-03-22T09:12:30.999Z</time></trkpt><trkpt lat="41.315207962335045" lon="14.613598382532526"><ele>972.3333333333334</ele><time>2026-03-22T09:12:31.999Z</time></trkpt><trkpt lat="41.315210758397846" lon="14.613501708800143"><ele>971.5</ele><time>2026-03-22T09:12:32.999Z</time></trkpt><trkpt lat="41.31521481027148" lon="14.613397031328057"><ele>970.6666666666667</ele><time>2026-03-22T09:12:33.999Z</time></trkpt><trkpt lat="41.315214544955516" lon="14.613290604275155"><ele>969.8333333333334</ele><time>2026-03-22T09:12:35Z</time></trkpt><trkpt lat="41.31522988475637" lon="14.61318256837614"><ele>969.0</ele><time>2026-03-22T09:12:36Z</time></trkpt><trkpt lat="41.31524130711811" lon="14.613073698435471"><ele>969.0</ele><time>2026-03-22T09:12:37Z</time></trkpt><trkpt lat="41.31525011695623" lon="14.61296001734352"><ele>969.0</ele><time>2026-03-22T09:12:38Z</time></trkpt><trkpt lat="41.31525761577165" lon="14.612842543010268"><ele>969.0</ele><time>2026-03-22T09:12:39Z</time></trkpt><trkpt lat="41.315266402069994" lon="14.612731283725608"><ele>969.0</ele><time>2026-03-22T09:12:40Z</time></trkpt><trkpt lat="41.31527698029559" lon="14.612632025653731"><ele>969.0</ele><time>2026-03-22T09:12:41Z</time></trkpt><trkpt lat="41.315284789059305" lon="14.612540953702043"><ele>969.0</ele><time>2026-03-22T09:12:42Z</time></trkpt><trkpt lat="41.31532329750884" lon="14.612370880224743"><ele>969.5714285714284</ele><time>2026-03-22T09:12:44Z</time></trkpt><trkpt lat="41.31534489952564" lon="14.612279085852848"><ele>970.1428571428571</ele><time>2026-03-22T09:12:45Z</time></trkpt><trkpt lat="41.31536502382586" lon="14.612186919338463"><ele>970.7142857142857</ele><time>2026-03-22T09:12:46Z</time></trkpt><trkpt lat="41.31539135517869" lon="14.612100274573121"><ele>971.2857142857142</ele><time>2026-03-22T09:12:47Z</time></trkpt><trkpt lat="41.31542172932126" lon="14.612014896624464"><ele>971.8571428571429</ele><time>2026-03-22T09:12:48Z</time></trkpt><trkpt lat="41.315450071445255" lon="14.61192813387066"><ele>972.4285714285714</ele><time>2026-03-22T09:12:49Z</time></trkpt><trkpt lat="41.31548396358593" lon="14.611845139993266"><ele>973.0</ele><time>2026-03-22T09:12:50Z</time></trkpt><trkpt lat="41.31551871904427" lon="14.611766584028755"><ele>973.6666666666666</ele><time>2026-03-22T09:12:51Z</time></trkpt><trkpt lat="41.31555260153276" lon="14.611691234301189"><ele>974.3333333333333</ele><time>2026-03-22T09:12:52Z</time></trkpt><trkpt lat="41.31561882433518" lon="14.611563005302314"><ele>975.0</ele><time>2026-03-22T09:12:54Z</time></trkpt><trkpt lat="41.315656018085285" lon="14.611476835358468"><ele>975.6666666666667</ele><time>2026-03-22T09:12:55Z</time></trkpt><trkpt lat="41.31569772339051" lon="14.611405321847682"><ele>976.3333333333334</ele><time>2026-03-22T09:12:56Z</time></trkpt><trkpt lat="41.3157368812609" lon="14.611329502354456"><ele>977.0</ele><time>2026-03-22T09:12:57Z</time></trkpt><trkpt lat="41.315780136601354" lon="14.611261281407202"><ele>977.857142857143</ele><time>2026-03-22T09:12:58Z</time></trkpt><trkpt lat="41.31582395645973" lon="14.611196719736794"><ele>978.7142857142858</ele><time>2026-03-22T09:12:59Z</time></trkpt><trkpt lat="41.31586965902712" lon="14.611127805007497"><ele>979.5714285714286</ele><time>2026-03-22T09:13:00Z</time></trkpt><trkpt lat="41.31590981016692" lon="14.611057359871404"><ele>980.4285714285714</ele><time>2026-03-22T09:13:01Z</time></trkpt><trkpt lat="41.315952005201666" lon="14.610986989086058"><ele>981.2857142857142</ele><time>2026-03-22T09:13:02Z</time></trkpt><trkpt lat="41.315986465366436" lon="14.61091564058396"><ele>982.142857142857</ele><time>2026-03-22T09:13:03Z</time></trkpt><trkpt lat="41.31602784658311" lon="14.61084644867277"><ele>982.9999999999999</ele><time>2026-03-22T09:13:04Z</time></trkpt><trkpt lat="41.31606757538075" lon="14.610773849691984"><ele>983.142857142857</ele><time>2026-03-22T09:13:05Z</time></trkpt><trkpt lat="41.31611515534592" lon="14.610707943155287"><ele>983.2857142857142</ele><time>2026-03-22T09:13:06Z</time></trkpt><trkpt lat="41.31616306860422" lon="14.610642435707817"><ele>983.4285714285714</ele><time>2026-03-22T09:13:07Z</time></trkpt><trkpt lat="41.316215048892914" lon="14.610576617855326"><ele>983.5714285714286</ele><time>2026-03-22T09:13:08Z</time></trkpt><trkpt lat="41.31626401084283" lon="14.610504457965902"><ele>983.7142857142858</ele><time>2026-03-22T09:13:09Z</time></trkpt><trkpt lat="41.31631951527638" lon="14.610440073616347"><ele>983.857142857143</ele><time>2026-03-22T09:13:10Z</time></trkpt><trkpt lat="41.316380007846426" lon="14.610380349803043"><ele>984.0000000000001</ele><time>2026-03-22T09:13:11Z</time></trkpt><trkpt lat="41.31643851198121" lon="14.610328467261363"><ele>983.1666666666666</ele><time>2026-03-22T09:13:12Z</time></trkpt><trkpt lat="41.316500860989656" lon="14.610271287669766"><ele>982.3333333333333</ele><time>2026-03-22T09:13:13Z</time></trkpt><trkpt lat="41.316554048937846" lon="14.610202208350339"><ele>981.5</ele><time>2026-03-22T09:13:14Z</time></trkpt><trkpt lat="41.31658918685494" lon="14.61010308380452"><ele>980.6666666666666</ele><time>2026-03-22T09:13:15Z</time></trkpt><trkpt lat="41.31661298930734" lon="14.609983200105345"><ele>979.8333333333333</ele><time>2026-03-22T09:13:16Z</time></trkpt><trkpt lat="41.316636236767394" lon="14.609879632561775"><ele>979.0</ele><time>2026-03-22T09:13:17Z</time></trkpt><trkpt lat="41.31664798771025" lon="14.609768568831253"><ele>978.9999999999999</ele><time>2026-03-22T09:13:18Z</time></trkpt><trkpt lat="41.31665488615307" lon="14.609655515280279"><ele>979.0</ele><time>2026-03-22T09:13:19Z</time></trkpt><trkpt lat="41.31666968675024" lon="14.609547982636546"><ele>979.0</ele><time>2026-03-22T09:13:20Z</time></trkpt><trkpt lat="41.31668527227541" lon="14.609450787821912"><ele>979.0</ele><time>2026-03-22T09:13:21Z</time></trkpt><trkpt lat="41.31670151291053" lon="14.60935428274981"><ele>978.9999999999999</ele><time>2026-03-22T09:13:22Z</time></trkpt><trkpt lat="41.31671258516573" lon="14.60925429968619"><ele>979.0</ele><time>2026-03-22T09:13:23Z</time></trkpt><trkpt lat="41.31673655176712" lon="14.609164466355459"><ele>978.4285714285713</ele><time>2026-03-22T09:13:24Z</time></trkpt><trkpt lat="41.31676662454003" lon="14.609079929090587"><ele>977.8571428571429</ele><time>2026-03-22T09:13:25Z</time></trkpt><trkpt lat="41.31679736195705" lon="14.609002805083215"><ele>977.2857142857142</ele><time>2026-03-22T09:13:26Z</time></trkpt><trkpt lat="41.316827277024224" lon="14.608922147092999"><ele>976.7142857142857</ele><time>2026-03-22T09:13:27Z</time></trkpt><trkpt lat="41.316867023113296" lon="14.608843364457286"><ele>976.1428571428571</ele><time>2026-03-22T09:13:28Z</time></trkpt><trkpt lat="41.31690691466533" lon="14.608758837909779"><ele>975.5714285714286</ele><time>2026-03-22T09:13:29Z</time></trkpt><trkpt lat="41.31695023561078" lon="14.608676961059349"><ele>975.0</ele><time>2026-03-22T09:13:30Z</time></trkpt><trkpt lat="41.3170051699076" lon="14.608613584829499"><ele>975.0</ele><time>2026-03-22T09:13:31Z</time></trkpt><trkpt lat="41.31707213570827" lon="14.608545553563165"><ele>975.0</ele><time>2026-03-22T09:13:32Z</time></trkpt><trkpt lat="41.3171393947541" lon="14.608486809650989"><ele>975.0</ele><time>2026-03-22T09:13:33Z</time></trkpt><trkpt lat="41.31720836580448" lon="14.608437875066478"><ele>975.0</ele><time>2026-03-22T09:13:34Z</time></trkpt><trkpt lat="41.3172729057434" lon="14.608372721860283"><ele>975.0</ele><time>2026-03-22T09:13:35Z</time></trkpt><trkpt lat="41.317331893429014" lon="14.608298549550943"><ele>975.0</ele><time>2026-03-22T09:13:36Z</time></trkpt><trkpt lat="41.31738274314239" lon="14.608208824204441"><ele>974.1666666666666</ele><time>2026-03-22T09:13:37Z</time></trkpt><trkpt lat="41.31742181049454" lon="14.608106693932898"><ele>973.3333333333333</ele><time>2026-03-22T09:13:38Z</time></trkpt><trkpt lat="41.31745427584072" lon="14.60799800425926"><ele>972.5</ele><time>2026-03-22T09:13:38.999Z</time></trkpt><trkpt lat="41.31746941987593" lon="14.607884557134115"><ele>971.6666666666666</ele><time>2026-03-22T09:13:39.999Z</time></trkpt><trkpt lat="41.31747291252978" lon="14.60776962646815"><ele>970.8333333333333</ele><time>2026-03-22T09:13:40.999Z</time></trkpt><trkpt lat="41.31747442586275" lon="14.607654491576602"><ele>970.0</ele><time>2026-03-22T09:13:41.999Z</time></trkpt><trkpt lat="41.31747763561627" lon="14.607537595761361"><ele>969.6666666666666</ele><time>2026-03-22T09:13:42.999Z</time></trkpt><trkpt lat="41.31748449126689" lon="14.607419149804961"><ele>969.3333333333333</ele><time>2026-03-22T09:13:43.999Z</time></trkpt><trkpt lat="41.317498821107726" lon="14.607309865865432"><ele>969.0</ele><time>2026-03-22T09:13:44.999Z</time></trkpt><trkpt lat="41.31751625471824" lon="14.607202128034077"><ele>968.6666666666667</ele><time>2026-03-22T09:13:45.999Z</time></trkpt><trkpt lat="41.31753253302203" lon="14.60709762362414"><ele>968.3333333333334</ele><time>2026-03-22T09:13:46.999Z</time></trkpt><trkpt lat="41.317545367310174" lon="14.606997059402314"><ele>968.0</ele><time>2026-03-22T09:13:47.999Z</time></trkpt><trkpt lat="41.317553772039396" lon="14.606890140096205"><ele>968.0000000000001</ele><time>2026-03-22T09:13:48.999Z</time></trkpt><trkpt lat="41.31755589762757" lon="14.606780116788757"><ele>968.0</ele><time>2026-03-22T09:13:49.999Z</time></trkpt><trkpt lat="41.31755667869668" lon="14.606668348772883"><ele>968.0</ele><time>2026-03-22T09:13:50.999Z</time></trkpt><trkpt lat="41.317573579305126" lon="14.606559895705345"><ele>968.0</ele><time>2026-03-22T09:13:51.999Z</time></trkpt><trkpt lat="41.31759525154175" lon="14.606450619610216"><ele>968.0000000000001</ele><time>2026-03-22T09:13:52.999Z</time></trkpt><trkpt lat="41.317605729249614" lon="14.606330782846038"><ele>968.0</ele><time>2026-03-22T09:13:53.999Z</time></trkpt><trkpt lat="41.31761043927547" lon="14.606219949269304"><ele>968.1666666666667</ele><time>2026-03-22T09:13:54.999Z</time></trkpt><trkpt lat="41.31761025348723" lon="14.60611015682717"><ele>968.3333333333334</ele><time>2026-03-22T09:13:55.999Z</time></trkpt><trkpt lat="41.31761865079495" lon="14.60600418440123"><ele>968.5</ele><time>2026-03-22T09:13:56.999Z</time></trkpt><trkpt lat="41.317619953792686" lon="14.605897988229497"><ele>968.6666666666667</ele><time>2026-03-22T09:13:57.999Z</time></trkpt><trkpt lat="41.317618741127404" lon="14.605798211140566"><ele>968.8333333333334</ele><time>2026-03-22T09:13:58.999Z</time></trkpt><trkpt lat="41.31761995425222" lon="14.605642960869512"><ele>969.0</ele><time>2026-03-22T09:14:00.999Z</time></trkpt><trkpt lat="41.31768304823305" lon="14.605513669971094"><ele>969.0</ele><time>2026-03-22T09:14:02.999Z</time></trkpt><trkpt lat="41.31773966026771" lon="14.605376772708329"><ele>969.0000000000001</ele><time>2026-03-22T09:14:04.999Z</time></trkpt><trkpt lat="41.31775130719357" lon="14.605237149318885"><ele>969.0000000000001</ele><time>2026-03-22T09:14:06.999Z</time></trkpt><trkpt lat="41.31773842052188" lon="14.605104684694382"><ele>969.0</ele><time>2026-03-22T09:14:08.999Z</time></trkpt><trkpt lat="41.31771755302167" lon="14.604969252249647"><ele>969.0</ele><time>2026-03-22T09:14:10.999Z</time></trkpt><trkpt lat="41.317713516980696" lon="14.604817159275562"><ele>968.5</ele><time>2026-03-22T09:14:12.999Z</time></trkpt><trkpt lat="41.31768455687752" lon="14.604653530146445"><ele>968.0</ele><time>2026-03-22T09:14:14.999Z</time></trkpt><trkpt lat="41.317625692316675" lon="14.604508970331233"><ele>967.5</ele><time>2026-03-22T09:14:16.999Z</time></trkpt><trkpt lat="41.31759733703713" lon="14.604365606819892"><ele>967.0</ele><time>2026-03-22T09:14:18.999Z</time></trkpt><trkpt lat="41.3176259793717" lon="14.604207572997973"><ele>965.9999999999999</ele><time>2026-03-22T09:14:20.999Z</time></trkpt><trkpt lat="41.31765963801697" lon="14.60412768401043"><ele>965.0</ele><time>2026-03-22T09:14:21.999Z</time></trkpt><trkpt lat="41.31769702050217" lon="14.604044117408192"><ele>964.0</ele><time>2026-03-22T09:14:22.999Z</time></trkpt><trkpt lat="41.31770158796639" lon="14.603943283518062"><ele>963.0</ele><time>2026-03-22T09:14:23.999Z</time></trkpt><trkpt lat="41.31767943291543" lon="14.603849537525571"><ele>961.9999999999999</ele><time>2026-03-22T09:14:24.999Z</time></trkpt><trkpt lat="41.317641446824176" lon="14.60377349867429"><ele>961.0</ele><time>2026-03-22T09:14:25.999Z</time></trkpt><trkpt lat="41.31752676783483" lon="14.603686621021927"><ele>962.5999999999999</ele><time>2026-03-22T09:14:27.999Z</time></trkpt><trkpt lat="41.317468536388255" lon="14.603650921017039"><ele>964.1999999999999</ele><time>2026-03-22T09:14:28.999Z</time></trkpt><trkpt lat="41.31738752612811" lon="14.603551384009819"><ele>965.8000000000001</ele><time>2026-03-22T09:14:30.999Z</time></trkpt><trkpt lat="41.31737031424498" lon="14.603404545786542"><ele>967.4000000000001</ele><time>2026-03-22T09:14:32.999Z</time></trkpt><trkpt lat="41.317381069059884" lon="14.603266011886197"><ele>969.0</ele><time>2026-03-22T09:14:34.999Z</time></trkpt><trkpt lat="41.31736995633617" lon="14.603171303182458"><ele>969.0</ele><time>2026-03-22T09:14:35.999Z</time></trkpt><trkpt lat="41.317333862950335" lon="14.603039113702348"><ele>969.0</ele><time>2026-03-22T09:14:36.999Z</time></trkpt><trkpt lat="41.31729743775097" lon="14.602880066700335"><ele>969.0</ele><time>2026-03-22T09:14:37.999Z</time></trkpt><trkpt lat="41.31726479513394" lon="14.602707173639386"><ele>969.0</ele><time>2026-03-22T09:14:38.999Z</time></trkpt><trkpt lat="41.317230418002225" lon="14.602554272620452"><ele>965.5</ele><time>2026-03-22T09:14:40Z</time></trkpt><trkpt lat="41.3171983419428" lon="14.602414370520396"><ele>962.0</ele><time>2026-03-22T09:14:41Z</time></trkpt><trkpt lat="41.31716208852469" lon="14.602260925524314"><ele>958.5</ele><time>2026-03-22T09:14:42Z</time></trkpt><trkpt lat="41.31712499514821" lon="14.602101799141359"><ele>955.0</ele><time>2026-03-22T09:14:43Z</time></trkpt><trkpt lat="41.317088669366484" lon="14.601927213022517"><ele>955.0</ele><time>2026-03-22T09:14:44Z</time></trkpt><trkpt lat="41.31705336754961" lon="14.601749758225731"><ele>955.0</ele><time>2026-03-22T09:14:45Z</time></trkpt><trkpt lat="41.31701209113724" lon="14.601598594535076"><ele>955.0</ele><time>2026-03-22T09:14:46Z</time></trkpt><trkpt lat="41.3169608400332" lon="14.601466442420707"><ele>955.0</ele><time>2026-03-22T09:14:47Z</time></trkpt><trkpt lat="41.31689749193224" lon="14.601351960031655"><ele>955.0</ele><time>2026-03-22T09:14:48Z</time></trkpt><trkpt lat="41.3168354967344" lon="14.601260661936651"><ele>955.0</ele><time>2026-03-22T09:14:49Z</time></trkpt><trkpt lat="41.3167732817148" lon="14.601188192285809"><ele>955.0</ele><time>2026-03-22T09:14:50Z</time></trkpt><trkpt lat="41.316720521983" lon="14.601129375504005"><ele>955.0</ele><time>2026-03-22T09:14:51Z</time></trkpt><trkpt lat="41.31673117586455" lon="14.600937754340338"><ele>955.0</ele><time>2026-03-22T09:14:53Z</time></trkpt><trkpt lat="41.31676924557992" lon="14.600857160704102"><ele>955.8</ele><time>2026-03-22T09:14:54Z</time></trkpt><trkpt lat="41.31685280879554" lon="14.600765871810529"><ele>956.6</ele><time>2026-03-22T09:14:56Z</time></trkpt><trkpt lat="41.31691926371015" lon="14.600686915309893"><ele>957.4000000000001</ele><time>2026-03-22T09:14:58Z</time></trkpt><trkpt lat="41.31700796595704" lon="14.600645052164532"><ele>958.2</ele><time>2026-03-22T09:15:00Z</time></trkpt><trkpt lat="41.31710691464006" lon="14.600576939872466"><ele>959.0</ele><time>2026-03-22T09:15:02Z</time></trkpt><trkpt lat="41.31716926850847" lon="14.600533790294628"><ele>959.0000000000001</ele><time>2026-03-22T09:15:03Z</time></trkpt><trkpt lat="41.317223929906554" lon="14.600489243886804"><ele>959.0</ele><time>2026-03-22T09:15:04Z</time></trkpt><trkpt lat="41.31733488484511" lon="14.600409318080754"><ele>959.0</ele><time>2026-03-22T09:15:06Z</time></trkpt><trkpt lat="41.317393274547534" lon="14.600377168288492"><ele>959.0</ele><time>2026-03-22T09:15:07Z</time></trkpt><trkpt lat="41.317509361198816" lon="14.600375109529432"><ele>959.0000000000001</ele><time>2026-03-22T09:15:09Z</time></trkpt><trkpt lat="41.317583811710705" lon="14.600361234098262"><ele>959.0</ele><time>2026-03-22T09:15:11Z</time></trkpt><trkpt lat="41.31767864422007" lon="14.600348286060163"><ele>958.0</ele><time>2026-03-22T09:15:13Z</time></trkpt><trkpt lat="41.317770155599206" lon="14.600322299646203"><ele>957.0000000000001</ele><time>2026-03-22T09:15:15Z</time></trkpt><trkpt lat="41.31785563306341" lon="14.60022002730873"><ele>956.0000000000001</ele><time>2026-03-22T09:15:17Z</time></trkpt><trkpt lat="41.31793980686778" lon="14.600082927853773"><ele>955.0</ele><time>2026-03-22T09:15:19Z</time></trkpt><trkpt lat="41.317980342545056" lon="14.600013870517119"><ele>954.0</ele><time>2026-03-22T09:15:20Z</time></trkpt><trkpt lat="41.318062985040484" lon="14.599928363230388"><ele>957.0</ele><time>2026-03-22T09:15:22Z</time></trkpt><trkpt lat="41.318133051379874" lon="14.59984388091557"><ele>960.0000000000001</ele><time>2026-03-22T09:15:24Z</time></trkpt><trkpt lat="41.31819609800161" lon="14.599770160331744"><ele>963.0000000000001</ele><time>2026-03-22T09:15:26Z</time></trkpt><trkpt lat="41.31827327884165" lon="14.599679892721063"><ele>966.0</ele><time>2026-03-22T09:15:28Z</time></trkpt><trkpt lat="41.318348932471636" lon="14.599607647696338"><ele>969.0</ele><time>2026-03-22T09:15:30Z</time></trkpt><trkpt lat="41.31840882603447" lon="14.599509405271656"><ele>964.4000000000001</ele><time>2026-03-22T09:15:32Z</time></trkpt><trkpt lat="41.31847951835073" lon="14.599425146832274"><ele>959.8000000000001</ele><time>2026-03-22T09:15:34Z</time></trkpt><trkpt lat="41.318526989752485" lon="14.599301160388794"><ele>955.1999999999999</ele><time>2026-03-22T09:15:36Z</time></trkpt><trkpt lat="41.31858701381562" lon="14.599188387686338"><ele>950.5999999999999</ele><time>2026-03-22T09:15:38Z</time></trkpt><trkpt lat="41.31866508234589" lon="14.59906265285029"><ele>946.0</ele><time>2026-03-22T09:15:40Z</time></trkpt><trkpt lat="41.318775514666854" lon="14.598966571923262"><ele>946.0</ele><time>2026-03-22T09:15:42Z</time></trkpt><trkpt lat="41.318841711552864" lon="14.598930639595077"><ele>946.0</ele><time>2026-03-22T09:15:43Z</time></trkpt><trkpt lat="41.31891141888807" lon="14.598904458088342"><ele>946.0</ele><time>2026-03-22T09:15:44Z</time></trkpt><trkpt lat="41.31898634754778" lon="14.598868383553086"><ele>946.0</ele><time>2026-03-22T09:15:45Z</time></trkpt><trkpt lat="41.31905360123062" lon="14.598824532604143"><ele>946.0</ele><time>2026-03-22T09:15:46Z</time></trkpt><trkpt lat="41.31910237848403" lon="14.59875955991406"><ele>946.0</ele><time>2026-03-22T09:15:48Z</time></trkpt><trkpt lat="41.31914341929" lon="14.598682274884553"><ele>946.0</ele><time>2026-03-22T09:15:51.999Z</time></trkpt><trkpt lat="41.319196497500506" lon="14.598590137065145"><ele>944.9999999999999</ele><time>2026-03-22T09:15:54.999Z</time></trkpt><trkpt lat="41.31921233599644" lon="14.598504144649839"><ele>944.0</ele><time>2026-03-22T09:15:56.999Z</time></trkpt><trkpt lat="41.31923458491184" lon="14.59842105393164"><ele>943.0</ele><time>2026-03-22T09:15:59.999Z</time></trkpt><trkpt lat="41.319280112985034" lon="14.598315197380117"><ele>942.0</ele><time>2026-03-22T09:16:02.999Z</time></trkpt><trkpt lat="41.31932369092938" lon="14.598231531423918"><ele>940.9999999999999</ele><time>2026-03-22T09:16:04.999Z</time></trkpt><trkpt lat="41.31938675048012" lon="14.598140014496419"><ele>940.0</ele><time>2026-03-22T09:16:06.999Z</time></trkpt><trkpt lat="41.31945456775502" lon="14.598048286242646"><ele>939.9999999999999</ele><time>2026-03-22T09:16:08.999Z</time></trkpt><trkpt lat="41.319510816425876" lon="14.597973808839399"><ele>940.0</ele><time>2026-03-22T09:16:10.999Z</time></trkpt><trkpt lat="41.319559319150066" lon="14.59791684647953"><ele>940.0</ele><time>2026-03-22T09:16:13.999Z</time></trkpt><trkpt lat="41.31961975573361" lon="14.597852145309101"><ele>940.0</ele><time>2026-03-22T09:16:17.999Z</time></trkpt><trkpt lat="41.319687184634354" lon="14.597758704032666"><ele>939.9999999999999</ele><time>2026-03-22T09:16:19.999Z</time></trkpt><trkpt lat="41.319734847232155" lon="14.597666935675095"><ele>940.0</ele><time>2026-03-22T09:16:21.999Z</time></trkpt><trkpt lat="41.319779351172045" lon="14.597604489608674"><ele>938.4999999999999</ele><time>2026-03-22T09:16:23.999Z</time></trkpt><trkpt lat="41.3198357022479" lon="14.597545080541511"><ele>937.0</ele><time>2026-03-22T09:16:25.999Z</time></trkpt><trkpt lat="41.31990404689144" lon="14.597497625436107"><ele>935.5</ele><time>2026-03-22T09:16:27.999Z</time></trkpt><trkpt lat="41.31999772430588" lon="14.597449565545881"><ele>934.0</ele><time>2026-03-22T09:16:29.999Z</time></trkpt><trkpt lat="41.32009855761562" lon="14.597385151555427"><ele>932.4999999999999</ele><time>2026-03-22T09:16:31.999Z</time></trkpt><trkpt lat="41.32016942987258" lon="14.59732917169532"><ele>931.0</ele><time>2026-03-22T09:16:33.999Z</time></trkpt><trkpt lat="41.32020920346506" lon="14.597240175499586"><ele>931.0</ele><time>2026-03-22T09:16:35.999Z</time></trkpt><trkpt lat="41.320234207141596" lon="14.597132243431332"><ele>930.9999999999999</ele><time>2026-03-22T09:16:37.999Z</time></trkpt><trkpt lat="41.32021171747082" lon="14.597004557164365"><ele>930.9999999999999</ele><time>2026-03-22T09:16:39.999Z</time></trkpt><trkpt lat="41.32020226902768" lon="14.596853239778135"><ele>931.0</ele><time>2026-03-22T09:16:41.999Z</time></trkpt><trkpt lat="41.32017887458387" lon="14.596774838558217"><ele>931.0</ele><time>2026-03-22T09:16:42.999Z</time></trkpt><trkpt lat="41.32009950913793" lon="14.59664414629158"><ele>928.0</ele><time>2026-03-22T09:16:44.999Z</time></trkpt><trkpt lat="41.32003920495674" lon="14.596509976263272"><ele>924.9999999999999</ele><time>2026-03-22T09:16:47Z</time></trkpt><trkpt lat="41.320015140348254" lon="14.596428056885571"><ele>921.9999999999999</ele><time>2026-03-22T09:16:48Z</time></trkpt><trkpt lat="41.320016812276926" lon="14.59629220061208"><ele>919.0</ele><time>2026-03-22T09:16:50Z</time></trkpt><trkpt lat="41.32001719004889" lon="14.596165019835214"><ele>916.0</ele><time>2026-03-22T09:16:52Z</time></trkpt><trkpt lat="41.320020251982754" lon="14.596022004870338"><ele>915.4999999999999</ele><time>2026-03-22T09:16:54Z</time></trkpt><trkpt lat="41.32004037912028" lon="14.595910486782087"><ele>915.0</ele><time>2026-03-22T09:16:56Z</time></trkpt><trkpt lat="41.320079909574524" lon="14.595821728252373"><ele>914.5</ele><time>2026-03-22T09:16:58Z</time></trkpt><trkpt lat="41.32013229327182" lon="14.595733963022166"><ele>914.0</ele><time>2026-03-22T09:17:00Z</time></trkpt><trkpt lat="41.320173483099474" lon="14.595620374003147"><ele>913.4999999999999</ele><time>2026-03-22T09:17:02Z</time></trkpt><trkpt lat="41.320222918734444" lon="14.595523418321227"><ele>913.0</ele><time>2026-03-22T09:17:04Z</time></trkpt><trkpt lat="41.3202655579331" lon="14.595440472985791"><ele>912.9999999999999</ele><time>2026-03-22T09:17:06Z</time></trkpt><trkpt lat="41.320289375226544" lon="14.595357899191844"><ele>913.0</ele><time>2026-03-22T09:17:08Z</time></trkpt><trkpt lat="41.32033645972595" lon="14.595283346582205"><ele>912.9999999999999</ele><time>2026-03-22T09:17:10Z</time></trkpt><trkpt lat="41.32041147913794" lon="14.595232909355348"><ele>912.9999999999999</ele><time>2026-03-22T09:17:12Z</time></trkpt><trkpt lat="41.32047814182366" lon="14.595212809355308"><ele>913.0</ele><time>2026-03-22T09:17:13Z</time></trkpt><trkpt lat="41.320550862630455" lon="14.595254754415578"><ele>912.9999999999999</ele><time>2026-03-22T09:17:14Z</time></trkpt><trkpt lat="41.32060433172566" lon="14.595322038441191"><ele>912.9999999999999</ele><time>2026-03-22T09:17:15Z</time></trkpt><trkpt lat="41.32063280660764" lon="14.595433169880556"><ele>915.4999999999999</ele><time>2026-03-22T09:17:16Z</time></trkpt><trkpt lat="41.320653372388804" lon="14.59553460079092"><ele>918.0</ele><time>2026-03-22T09:17:17Z</time></trkpt><trkpt lat="41.32066598399231" lon="14.595642748896006"><ele>920.5</ele><time>2026-03-22T09:17:18Z</time></trkpt><trkpt lat="41.32068758283267" lon="14.595755641270602"><ele>923.0</ele><time>2026-03-22T09:17:19Z</time></trkpt><trkpt lat="41.320708453938614" lon="14.595869792028138"><ele>925.4999999999999</ele><time>2026-03-22T09:17:20Z</time></trkpt><trkpt lat="41.32072422101056" lon="14.595975794326804"><ele>928.0</ele><time>2026-03-22T09:17:21Z</time></trkpt><trkpt lat="41.32074767849689" lon="14.596066624195885"><ele>927.9999999999999</ele><time>2026-03-22T09:17:22Z</time></trkpt><trkpt lat="41.32077871810192" lon="14.596140679148176"><ele>928.0</ele><time>2026-03-22T09:17:23Z</time></trkpt><trkpt lat="41.32084989188945" lon="14.596245834144616"><ele>928.0</ele><time>2026-03-22T09:17:25Z</time></trkpt><trkpt lat="41.320896985925415" lon="14.596332680119707"><ele>928.0</ele><time>2026-03-22T09:17:27Z</time></trkpt><trkpt lat="41.32092075672037" lon="14.5964352414643"><ele>927.9999999999999</ele><time>2026-03-22T09:17:30Z</time></trkpt><trkpt lat="41.32096811930651" lon="14.59651421321235"><ele>928.0</ele><time>2026-03-22T09:18:47.999Z</time></trkpt><trkpt lat="41.321016404098785" lon="14.596578848929624"><ele>931.0</ele><time>2026-03-22T09:18:55Z</time></trkpt></trkseg><trkseg><trkpt lat="41.27996996541746" lon="14.601041996503525"><ele>735.0</ele><time>2026-03-22T10:18:46.947Z</time></trkpt><trkpt lat="41.2799668813942" lon="14.601133737816452"><ele>735.0</ele><time>2026-03-22T10:19:10Z</time></trkpt><trkpt lat="41.2799484602985" lon="14.601041090829408"><ele>735.0</ele><time>2026-03-22T10:19:18Z</time></trkpt><trkpt lat="41.27997360622985" lon="14.601132018915353"><ele>735.0</ele><time>2026-03-22T10:19:30Z</time></trkpt><trkpt lat="41.2798841442065" lon="14.601155664243118"><ele>735.0</ele><time>2026-03-22T10:19:32Z</time></trkpt><trkpt lat="41.279814208530034" lon="14.601283618931907"><ele>735.0</ele><time>2026-03-22T10:19:34Z</time></trkpt><trkpt lat="41.27974186658976" lon="14.601361499073095"><ele>734.6666666666666</ele><time>2026-03-22T10:19:36Z</time></trkpt><trkpt lat="41.279673139609876" lon="14.601429241020284"><ele>734.3333333333334</ele><time>2026-03-22T10:19:38Z</time></trkpt><trkpt lat="41.279617745601406" lon="14.601492969294736"><ele>734.0</ele><time>2026-03-22T10:19:41Z</time></trkpt><trkpt lat="41.27955974354622" lon="14.601539891004792"><ele>733.6666666666667</ele><time>2026-03-22T10:19:43Z</time></trkpt><trkpt lat="41.27951920128209" lon="14.60160884050897"><ele>733.3333333333334</ele><time>2026-03-22T10:19:45Z</time></trkpt><trkpt lat="41.27944984005504" lon="14.601676090789551"><ele>733.0</ele><time>2026-03-22T10:19:47Z</time></trkpt><trkpt lat="41.27940181370414" lon="14.6017601143493"><ele>733.0</ele><time>2026-03-22T10:19:49Z</time></trkpt><trkpt lat="41.279367008566396" lon="14.601838943909717"><ele>733.0</ele><time>2026-03-22T10:19:51Z</time></trkpt><trkpt lat="41.27944995684036" lon="14.601833122111428"><ele>733.0</ele><time>2026-03-22T10:19:56Z</time></trkpt><trkpt lat="41.27953253259163" lon="14.60181687768687"><ele>733.0</ele><time>2026-03-22T10:19:58Z</time></trkpt><trkpt lat="41.279635232844846" lon="14.601839008432503"><ele>733.0</ele><time>2026-03-22T10:20:00Z</time></trkpt><trkpt lat="41.27972998189196" lon="14.601882432052909"><ele>733.0</ele><time>2026-03-22T10:20:01.999Z</time></trkpt><trkpt lat="41.279806338484875" lon="14.601896436644397"><ele>733.9999999999999</ele><time>2026-03-22T10:20:03.999Z</time></trkpt><trkpt lat="41.27987585401773" lon="14.601928879795683"><ele>735.0</ele><time>2026-03-22T10:20:06.999Z</time></trkpt><trkpt lat="41.27993676527631" lon="14.60196286533392"><ele>736.0</ele><time>2026-03-22T10:20:09.999Z</time></trkpt><trkpt lat="41.28000618408978" lon="14.601989373715067"><ele>737.0</ele><time>2026-03-22T10:20:12.999Z</time></trkpt><trkpt lat="41.28008102420424" lon="14.601991863333524"><ele>738.0</ele><time>2026-03-22T10:20:15.999Z</time></trkpt><trkpt lat="41.28015325106543" lon="14.601992171200855"><ele>738.9999999999999</ele><time>2026-03-22T10:20:19.999Z</time></trkpt><trkpt lat="41.28024181026826" lon="14.601972832191628"><ele>740.0</ele><time>2026-03-22T10:20:23.999Z</time></trkpt><trkpt lat="41.28033710366891" lon="14.601939282573776"><ele>740.0</ele><time>2026-03-22T10:20:27.999Z</time></trkpt><trkpt lat="41.280417383998525" lon="14.60196051866074"><ele>740.0</ele><time>2026-03-22T10:20:30.999Z</time></trkpt><trkpt lat="41.280465780307246" lon="14.602058995703535"><ele>740.0</ele><time>2026-03-22T10:20:34.999Z</time></trkpt><trkpt lat="41.280554568888604" lon="14.60208717400607"><ele>740.0</ele><time>2026-03-22T10:20:36.999Z</time></trkpt><trkpt lat="41.28064369452118" lon="14.602090127606772"><ele>740.0</ele><time>2026-03-22T10:20:38.999Z</time></trkpt><trkpt lat="41.28072925353101" lon="14.602147626053442"><ele>740.0</ele><time>2026-03-22T10:20:40.999Z</time></trkpt><trkpt lat="41.28082490053215" lon="14.602177856329874"><ele>736.6</ele><time>2026-03-22T10:20:42.999Z</time></trkpt><trkpt lat="41.28091690905422" lon="14.602225209243962"><ele>733.2</ele><time>2026-03-22T10:20:44.999Z</time></trkpt><trkpt lat="41.28099454482065" lon="14.60228942532373"><ele>729.8</ele><time>2026-03-22T10:20:46.999Z</time></trkpt><trkpt lat="41.28106745600999" lon="14.602352181574393"><ele>726.4</ele><time>2026-03-22T10:20:48.999Z</time></trkpt><trkpt lat="41.281178834060704" lon="14.602428542940142"><ele>723.0</ele><time>2026-03-22T10:20:50.999Z</time></trkpt><trkpt lat="41.28129057663092" lon="14.602454535539914"><ele>723.0</ele><time>2026-03-22T10:20:52.999Z</time></trkpt><trkpt lat="41.28139000398455" lon="14.602500696022467"><ele>723.0</ele><time>2026-03-22T10:20:54.999Z</time></trkpt><trkpt lat="41.28147157661857" lon="14.602561494410315"><ele>723.0</ele><time>2026-03-22T10:20:57Z</time></trkpt><trkpt lat="41.28153798741423" lon="14.602612981451012"><ele>723.0</ele><time>2026-03-22T10:20:59Z</time></trkpt><trkpt lat="41.281610455721136" lon="14.602636664546468"><ele>723.0</ele><time>2026-03-22T10:21:01Z</time></trkpt><trkpt lat="41.28169102762913" lon="14.60267904281645"><ele>723.0</ele><time>2026-03-22T10:21:03Z</time></trkpt><trkpt lat="41.281763669836955" lon="14.602719089634785"><ele>723.3333333333334</ele><time>2026-03-22T10:21:05Z</time></trkpt><trkpt lat="41.281798610025305" lon="14.602829844769822"><ele>723.6666666666666</ele><time>2026-03-22T10:21:08Z</time></trkpt><trkpt lat="41.281796085796564" lon="14.602951918263916"><ele>724.0</ele><time>2026-03-22T10:21:11Z</time></trkpt><trkpt lat="41.2817576366979" lon="14.603046384920509"><ele>724.3333333333333</ele><time>2026-03-22T10:21:26Z</time></trkpt><trkpt lat="41.28170708007094" lon="14.603096352637207"><ele>724.6666666666666</ele><time>2026-03-22T10:21:29Z</time></trkpt><trkpt lat="41.28163769307178" lon="14.603191215285426"><ele>725.0</ele><time>2026-03-22T10:21:32Z</time></trkpt><trkpt lat="41.28158774551631" lon="14.603267906266735"><ele>725.0</ele><time>2026-03-22T10:21:34Z</time></trkpt><trkpt lat="41.28152320522985" lon="14.603338629725286"><ele>725.0</ele><time>2026-03-22T10:21:37Z</time></trkpt><trkpt lat="41.28145884770421" lon="14.603398856076907"><ele>725.0</ele><time>2026-03-22T10:21:39Z</time></trkpt><trkpt lat="41.28138959821035" lon="14.603447841773104"><ele>725.0</ele><time>2026-03-22T10:21:41Z</time></trkpt><trkpt lat="41.28132501801228" lon="14.603532956765592"><ele>725.0</ele><time>2026-03-22T10:21:44Z</time></trkpt><trkpt lat="41.28128683298464" lon="14.603603875863174"><ele>725.0</ele><time>2026-03-22T10:21:46Z</time></trkpt><trkpt lat="41.28124277665473" lon="14.603705607133728"><ele>727.5</ele><time>2026-03-22T10:21:51Z</time></trkpt><trkpt lat="41.28122229997189" lon="14.603792684661851"><ele>730.0</ele><time>2026-03-22T10:21:54Z</time></trkpt><trkpt lat="41.281198328733325" lon="14.603896592759142"><ele>732.5</ele><time>2026-03-22T10:21:57Z</time></trkpt><trkpt lat="41.28118718140227" lon="14.60399336983473"><ele>735.0</ele><time>2026-03-22T10:22:02Z</time></trkpt><trkpt lat="41.28116469695095" lon="14.604079792665418"><ele>737.5</ele><time>2026-03-22T10:22:04Z</time></trkpt><trkpt lat="41.2811460910066" lon="14.604178717869532"><ele>740.0</ele><time>2026-03-22T10:22:06Z</time></trkpt><trkpt lat="41.281124280685994" lon="14.60430503476607"><ele>742.2</ele><time>2026-03-22T10:22:08Z</time></trkpt><trkpt lat="41.28108305782448" lon="14.604499705209903"><ele>744.4</ele><time>2026-03-22T10:22:11Z</time></trkpt><trkpt lat="41.281070207839555" lon="14.604627178774827"><ele>746.5999999999999</ele><time>2026-03-22T10:22:13Z</time></trkpt><trkpt lat="41.281093660687084" lon="14.604748170731648"><ele>748.8</ele><time>2026-03-22T10:22:14.999Z</time></trkpt><trkpt lat="41.28111675522159" lon="14.604876708186142"><ele>751.0</ele><time>2026-03-22T10:22:16.999Z</time></trkpt><trkpt lat="41.28114497982154" lon="14.60499946284231"><ele>751.0</ele><time>2026-03-22T10:22:18.999Z</time></trkpt><trkpt lat="41.28119328563468" lon="14.605121324690865"><ele>751.0</ele><time>2026-03-22T10:22:20.999Z</time></trkpt><trkpt lat="41.28125135882621" lon="14.605254096056418"><ele>751.0</ele><time>2026-03-22T10:22:22.999Z</time></trkpt><trkpt lat="41.28131239337875" lon="14.605382299686493"><ele>751.0</ele><time>2026-03-22T10:22:24.999Z</time></trkpt><trkpt lat="41.28138931015152" lon="14.605517079162151"><ele>752.0</ele><time>2026-03-22T10:22:26.999Z</time></trkpt><trkpt lat="41.2814510584153" lon="14.60564687512943"><ele>753.0</ele><time>2026-03-22T10:22:28.999Z</time></trkpt><trkpt lat="41.28149771252039" lon="14.605742333488724"><ele>754.0</ele><time>2026-03-22T10:22:30.999Z</time></trkpt><trkpt lat="41.28157134905987" lon="14.605805363764336"><ele>755.0</ele><time>2026-03-22T10:22:32.999Z</time></trkpt><trkpt lat="41.28161841010064" lon="14.60587595371416"><ele>756.0</ele><time>2026-03-22T10:22:34.999Z</time></trkpt><trkpt lat="41.28164155088905" lon="14.605980205974609"><ele>757.0</ele><time>2026-03-22T10:22:36.999Z</time></trkpt><trkpt lat="41.28165923245193" lon="14.6060724637116"><ele>758.3333333333334</ele><time>2026-03-22T10:22:38.999Z</time></trkpt><trkpt lat="41.28167627629317" lon="14.606196188271465"><ele>759.6666666666667</ele><time>2026-03-22T10:22:41.999Z</time></trkpt><trkpt lat="41.28170629576432" lon="14.606298677435918"><ele>761.0</ele><time>2026-03-22T10:22:43.999Z</time></trkpt><trkpt lat="41.28171653787614" lon="14.606402968829427"><ele>762.3333333333334</ele><time>2026-03-22T10:22:45.999Z</time></trkpt><trkpt lat="41.28173290836858" lon="14.606521295809438"><ele>763.6666666666666</ele><time>2026-03-22T10:22:48.999Z</time></trkpt><trkpt lat="41.28172302020907" lon="14.606610159833684"><ele>765.0</ele><time>2026-03-22T10:22:50.999Z</time></trkpt><trkpt lat="41.28167164207413" lon="14.606704340130337"><ele>765.0</ele><time>2026-03-22T10:22:52.999Z</time></trkpt><trkpt lat="41.28166792518939" lon="14.606810968808869"><ele>765.0</ele><time>2026-03-22T10:22:54.999Z</time></trkpt><trkpt lat="41.28165138557151" lon="14.606911491091672"><ele>765.0</ele><time>2026-03-22T10:22:56.999Z</time></trkpt><trkpt lat="41.28161899767307" lon="14.606984027453565"><ele>765.0</ele><time>2026-03-22T10:22:58.999Z</time></trkpt><trkpt lat="41.28158592689091" lon="14.60708441031384"><ele>765.0</ele><time>2026-03-22T10:23:01.999Z</time></trkpt><trkpt lat="41.28156176520157" lon="14.607178422819409"><ele>765.0</ele><time>2026-03-22T10:23:04Z</time></trkpt><trkpt lat="41.28157081511887" lon="14.60727299618346"><ele>766.1666666666666</ele><time>2026-03-22T10:23:07Z</time></trkpt><trkpt lat="41.281561097127806" lon="14.607393257880096"><ele>767.3333333333333</ele><time>2026-03-22T10:23:08Z</time></trkpt><trkpt lat="41.2815589143169" lon="14.607481876571027"><ele>768.5</ele><time>2026-03-22T10:23:10Z</time></trkpt><trkpt lat="41.28156245364724" lon="14.607582140661389"><ele>769.6666666666666</ele><time>2026-03-22T10:23:12Z</time></trkpt><trkpt lat="41.28157109078945" lon="14.607691643471572"><ele>770.8333333333333</ele><time>2026-03-22T10:23:14Z</time></trkpt><trkpt lat="41.281606139649234" lon="14.607808165150118"><ele>772.0</ele><time>2026-03-22T10:23:16Z</time></trkpt><trkpt lat="41.28163179696745" lon="14.607910467485109"><ele>773.1428571428572</ele><time>2026-03-22T10:23:18Z</time></trkpt><trkpt lat="41.28166950084902" lon="14.607979046904488"><ele>774.2857142857143</ele><time>2026-03-22T10:23:20Z</time></trkpt><trkpt lat="41.28171616206337" lon="14.608036374158248"><ele>775.4285714285714</ele><time>2026-03-22T10:23:22Z</time></trkpt><trkpt lat="41.28176968328111" lon="14.608128641100393"><ele>776.5714285714287</ele><time>2026-03-22T10:23:24Z</time></trkpt><trkpt lat="41.2818122814542" lon="14.608211220984726"><ele>777.7142857142857</ele><time>2026-03-22T10:23:26Z</time></trkpt><trkpt lat="41.281856328221835" lon="14.608297966779425"><ele>778.8571428571429</ele><time>2026-03-22T10:23:29Z</time></trkpt><trkpt lat="41.28185838570438" lon="14.60838344771132"><ele>780.0</ele><time>2026-03-22T10:23:30Z</time></trkpt><trkpt lat="41.28185649318351" lon="14.608489946716482"><ele>780.0</ele><time>2026-03-22T10:23:32Z</time></trkpt><trkpt lat="41.28186209765594" lon="14.608580715134798"><ele>780.0</ele><time>2026-03-22T10:23:34Z</time></trkpt><trkpt lat="41.28188155095146" lon="14.608663378258155"><ele>780.0</ele><time>2026-03-22T10:23:38Z</time></trkpt><trkpt lat="41.281908896816624" lon="14.608750179521493"><ele>780.0</ele><time>2026-03-22T10:23:41Z</time></trkpt><trkpt lat="41.28197385149108" lon="14.608837336729215"><ele>780.0</ele><time>2026-03-22T10:23:50Z</time></trkpt><trkpt lat="41.28203353383244" lon="14.608906101025688"><ele>780.0</ele><time>2026-03-22T10:23:53Z</time></trkpt><trkpt lat="41.28209062395514" lon="14.608991760654822"><ele>780.3333333333334</ele><time>2026-03-22T10:23:56Z</time></trkpt><trkpt lat="41.282175015100414" lon="14.609034100692517"><ele>780.6666666666667</ele><time>2026-03-22T10:23:59Z</time></trkpt><trkpt lat="41.282249697569014" lon="14.609013577626287"><ele>781.0</ele><time>2026-03-22T10:24:02Z</time></trkpt><trkpt lat="41.282315775808385" lon="14.608995350788499"><ele>781.3333333333334</ele><time>2026-03-22T10:24:06Z</time></trkpt><trkpt lat="41.282398120733404" lon="14.609007716578667"><ele>781.6666666666667</ele><time>2026-03-22T10:24:09Z</time></trkpt><trkpt lat="41.28240435546254" lon="14.609130362863265"><ele>782.0</ele><time>2026-03-22T10:24:29.999Z</time></trkpt><trkpt lat="41.28241353366082" lon="14.60925012544056"><ele>781.9999999999999</ele><time>2026-03-22T10:24:32.999Z</time></trkpt><trkpt lat="41.282485588144105" lon="14.609275310726892"><ele>782.0</ele><time>2026-03-22T10:24:35.999Z</time></trkpt><trkpt lat="41.28245999238991" lon="14.609358404227407"><ele>782.0</ele><time>2026-03-22T10:24:37.999Z</time></trkpt><trkpt lat="41.28247220216736" lon="14.609454249035295"><ele>782.0</ele><time>2026-03-22T10:24:40.999Z</time></trkpt><trkpt lat="41.28249097038915" lon="14.609555510203883"><ele>782.0</ele><time>2026-03-22T10:24:42.999Z</time></trkpt><trkpt lat="41.28251742923491" lon="14.609637218012333"><ele>781.9999999999999</ele><time>2026-03-22T10:24:44.999Z</time></trkpt><trkpt lat="41.28253443251138" lon="14.609729117616185"><ele>782.0</ele><time>2026-03-22T10:24:49.999Z</time></trkpt><trkpt lat="41.28252450232922" lon="14.609830798623909"><ele>785.0000000000001</ele><time>2026-03-22T10:24:52.999Z</time></trkpt><trkpt lat="41.28256177784845" lon="14.60991520085653"><ele>788.0</ele><time>2026-03-22T10:24:59.999Z</time></trkpt><trkpt lat="41.282595623216096" lon="14.60998934569923"><ele>791.0</ele><time>2026-03-22T10:25:01.999Z</time></trkpt><trkpt lat="41.282630252492886" lon="14.610070982488708"><ele>794.0</ele><time>2026-03-22T10:25:04.999Z</time></trkpt><trkpt lat="41.282668243554184" lon="14.610157932302723"><ele>797.0000000000001</ele><time>2026-03-22T10:25:07.999Z</time></trkpt><trkpt lat="41.2827220754587" lon="14.610258269892151"><ele>800.0</ele><time>2026-03-22T10:25:11Z</time></trkpt><trkpt lat="41.282782051536586" lon="14.610344651873088"><ele>802.5714285714287</ele><time>2026-03-22T10:25:14Z</time></trkpt><trkpt lat="41.28283140141885" lon="14.610434112535017"><ele>805.1428571428571</ele><time>2026-03-22T10:25:17Z</time></trkpt><trkpt lat="41.28286536857599" lon="14.610529174416879"><ele>807.7142857142858</ele><time>2026-03-22T10:25:20Z</time></trkpt><trkpt lat="41.282903037599716" lon="14.61059750108054"><ele>810.2857142857143</ele><time>2026-03-22T10:25:22Z</time></trkpt><trkpt lat="41.28293857433442" lon="14.61067712712247"><ele>812.8571428571429</ele><time>2026-03-22T10:25:26Z</time></trkpt><trkpt lat="41.28297604036836" lon="14.610745864267411"><ele>815.4285714285714</ele><time>2026-03-22T10:25:28Z</time></trkpt><trkpt lat="41.28301721022057" lon="14.610812057852186"><ele>818.0</ele><time>2026-03-22T10:25:30Z</time></trkpt><trkpt lat="41.28306436290033" lon="14.61088068824957"><ele>817.8333333333334</ele><time>2026-03-22T10:25:32Z</time></trkpt><trkpt lat="41.283115888928265" lon="14.610954446517914"><ele>817.6666666666667</ele><time>2026-03-22T10:25:34Z</time></trkpt><trkpt lat="41.28316819821625" lon="14.611025131605395"><ele>817.5</ele><time>2026-03-22T10:25:36Z</time></trkpt><trkpt lat="41.28321589547644" lon="14.6111053017569"><ele>817.3333333333333</ele><time>2026-03-22T10:25:38Z</time></trkpt><trkpt lat="41.28327129491885" lon="14.611192771495467"><ele>817.1666666666666</ele><time>2026-03-22T10:25:40Z</time></trkpt><trkpt lat="41.28331801443388" lon="14.611278740559154"><ele>817.0</ele><time>2026-03-22T10:25:42Z</time></trkpt><trkpt lat="41.28336539179824" lon="14.611357053807543"><ele>816.9999999999999</ele><time>2026-03-22T10:25:44Z</time></trkpt><trkpt lat="41.283412788968405" lon="14.61142567853229"><ele>817.0</ele><time>2026-03-22T10:25:46Z</time></trkpt><trkpt lat="41.283462290419465" lon="14.611489219545199"><ele>817.0</ele><time>2026-03-22T10:25:48Z</time></trkpt><trkpt lat="41.28352790207801" lon="14.611576210584323"><ele>817.0</ele><time>2026-03-22T10:25:50Z</time></trkpt><trkpt lat="41.28358797800308" lon="14.611616181812726"><ele>816.9999999999999</ele><time>2026-03-22T10:25:52Z</time></trkpt><trkpt lat="41.28366066513716" lon="14.611703427297247"><ele>817.0</ele><time>2026-03-22T10:25:55Z</time></trkpt><trkpt lat="41.283737314742886" lon="14.611765330719"><ele>816.9999999999999</ele><time>2026-03-22T10:25:58Z</time></trkpt><trkpt lat="41.28379500683878" lon="14.611843040741574"><ele>817.0</ele><time>2026-03-22T10:26:01Z</time></trkpt><trkpt lat="41.2838308354126" lon="14.61191270169343"><ele>817.0</ele><time>2026-03-22T10:26:04Z</time></trkpt><trkpt lat="41.283857351876655" lon="14.612008478247434"><ele>817.0</ele><time>2026-03-22T10:26:07Z</time></trkpt><trkpt lat="41.28390099726801" lon="14.612083925573698"><ele>817.0</ele><time>2026-03-22T10:26:10Z</time></trkpt><trkpt lat="41.28395340994171" lon="14.612137303979853"><ele>816.9999999999999</ele><time>2026-03-22T10:26:13Z</time></trkpt><trkpt lat="41.283998931337884" lon="14.6122335175533"><ele>817.0</ele><time>2026-03-22T10:26:18Z</time></trkpt><trkpt lat="41.284007128458555" lon="14.612336071945805"><ele>817.4999999999999</ele><time>2026-03-22T10:26:22Z</time></trkpt><trkpt lat="41.28404804458772" lon="14.612459401173805"><ele>818.0</ele><time>2026-03-22T10:26:25Z</time></trkpt><trkpt lat="41.28409005613835" lon="14.61255330681838"><ele>818.5</ele><time>2026-03-22T10:26:27Z</time></trkpt><trkpt lat="41.2841269970737" lon="14.612649607110233"><ele>819.0</ele><time>2026-03-22T10:26:28.999Z</time></trkpt><trkpt lat="41.28416571621893" lon="14.612740300717926"><ele>819.4999999999999</ele><time>2026-03-22T10:26:30.999Z</time></trkpt><trkpt lat="41.284201933651396" lon="14.612829118095132"><ele>820.0</ele><time>2026-03-22T10:26:32.999Z</time></trkpt><trkpt lat="41.284240692594864" lon="14.612947729711864"><ele>821.1666666666666</ele><time>2026-03-22T10:26:35.999Z</time></trkpt><trkpt lat="41.28428387475694" lon="14.613029419486152"><ele>822.3333333333333</ele><time>2026-03-22T10:26:37.999Z</time></trkpt><trkpt lat="41.28436255295291" lon="14.613097845302978"><ele>823.5</ele><time>2026-03-22T10:26:40.999Z</time></trkpt><trkpt lat="41.28439895368831" lon="14.61316898020207"><ele>824.6666666666667</ele><time>2026-03-22T10:26:42.999Z</time></trkpt><trkpt lat="41.28447652401948" lon="14.613196747961416"><ele>825.8333333333334</ele><time>2026-03-22T10:26:44.999Z</time></trkpt><trkpt lat="41.284560379258714" lon="14.613211581509468"><ele>827.0</ele><time>2026-03-22T10:26:47.999Z</time></trkpt><trkpt lat="41.28468037643579" lon="14.61321581701566"><ele>827.0000000000001</ele><time>2026-03-22T10:26:50.999Z</time></trkpt><trkpt lat="41.28475949932029" lon="14.613197909571248"><ele>827.0</ele><time>2026-03-22T10:26:56.999Z</time></trkpt><trkpt lat="41.28482624721029" lon="14.613208905724388"><ele>827.0</ele><time>2026-03-22T10:26:58.999Z</time></trkpt><trkpt lat="41.28491390151323" lon="14.613222918806523"><ele>827.0</ele><time>2026-03-22T10:27:01.999Z</time></trkpt><trkpt lat="41.28498219397417" lon="14.613248850851525"><ele>827.0000000000001</ele><time>2026-03-22T10:27:05.999Z</time></trkpt><trkpt lat="41.28506611463059" lon="14.613291408986234"><ele>827.0</ele><time>2026-03-22T10:27:12.999Z</time></trkpt><trkpt lat="41.28515780791658" lon="14.613345705116991"><ele>828.3333333333334</ele><time>2026-03-22T10:27:15Z</time></trkpt><trkpt lat="41.285219738373996" lon="14.613361612638013"><ele>829.6666666666667</ele><time>2026-03-22T10:27:16Z</time></trkpt><trkpt lat="41.285292350116" lon="14.613388328608057"><ele>831.0</ele><time>2026-03-22T10:27:17Z</time></trkpt><trkpt lat="41.28537601408462" lon="14.613418135033237"><ele>832.3333333333333</ele><time>2026-03-22T10:27:18Z</time></trkpt><trkpt lat="41.28546045049552" lon="14.613443597358884"><ele>833.6666666666666</ele><time>2026-03-22T10:27:19Z</time></trkpt><trkpt lat="41.28553917488287" lon="14.613464216029097"><ele>835.0</ele><time>2026-03-22T10:27:20Z</time></trkpt><trkpt lat="41.28562083233116" lon="14.613485018237744"><ele>836.6</ele><time>2026-03-22T10:27:21Z</time></trkpt><trkpt lat="41.28571024483734" lon="14.613511198132056"><ele>838.2</ele><time>2026-03-22T10:27:22Z</time></trkpt><trkpt lat="41.2858091668593" lon="14.613550227862515"><ele>839.8</ele><time>2026-03-22T10:27:23Z</time></trkpt><trkpt lat="41.285909620588434" lon="14.613586830186513"><ele>841.4</ele><time>2026-03-22T10:27:24Z</time></trkpt><trkpt lat="41.285997253937644" lon="14.613636688049425"><ele>843.0</ele><time>2026-03-22T10:27:25Z</time></trkpt><trkpt lat="41.286081940656416" lon="14.613679192453843"><ele>843.0</ele><time>2026-03-22T10:27:26Z</time></trkpt><trkpt lat="41.2861549679234" lon="14.613714051520125"><ele>843.0</ele><time>2026-03-22T10:27:27Z</time></trkpt><trkpt lat="41.286232400051375" lon="14.61375312013587"><ele>843.0</ele><time>2026-03-22T10:27:28Z</time></trkpt><trkpt lat="41.286298164825894" lon="14.613780936399598"><ele>843.0</ele><time>2026-03-22T10:27:29Z</time></trkpt><trkpt lat="41.286361371539996" lon="14.613766289937658"><ele>843.0</ele><time>2026-03-22T10:27:30Z</time></trkpt><trkpt lat="41.286472996282" lon="14.613731859250379"><ele>843.0</ele><time>2026-03-22T10:27:32Z</time></trkpt><trkpt lat="41.28657256058215" lon="14.6137042760239"><ele>845.3333333333334</ele><time>2026-03-22T10:27:34Z</time></trkpt><trkpt lat="41.28665345279366" lon="14.613657537219385"><ele>847.6666666666667</ele><time>2026-03-22T10:27:36Z</time></trkpt><trkpt lat="41.2867302967006" lon="14.613645408187905"><ele>850.0</ele><time>2026-03-22T10:27:38Z</time></trkpt><trkpt lat="41.28680258997506" lon="14.61373602178428"><ele>852.3333333333334</ele><time>2026-03-22T10:27:40Z</time></trkpt><trkpt lat="41.28671055697061" lon="14.61377094181626"><ele>854.6666666666667</ele><time>2026-03-22T10:27:42Z</time></trkpt><trkpt lat="41.2866382280603" lon="14.613768029445255"><ele>857.0</ele><time>2026-03-22T10:28:51.999Z</time></trkpt><trkpt lat="41.28663855402678" lon="14.613654560020315"><ele>857.0000000000001</ele><time>2026-03-22T10:29:17.999Z</time></trkpt><trkpt lat="41.286741040204085" lon="14.613658958404747"><ele>857.0</ele><time>2026-03-22T10:29:19.999Z</time></trkpt><trkpt lat="41.28679866706388" lon="14.613711082070672"><ele>857.0</ele><time>2026-03-22T10:29:21Z</time></trkpt><trkpt lat="41.28686460160583" lon="14.61377299533411"><ele>857.0</ele><time>2026-03-22T10:29:22Z</time></trkpt><trkpt lat="41.28693121840308" lon="14.61384752592731"><ele>857.0000000000001</ele><time>2026-03-22T10:29:23Z</time></trkpt><trkpt lat="41.287005385115734" lon="14.61392942611908"><ele>857.0</ele><time>2026-03-22T10:29:24Z</time></trkpt><trkpt lat="41.287077117541905" lon="14.614017155366438"><ele>857.0</ele><time>2026-03-22T10:29:25Z</time></trkpt><trkpt lat="41.287159534992476" lon="14.614115810823934"><ele>857.0</ele><time>2026-03-22T10:29:26Z</time></trkpt><trkpt lat="41.287240611845334" lon="14.614218985268327"><ele>857.0</ele><time>2026-03-22T10:29:27Z</time></trkpt><trkpt lat="41.28732062534946" lon="14.614331437890879"><ele>857.0</ele><time>2026-03-22T10:29:28Z</time></trkpt><trkpt lat="41.287400119580504" lon="14.614459455869932"><ele>860.75</ele><time>2026-03-22T10:29:29Z</time></trkpt><trkpt lat="41.287477259415915" lon="14.61459454241868"><ele>864.5</ele><time>2026-03-22T10:29:30Z</time></trkpt><trkpt lat="41.28755346566191" lon="14.614735290661654"><ele>868.25</ele><time>2026-03-22T10:29:31Z</time></trkpt><trkpt lat="41.287629556740406" lon="14.614877409607914"><ele>872.0</ele><time>2026-03-22T10:29:32Z</time></trkpt><trkpt lat="41.287685682683595" lon="14.615046821366903"><ele>872.0</ele><time>2026-03-22T10:29:33Z</time></trkpt><trkpt lat="41.28778502816029" lon="14.615168174334954"><ele>872.0</ele><time>2026-03-22T10:29:34Z</time></trkpt><trkpt lat="41.28788573769665" lon="14.615283263688683"><ele>872.0</ele><time>2026-03-22T10:29:35Z</time></trkpt><trkpt lat="41.287989293415805" lon="14.615399691076842"><ele>872.0</ele><time>2026-03-22T10:29:36Z</time></trkpt><trkpt lat="41.28809423679089" lon="14.61551959038296"><ele>876.0</ele><time>2026-03-22T10:29:37Z</time></trkpt><trkpt lat="41.28819197007922" lon="14.61564151539263"><ele>880.0</ele><time>2026-03-22T10:29:38Z</time></trkpt><trkpt lat="41.28827230197695" lon="14.615778770048408"><ele>884.0</ele><time>2026-03-22T10:29:39Z</time></trkpt><trkpt lat="41.28834929349356" lon="14.615930130005383"><ele>888.0</ele><time>2026-03-22T10:29:40Z</time></trkpt><trkpt lat="41.288426457569756" lon="14.616093318456205"><ele>887.0</ele><time>2026-03-22T10:29:41Z</time></trkpt><trkpt lat="41.288498863518406" lon="14.61625543228099"><ele>886.0</ele><time>2026-03-22T10:29:42Z</time></trkpt><trkpt lat="41.28857000664761" lon="14.616415126999772"><ele>885.0</ele><time>2026-03-22T10:29:43Z</time></trkpt><trkpt lat="41.28864359363397" lon="14.616581205145048"><ele>884.0</ele><time>2026-03-22T10:29:44Z</time></trkpt><trkpt lat="41.28871038462133" lon="14.616734313993934"><ele>884.0</ele><time>2026-03-22T10:29:45Z</time></trkpt><trkpt lat="41.28877560332578" lon="14.616883818625373"><ele>884.0</ele><time>2026-03-22T10:29:46Z</time></trkpt><trkpt lat="41.28884497272543" lon="14.617042838111548"><ele>884.0</ele><time>2026-03-22T10:29:47Z</time></trkpt><trkpt lat="41.28891056222977" lon="14.617193192751612"><ele>884.0</ele><time>2026-03-22T10:29:48Z</time></trkpt><trkpt lat="41.28896760349614" lon="14.617323951825789"><ele>886.4000000000001</ele><time>2026-03-22T10:29:49Z</time></trkpt><trkpt lat="41.28901736125784" lon="14.617426651886978"><ele>888.8000000000001</ele><time>2026-03-22T10:29:50Z</time></trkpt><trkpt lat="41.28906436095105" lon="14.617552428969256"><ele>891.1999999999999</ele><time>2026-03-22T10:29:52Z</time></trkpt><trkpt lat="41.28910453997025" lon="14.617619667982462"><ele>893.5999999999999</ele><time>2026-03-22T10:30:01Z</time></trkpt><trkpt lat="41.28901791249983" lon="14.617723320085265"><ele>896.0</ele><time>2026-03-22T10:30:02.999Z</time></trkpt><trkpt lat="41.288960116701176" lon="14.617808017939579"><ele>892.3333333333334</ele><time>2026-03-22T10:30:28.999Z</time></trkpt><trkpt lat="41.288878048098255" lon="14.617907634160016"><ele>888.6666666666667</ele><time>2026-03-22T10:30:30.999Z</time></trkpt><trkpt lat="41.288826935448675" lon="14.617978967961518"><ele>885.0</ele><time>2026-03-22T10:30:31.999Z</time></trkpt><trkpt lat="41.28873468944703" lon="14.617967436996624"><ele>881.3333333333333</ele><time>2026-03-22T10:30:32.999Z</time></trkpt><trkpt lat="41.28868594390845" lon="14.618023499221627"><ele>877.6666666666666</ele><time>2026-03-22T10:30:33.999Z</time></trkpt><trkpt lat="41.28863532006193" lon="14.618079763211261"><ele>874.0</ele><time>2026-03-22T10:30:34.999Z</time></trkpt><trkpt lat="41.288584224297594" lon="14.618135285616146"><ele>874.0</ele><time>2026-03-22T10:30:35.999Z</time></trkpt><trkpt lat="41.28853171862319" lon="14.618191961030396"><ele>874.0</ele><time>2026-03-22T10:30:36.999Z</time></trkpt><trkpt lat="41.28848094229562" lon="14.61824378703139"><ele>874.0</ele><time>2026-03-22T10:30:37.999Z</time></trkpt><trkpt lat="41.288426405456626" lon="14.618297170888935"><ele>874.0</ele><time>2026-03-22T10:30:38.999Z</time></trkpt><trkpt lat="41.28836493569912" lon="14.618355294762155"><ele>874.0</ele><time>2026-03-22T10:30:39.999Z</time></trkpt><trkpt lat="41.288301593557456" lon="14.618413331163238"><ele>874.0</ele><time>2026-03-22T10:30:40.999Z</time></trkpt><trkpt lat="41.28823664861481" lon="14.618470312852587"><ele>874.0</ele><time>2026-03-22T10:30:41.999Z</time></trkpt><trkpt lat="41.288167149526906" lon="14.61852571501841"><ele>872.6666666666666</ele><time>2026-03-22T10:30:42.999Z</time></trkpt><trkpt lat="41.28808401122133" lon="14.6185846009022"><ele>871.3333333333333</ele><time>2026-03-22T10:30:43.999Z</time></trkpt><trkpt lat="41.288009417153326" lon="14.618630992345198"><ele>870.0</ele><time>2026-03-22T10:30:44.998Z</time></trkpt><trkpt lat="41.287932920674066" lon="14.618670488415846"><ele>868.6666666666667</ele><time>2026-03-22T10:30:45.998Z</time></trkpt><trkpt lat="41.28784705606712" lon="14.618701240413026"><ele>867.3333333333334</ele><time>2026-03-22T10:30:46.998Z</time></trkpt><trkpt lat="41.28775083573701" lon="14.618726170821741"><ele>866.0</ele><time>2026-03-22T10:30:47.998Z</time></trkpt><trkpt lat="41.287657323130965" lon="14.618746663040147"><ele>865.8</ele><time>2026-03-22T10:30:48.998Z</time></trkpt><trkpt lat="41.287567573799436" lon="14.618764863807494"><ele>865.5999999999999</ele><time>2026-03-22T10:30:49.998Z</time></trkpt><trkpt lat="41.28747683869668" lon="14.61878326448072"><ele>865.4</ele><time>2026-03-22T10:30:50.998Z</time></trkpt><trkpt lat="41.28738125119997" lon="14.618802649210217"><ele>865.2</ele><time>2026-03-22T10:30:51.998Z</time></trkpt><trkpt lat="41.287286864962965" lon="14.618821790325475"><ele>865.0</ele><time>2026-03-22T10:30:52.998Z</time></trkpt><trkpt lat="41.28719645354252" lon="14.618839160147026"><ele>865.0</ele><time>2026-03-22T10:30:53.998Z</time></trkpt><trkpt lat="41.28710592644397" lon="14.61885560902111"><ele>865.0</ele><time>2026-03-22T10:30:54.998Z</time></trkpt><trkpt lat="41.28701526459306" lon="14.618868857840285"><ele>865.0</ele><time>2026-03-22T10:30:55.998Z</time></trkpt><trkpt lat="41.28692697529772" lon="14.618878918786203"><ele>865.0</ele><time>2026-03-22T10:30:56.998Z</time></trkpt><trkpt lat="41.28683741971118" lon="14.618885669932142"><ele>865.0</ele><time>2026-03-22T10:30:57.998Z</time></trkpt><trkpt lat="41.28674750234662" lon="14.61889182339139"><ele>865.0</ele><time>2026-03-22T10:30:58.998Z</time></trkpt><trkpt lat="41.28665078667139" lon="14.618898442082772"><ele>865.0</ele><time>2026-03-22T10:30:59.998Z</time></trkpt><trkpt lat="41.28654317379055" lon="14.618907973591375"><ele>865.0</ele><time>2026-03-22T10:31:00.998Z</time></trkpt><trkpt lat="41.28642132349007" lon="14.618926726673521"><ele>865.0</ele><time>2026-03-22T10:31:01.998Z</time></trkpt><trkpt lat="41.28630411250153" lon="14.618966884480535"><ele>865.0</ele><time>2026-03-22T10:31:02.998Z</time></trkpt><trkpt lat="41.28619544762278" lon="14.61899423722372"><ele>866.2</ele><time>2026-03-22T10:31:03.998Z</time></trkpt><trkpt lat="41.286095814926156" lon="14.619025682484006"><ele>867.4</ele><time>2026-03-22T10:31:04.998Z</time></trkpt><trkpt lat="41.28599123778842" lon="14.619077170146431"><ele>868.5999999999999</ele><time>2026-03-22T10:31:05.998Z</time></trkpt><trkpt lat="41.28588877226726" lon="14.619111652482294"><ele>869.8</ele><time>2026-03-22T10:31:06.998Z</time></trkpt><trkpt lat="41.28578206788802" lon="14.619132081418472"><ele>871.0</ele><time>2026-03-22T10:31:07.998Z</time></trkpt><trkpt lat="41.28567296019979" lon="14.619151673174649"><ele>869.8333333333333</ele><time>2026-03-22T10:31:08.998Z</time></trkpt><trkpt lat="41.28559194264258" lon="14.619165387548163"><ele>868.6666666666666</ele><time>2026-03-22T10:31:09.998Z</time></trkpt><trkpt lat="41.28548214078974" lon="14.619183377923799"><ele>867.5</ele><time>2026-03-22T10:31:11.998Z</time></trkpt><trkpt lat="41.28539415425935" lon="14.619197793989857"><ele>866.3333333333333</ele><time>2026-03-22T10:31:13.998Z</time></trkpt><trkpt lat="41.285319328630855" lon="14.619211934191712"><ele>865.1666666666666</ele><time>2026-03-22T10:31:15.998Z</time></trkpt><trkpt lat="41.285254404079716" lon="14.619225154030588"><ele>864.0</ele><time>2026-03-22T10:31:17.998Z</time></trkpt><trkpt lat="41.28518547691183" lon="14.619239429160222"><ele>864.0</ele><time>2026-03-22T10:31:20.998Z</time></trkpt><trkpt lat="41.28513959752615" lon="14.61931489879193"><ele>864.0</ele><time>2026-03-22T10:31:22.998Z</time></trkpt><trkpt lat="41.28506415760773" lon="14.619362692598967"><ele>864.0</ele><time>2026-03-22T10:31:25.998Z</time></trkpt><trkpt lat="41.2850004418241" lon="14.61940825759105"><ele>864.0</ele><time>2026-03-22T10:31:27.999Z</time></trkpt><trkpt lat="41.28493051458324" lon="14.619463343335322"><ele>864.0</ele><time>2026-03-22T10:31:29.999Z</time></trkpt><trkpt lat="41.284863298754935" lon="14.619527214290587"><ele>864.0</ele><time>2026-03-22T10:31:31.999Z</time></trkpt><trkpt lat="41.284811112477236" lon="14.619589075744264"><ele>862.0</ele><time>2026-03-22T10:31:33.999Z</time></trkpt><trkpt lat="41.28473874457443" lon="14.619668319070426"><ele>860.0000000000001</ele><time>2026-03-22T10:31:35.999Z</time></trkpt><trkpt lat="41.284665327650075" lon="14.619774678058395"><ele>858.0000000000001</ele><time>2026-03-22T10:31:37.999Z</time></trkpt><trkpt lat="41.28453284311815" lon="14.619853695236223"><ele>856.0</ele><time>2026-03-22T10:31:39.999Z</time></trkpt><trkpt lat="41.28449706512999" lon="14.619930710810191"><ele>854.0</ele><time>2026-03-22T10:31:40.999Z</time></trkpt><trkpt lat="41.28443531149351" lon="14.62008641352598"><ele>854.0000000000001</ele><time>2026-03-22T10:31:42.999Z</time></trkpt><trkpt lat="41.284381290778946" lon="14.62024266116812"><ele>854.0</ele><time>2026-03-22T10:31:44.999Z</time></trkpt><trkpt lat="41.2843555300275" lon="14.620326378583963"><ele>854.0</ele><time>2026-03-22T10:31:45.999Z</time></trkpt><trkpt lat="41.28433247854597" lon="14.620405955964936"><ele>854.0</ele><time>2026-03-22T10:31:46.999Z</time></trkpt><trkpt lat="41.284312325616334" lon="14.62049053445787"><ele>854.0000000000001</ele><time>2026-03-22T10:31:47.999Z</time></trkpt><trkpt lat="41.284295233655044" lon="14.620573961431814"><ele>854.0</ele><time>2026-03-22T10:31:48.999Z</time></trkpt><trkpt lat="41.28428019900144" lon="14.620660596903614"><ele>854.25</ele><time>2026-03-22T10:31:49.999Z</time></trkpt><trkpt lat="41.284258522432125" lon="14.620816394479421"><ele>854.5</ele><time>2026-03-22T10:31:51.999Z</time></trkpt><trkpt lat="41.284243198451826" lon="14.620973980019377"><ele>854.75</ele><time>2026-03-22T10:31:53.999Z</time></trkpt><trkpt lat="41.284238264658036" lon="14.621116168567928"><ele>855.0</ele><time>2026-03-22T10:31:55.999Z</time></trkpt><trkpt lat="41.2842322009326" lon="14.621265137557746"><ele>854.0</ele><time>2026-03-22T10:31:57.999Z</time></trkpt><trkpt lat="41.2842160743893" lon="14.621410563704552"><ele>853.0</ele><time>2026-03-22T10:31:59.999Z</time></trkpt><trkpt lat="41.284182304992" lon="14.621561708518417"><ele>852.0</ele><time>2026-03-22T10:32:01.999Z</time></trkpt><trkpt lat="41.28413521022984" lon="14.621695531899825"><ele>851.0</ele><time>2026-03-22T10:32:03.999Z</time></trkpt><trkpt lat="41.284085189130685" lon="14.62184155347317"><ele>851.0</ele><time>2026-03-22T10:32:05.999Z</time></trkpt><trkpt lat="41.28403780781701" lon="14.621979250938255"><ele>851.0</ele><time>2026-03-22T10:32:07.999Z</time></trkpt><trkpt lat="41.28399411283273" lon="14.622101163335804"><ele>851.0</ele><time>2026-03-22T10:32:09.999Z</time></trkpt><trkpt lat="41.28394706165509" lon="14.622219927913315"><ele>851.0</ele><time>2026-03-22T10:32:11.999Z</time></trkpt><trkpt lat="41.28389893401058" lon="14.62230644539223"><ele>851.0</ele><time>2026-03-22T10:32:13.999Z</time></trkpt><trkpt lat="41.28385259390392" lon="14.622367157842193"><ele>852.3333333333334</ele><time>2026-03-22T10:32:15.999Z</time></trkpt><trkpt lat="41.28378763119003" lon="14.622416507310755"><ele>853.6666666666667</ele><time>2026-03-22T10:32:20.999Z</time></trkpt><trkpt lat="41.283677901792664" lon="14.622460980924616"><ele>855.0</ele><time>2026-03-22T10:32:23.999Z</time></trkpt><trkpt lat="41.28361241679534" lon="14.622480697357318"><ele>856.3333333333333</ele><time>2026-03-22T10:32:24.999Z</time></trkpt><trkpt lat="41.28353999855945" lon="14.62251620101262"><ele>857.6666666666666</ele><time>2026-03-22T10:32:25.999Z</time></trkpt><trkpt lat="41.28346606703772" lon="14.622556049055847"><ele>859.0</ele><time>2026-03-22T10:32:26.999Z</time></trkpt><trkpt lat="41.28339537386637" lon="14.622599017448344"><ele>858.9999999999999</ele><time>2026-03-22T10:32:27.999Z</time></trkpt><trkpt lat="41.28332728545462" lon="14.622644597732119"><ele>859.0</ele><time>2026-03-22T10:32:28.999Z</time></trkpt><trkpt lat="41.28325506249784" lon="14.622697846153958"><ele>859.0</ele><time>2026-03-22T10:32:29.999Z</time></trkpt><trkpt lat="41.2831821703165" lon="14.62275663654634"><ele>859.0</ele><time>2026-03-22T10:32:30.999Z</time></trkpt><trkpt lat="41.28311015373262" lon="14.62281590807318"><ele>858.9999999999999</ele><time>2026-03-22T10:32:31.999Z</time></trkpt><trkpt lat="41.28303782472917" lon="14.622875561435098"><ele>859.0</ele><time>2026-03-22T10:32:32.999Z</time></trkpt><trkpt lat="41.282964704399824" lon="14.622934388261287"><ele>857.8333333333333</ele><time>2026-03-22T10:32:33.999Z</time></trkpt><trkpt lat="41.28288419290449" lon="14.622998594462187"><ele>856.6666666666666</ele><time>2026-03-22T10:32:34.999Z</time></trkpt><trkpt lat="41.28280312422912" lon="14.623059813987675"><ele>855.5</ele><time>2026-03-22T10:32:35.999Z</time></trkpt><trkpt lat="41.28272516121255" lon="14.623103822809961"><ele>854.3333333333333</ele><time>2026-03-22T10:32:36.999Z</time></trkpt><trkpt lat="41.28265473582081" lon="14.623133017464225"><ele>853.1666666666666</ele><time>2026-03-22T10:32:37.999Z</time></trkpt><trkpt lat="41.28257515355531" lon="14.623156235502064"><ele>852.0</ele><time>2026-03-22T10:32:38.999Z</time></trkpt><trkpt lat="41.28250481211932" lon="14.623166874317684"><ele>852.0</ele><time>2026-03-22T10:32:39.999Z</time></trkpt><trkpt lat="41.282381440348985" lon="14.623180358493139"><ele>852.0</ele><time>2026-03-22T10:32:41.999Z</time></trkpt><trkpt lat="41.2822555942179" lon="14.623193773219663"><ele>852.0</ele><time>2026-03-22T10:32:43.999Z</time></trkpt><trkpt lat="41.282184396216145" lon="14.623204297751066"><ele>852.0</ele><time>2026-03-22T10:32:44.999Z</time></trkpt><trkpt lat="41.282105180899016" lon="14.623228235804184"><ele>852.0</ele><time>2026-03-22T10:32:45.999Z</time></trkpt><trkpt lat="41.28202265714214" lon="14.623264126699281"><ele>850.6</ele><time>2026-03-22T10:32:46.999Z</time></trkpt><trkpt lat="41.281928159637545" lon="14.623342374858264"><ele>849.2</ele><time>2026-03-22T10:32:47.999Z</time></trkpt><trkpt lat="41.281838494734124" lon="14.62343448208334"><ele>847.8</ele><time>2026-03-22T10:32:48.999Z</time></trkpt><trkpt lat="41.28175997092999" lon="14.623523168939803"><ele>846.4</ele><time>2026-03-22T10:32:49.999Z</time></trkpt><trkpt lat="41.28168598049316" lon="14.623616661339641"><ele>845.0</ele><time>2026-03-22T10:32:50.999Z</time></trkpt><trkpt lat="41.28161270651641" lon="14.623725320472904"><ele>844.1666666666667</ele><time>2026-03-22T10:32:51.999Z</time></trkpt><trkpt lat="41.28155448663967" lon="14.623818038320152"><ele>843.3333333333334</ele><time>2026-03-22T10:32:52.999Z</time></trkpt><trkpt lat="41.28150476449063" lon="14.623897223145082"><ele>842.5</ele><time>2026-03-22T10:32:53.999Z</time></trkpt><trkpt lat="41.28143914224589" lon="14.623995858538835"><ele>841.6666666666667</ele><time>2026-03-22T10:32:54.999Z</time></trkpt><trkpt lat="41.281383669817274" lon="14.624070454038756"><ele>840.8333333333334</ele><time>2026-03-22T10:32:55.999Z</time></trkpt><trkpt lat="41.28133094037404" lon="14.624136418191416"><ele>840.0</ele><time>2026-03-22T10:32:56.999Z</time></trkpt><trkpt lat="41.28127262125442" lon="14.62420523644681"><ele>838.8333333333334</ele><time>2026-03-22T10:32:57.999Z</time></trkpt><trkpt lat="41.28120599297889" lon="14.624282422428307"><ele>837.6666666666667</ele><time>2026-03-22T10:32:58.998Z</time></trkpt><trkpt lat="41.281136719363545" lon="14.624362048653976"><ele>836.5</ele><time>2026-03-22T10:32:59.998Z</time></trkpt><trkpt lat="41.281072596956555" lon="14.624434460827581"><ele>835.3333333333334</ele><time>2026-03-22T10:33:00.998Z</time></trkpt><trkpt lat="41.28101064065159" lon="14.624504426870368"><ele>834.1666666666667</ele><time>2026-03-22T10:33:01.998Z</time></trkpt><trkpt lat="41.28095106540102" lon="14.624571704047748"><ele>833.0</ele><time>2026-03-22T10:33:02.998Z</time></trkpt><trkpt lat="41.28089323115218" lon="14.624637015049895"><ele>833.0</ele><time>2026-03-22T10:33:03.998Z</time></trkpt><trkpt lat="41.28084363880569" lon="14.624694998597596"><ele>833.0</ele><time>2026-03-22T10:33:04.998Z</time></trkpt><trkpt lat="41.28076886266307" lon="14.62478558625001"><ele>833.0</ele><time>2026-03-22T10:33:06.998Z</time></trkpt><trkpt lat="41.280692370885205" lon="14.624889202899107"><ele>833.0</ele><time>2026-03-22T10:33:08.998Z</time></trkpt><trkpt lat="41.28061985084057" lon="14.624998710919716"><ele>833.0</ele><time>2026-03-22T10:33:10.998Z</time></trkpt><trkpt lat="41.28053979870008" lon="14.625120184140036"><ele>831.5000000000001</ele><time>2026-03-22T10:33:12.998Z</time></trkpt><trkpt lat="41.280495441274134" lon="14.625187485039977"><ele>830.0</ele><time>2026-03-22T10:33:13.998Z</time></trkpt><trkpt lat="41.280446054944676" lon="14.62526408429518"><ele>828.5</ele><time>2026-03-22T10:33:14.998Z</time></trkpt><trkpt lat="41.28039716097287" lon="14.62533991981761"><ele>827.0</ele><time>2026-03-22T10:33:15.998Z</time></trkpt><trkpt lat="41.28034782114074" lon="14.625416446899502"><ele>825.5000000000001</ele><time>2026-03-22T10:33:16.998Z</time></trkpt><trkpt lat="41.280294206414794" lon="14.62550003853572"><ele>824.0</ele><time>2026-03-22T10:33:17.998Z</time></trkpt><trkpt lat="41.28024167063019" lon="14.625582453300146"><ele>824.0000000000001</ele><time>2026-03-22T10:33:18.998Z</time></trkpt><trkpt lat="41.28018688252634" lon="14.625668401314094"><ele>824.0</ele><time>2026-03-22T10:33:19.998Z</time></trkpt><trkpt lat="41.28013324112348" lon="14.625752510623713"><ele>824.0</ele><time>2026-03-22T10:33:20.998Z</time></trkpt><trkpt lat="41.28007623653644" lon="14.625841486149689"><ele>824.0</ele><time>2026-03-22T10:33:21.998Z</time></trkpt><trkpt lat="41.28001888229054" lon="14.625926032577755"><ele>824.0000000000001</ele><time>2026-03-22T10:33:22.998Z</time></trkpt><trkpt lat="41.27996046280253" lon="14.626010615209074"><ele>824.0</ele><time>2026-03-22T10:33:23.998Z</time></trkpt><trkpt lat="41.27990434231669" lon="14.626099465027671"><ele>824.0000000000001</ele><time>2026-03-22T10:33:24.998Z</time></trkpt><trkpt lat="41.279860522788866" lon="14.626202162805784"><ele>824.0</ele><time>2026-03-22T10:33:25.998Z</time></trkpt><trkpt lat="41.279832386639896" lon="14.62630518761208"><ele>824.0</ele><time>2026-03-22T10:33:26.998Z</time></trkpt><trkpt lat="41.27984804439867" lon="14.626442772898116"><ele>824.0</ele><time>2026-03-22T10:33:27.998Z</time></trkpt><trkpt lat="41.27987190588346" lon="14.626557215446734"><ele>824.0000000000001</ele><time>2026-03-22T10:33:28.998Z</time></trkpt><trkpt lat="41.27988450557624" lon="14.626661244041548"><ele>824.0</ele><time>2026-03-22T10:33:29.998Z</time></trkpt><trkpt lat="41.27989632473057" lon="14.626775230501377"><ele>824.0</ele><time>2026-03-22T10:33:30.998Z</time></trkpt><trkpt lat="41.279908585064234" lon="14.62687939621281"><ele>824.0</ele><time>2026-03-22T10:33:32Z</time></trkpt><trkpt lat="41.27990823993749" lon="14.627040009777117"><ele>824.0</ele><time>2026-03-22T10:33:34Z</time></trkpt><trkpt lat="41.27986998819671" lon="14.627175260215319"><ele>824.0</ele><time>2026-03-22T10:33:36Z</time></trkpt><trkpt lat="41.279913847536314" lon="14.627327928552857"><ele>824.0</ele><time>2026-03-22T10:33:38Z</time></trkpt><trkpt lat="41.2798826562454" lon="14.62742534641906"><ele>824.0</ele><time>2026-03-22T10:33:42Z</time></trkpt><trkpt lat="41.27983905584546" lon="14.6275543065069"><ele>824.0</ele><time>2026-03-22T10:33:44Z</time></trkpt><trkpt lat="41.279804682135065" lon="14.627631896023539"><ele>824.0</ele><time>2026-03-22T10:33:45Z</time></trkpt><trkpt lat="41.2796966835253" lon="14.627689759952501"><ele>824.0</ele><time>2026-03-22T10:33:46Z</time></trkpt><trkpt lat="41.279658236132434" lon="14.627814553055993"><ele>824.0</ele><time>2026-03-22T10:33:47Z</time></trkpt><trkpt lat="41.279624060023544" lon="14.627937348947409"><ele>823.2</ele><time>2026-03-22T10:33:48Z</time></trkpt><trkpt lat="41.279597056027434" lon="14.628059931690947"><ele>822.4000000000001</ele><time>2026-03-22T10:33:49Z</time></trkpt><trkpt lat="41.27957193337917" lon="14.628180447435435"><ele>821.6</ele><time>2026-03-22T10:33:49.999Z</time></trkpt><trkpt lat="41.279547833266285" lon="14.628297112963748"><ele>820.8</ele><time>2026-03-22T10:33:50.999Z</time></trkpt><trkpt lat="41.27951715009735" lon="14.628420813701691"><ele>820.0</ele><time>2026-03-22T10:33:51.999Z</time></trkpt><trkpt lat="41.27948333167788" lon="14.628528784121421"><ele>819.9999999999999</ele><time>2026-03-22T10:33:52.999Z</time></trkpt><trkpt lat="41.2794430542561" lon="14.628624015965855"><ele>820.0</ele><time>2026-03-22T10:33:53.999Z</time></trkpt><trkpt lat="41.27939194045691" lon="14.628722075587277"><ele>820.0</ele><time>2026-03-22T10:33:54.999Z</time></trkpt><trkpt lat="41.27934401594698" lon="14.62881250415286"><ele>820.0</ele><time>2026-03-22T10:33:55.999Z</time></trkpt><trkpt lat="41.279297291541376" lon="14.628895945252678"><ele>819.9999999999999</ele><time>2026-03-22T10:33:56.999Z</time></trkpt><trkpt lat="41.27924216451249" lon="14.628991269973415"><ele>820.0</ele><time>2026-03-22T10:33:57.999Z</time></trkpt><trkpt lat="41.279189366090684" lon="14.629082568001163"><ele>820.0</ele><time>2026-03-22T10:33:58.999Z</time></trkpt><trkpt lat="41.2791367627961" lon="14.629180544384488"><ele>820.0</ele><time>2026-03-22T10:33:59.999Z</time></trkpt><trkpt lat="41.27908853665761" lon="14.629277853807801"><ele>820.0</ele><time>2026-03-22T10:34:00.999Z</time></trkpt><trkpt lat="41.27903982560296" lon="14.629385838656148"><ele>820.0</ele><time>2026-03-22T10:34:01.999Z</time></trkpt><trkpt lat="41.27900219683321" lon="14.629504412496615"><ele>820.0</ele><time>2026-03-22T10:34:02.999Z</time></trkpt><trkpt lat="41.27899820778006" lon="14.629660996647775"><ele>819.6</ele><time>2026-03-22T10:34:03.999Z</time></trkpt><trkpt lat="41.27902949107642" lon="14.629814387416513"><ele>819.2</ele><time>2026-03-22T10:34:04.999Z</time></trkpt><trkpt lat="41.27906014614617" lon="14.62993949447935"><ele>818.8</ele><time>2026-03-22T10:34:05.999Z</time></trkpt><trkpt lat="41.27911997359712" lon="14.630063558254928"><ele>818.4</ele><time>2026-03-22T10:34:06.999Z</time></trkpt><trkpt lat="41.27915162865172" lon="14.630208867461677"><ele>818.0</ele><time>2026-03-22T10:34:07.999Z</time></trkpt><trkpt lat="41.279197291411535" lon="14.63032399023759"><ele>817.4</ele><time>2026-03-22T10:34:08.999Z</time></trkpt><trkpt lat="41.279237868513945" lon="14.630420089860808"><ele>816.8</ele><time>2026-03-22T10:34:09.999Z</time></trkpt><trkpt lat="41.27928027298493" lon="14.630499126846246"><ele>816.2</ele><time>2026-03-22T10:34:10.999Z</time></trkpt><trkpt lat="41.2792800317413" lon="14.630588535517264"><ele>815.6</ele><time>2026-03-22T10:34:11.999Z</time></trkpt><trkpt lat="41.27928647760938" lon="14.630742346620446"><ele>815.0</ele><time>2026-03-22T10:34:13.999Z</time></trkpt><trkpt lat="41.27923747543265" lon="14.630908374499622"><ele>815.0</ele><time>2026-03-22T10:34:15.999Z</time></trkpt><trkpt lat="41.279198591263786" lon="14.631009396300357"><ele>815.0</ele><time>2026-03-22T10:34:16.999Z</time></trkpt><trkpt lat="41.27915566642856" lon="14.631126640976973"><ele>815.0</ele><time>2026-03-22T10:34:17.999Z</time></trkpt><trkpt lat="41.27910619258596" lon="14.631258368660387"><ele>815.0</ele><time>2026-03-22T10:34:18.999Z</time></trkpt><trkpt lat="41.27905327888282" lon="14.631402267515998"><ele>815.0</ele><time>2026-03-22T10:34:19.999Z</time></trkpt><trkpt lat="41.27899997445321" lon="14.631554036927962"><ele>814.5</ele><time>2026-03-22T10:34:20.999Z</time></trkpt><trkpt lat="41.27894981026355" lon="14.63169922642554"><ele>814.0</ele><time>2026-03-22T10:34:21.999Z</time></trkpt><trkpt lat="41.2789037805138" lon="14.631843647639505"><ele>813.5</ele><time>2026-03-22T10:34:22.999Z</time></trkpt><trkpt lat="41.278862142462266" lon="14.631995912106452"><ele>813.0</ele><time>2026-03-22T10:34:23.999Z</time></trkpt><trkpt lat="41.27883245721412" lon="14.632156661718861"><ele>813.0</ele><time>2026-03-22T10:34:24.999Z</time></trkpt><trkpt lat="41.278812522324756" lon="14.63232082487788"><ele>813.0</ele><time>2026-03-22T10:34:25.999Z</time></trkpt><trkpt lat="41.27879533726799" lon="14.632490064973801"><ele>813.0</ele><time>2026-03-22T10:34:26.999Z</time></trkpt><trkpt lat="41.278779773908845" lon="14.632643334467277"><ele>813.0</ele><time>2026-03-22T10:34:27.999Z</time></trkpt><trkpt lat="41.27876476367156" lon="14.63280077487288"><ele>812.0</ele><time>2026-03-22T10:34:28.999Z</time></trkpt><trkpt lat="41.27875569371712" lon="14.632976284651917"><ele>811.0</ele><time>2026-03-22T10:34:29.999Z</time></trkpt><trkpt lat="41.278759636925344" lon="14.633141442102536"><ele>810.0</ele><time>2026-03-22T10:34:30.999Z</time></trkpt><trkpt lat="41.27877955785748" lon="14.633304663485326"><ele>809.0</ele><time>2026-03-22T10:34:31.999Z</time></trkpt><trkpt lat="41.27880500545572" lon="14.633471239599057"><ele>809.0</ele><time>2026-03-22T10:34:32.999Z</time></trkpt><trkpt lat="41.27883513973504" lon="14.633637296024053"><ele>809.0</ele><time>2026-03-22T10:34:33.999Z</time></trkpt><trkpt lat="41.278867917629775" lon="14.633799690504738"><ele>809.0</ele><time>2026-03-22T10:34:34.999Z</time></trkpt><trkpt lat="41.278903817198334" lon="14.633942050630173"><ele>809.0</ele><time>2026-03-22T10:34:35.999Z</time></trkpt><trkpt lat="41.27894645273135" lon="14.634060508989363"><ele>805.8000000000001</ele><time>2026-03-22T10:34:36.999Z</time></trkpt><trkpt lat="41.27901174995839" lon="14.634173270936026"><ele>802.6</ele><time>2026-03-22T10:34:37.999Z</time></trkpt><trkpt lat="41.279089554383916" lon="14.634286102592032"><ele>799.4</ele><time>2026-03-22T10:34:38.999Z</time></trkpt><trkpt lat="41.27915845194724" lon="14.634395972434756"><ele>796.2</ele><time>2026-03-22T10:34:39.999Z</time></trkpt><trkpt lat="41.27920725731195" lon="14.634503012780582"><ele>793.0</ele><time>2026-03-22T10:34:40.999Z</time></trkpt><trkpt lat="41.279241102071694" lon="14.634615443644071"><ele>791.1666666666666</ele><time>2026-03-22T10:34:41.999Z</time></trkpt><trkpt lat="41.27926569787686" lon="14.634732330073229"><ele>789.3333333333333</ele><time>2026-03-22T10:34:42.999Z</time></trkpt><trkpt lat="41.279286377599895" lon="14.634841732518305"><ele>787.5</ele><time>2026-03-22T10:34:43.999Z</time></trkpt><trkpt lat="41.27930327119321" lon="14.634946053610587"><ele>785.6666666666667</ele><time>2026-03-22T10:34:44.999Z</time></trkpt><trkpt lat="41.279318724216935" lon="14.635055447037162"><ele>783.8333333333334</ele><time>2026-03-22T10:34:45.999Z</time></trkpt><trkpt lat="41.27933258192626" lon="14.635168888369565"><ele>782.0</ele><time>2026-03-22T10:34:46.999Z</time></trkpt><trkpt lat="41.27934608072433" lon="14.635286789688498"><ele>778.2</ele><time>2026-03-22T10:34:47.999Z</time></trkpt><trkpt lat="41.279355133721786" lon="14.635407297194268"><ele>774.4000000000001</ele><time>2026-03-22T10:34:48.999Z</time></trkpt><trkpt lat="41.279364728469986" lon="14.635527070934437"><ele>770.5999999999999</ele><time>2026-03-22T10:34:49.999Z</time></trkpt><trkpt lat="41.279382010619244" lon="14.635646987638932"><ele>766.8</ele><time>2026-03-22T10:34:50.999Z</time></trkpt><trkpt lat="41.27941214282506" lon="14.635766140968265"><ele>763.0</ele><time>2026-03-22T10:34:51.999Z</time></trkpt><trkpt lat="41.27945022015077" lon="14.63588096075722"><ele>763.0</ele><time>2026-03-22T10:34:52.999Z</time></trkpt><trkpt lat="41.27950224694303" lon="14.635993507348289"><ele>763.0</ele><time>2026-03-22T10:34:53.999Z</time></trkpt><trkpt lat="41.27957592162469" lon="14.636081098515746"><ele>763.0</ele><time>2026-03-22T10:34:54.999Z</time></trkpt><trkpt lat="41.27964849478976" lon="14.636170996690117"><ele>763.0</ele><time>2026-03-22T10:34:55.999Z</time></trkpt><trkpt lat="41.27972392463798" lon="14.636249523121586"><ele>763.0</ele><time>2026-03-22T10:34:56.999Z</time></trkpt><trkpt lat="41.279781934049055" lon="14.636348543146937"><ele>761.8</ele><time>2026-03-22T10:34:57.999Z</time></trkpt><trkpt lat="41.2798337339525" lon="14.636445959874495"><ele>760.5999999999999</ele><time>2026-03-22T10:34:58.999Z</time></trkpt><trkpt lat="41.2798501743211" lon="14.63656486520797"><ele>759.4000000000001</ele><time>2026-03-22T10:34:59.999Z</time></trkpt><trkpt lat="41.27984925644153" lon="14.63671743043022"><ele>758.2</ele><time>2026-03-22T10:35:00.999Z</time></trkpt><trkpt lat="41.27987049497093" lon="14.636861354977516"><ele>757.0</ele><time>2026-03-22T10:35:01.999Z</time></trkpt><trkpt lat="41.279910105217894" lon="14.63698074083844"><ele>754.2</ele><time>2026-03-22T10:35:02.999Z</time></trkpt><trkpt lat="41.27996581774395" lon="14.63709142094889"><ele>751.4000000000001</ele><time>2026-03-22T10:35:03.999Z</time></trkpt><trkpt lat="41.28002261332639" lon="14.63720992130987"><ele>748.5999999999999</ele><time>2026-03-22T10:35:04.999Z</time></trkpt><trkpt lat="41.28006236388749" lon="14.63732401452506"><ele>745.8</ele><time>2026-03-22T10:35:05.999Z</time></trkpt><trkpt lat="41.28008422362127" lon="14.637440771834322"><ele>743.0</ele><time>2026-03-22T10:35:06.999Z</time></trkpt><trkpt lat="41.28010436710128" lon="14.637574830661306"><ele>743.0</ele><time>2026-03-22T10:35:07.999Z</time></trkpt><trkpt lat="41.28012778505139" lon="14.637703924246434"><ele>743.0</ele><time>2026-03-22T10:35:08.998Z</time></trkpt><trkpt lat="41.28015920047776" lon="14.637828384166932"><ele>743.0</ele><time>2026-03-22T10:35:09.998Z</time></trkpt><trkpt lat="41.28020447559163" lon="14.637940241386062"><ele>743.0</ele><time>2026-03-22T10:35:10.998Z</time></trkpt><trkpt lat="41.28026044317503" lon="14.638035247743995"><ele>743.0</ele><time>2026-03-22T10:35:11.998Z</time></trkpt><trkpt lat="41.28029701497629" lon="14.638143423416205"><ele>741.3333333333333</ele><time>2026-03-22T10:35:12.998Z</time></trkpt><trkpt lat="41.280343596198975" lon="14.638246466791738"><ele>739.6666666666666</ele><time>2026-03-22T10:35:13.998Z</time></trkpt><trkpt lat="41.280375023912846" lon="14.638357956470571"><ele>738.0</ele><time>2026-03-22T10:35:14.998Z</time></trkpt><trkpt lat="41.280392353598636" lon="14.638464645477885"><ele>736.3333333333334</ele><time>2026-03-22T10:35:15.998Z</time></trkpt><trkpt lat="41.28039395953309" lon="14.638556016972274"><ele>734.6666666666667</ele><time>2026-03-22T10:35:16.998Z</time></trkpt><trkpt lat="41.28039736130629" lon="14.638668901278715"><ele>733.0</ele><time>2026-03-22T10:35:17.998Z</time></trkpt><trkpt lat="41.28040014405625" lon="14.638803309899995"><ele>730.25</ele><time>2026-03-22T10:35:18.998Z</time></trkpt><trkpt lat="41.28040038010706" lon="14.63894956385673"><ele>727.5</ele><time>2026-03-22T10:35:19.998Z</time></trkpt><trkpt lat="41.28040605316926" lon="14.639103028819656"><ele>724.75</ele><time>2026-03-22T10:35:20.998Z</time></trkpt><trkpt lat="41.280407569671674" lon="14.63929189752302"><ele>722.0</ele><time>2026-03-22T10:35:21.998Z</time></trkpt><trkpt lat="41.28038227606443" lon="14.639468662514018"><ele>720.75</ele><time>2026-03-22T10:35:22.998Z</time></trkpt><trkpt lat="41.28034591197873" lon="14.639628276060979"><ele>719.5</ele><time>2026-03-22T10:35:23.998Z</time></trkpt><trkpt lat="41.28031747182635" lon="14.639776472129924"><ele>718.25</ele><time>2026-03-22T10:35:24.998Z</time></trkpt><trkpt lat="41.28029771576986" lon="14.639917352356358"><ele>717.0</ele><time>2026-03-22T10:35:25.998Z</time></trkpt><trkpt lat="41.28028307878082" lon="14.640060989766091"><ele>717.0</ele><time>2026-03-22T10:35:26.998Z</time></trkpt><trkpt lat="41.28028369180193" lon="14.640202510234506"><ele>717.0</ele><time>2026-03-22T10:35:27.998Z</time></trkpt><trkpt lat="41.280303122144346" lon="14.640333529871429"><ele>717.0</ele><time>2026-03-22T10:35:28.998Z</time></trkpt><trkpt lat="41.28035537953609" lon="14.640463906085014"><ele>717.0</ele><time>2026-03-22T10:35:29.998Z</time></trkpt><trkpt lat="41.28037973944013" lon="14.640585011253826"><ele>717.0</ele><time>2026-03-22T10:35:30.998Z</time></trkpt><trkpt lat="41.280369316560844" lon="14.640699499144942"><ele>715.6</ele><time>2026-03-22T10:35:31.998Z</time></trkpt><trkpt lat="41.280336636244755" lon="14.640840951860733"><ele>714.2</ele><time>2026-03-22T10:35:32.998Z</time></trkpt><trkpt lat="41.28030275706583" lon="14.640965780449566"><ele>712.8</ele><time>2026-03-22T10:35:33.998Z</time></trkpt><trkpt lat="41.28027330386551" lon="14.641049834492627"><ele>711.4</ele><time>2026-03-22T10:35:34.998Z</time></trkpt><trkpt lat="41.28022624149211" lon="14.641180366986982"><ele>710.0</ele><time>2026-03-22T10:35:36.998Z</time></trkpt><trkpt lat="41.280190345656656" lon="14.641274862645814"><ele>709.2</ele><time>2026-03-22T10:35:38Z</time></trkpt><trkpt lat="41.280149390522716" lon="14.641382676991892"><ele>708.4</ele><time>2026-03-22T10:35:39Z</time></trkpt><trkpt lat="41.28011862645541" lon="14.641457041650845"><ele>707.5999999999999</ele><time>2026-03-22T10:35:40Z</time></trkpt><trkpt lat="41.280043475554706" lon="14.641617927742862"><ele>706.8</ele><time>2026-03-22T10:35:42Z</time></trkpt><trkpt lat="41.28000874519054" lon="14.641705426241158"><ele>706.0</ele><time>2026-03-22T10:35:43Z</time></trkpt><trkpt lat="41.27999182799363" lon="14.641835016484427"><ele>706.0</ele><time>2026-03-22T10:35:44Z</time></trkpt><trkpt lat="41.27999587109092" lon="14.641952468552946"><ele>706.0</ele><time>2026-03-22T10:35:45Z</time></trkpt><trkpt lat="41.280002547514506" lon="14.642055242147842"><ele>706.0</ele><time>2026-03-22T10:35:46Z</time></trkpt><trkpt lat="41.28000982548956" lon="14.642155231764185"><ele>706.0</ele><time>2026-03-22T10:35:47Z</time></trkpt><trkpt lat="41.28002610454746" lon="14.642255187272388"><ele>706.0</ele><time>2026-03-22T10:35:48Z</time></trkpt><trkpt lat="41.28005527565183" lon="14.642350863753961"><ele>706.0</ele><time>2026-03-22T10:35:49Z</time></trkpt><trkpt lat="41.28011090916182" lon="14.642430602561664"><ele>705.3333333333334</ele><time>2026-03-22T10:35:50Z</time></trkpt><trkpt lat="41.2802157532412" lon="14.642444528094563"><ele>704.6666666666667</ele><time>2026-03-22T10:35:51Z</time></trkpt><trkpt lat="41.28029611453155" lon="14.642460404052358"><ele>704.0</ele><time>2026-03-22T10:35:52Z</time></trkpt><trkpt lat="41.28037168863149" lon="14.642456103810423"><ele>703.3333333333334</ele><time>2026-03-22T10:35:53Z</time></trkpt><trkpt lat="41.280440234977746" lon="14.642455933972773"><ele>702.6666666666666</ele><time>2026-03-22T10:35:54Z</time></trkpt><trkpt lat="41.280548867732904" lon="14.642470524676359"><ele>702.0</ele><time>2026-03-22T10:35:56Z</time></trkpt><trkpt lat="41.280626021128846" lon="14.64249008679952"><ele>703.1666666666666</ele><time>2026-03-22T10:35:58Z</time></trkpt><trkpt lat="41.28069697404304" lon="14.642508195394024"><ele>704.3333333333334</ele><time>2026-03-22T10:36:04.999Z</time></trkpt><trkpt lat="41.28079594808481" lon="14.642542185359858"><ele>705.5</ele><time>2026-03-22T10:36:06.999Z</time></trkpt><trkpt lat="41.28085499764209" lon="14.642600780594005"><ele>706.6666666666667</ele><time>2026-03-22T10:36:07.999Z</time></trkpt><trkpt lat="41.28091777741191" lon="14.64265868176907"><ele>707.8333333333334</ele><time>2026-03-22T10:36:08.999Z</time></trkpt><trkpt lat="41.280962858018206" lon="14.642749721064614"><ele>709.0</ele><time>2026-03-22T10:36:09.999Z</time></trkpt><trkpt lat="41.2810134787967" lon="14.6428331377157"><ele>709.0</ele><time>2026-03-22T10:36:10.999Z</time></trkpt><trkpt lat="41.28105852905477" lon="14.64291660966886"><ele>709.0</ele><time>2026-03-22T10:36:11.999Z</time></trkpt><trkpt lat="41.28096284411605" lon="14.643052149345547"><ele>709.0</ele><time>2026-03-22T10:36:12.999Z</time></trkpt><trkpt lat="41.280950775267925" lon="14.643152269896325"><ele>709.0</ele><time>2026-03-22T10:36:13.999Z</time></trkpt><trkpt lat="41.28092650362375" lon="14.643247537153549"><ele>709.0</ele><time>2026-03-22T10:36:14.999Z</time></trkpt><trkpt lat="41.28088514227456" lon="14.643352234547566"><ele>709.0</ele><time>2026-03-22T10:36:15.999Z</time></trkpt><trkpt lat="41.28082927531886" lon="14.643441860471205"><ele>709.0</ele><time>2026-03-22T10:36:16.999Z</time></trkpt><trkpt lat="41.28076188069874" lon="14.643546025573501"><ele>709.0</ele><time>2026-03-22T10:36:17.999Z</time></trkpt><trkpt lat="41.28069213424691" lon="14.643636076823281"><ele>709.0</ele><time>2026-03-22T10:36:18.999Z</time></trkpt><trkpt lat="41.28061927052214" lon="14.643727984916701"><ele>709.0</ele><time>2026-03-22T10:36:19.999Z</time></trkpt><trkpt lat="41.28054839720735" lon="14.643835728271494"><ele>706.6</ele><time>2026-03-22T10:36:20.999Z</time></trkpt><trkpt lat="41.280490033120785" lon="14.643967985300176"><ele>704.2</ele><time>2026-03-22T10:36:21.999Z</time></trkpt><trkpt lat="41.28044498875183" lon="14.64409833211225"><ele>701.8000000000001</ele><time>2026-03-22T10:36:22.999Z</time></trkpt><trkpt lat="41.28039830483132" lon="14.644228396640994"><ele>699.4000000000001</ele><time>2026-03-22T10:36:23.999Z</time></trkpt><trkpt lat="41.28035349243474" lon="14.64434925454452"><ele>697.0</ele><time>2026-03-22T10:36:24.999Z</time></trkpt><trkpt lat="41.28031523303239" lon="14.644479776764381"><ele>697.0</ele><time>2026-03-22T10:36:25.999Z</time></trkpt><trkpt lat="41.280298774944185" lon="14.644630231811975"><ele>697.0</ele><time>2026-03-22T10:36:26.999Z</time></trkpt><trkpt lat="41.28030320411706" lon="14.644776047214469"><ele>697.0</ele><time>2026-03-22T10:36:27.999Z</time></trkpt><trkpt lat="41.280301224116634" lon="14.64489706319608"><ele>697.0</ele><time>2026-03-22T10:36:28.999Z</time></trkpt><trkpt lat="41.280291201318164" lon="14.645014260641005"><ele>697.0</ele><time>2026-03-22T10:36:29.999Z</time></trkpt><trkpt lat="41.280276324512826" lon="14.64513041044397"><ele>697.0</ele><time>2026-03-22T10:36:30.999Z</time></trkpt><trkpt lat="41.280254804705486" lon="14.645256800255043"><ele>697.0</ele><time>2026-03-22T10:36:31.999Z</time></trkpt><trkpt lat="41.28022406631424" lon="14.6453763354897"><ele>697.0</ele><time>2026-03-22T10:36:32.999Z</time></trkpt><trkpt lat="41.28020027630127" lon="14.645491686496207"><ele>697.0</ele><time>2026-03-22T10:36:33.999Z</time></trkpt><trkpt lat="41.280192951439524" lon="14.64561495684194"><ele>697.0</ele><time>2026-03-22T10:36:34.999Z</time></trkpt><trkpt lat="41.280190480714055" lon="14.645725149789364"><ele>696.6666666666667</ele><time>2026-03-22T10:36:35.999Z</time></trkpt><trkpt lat="41.28022035332211" lon="14.645842173433094"><ele>696.3333333333334</ele><time>2026-03-22T10:36:36.999Z</time></trkpt><trkpt lat="41.28026780584032" lon="14.64595143140047"><ele>696.0</ele><time>2026-03-22T10:36:37.999Z</time></trkpt><trkpt lat="41.280335979904095" lon="14.64603775061235"><ele>695.6666666666666</ele><time>2026-03-22T10:36:38.999Z</time></trkpt><trkpt lat="41.280400486732134" lon="14.646111901268922"><ele>695.3333333333333</ele><time>2026-03-22T10:36:39.999Z</time></trkpt><trkpt lat="41.28045462026721" lon="14.646183363667149"><ele>695.0</ele><time>2026-03-22T10:36:40.999Z</time></trkpt><trkpt lat="41.28050373135104" lon="14.646261177755935"><ele>692.6666666666666</ele><time>2026-03-22T10:36:41.999Z</time></trkpt><trkpt lat="41.28054322864307" lon="14.64634576473979"><ele>690.3333333333333</ele><time>2026-03-22T10:36:42.999Z</time></trkpt><trkpt lat="41.28054131075584" lon="14.646448003485013"><ele>688.0</ele><time>2026-03-22T10:36:43.999Z</time></trkpt><trkpt lat="41.28053206688808" lon="14.646541603404938"><ele>685.6666666666666</ele><time>2026-03-22T10:36:44.999Z</time></trkpt><trkpt lat="41.280516349498484" lon="14.646642952641812"><ele>683.3333333333334</ele><time>2026-03-22T10:36:45.999Z</time></trkpt><trkpt lat="41.28051130338833" lon="14.646781229400375"><ele>681.0</ele><time>2026-03-22T10:36:46.999Z</time></trkpt><trkpt lat="41.28051897470039" lon="14.646911120971323"><ele>679.8</ele><time>2026-03-22T10:36:47.999Z</time></trkpt><trkpt lat="41.28053369730428" lon="14.647040103027182"><ele>678.5999999999999</ele><time>2026-03-22T10:36:48.999Z</time></trkpt><trkpt lat="41.28054097492914" lon="14.64715772747252"><ele>677.4</ele><time>2026-03-22T10:36:49.999Z</time></trkpt><trkpt lat="41.28054359087318" lon="14.647254300915344"><ele>676.2</ele><time>2026-03-22T10:36:50.999Z</time></trkpt><trkpt lat="41.280503699104976" lon="14.647373278024881"><ele>675.0</ele><time>2026-03-22T10:36:52.999Z</time></trkpt><trkpt lat="41.280385022524904" lon="14.64738283071073"><ele>675.0</ele><time>2026-03-22T10:36:54.999Z</time></trkpt><trkpt lat="41.280309835119475" lon="14.64738291390987"><ele>675.0</ele><time>2026-03-22T10:36:55.999Z</time></trkpt><trkpt lat="41.28022175671743" lon="14.64737152549867"><ele>675.0</ele><time>2026-03-22T10:36:56.999Z</time></trkpt><trkpt lat="41.28011488599562" lon="14.64737125214489"><ele>675.0</ele><time>2026-03-22T10:36:57.999Z</time></trkpt><trkpt lat="41.28000083077872" lon="14.647393471398914"><ele>675.0</ele><time>2026-03-22T10:36:58.999Z</time></trkpt><trkpt lat="41.27988524152796" lon="14.64741955779845"><ele>675.0</ele><time>2026-03-22T10:36:59.999Z</time></trkpt><trkpt lat="41.27976909035039" lon="14.64744577101405"><ele>675.0</ele><time>2026-03-22T10:37:00.999Z</time></trkpt><trkpt lat="41.27962668410804" lon="14.64747910573747"><ele>675.0</ele><time>2026-03-22T10:37:01.999Z</time></trkpt><trkpt lat="41.27948633146697" lon="14.647521469065508"><ele>675.0</ele><time>2026-03-22T10:37:02.999Z</time></trkpt><trkpt lat="41.279361299877664" lon="14.647578057564571"><ele>670.75</ele><time>2026-03-22T10:37:03.999Z</time></trkpt><trkpt lat="41.279247954092845" lon="14.647635175205549"><ele>666.5</ele><time>2026-03-22T10:37:04.999Z</time></trkpt><trkpt lat="41.27913636354385" lon="14.647690139180153"><ele>662.25</ele><time>2026-03-22T10:37:05.999Z</time></trkpt><trkpt lat="41.2790215403191" lon="14.647740064512051"><ele>658.0</ele><time>2026-03-22T10:37:06.999Z</time></trkpt><trkpt lat="41.27890112333477" lon="14.647790914147008"><ele>653.5</ele><time>2026-03-22T10:37:07.999Z</time></trkpt><trkpt lat="41.27877862693807" lon="14.647843531943035"><ele>649.0</ele><time>2026-03-22T10:37:08.999Z</time></trkpt><trkpt lat="41.278655095097356" lon="14.647905434359643"><ele>644.5</ele><time>2026-03-22T10:37:09.999Z</time></trkpt><trkpt lat="41.27854075978765" lon="14.647974821185583"><ele>640.0</ele><time>2026-03-22T10:37:10.999Z</time></trkpt><trkpt lat="41.27844005572352" lon="14.648024178426294"><ele>640.0</ele><time>2026-03-22T10:37:11.999Z</time></trkpt><trkpt lat="41.27834199712991" lon="14.648031884649253"><ele>640.0</ele><time>2026-03-22T10:37:12.999Z</time></trkpt><trkpt lat="41.278222191701516" lon="14.648029828196782"><ele>640.0</ele><time>2026-03-22T10:37:13.999Z</time></trkpt><trkpt lat="41.27810133906285" lon="14.648022938723564"><ele>640.0</ele><time>2026-03-22T10:37:14.999Z</time></trkpt><trkpt lat="41.277984739532705" lon="14.648014776755605"><ele>637.0</ele><time>2026-03-22T10:37:15.999Z</time></trkpt><trkpt lat="41.27786820572301" lon="14.648011220747577"><ele>634.0</ele><time>2026-03-22T10:37:16.999Z</time></trkpt><trkpt lat="41.277748179276315" lon="14.64802240024713"><ele>631.0</ele><time>2026-03-22T10:37:17.999Z</time></trkpt><trkpt lat="41.27762728950053" lon="14.64804149810044"><ele>628.0</ele><time>2026-03-22T10:37:18.999Z</time></trkpt><trkpt lat="41.27752046907398" lon="14.648056581125399"><ele>628.0</ele><time>2026-03-22T10:37:19.999Z</time></trkpt><trkpt lat="41.277433998000916" lon="14.648065045188424"><ele>628.0</ele><time>2026-03-22T10:37:20.998Z</time></trkpt><trkpt lat="41.277346671182514" lon="14.648065971291722"><ele>628.0</ele><time>2026-03-22T10:37:21.998Z</time></trkpt><trkpt lat="41.277264200872175" lon="14.648026920601321"><ele>628.0</ele><time>2026-03-22T10:37:22.998Z</time></trkpt><trkpt lat="41.2771696743851" lon="14.647955022972225"><ele>628.0</ele><time>2026-03-22T10:37:23.998Z</time></trkpt><trkpt lat="41.2770998267515" lon="14.647870395808082"><ele>623.75</ele><time>2026-03-22T10:37:24.998Z</time></trkpt><trkpt lat="41.277004819442865" lon="14.64781560981058"><ele>619.5</ele><time>2026-03-22T10:37:25.998Z</time></trkpt><trkpt lat="41.27687506250736" lon="14.647795320670223"><ele>615.25</ele><time>2026-03-22T10:37:26.998Z</time></trkpt><trkpt lat="41.27673002996445" lon="14.647863620795254"><ele>611.0</ele><time>2026-03-22T10:37:27.998Z</time></trkpt><trkpt lat="41.27661256375147" lon="14.647981725221761"><ele>611.0</ele><time>2026-03-22T10:37:28.998Z</time></trkpt><trkpt lat="41.27651485836158" lon="14.648090931470966"><ele>611.0</ele><time>2026-03-22T10:37:29.998Z</time></trkpt><trkpt lat="41.27642701431688" lon="14.64817962762193"><ele>611.0</ele><time>2026-03-22T10:37:30.998Z</time></trkpt><trkpt lat="41.276319787372785" lon="14.648272761733212"><ele>611.0</ele><time>2026-03-22T10:37:31.998Z</time></trkpt><trkpt lat="41.27622224654893" lon="14.648351067055223"><ele>608.0</ele><time>2026-03-22T10:37:32.998Z</time></trkpt><trkpt lat="41.27612780071726" lon="14.64842553307505"><ele>605.0</ele><time>2026-03-22T10:37:33.998Z</time></trkpt><trkpt lat="41.27602946502853" lon="14.648507320750843"><ele>602.0</ele><time>2026-03-22T10:37:34.998Z</time></trkpt><trkpt lat="41.27593424826901" lon="14.648588940703885"><ele>599.0</ele><time>2026-03-22T10:37:35.998Z</time></trkpt><trkpt lat="41.275833105940045" lon="14.648676264632135"><ele>598.25</ele><time>2026-03-22T10:37:36.998Z</time></trkpt><trkpt lat="41.27573083793721" lon="14.648770997736975"><ele>597.5</ele><time>2026-03-22T10:37:37.998Z</time></trkpt><trkpt lat="41.27562142368779" lon="14.64886470089074"><ele>596.75</ele><time>2026-03-22T10:37:38.998Z</time></trkpt><trkpt lat="41.27549871168561" lon="14.64894801964166"><ele>596.0</ele><time>2026-03-22T10:37:39.998Z</time></trkpt><trkpt lat="41.2753679919831" lon="14.649024788613348"><ele>593.0</ele><time>2026-03-22T10:37:40.998Z</time></trkpt><trkpt lat="41.275227008182924" lon="14.649104002905629"><ele>590.0</ele><time>2026-03-22T10:37:41.998Z</time></trkpt><trkpt lat="41.27509818173915" lon="14.649172497578556"><ele>587.0</ele><time>2026-03-22T10:37:42.998Z</time></trkpt><trkpt lat="41.27497984818544" lon="14.649236537347774"><ele>584.0</ele><time>2026-03-22T10:37:44Z</time></trkpt><trkpt lat="41.27486769601631" lon="14.649305899640966"><ele>580.0</ele><time>2026-03-22T10:37:45Z</time></trkpt><trkpt lat="41.27475913490513" lon="14.649399724877188"><ele>576.0</ele><time>2026-03-22T10:37:46Z</time></trkpt><trkpt lat="41.27467483401586" lon="14.649496115282851"><ele>572.0</ele><time>2026-03-22T10:37:47Z</time></trkpt><trkpt lat="41.274597165299056" lon="14.649588218544737"><ele>568.0</ele><time>2026-03-22T10:37:48Z</time></trkpt><trkpt lat="41.27451706632216" lon="14.649683265870477"><ele>568.0</ele><time>2026-03-22T10:37:49Z</time></trkpt><trkpt lat="41.27443772709977" lon="14.649770540991607"><ele>568.0</ele><time>2026-03-22T10:37:50Z</time></trkpt><trkpt lat="41.2743508268976" lon="14.64985481534665"><ele>568.0</ele><time>2026-03-22T10:37:51Z</time></trkpt><trkpt lat="41.27424730502513" lon="14.649933545546546"><ele>568.0</ele><time>2026-03-22T10:37:52Z</time></trkpt><trkpt lat="41.274127359473326" lon="14.650007657052168"><ele>568.0</ele><time>2026-03-22T10:37:53Z</time></trkpt><trkpt lat="41.274004488517654" lon="14.650082877699035"><ele>568.0</ele><time>2026-03-22T10:37:54Z</time></trkpt><trkpt lat="41.27388193930078" lon="14.650154760535791"><ele>568.0</ele><time>2026-03-22T10:37:55Z</time></trkpt><trkpt lat="41.27376773682256" lon="14.650221747343904"><ele>568.0</ele><time>2026-03-22T10:37:56Z</time></trkpt><trkpt lat="41.273664583989834" lon="14.650286028805535"><ele>562.75</ele><time>2026-03-22T10:37:57Z</time></trkpt><trkpt lat="41.27355705482001" lon="14.650362271801587"><ele>557.5</ele><time>2026-03-22T10:37:58Z</time></trkpt><trkpt lat="41.27345118543984" lon="14.650458421452008"><ele>552.25</ele><time>2026-03-22T10:37:59Z</time></trkpt><trkpt lat="41.27335305675556" lon="14.65056787818125"><ele>547.0</ele><time>2026-03-22T10:38:00Z</time></trkpt><trkpt lat="41.273256589128614" lon="14.650682242594595"><ele>547.0</ele><time>2026-03-22T10:38:01Z</time></trkpt><trkpt lat="41.273151630381825" lon="14.650802479381163"><ele>547.0</ele><time>2026-03-22T10:38:02Z</time></trkpt><trkpt lat="41.273038507417915" lon="14.65092176336819"><ele>547.0</ele><time>2026-03-22T10:38:03Z</time></trkpt><trkpt lat="41.27292265320815" lon="14.651043571503319"><ele>547.0</ele><time>2026-03-22T10:38:04Z</time></trkpt><trkpt lat="41.2728217373294" lon="14.651155454076719"><ele>543.0</ele><time>2026-03-22T10:38:05Z</time></trkpt><trkpt lat="41.27273070123784" lon="14.651259188379981"><ele>539.0</ele><time>2026-03-22T10:38:06Z</time></trkpt><trkpt lat="41.27264558409449" lon="14.651364730561847"><ele>535.0</ele><time>2026-03-22T10:38:07Z</time></trkpt><trkpt lat="41.27256093723112" lon="14.651493114113423"><ele>531.0</ele><time>2026-03-22T10:38:08Z</time></trkpt><trkpt lat="41.27247870521328" lon="14.65161955016639"><ele>531.0</ele><time>2026-03-22T10:38:09Z</time></trkpt><trkpt lat="41.27238002740553" lon="14.651745015174264"><ele>531.0</ele><time>2026-03-22T10:38:10Z</time></trkpt><trkpt lat="41.27227868357881" lon="14.651866307076377"><ele>531.0</ele><time>2026-03-22T10:38:11Z</time></trkpt><trkpt lat="41.27217635701637" lon="14.6519821363655"><ele>531.0</ele><time>2026-03-22T10:38:12Z</time></trkpt><trkpt lat="41.27206824840612" lon="14.652069974342846"><ele>529.0</ele><time>2026-03-22T10:38:13Z</time></trkpt><trkpt lat="41.27193885510938" lon="14.652128451648219"><ele>527.0</ele><time>2026-03-22T10:38:14Z</time></trkpt><trkpt lat="41.27181715799089" lon="14.652224108696004"><ele>525.0</ele><time>2026-03-22T10:38:15Z</time></trkpt><trkpt lat="41.27170773208167" lon="14.652333070831556"><ele>523.0</ele><time>2026-03-22T10:38:16Z</time></trkpt><trkpt lat="41.271596185137945" lon="14.652445180330636"><ele>523.0</ele><time>2026-03-22T10:38:17Z</time></trkpt><trkpt lat="41.27148426786197" lon="14.652553203049205"><ele>523.0</ele><time>2026-03-22T10:38:18Z</time></trkpt><trkpt lat="41.27136485724848" lon="14.65264593755847"><ele>523.0</ele><time>2026-03-22T10:38:19Z</time></trkpt><trkpt lat="41.27123791867415" lon="14.652725973103703"><ele>523.0</ele><time>2026-03-22T10:38:19.999Z</time></trkpt><trkpt lat="41.271099945062694" lon="14.652799217276456"><ele>519.75</ele><time>2026-03-22T10:38:20.999Z</time></trkpt><trkpt lat="41.270956674211135" lon="14.65286328007079"><ele>516.5</ele><time>2026-03-22T10:38:21.999Z</time></trkpt><trkpt lat="41.27081183413849" lon="14.652921914914488"><ele>513.25</ele><time>2026-03-22T10:38:22.999Z</time></trkpt><trkpt lat="41.270674060458276" lon="14.652976671852555"><ele>510.0</ele><time>2026-03-22T10:38:23.999Z</time></trkpt><trkpt lat="41.2705359783027" lon="14.65302882617995"><ele>507.25</ele><time>2026-03-22T10:38:24.999Z</time></trkpt><trkpt lat="41.27040229280574" lon="14.653077790608116"><ele>504.5</ele><time>2026-03-22T10:38:25.999Z</time></trkpt><trkpt lat="41.27027428919048" lon="14.653119728527376"><ele>501.75</ele><time>2026-03-22T10:38:26.999Z</time></trkpt><trkpt lat="41.27015455903211" lon="14.653152553172019"><ele>499.0</ele><time>2026-03-22T10:38:27.999Z</time></trkpt><trkpt lat="41.27002518240446" lon="14.65317632902655"><ele>499.0</ele><time>2026-03-22T10:38:28.999Z</time></trkpt><trkpt lat="41.269892108267314" lon="14.653189602073661"><ele>499.0</ele><time>2026-03-22T10:38:29.999Z</time></trkpt><trkpt lat="41.26977378633138" lon="14.653206366343873"><ele>499.0</ele><time>2026-03-22T10:38:30.999Z</time></trkpt><trkpt lat="41.269655513588845" lon="14.653238196160045"><ele>499.0</ele><time>2026-03-22T10:38:31.999Z</time></trkpt><trkpt lat="41.26953794251992" lon="14.653309273604751"><ele>496.25</ele><time>2026-03-22T10:38:32.999Z</time></trkpt><trkpt lat="41.26943227059665" lon="14.65340623688903"><ele>493.5</ele><time>2026-03-22T10:38:33.999Z</time></trkpt><trkpt lat="41.26933114428461" lon="14.65352493649568"><ele>490.75</ele><time>2026-03-22T10:38:34.999Z</time></trkpt><trkpt lat="41.26924472259871" lon="14.653614505991584"><ele>488.0</ele><time>2026-03-22T10:38:35.999Z</time></trkpt><trkpt lat="41.269145199566566" lon="14.653665314292947"><ele>486.0</ele><time>2026-03-22T10:38:36.999Z</time></trkpt><trkpt lat="41.26902456978579" lon="14.653690230677222"><ele>484.0</ele><time>2026-03-22T10:38:37.999Z</time></trkpt><trkpt lat="41.26889814612884" lon="14.653699385164703"><ele>482.0</ele><time>2026-03-22T10:38:38.999Z</time></trkpt><trkpt lat="41.26877323680099" lon="14.653698221859752"><ele>480.0</ele><time>2026-03-22T10:38:39.999Z</time></trkpt><trkpt lat="41.26865389746155" lon="14.653715507102913"><ele>477.6</ele><time>2026-03-22T10:38:40.999Z</time></trkpt><trkpt lat="41.26854718631835" lon="14.653712776041187"><ele>475.2</ele><time>2026-03-22T10:38:41.999Z</time></trkpt><trkpt lat="41.26843512423327" lon="14.653689809425991"><ele>472.79999999999995</ele><time>2026-03-22T10:38:42.999Z</time></trkpt><trkpt lat="41.268335905918384" lon="14.653672010925805"><ele>470.4</ele><time>2026-03-22T10:38:43.999Z</time></trkpt><trkpt lat="41.26823177303526" lon="14.653672797616235"><ele>468.0</ele><time>2026-03-22T10:38:44.999Z</time></trkpt><trkpt lat="41.26812923957409" lon="14.653722536379913"><ele>466.6666666666667</ele><time>2026-03-22T10:38:45.999Z</time></trkpt><trkpt lat="41.268040600514354" lon="14.65380061560101"><ele>465.33333333333337</ele><time>2026-03-22T10:38:46.999Z</time></trkpt><trkpt lat="41.267956766065986" lon="14.653883306350714"><ele>464.0</ele><time>2026-03-22T10:38:47.999Z</time></trkpt><trkpt lat="41.26787866098136" lon="14.65395163216762"><ele>462.6666666666667</ele><time>2026-03-22T10:38:48.999Z</time></trkpt><trkpt lat="41.26780758804775" lon="14.653997659794623"><ele>461.33333333333337</ele><time>2026-03-22T10:38:49.999Z</time></trkpt><trkpt lat="41.26774517420191" lon="14.654016500734516"><ele>460.0</ele><time>2026-03-22T10:38:50.999Z</time></trkpt><trkpt lat="41.26767056515499" lon="14.654034408614354"><ele>460.0</ele><time>2026-03-22T10:38:52.999Z</time></trkpt><trkpt lat="41.26748965151134" lon="14.653991329686999"><ele>460.0</ele><time>2026-03-22T10:39:12.999Z</time></trkpt><trkpt lat="41.267397229372456" lon="14.653908820206855"><ele>460.0</ele><time>2026-03-22T10:39:13.999Z</time></trkpt><trkpt lat="41.26728231753805" lon="14.653812692048126"><ele>460.0</ele><time>2026-03-22T10:39:14.999Z</time></trkpt><trkpt lat="41.26716167502866" lon="14.653721277499555"><ele>459.0</ele><time>2026-03-22T10:39:15.999Z</time></trkpt><trkpt lat="41.26703595565921" lon="14.653659613172541"><ele>458.0</ele><time>2026-03-22T10:39:16.999Z</time></trkpt><trkpt lat="41.26689011086217" lon="14.653649857342089"><ele>457.0</ele><time>2026-03-22T10:39:17.999Z</time></trkpt><trkpt lat="41.26673371691151" lon="14.653660798809057"><ele>456.0</ele><time>2026-03-22T10:39:18.999Z</time></trkpt><trkpt lat="41.266594420982436" lon="14.653676638453476"><ele>456.0</ele><time>2026-03-22T10:39:19.999Z</time></trkpt><trkpt lat="41.266461165941735" lon="14.653693232065528"><ele>456.0</ele><time>2026-03-22T10:39:20.999Z</time></trkpt><trkpt lat="41.26632392505263" lon="14.653710321986464"><ele>456.0</ele><time>2026-03-22T10:39:21.999Z</time></trkpt><trkpt lat="41.266177601311846" lon="14.653728542973514"><ele>456.0</ele><time>2026-03-22T10:39:22.999Z</time></trkpt><trkpt lat="41.26603315089885" lon="14.65374653067564"><ele>456.0</ele><time>2026-03-22T10:39:23.999Z</time></trkpt><trkpt lat="41.26590080742143" lon="14.653784003615678"><ele>456.0</ele><time>2026-03-22T10:39:24.999Z</time></trkpt><trkpt lat="41.265756001767464" lon="14.653777660023055"><ele>456.0</ele><time>2026-03-22T10:39:25.999Z</time></trkpt><trkpt lat="41.265609743128174" lon="14.653793412013377"><ele>456.0</ele><time>2026-03-22T10:39:26.999Z</time></trkpt><trkpt lat="41.26547334336201" lon="14.653807867905808"><ele>456.0</ele><time>2026-03-22T10:39:27.999Z</time></trkpt><trkpt lat="41.265330742634674" lon="14.653822466086048"><ele>456.0</ele><time>2026-03-22T10:39:28.999Z</time></trkpt><trkpt lat="41.2651863369367" lon="14.653851118919034"><ele>456.0</ele><time>2026-03-22T10:39:29.999Z</time></trkpt><trkpt lat="41.26504085789239" lon="14.653839001990251"><ele>456.0</ele><time>2026-03-22T10:39:30.999Z</time></trkpt><trkpt lat="41.26490852030119" lon="14.653769903064475"><ele>454.75</ele><time>2026-03-22T10:39:31.999Z</time></trkpt><trkpt lat="41.26477651631057" lon="14.653696903303226"><ele>453.5</ele><time>2026-03-22T10:39:32.999Z</time></trkpt><trkpt lat="41.2646395749677" lon="14.653627928506006"><ele>452.25</ele><time>2026-03-22T10:39:33.999Z</time></trkpt><trkpt lat="41.264515043123794" lon="14.653541835313153"><ele>451.0</ele><time>2026-03-22T10:39:34.999Z</time></trkpt><trkpt lat="41.264393901724446" lon="14.653456090315059"><ele>454.25</ele><time>2026-03-22T10:39:35.999Z</time></trkpt><trkpt lat="41.264280275930226" lon="14.65336603216625"><ele>457.5</ele><time>2026-03-22T10:39:36.999Z</time></trkpt><trkpt lat="41.26417796278296" lon="14.653266074579086"><ele>460.75</ele><time>2026-03-22T10:39:37.998Z</time></trkpt><trkpt lat="41.26408966441415" lon="14.653164153717766"><ele>464.0</ele><time>2026-03-22T10:39:38.998Z</time></trkpt><trkpt lat="41.26401887411081" lon="14.653082294661594"><ele>463.99999999999994</ele><time>2026-03-22T10:39:39.998Z</time></trkpt><trkpt lat="41.263963070275054" lon="14.65300654639129"><ele>464.0</ele><time>2026-03-22T10:39:40.998Z</time></trkpt><trkpt lat="41.263902226758134" lon="14.652937455960162"><ele>464.0</ele><time>2026-03-22T10:39:41.998Z</time></trkpt><trkpt lat="41.26384059341934" lon="14.652881641167529"><ele>464.0</ele><time>2026-03-22T10:39:42.998Z</time></trkpt><trkpt lat="41.26379394289781" lon="14.652821175902321"><ele>463.99999999999994</ele><time>2026-03-22T10:39:43.998Z</time></trkpt><trkpt lat="41.26372073344362" lon="14.65273588335177"><ele>464.0</ele><time>2026-03-22T10:39:45.998Z</time></trkpt><trkpt lat="41.263645323477945" lon="14.652653636031689"><ele>464.79999999999995</ele><time>2026-03-22T10:39:47.998Z</time></trkpt><trkpt lat="41.26357369884228" lon="14.652555879853796"><ele>465.59999999999997</ele><time>2026-03-22T10:39:50Z</time></trkpt><trkpt lat="41.26350451318253" lon="14.652432686694265"><ele>466.4</ele><time>2026-03-22T10:39:52Z</time></trkpt><trkpt lat="41.26342851729535" lon="14.65230949546696"><ele>467.2</ele><time>2026-03-22T10:39:54Z</time></trkpt><trkpt lat="41.26339318204957" lon="14.652238896824453"><ele>468.0</ele><time>2026-03-22T10:39:55Z</time></trkpt><trkpt lat="41.263359087279355" lon="14.652156534572088"><ele>468.0</ele><time>2026-03-22T10:39:56Z</time></trkpt><trkpt lat="41.26332379844336" lon="14.65206829257262"><ele>468.0</ele><time>2026-03-22T10:39:57Z</time></trkpt><trkpt lat="41.26328145752698" lon="14.651966986256705"><ele>468.0</ele><time>2026-03-22T10:39:58Z</time></trkpt><trkpt lat="41.263238290159926" lon="14.651858038313007"><ele>468.0</ele><time>2026-03-22T10:39:59Z</time></trkpt><trkpt lat="41.26319303993935" lon="14.651746343519534"><ele>468.0</ele><time>2026-03-22T10:40:00Z</time></trkpt><trkpt lat="41.26315650270087" lon="14.651633080321428"><ele>468.0</ele><time>2026-03-22T10:40:01Z</time></trkpt><trkpt lat="41.263119136490076" lon="14.651514798320544"><ele>467.79999999999995</ele><time>2026-03-22T10:40:02Z</time></trkpt><trkpt lat="41.263078262447664" lon="14.651399139298151"><ele>467.59999999999997</ele><time>2026-03-22T10:40:03Z</time></trkpt><trkpt lat="41.26302995080834" lon="14.651279374352653"><ele>467.40000000000003</ele><time>2026-03-22T10:40:04Z</time></trkpt><trkpt lat="41.26297620980002" lon="14.651159216065812"><ele>467.20000000000005</ele><time>2026-03-22T10:40:05Z</time></trkpt><trkpt lat="41.26291321195399" lon="14.65103841185518"><ele>467.0</ele><time>2026-03-22T10:40:06Z</time></trkpt><trkpt lat="41.26283196107362" lon="14.650929085337003"><ele>467.0</ele><time>2026-03-22T10:40:07Z</time></trkpt><trkpt lat="41.26274283451657" lon="14.650830118502968"><ele>467.00000000000006</ele><time>2026-03-22T10:40:08Z</time></trkpt><trkpt lat="41.262674375333546" lon="14.6507370612871"><ele>467.00000000000006</ele><time>2026-03-22T10:40:09Z</time></trkpt><trkpt lat="41.262622121373205" lon="14.650651070538068"><ele>467.0</ele><time>2026-03-22T10:40:10Z</time></trkpt><trkpt lat="41.26255479087129" lon="14.650556435341858"><ele>467.0</ele><time>2026-03-22T10:40:11Z</time></trkpt><trkpt lat="41.2624897822202" lon="14.650441863979628"><ele>467.0</ele><time>2026-03-22T10:40:12Z</time></trkpt><trkpt lat="41.26240797172886" lon="14.650341435521398"><ele>467.0</ele><time>2026-03-22T10:40:13Z</time></trkpt><trkpt lat="41.26229891391403" lon="14.65025318051898"><ele>467.0</ele><time>2026-03-22T10:40:14Z</time></trkpt><trkpt lat="41.26217918691796" lon="14.650158320350426"><ele>467.0</ele><time>2026-03-22T10:40:15Z</time></trkpt><trkpt lat="41.26206586325163" lon="14.650061976279352"><ele>466.0</ele><time>2026-03-22T10:40:16Z</time></trkpt><trkpt lat="41.261957345137425" lon="14.64996788626496"><ele>465.0</ele><time>2026-03-22T10:40:17Z</time></trkpt><trkpt lat="41.261859453964135" lon="14.649874448215922"><ele>464.0</ele><time>2026-03-22T10:40:18Z</time></trkpt><trkpt lat="41.261778389277936" lon="14.649754203374302"><ele>463.0</ele><time>2026-03-22T10:40:19Z</time></trkpt><trkpt lat="41.26171213601703" lon="14.649607977098734"><ele>464.5</ele><time>2026-03-22T10:40:20Z</time></trkpt><trkpt lat="41.261667597686106" lon="14.649441095729628"><ele>466.0</ele><time>2026-03-22T10:40:21Z</time></trkpt><trkpt lat="41.261629318860926" lon="14.649271150920848"><ele>467.5</ele><time>2026-03-22T10:40:22Z</time></trkpt><trkpt lat="41.2615962472375" lon="14.649101988871491"><ele>469.0</ele><time>2026-03-22T10:40:23Z</time></trkpt><trkpt lat="41.261565591935394" lon="14.648935617370215"><ele>469.0</ele><time>2026-03-22T10:40:24Z</time></trkpt><trkpt lat="41.26152636392193" lon="14.648766344073985"><ele>469.0</ele><time>2026-03-22T10:40:25Z</time></trkpt><trkpt lat="41.26152246655462" lon="14.648588177653123"><ele>469.0</ele><time>2026-03-22T10:40:25.999Z</time></trkpt><trkpt lat="41.26150435068598" lon="14.648404180867908"><ele>469.0</ele><time>2026-03-22T10:40:26.999Z</time></trkpt><trkpt lat="41.26148407588236" lon="14.648209979872373"><ele>469.25</ele><time>2026-03-22T10:40:27.999Z</time></trkpt><trkpt lat="41.26147123244057" lon="14.648035525227575"><ele>469.5</ele><time>2026-03-22T10:40:28.999Z</time></trkpt><trkpt lat="41.26143941112396" lon="14.647874788420125"><ele>469.75</ele><time>2026-03-22T10:40:29.999Z</time></trkpt><trkpt lat="41.26144506746441" lon="14.647704466480588"><ele>470.0</ele><time>2026-03-22T10:40:30.999Z</time></trkpt><trkpt lat="41.26144143807171" lon="14.64753734484893"><ele>467.25</ele><time>2026-03-22T10:40:31.999Z</time></trkpt><trkpt lat="41.26143088689979" lon="14.647374419660196"><ele>464.5</ele><time>2026-03-22T10:40:32.999Z</time></trkpt><trkpt lat="41.26140384227824" lon="14.647199438832972"><ele>461.75</ele><time>2026-03-22T10:40:33.999Z</time></trkpt><trkpt lat="41.26137099586197" lon="14.647013460445896"><ele>459.0</ele><time>2026-03-22T10:40:34.999Z</time></trkpt><trkpt lat="41.26132292843631" lon="14.646847088170531"><ele>459.0</ele><time>2026-03-22T10:40:35.999Z</time></trkpt><trkpt lat="41.261247995162506" lon="14.646687556090814"><ele>459.0</ele><time>2026-03-22T10:40:36.999Z</time></trkpt><trkpt lat="41.261161252492315" lon="14.646524079475698"><ele>459.0</ele><time>2026-03-22T10:40:37.999Z</time></trkpt><trkpt lat="41.26106205011124" lon="14.646382154854578"><ele>459.0</ele><time>2026-03-22T10:40:38.999Z</time></trkpt><trkpt lat="41.26096635942422" lon="14.64625798176972"><ele>459.0</ele><time>2026-03-22T10:40:39.999Z</time></trkpt><trkpt lat="41.2608736723049" lon="14.646160153897686"><ele>459.0</ele><time>2026-03-22T10:40:40.999Z</time></trkpt><trkpt lat="41.26078726545571" lon="14.646073549902786"><ele>459.0</ele><time>2026-03-22T10:40:41.999Z</time></trkpt><trkpt lat="41.26072566887272" lon="14.64596095221962"><ele>459.0</ele><time>2026-03-22T10:40:42.999Z</time></trkpt><trkpt lat="41.26068598302882" lon="14.64583385323243"><ele>459.0</ele><time>2026-03-22T10:40:43.999Z</time></trkpt><trkpt lat="41.26064460313202" lon="14.64572382983205"><ele>457.6</ele><time>2026-03-22T10:40:44.999Z</time></trkpt><trkpt lat="41.260587730905364" lon="14.645645417234721"><ele>456.2</ele><time>2026-03-22T10:40:45.999Z</time></trkpt><trkpt lat="41.26051564442112" lon="14.645560837524842"><ele>454.80000000000007</ele><time>2026-03-22T10:40:47.999Z</time></trkpt><trkpt lat="41.260380835643474" lon="14.64562611358447"><ele>453.40000000000003</ele><time>2026-03-22T10:40:48.999Z</time></trkpt><trkpt lat="41.26031556724431" lon="14.64565320139792"><ele>452.0</ele><time>2026-03-22T10:40:49.999Z</time></trkpt><trkpt lat="41.2602373149721" lon="14.645683438498528"><ele>452.0</ele><time>2026-03-22T10:40:50.999Z</time></trkpt><trkpt lat="41.26015144430825" lon="14.645716003340606"><ele>452.00000000000006</ele><time>2026-03-22T10:40:51.999Z</time></trkpt><trkpt lat="41.26005557758804" lon="14.645744323773854"><ele>452.00000000000006</ele><time>2026-03-22T10:40:52.999Z</time></trkpt><trkpt lat="41.25995232723247" lon="14.645757340999946"><ele>452.0</ele><time>2026-03-22T10:40:53.999Z</time></trkpt><trkpt lat="41.25984141027226" lon="14.645749353852983"><ele>452.0</ele><time>2026-03-22T10:40:54.999Z</time></trkpt><trkpt lat="41.259732892037256" lon="14.645758966786628"><ele>449.6</ele><time>2026-03-22T10:40:55.999Z</time></trkpt><trkpt lat="41.25962932019432" lon="14.645752655187081"><ele>447.20000000000005</ele><time>2026-03-22T10:40:56.999Z</time></trkpt><trkpt lat="41.25952814660231" lon="14.645732045576704"><ele>444.8</ele><time>2026-03-22T10:40:57.999Z</time></trkpt><trkpt lat="41.25943111877804" lon="14.645752159129119"><ele>442.4</ele><time>2026-03-22T10:40:58.999Z</time></trkpt><trkpt lat="41.2593362054614" lon="14.645817424700004"><ele>440.0</ele><time>2026-03-22T10:40:59.999Z</time></trkpt><trkpt lat="41.259256774988515" lon="14.645919132972208"><ele>440.0</ele><time>2026-03-22T10:41:00.999Z</time></trkpt><trkpt lat="41.259193783963205" lon="14.646048017147912"><ele>440.0</ele><time>2026-03-22T10:41:01.999Z</time></trkpt><trkpt lat="41.259168914839165" lon="14.646234116358011"><ele>440.0</ele><time>2026-03-22T10:41:02.999Z</time></trkpt><trkpt lat="41.259160636152686" lon="14.646387118837259"><ele>440.0</ele><time>2026-03-22T10:41:03.999Z</time></trkpt><trkpt lat="41.25915476302035" lon="14.646538156160984"><ele>438.5</ele><time>2026-03-22T10:41:04.999Z</time></trkpt><trkpt lat="41.259151698988326" lon="14.64668615009808"><ele>437.0</ele><time>2026-03-22T10:41:05.999Z</time></trkpt><trkpt lat="41.259147293105734" lon="14.646825753958485"><ele>435.5</ele><time>2026-03-22T10:41:06.999Z</time></trkpt><trkpt lat="41.25913697601312" lon="14.646983669854235"><ele>434.0</ele><time>2026-03-22T10:41:07.999Z</time></trkpt><trkpt lat="41.25911646102822" lon="14.647148615917429"><ele>434.0</ele><time>2026-03-22T10:41:08.999Z</time></trkpt><trkpt lat="41.259127893209936" lon="14.647367730384412"><ele>434.0</ele><time>2026-03-22T10:41:09.999Z</time></trkpt><trkpt lat="41.25912776495344" lon="14.64756348019371"><ele>434.0</ele><time>2026-03-22T10:41:10.999Z</time></trkpt><trkpt lat="41.25912050480604" lon="14.647739844029424"><ele>434.0</ele><time>2026-03-22T10:41:11.999Z</time></trkpt><trkpt lat="41.25911104419799" lon="14.647905931501633"><ele>434.0</ele><time>2026-03-22T10:41:12.999Z</time></trkpt><trkpt lat="41.259086207751615" lon="14.648049367397196"><ele>434.0</ele><time>2026-03-22T10:41:13.999Z</time></trkpt><trkpt lat="41.25904345582953" lon="14.648194518229074"><ele>434.0</ele><time>2026-03-22T10:41:14.999Z</time></trkpt><trkpt lat="41.25898207902963" lon="14.648367617125137"><ele>434.0</ele><time>2026-03-22T10:41:15.999Z</time></trkpt><trkpt lat="41.25891688760308" lon="14.648551303930965"><ele>430.5</ele><time>2026-03-22T10:41:16.999Z</time></trkpt><trkpt lat="41.2588590961044" lon="14.648725683036233"><ele>427.0</ele><time>2026-03-22T10:41:17.999Z</time></trkpt><trkpt lat="41.25881047113938" lon="14.648901774700168"><ele>423.5</ele><time>2026-03-22T10:41:18.999Z</time></trkpt><trkpt lat="41.25877275806633" lon="14.649096482267588"><ele>420.0</ele><time>2026-03-22T10:41:19.999Z</time></trkpt><trkpt lat="41.25875171706665" lon="14.649294680690083"><ele>420.5</ele><time>2026-03-22T10:41:20.999Z</time></trkpt><trkpt lat="41.25873853861533" lon="14.649485150685267"><ele>421.0</ele><time>2026-03-22T10:41:21.999Z</time></trkpt><trkpt lat="41.25872999463035" lon="14.649658678512322"><ele>421.5</ele><time>2026-03-22T10:41:22.999Z</time></trkpt><trkpt lat="41.25872152031754" lon="14.64981704265418"><ele>422.0</ele><time>2026-03-22T10:41:23.999Z</time></trkpt><trkpt lat="41.2587109334733" lon="14.64995240166834"><ele>422.0</ele><time>2026-03-22T10:41:24.999Z</time></trkpt><trkpt lat="41.258696465405784" lon="14.650055402990551"><ele>422.0</ele><time>2026-03-22T10:41:25.999Z</time></trkpt><trkpt lat="41.25866597067572" lon="14.650212210763577"><ele>422.0</ele><time>2026-03-22T10:41:27.999Z</time></trkpt><trkpt lat="41.25853730259831" lon="14.650185035610138"><ele>422.0</ele><time>2026-03-22T10:41:29.999Z</time></trkpt><trkpt lat="41.258431837925606" lon="14.650202864128632"><ele>422.0</ele><time>2026-03-22T10:41:31.999Z</time></trkpt><trkpt lat="41.25836442605226" lon="14.650213779189384"><ele>422.0</ele><time>2026-03-22T10:41:35.999Z</time></trkpt><trkpt lat="41.25824657920014" lon="14.650275135025757"><ele>422.0</ele><time>2026-03-22T10:41:44.998Z</time></trkpt><trkpt lat="41.25814083364122" lon="14.65029584006538"><ele>422.0</ele><time>2026-03-22T10:41:46.998Z</time></trkpt><trkpt lat="41.258027201784806" lon="14.65031587096289"><ele>422.0</ele><time>2026-03-22T10:41:48.998Z</time></trkpt><trkpt lat="41.25794762588712" lon="14.650333148112981"><ele>422.0</ele><time>2026-03-22T10:41:49.998Z</time></trkpt><trkpt lat="41.25786901169939" lon="14.650343104078349"><ele>419.8</ele><time>2026-03-22T10:41:50.998Z</time></trkpt><trkpt lat="41.2577877265104" lon="14.650354423925442"><ele>417.6</ele><time>2026-03-22T10:41:51.998Z</time></trkpt><trkpt lat="41.257700216503814" lon="14.650375005491517"><ele>415.40000000000003</ele><time>2026-03-22T10:41:52.998Z</time></trkpt><trkpt lat="41.257595991786076" lon="14.650344648511183"><ele>413.20000000000005</ele><time>2026-03-22T10:41:53.998Z</time></trkpt><trkpt lat="41.25750244168443" lon="14.650364043582982"><ele>411.0</ele><time>2026-03-22T10:41:55Z</time></trkpt><trkpt lat="41.2574081531471" lon="14.650386720548243"><ele>411.0</ele><time>2026-03-22T10:41:56Z</time></trkpt><trkpt lat="41.25731351795481" lon="14.650410169894808"><ele>411.0</ele><time>2026-03-22T10:41:57Z</time></trkpt><trkpt lat="41.25720800970266" lon="14.650438293356714"><ele>411.0</ele><time>2026-03-22T10:41:58Z</time></trkpt><trkpt lat="41.257103884589945" lon="14.650466048131351"><ele>411.0</ele><time>2026-03-22T10:41:59Z</time></trkpt><trkpt lat="41.25699622893297" lon="14.65049474399279"><ele>411.0</ele><time>2026-03-22T10:42:00Z</time></trkpt><trkpt lat="41.25688737259733" lon="14.650523759897668"><ele>409.0</ele><time>2026-03-22T10:42:01Z</time></trkpt><trkpt lat="41.25677913979607" lon="14.650552609574815"><ele>407.0</ele><time>2026-03-22T10:42:02Z</time></trkpt><trkpt lat="41.25666634217253" lon="14.650582676045511"><ele>405.0</ele><time>2026-03-22T10:42:03Z</time></trkpt><trkpt lat="41.256552580213466" lon="14.650612999539632"><ele>403.0</ele><time>2026-03-22T10:42:04Z</time></trkpt><trkpt lat="41.256434092318244" lon="14.650644582757783"><ele>401.0</ele><time>2026-03-22T10:42:05Z</time></trkpt><trkpt lat="41.256317487103225" lon="14.650675664143934"><ele>399.0</ele><time>2026-03-22T10:42:06Z</time></trkpt><trkpt lat="41.25621837534986" lon="14.650724222108678"><ele>397.0</ele><time>2026-03-22T10:42:07Z</time></trkpt><trkpt lat="41.25609047502395" lon="14.650734282986337"><ele>395.0</ele><time>2026-03-22T10:42:08Z</time></trkpt><trkpt lat="41.25597622364061" lon="14.650763218290551"><ele>395.0</ele><time>2026-03-22T10:42:09Z</time></trkpt><trkpt lat="41.25585707927437" lon="14.650796803001645"><ele>395.0</ele><time>2026-03-22T10:42:10Z</time></trkpt><trkpt lat="41.2557427842982" lon="14.650837132740866"><ele>395.0</ele><time>2026-03-22T10:42:11Z</time></trkpt><trkpt lat="41.25562800405602" lon="14.650879994342068"><ele>395.0</ele><time>2026-03-22T10:42:12Z</time></trkpt><trkpt lat="41.25551305953281" lon="14.650922917293519"><ele>393.0</ele><time>2026-03-22T10:42:13Z</time></trkpt><trkpt lat="41.255395025826616" lon="14.6509669938223"><ele>391.0</ele><time>2026-03-22T10:42:14Z</time></trkpt><trkpt lat="41.25527773635149" lon="14.651010792637205"><ele>389.0</ele><time>2026-03-22T10:42:15Z</time></trkpt><trkpt lat="41.25516334397527" lon="14.651053005008164"><ele>387.0</ele><time>2026-03-22T10:42:16Z</time></trkpt><trkpt lat="41.25504490334914" lon="14.65109685203388"><ele>387.25</ele><time>2026-03-22T10:42:17Z</time></trkpt><trkpt lat="41.254930004017325" lon="14.651139388068069"><ele>387.5</ele><time>2026-03-22T10:42:18Z</time></trkpt><trkpt lat="41.2548123218811" lon="14.651183681195537"><ele>387.75</ele><time>2026-03-22T10:42:19Z</time></trkpt><trkpt lat="41.2546917570911" lon="14.651233577951917"><ele>388.0</ele><time>2026-03-22T10:42:20Z</time></trkpt><trkpt lat="41.254572618909854" lon="14.651291267281259"><ele>385.25</ele><time>2026-03-22T10:42:21Z</time></trkpt><trkpt lat="41.25445157766823" lon="14.651371142146242"><ele>382.5</ele><time>2026-03-22T10:42:22Z</time></trkpt><trkpt lat="41.2543395382778" lon="14.651480649941425"><ele>379.75</ele><time>2026-03-22T10:42:23Z</time></trkpt><trkpt lat="41.25424678904068" lon="14.651603117561402"><ele>377.0</ele><time>2026-03-22T10:42:24Z</time></trkpt><trkpt lat="41.25415324926465" lon="14.651777112158419"><ele>377.0</ele><time>2026-03-22T10:42:25Z</time></trkpt><trkpt lat="41.25407364119709" lon="14.651934896812087"><ele>377.0</ele><time>2026-03-22T10:42:26Z</time></trkpt><trkpt lat="41.2539999527883" lon="14.65208596130271"><ele>377.0</ele><time>2026-03-22T10:42:27Z</time></trkpt><trkpt lat="41.25392401783077" lon="14.652243627367287"><ele>377.0</ele><time>2026-03-22T10:42:28Z</time></trkpt><trkpt lat="41.25385172464107" lon="14.652394141647108"><ele>374.75</ele><time>2026-03-22T10:42:29Z</time></trkpt><trkpt lat="41.25377859931081" lon="14.652546388531132"><ele>372.5</ele><time>2026-03-22T10:42:30Z</time></trkpt><trkpt lat="41.2537095726617" lon="14.652691419725464"><ele>370.25</ele><time>2026-03-22T10:42:31Z</time></trkpt><trkpt lat="41.25364197693227" lon="14.65283756951318"><ele>368.0</ele><time>2026-03-22T10:42:32Z</time></trkpt><trkpt lat="41.253583136315584" lon="14.652963791826895"><ele>368.0</ele><time>2026-03-22T10:42:33Z</time></trkpt><trkpt lat="41.253518100476505" lon="14.65309776932647"><ele>368.0</ele><time>2026-03-22T10:42:34Z</time></trkpt><trkpt lat="41.25345385054582" lon="14.65321534121131"><ele>368.0</ele><time>2026-03-22T10:42:34.999Z</time></trkpt><trkpt lat="41.25338266819292" lon="14.653322590131879"><ele>368.0</ele><time>2026-03-22T10:42:35.999Z</time></trkpt><trkpt lat="41.25329894063814" lon="14.653405247848324"><ele>368.0</ele><time>2026-03-22T10:42:36.999Z</time></trkpt><trkpt lat="41.25320831170957" lon="14.653452652588115"><ele>366.2</ele><time>2026-03-22T10:42:37.999Z</time></trkpt><trkpt lat="41.25310727048714" lon="14.653457148178667"><ele>364.4</ele><time>2026-03-22T10:42:38.999Z</time></trkpt><trkpt lat="41.25300075804815" lon="14.653429213182177"><ele>362.59999999999997</ele><time>2026-03-22T10:42:39.999Z</time></trkpt><trkpt lat="41.2528925048317" lon="14.653400547999853"><ele>360.79999999999995</ele><time>2026-03-22T10:42:40.999Z</time></trkpt><trkpt lat="41.25278733043096" lon="14.653375985715993"><ele>359.0</ele><time>2026-03-22T10:42:41.999Z</time></trkpt><trkpt lat="41.25266729955502" lon="14.653372865784556"><ele>359.0</ele><time>2026-03-22T10:42:42.999Z</time></trkpt><trkpt lat="41.25254596412193" lon="14.653421530219832"><ele>359.0</ele><time>2026-03-22T10:42:43.999Z</time></trkpt><trkpt lat="41.252434522978916" lon="14.653475017242057"><ele>359.0</ele><time>2026-03-22T10:42:44.999Z</time></trkpt><trkpt lat="41.25232227111846" lon="14.653531945698115"><ele>359.0</ele><time>2026-03-22T10:42:45.999Z</time></trkpt><trkpt lat="41.252210319342375" lon="14.653588721964775"><ele>357.0</ele><time>2026-03-22T10:42:46.999Z</time></trkpt><trkpt lat="41.25209533749956" lon="14.653647034943987"><ele>355.0</ele><time>2026-03-22T10:42:47.999Z</time></trkpt><trkpt lat="41.25197844676531" lon="14.653705463412297"><ele>353.0</ele><time>2026-03-22T10:42:48.999Z</time></trkpt><trkpt lat="41.251857206220166" lon="14.653765864048427"><ele>351.0</ele><time>2026-03-22T10:42:49.999Z</time></trkpt><trkpt lat="41.25173566522724" lon="14.65382412033018"><ele>351.0</ele><time>2026-03-22T10:42:50.999Z</time></trkpt><trkpt lat="41.25161403189876" lon="14.653877669345999"><ele>351.0</ele><time>2026-03-22T10:42:51.999Z</time></trkpt><trkpt lat="41.25149261053193" lon="14.653921249243925"><ele>351.0</ele><time>2026-03-22T10:42:52.999Z</time></trkpt><trkpt lat="41.25137913004505" lon="14.653938328238182"><ele>351.0</ele><time>2026-03-22T10:42:53.999Z</time></trkpt><trkpt lat="41.25126357460643" lon="14.65392667180575"><ele>348.5</ele><time>2026-03-22T10:42:54.999Z</time></trkpt><trkpt lat="41.25113268293222" lon="14.653901712755909"><ele>346.0</ele><time>2026-03-22T10:42:55.999Z</time></trkpt><trkpt lat="41.25100593266297" lon="14.653875301007284"><ele>343.5</ele><time>2026-03-22T10:42:56.999Z</time></trkpt><trkpt lat="41.250878730086555" lon="14.653854160293585"><ele>341.0</ele><time>2026-03-22T10:42:57.999Z</time></trkpt><trkpt lat="41.25074821468895" lon="14.653840107586436"><ele>339.75</ele><time>2026-03-22T10:42:58.999Z</time></trkpt><trkpt lat="41.25061567878778" lon="14.653846434097867"><ele>338.5</ele><time>2026-03-22T10:42:59.999Z</time></trkpt><trkpt lat="41.2504844314795" lon="14.653876850551498"><ele>337.25</ele><time>2026-03-22T10:43:00.999Z</time></trkpt><trkpt lat="41.2503553448207" lon="14.653903616633645"><ele>336.0</ele><time>2026-03-22T10:43:01.999Z</time></trkpt><trkpt lat="41.25022545332851" lon="14.653928796714705"><ele>336.0</ele><time>2026-03-22T10:43:02.999Z</time></trkpt><trkpt lat="41.25009702749974" lon="14.653946250596581"><ele>336.0</ele><time>2026-03-22T10:43:03.999Z</time></trkpt><trkpt lat="41.2499627192007" lon="14.653956850464514"><ele>336.0</ele><time>2026-03-22T10:43:04.999Z</time></trkpt><trkpt lat="41.249826025021164" lon="14.653968212576464"><ele>336.0</ele><time>2026-03-22T10:43:05.999Z</time></trkpt><trkpt lat="41.24968296882993" lon="14.653980123080522"><ele>333.25</ele><time>2026-03-22T10:43:06.999Z</time></trkpt><trkpt lat="41.24954142801039" lon="14.653994828600302"><ele>330.5</ele><time>2026-03-22T10:43:07.999Z</time></trkpt><trkpt lat="41.2493989769358" lon="14.654013460222666"><ele>327.75</ele><time>2026-03-22T10:43:08.999Z</time></trkpt><trkpt lat="41.24925829664325" lon="14.654036596417505"><ele>325.0</ele><time>2026-03-22T10:43:09.999Z</time></trkpt><trkpt lat="41.24912236089678" lon="14.65406174858979"><ele>325.0</ele><time>2026-03-22T10:43:10.999Z</time></trkpt><trkpt lat="41.248989744437594" lon="14.654084958799592"><ele>325.0</ele><time>2026-03-22T10:43:11.999Z</time></trkpt><trkpt lat="41.248868766182476" lon="14.654106132131169"><ele>325.0</ele><time>2026-03-22T10:43:12.999Z</time></trkpt><trkpt lat="41.248757088259275" lon="14.654127579660287"><ele>325.0</ele><time>2026-03-22T10:43:13.999Z</time></trkpt><trkpt lat="41.2486547087658" lon="14.654150325152932"><ele>322.66666666666663</ele><time>2026-03-22T10:43:14.999Z</time></trkpt><trkpt lat="41.248561115909965" lon="14.654180869946071"><ele>320.3333333333333</ele><time>2026-03-22T10:43:15.999Z</time></trkpt><trkpt lat="41.24847928747221" lon="14.654222480538596"><ele>318.0</ele><time>2026-03-22T10:43:16.999Z</time></trkpt><trkpt lat="41.24840503191954" lon="14.654270423183275"><ele>315.6666666666667</ele><time>2026-03-22T10:43:17.999Z</time></trkpt><trkpt lat="41.24833854471827" lon="14.654335602291251"><ele>313.33333333333337</ele><time>2026-03-22T10:43:18.999Z</time></trkpt><trkpt lat="41.24828671035809" lon="14.65444832015444"><ele>311.0</ele><time>2026-03-22T10:43:19.999Z</time></trkpt><trkpt lat="41.2483038654678" lon="14.654631690941661"><ele>309.40000000000003</ele><time>2026-03-22T10:43:20.999Z</time></trkpt><trkpt lat="41.248361435507874" lon="14.65475870385845"><ele>307.8</ele><time>2026-03-22T10:43:21.999Z</time></trkpt><trkpt lat="41.24840181926981" lon="14.654874547811078"><ele>306.20000000000005</ele><time>2026-03-22T10:43:22.999Z</time></trkpt><trkpt lat="41.248426019421515" lon="14.654973341846416"><ele>304.6</ele><time>2026-03-22T10:43:23.999Z</time></trkpt><trkpt lat="41.248415081030814" lon="14.655097131564563"><ele>303.0</ele><time>2026-03-22T10:43:25.999Z</time></trkpt><trkpt lat="41.24833741842888" lon="14.655107677548328"><ele>303.0</ele><time>2026-03-22T10:43:27.999Z</time></trkpt><trkpt lat="41.2481976595878" lon="14.655062849281792"><ele>303.0</ele><time>2026-03-22T10:43:29.999Z</time></trkpt><trkpt lat="41.24811728294133" lon="14.65502434152162"><ele>303.0</ele><time>2026-03-22T10:43:30.999Z</time></trkpt><trkpt lat="41.24805415621644" lon="14.65500091103216"><ele>303.0</ele><time>2026-03-22T10:43:31.999Z</time></trkpt><trkpt lat="41.247965463003204" lon="14.654964203534723"><ele>303.0</ele><time>2026-03-22T10:43:33.999Z</time></trkpt><trkpt lat="41.247891646949846" lon="14.654938860991582"><ele>300.5</ele><time>2026-03-22T10:43:35.999Z</time></trkpt><trkpt lat="41.24777105977157" lon="14.654926980492194"><ele>298.0</ele><time>2026-03-22T10:44:38Z</time></trkpt><trkpt lat="41.247683800853636" lon="14.654889492875334"><ele>295.5</ele><time>2026-03-22T10:44:39Z</time></trkpt><trkpt lat="41.24759886761658" lon="14.654846542436719"><ele>293.0</ele><time>2026-03-22T10:44:40Z</time></trkpt><trkpt lat="41.247527895706824" lon="14.654809058450446"><ele>290.5</ele><time>2026-03-22T10:44:41Z</time></trkpt><trkpt lat="41.2474682061725" lon="14.65477096107833"><ele>288.0</ele><time>2026-03-22T10:44:42Z</time></trkpt><trkpt lat="41.24737174395942" lon="14.654671268736195"><ele>288.0</ele><time>2026-03-22T10:44:43.999Z</time></trkpt><trkpt lat="41.24732846701083" lon="14.654594513548142"><ele>288.0</ele><time>2026-03-22T10:44:44.999Z</time></trkpt><trkpt lat="41.24727064136112" lon="14.654515088377499"><ele>288.0</ele><time>2026-03-22T10:44:45.999Z</time></trkpt><trkpt lat="41.247232617003704" lon="14.654394024169097"><ele>288.0</ele><time>2026-03-22T10:44:46.999Z</time></trkpt><trkpt lat="41.247192771829425" lon="14.654253701935962"><ele>288.0</ele><time>2026-03-22T10:44:47.999Z</time></trkpt><trkpt lat="41.247157470085995" lon="14.654123626038649"><ele>285.2</ele><time>2026-03-22T10:44:48.999Z</time></trkpt><trkpt lat="41.247124086419646" lon="14.654009449650259"><ele>282.4</ele><time>2026-03-22T10:44:49.999Z</time></trkpt><trkpt lat="41.24708848362199" lon="14.653903807350401"><ele>279.59999999999997</ele><time>2026-03-22T10:44:50.999Z</time></trkpt><trkpt lat="41.24705657089487" lon="14.653817187087814"><ele>276.8</ele><time>2026-03-22T10:44:51.999Z</time></trkpt><trkpt lat="41.24700420880449" lon="14.65368173724434"><ele>274.0</ele><time>2026-03-22T10:44:53.999Z</time></trkpt><trkpt lat="41.24695881699773" lon="14.653573935021107"><ele>274.0</ele><time>2026-03-22T10:44:55.999Z</time></trkpt><trkpt lat="41.246898375417764" lon="14.65343956454709"><ele>274.0</ele><time>2026-03-22T10:44:57.999Z</time></trkpt><trkpt lat="41.2468492152322" lon="14.653338688400117"><ele>274.0</ele><time>2026-03-22T10:44:58.999Z</time></trkpt><trkpt lat="41.246762514882754" lon="14.653284365648096"><ele>274.0</ele><time>2026-03-22T10:44:59.999Z</time></trkpt><trkpt lat="41.246659958060974" lon="14.653281580943437"><ele>274.0</ele><time>2026-03-22T10:45:00.999Z</time></trkpt><trkpt lat="41.24656433612596" lon="14.653280742708988"><ele>274.0</ele><time>2026-03-22T10:45:01.999Z</time></trkpt><trkpt lat="41.24647552231931" lon="14.653301421289143"><ele>274.0</ele><time>2026-03-22T10:45:02.999Z</time></trkpt><trkpt lat="41.24638534520743" lon="14.653347263387719"><ele>274.0</ele><time>2026-03-22T10:45:03.999Z</time></trkpt><trkpt lat="41.24629930901286" lon="14.653466314994283"><ele>274.0</ele><time>2026-03-22T10:45:04.999Z</time></trkpt><trkpt lat="41.24625513573612" lon="14.653661925100648"><ele>267.75</ele><time>2026-03-22T10:45:05.999Z</time></trkpt><trkpt lat="41.24622551881236" lon="14.653872000508922"><ele>261.5</ele><time>2026-03-22T10:45:06.999Z</time></trkpt><trkpt lat="41.24620642851936" lon="14.654057539078575"><ele>255.25</ele><time>2026-03-22T10:45:07.999Z</time></trkpt><trkpt lat="41.246190370318075" lon="14.654209255889949"><ele>249.0</ele><time>2026-03-22T10:45:08.999Z</time></trkpt><trkpt lat="41.24617557278683" lon="14.65434336695362"><ele>248.39999999999998</ele><time>2026-03-22T10:45:09.999Z</time></trkpt><trkpt lat="41.24616285201737" lon="14.654458656239589"><ele>247.79999999999998</ele><time>2026-03-22T10:45:10.999Z</time></trkpt><trkpt lat="41.24614568299068" lon="14.654548528028512"><ele>247.20000000000002</ele><time>2026-03-22T10:45:11.999Z</time></trkpt><trkpt lat="41.246098256533955" lon="14.654680147254926"><ele>246.60000000000002</ele><time>2026-03-22T10:45:13.999Z</time></trkpt><trkpt lat="41.24599957047924" lon="14.654710513782836"><ele>246.0</ele><time>2026-03-22T10:45:15.999Z</time></trkpt><trkpt lat="41.245916219425894" lon="14.65469120708396"><ele>246.0</ele><time>2026-03-22T10:45:16.999Z</time></trkpt><trkpt lat="41.24584795031905" lon="14.654604200214578"><ele>246.00000000000003</ele><time>2026-03-22T10:45:17.999Z</time></trkpt><trkpt lat="41.24577061427414" lon="14.654478906178074"><ele>246.00000000000003</ele><time>2026-03-22T10:45:18.999Z</time></trkpt><trkpt lat="41.245719556488126" lon="14.654326861976713"><ele>246.0</ele><time>2026-03-22T10:45:19.999Z</time></trkpt><trkpt lat="41.24567328905269" lon="14.654214617995926"><ele>246.0</ele><time>2026-03-22T10:45:20.999Z</time></trkpt><trkpt lat="41.24561211775891" lon="14.654103319929918"><ele>243.20000000000002</ele><time>2026-03-22T10:45:21.999Z</time></trkpt><trkpt lat="41.24553799651194" lon="14.65401877495375"><ele>240.40000000000003</ele><time>2026-03-22T10:45:22.999Z</time></trkpt><trkpt lat="41.24543665179566" lon="14.65395864601673"><ele>237.6</ele><time>2026-03-22T10:45:23.999Z</time></trkpt><trkpt lat="41.2453316427708" lon="14.653916047218422"><ele>234.8</ele><time>2026-03-22T10:45:24.999Z</time></trkpt><trkpt lat="41.245226983868385" lon="14.653872192634283"><ele>232.0</ele><time>2026-03-22T10:45:25.999Z</time></trkpt><trkpt lat="41.2451211888401" lon="14.653829468685952"><ele>232.0</ele><time>2026-03-22T10:45:26.999Z</time></trkpt><trkpt lat="41.24500636096747" lon="14.653784950517608"><ele>232.0</ele><time>2026-03-22T10:45:27.999Z</time></trkpt><trkpt lat="41.244881343409595" lon="14.653780322875827"><ele>232.0</ele><time>2026-03-22T10:45:28.999Z</time></trkpt><trkpt lat="41.24474177436371" lon="14.653768521089582"><ele>232.0</ele><time>2026-03-22T10:45:29.999Z</time></trkpt><trkpt lat="41.24459900128787" lon="14.653791296606983"><ele>229.0</ele><time>2026-03-22T10:45:30.999Z</time></trkpt><trkpt lat="41.24446905058884" lon="14.65381218217531"><ele>226.0</ele><time>2026-03-22T10:45:31.999Z</time></trkpt><trkpt lat="41.24434546569734" lon="14.653832044626958"><ele>223.0</ele><time>2026-03-22T10:45:32.999Z</time></trkpt><trkpt lat="41.24421538180273" lon="14.653852045711856"><ele>220.0</ele><time>2026-03-22T10:45:33.999Z</time></trkpt><trkpt lat="41.24408262531549" lon="14.653872437911687"><ele>216.5</ele><time>2026-03-22T10:45:34.999Z</time></trkpt><trkpt lat="41.243955713379634" lon="14.653890170995973"><ele>213.0</ele><time>2026-03-22T10:45:35.999Z</time></trkpt><trkpt lat="41.243830323073425" lon="14.653905404188837"><ele>209.5</ele><time>2026-03-22T10:45:36.999Z</time></trkpt><trkpt lat="41.2437005098529" lon="14.65392799104425"><ele>206.0</ele><time>2026-03-22T10:45:37.999Z</time></trkpt><trkpt lat="41.24356299510101" lon="14.653899800531471"><ele>206.0</ele><time>2026-03-22T10:45:38.999Z</time></trkpt><trkpt lat="41.24342591608034" lon="14.653848094816862"><ele>206.0</ele><time>2026-03-22T10:45:39.999Z</time></trkpt><trkpt lat="41.24328716370711" lon="14.653795967038585"><ele>206.0</ele><time>2026-03-22T10:45:40.999Z</time></trkpt><trkpt lat="41.24315224818728" lon="14.653750565962154"><ele>206.0</ele><time>2026-03-22T10:45:41.999Z</time></trkpt><trkpt lat="41.243020163610545" lon="14.653705304488836"><ele>204.25</ele><time>2026-03-22T10:45:42.999Z</time></trkpt><trkpt lat="41.24288147088398" lon="14.653657380651726"><ele>202.5</ele><time>2026-03-22T10:45:43.999Z</time></trkpt><trkpt lat="41.242735794725576" lon="14.653608191570065"><ele>200.75</ele><time>2026-03-22T10:45:44.999Z</time></trkpt><trkpt lat="41.242598613605665" lon="14.653556928124468"><ele>199.0</ele><time>2026-03-22T10:45:45.999Z</time></trkpt><trkpt lat="41.24247274354006" lon="14.653485330691812"><ele>199.0</ele><time>2026-03-22T10:45:46.999Z</time></trkpt><trkpt lat="41.24235123645965" lon="14.653385909734077"><ele>199.0</ele><time>2026-03-22T10:45:47.999Z</time></trkpt><trkpt lat="41.24222832056758" lon="14.653273977991622"><ele>199.0</ele><time>2026-03-22T10:45:48.999Z</time></trkpt><trkpt lat="41.242102087720134" lon="14.653193857885178"><ele>199.0</ele><time>2026-03-22T10:45:49.999Z</time></trkpt><trkpt lat="41.24196499011098" lon="14.653145106747749"><ele>194.75</ele><time>2026-03-22T10:45:50.999Z</time></trkpt><trkpt lat="41.24182996969145" lon="14.653106573167271"><ele>190.5</ele><time>2026-03-22T10:45:51.999Z</time></trkpt><trkpt lat="41.241688653545246" lon="14.653045563928323"><ele>186.25</ele><time>2026-03-22T10:45:52.999Z</time></trkpt><trkpt lat="41.24154277236757" lon="14.65298348893029"><ele>182.0</ele><time>2026-03-22T10:45:53.999Z</time></trkpt><trkpt lat="41.24140225295021" lon="14.652942193854738"><ele>178.75</ele><time>2026-03-22T10:45:54.999Z</time></trkpt><trkpt lat="41.24125809944494" lon="14.652924382310108"><ele>175.5</ele><time>2026-03-22T10:45:55.999Z</time></trkpt><trkpt lat="41.24111829584087" lon="14.652920174906805"><ele>172.25</ele><time>2026-03-22T10:45:56.998Z</time></trkpt><trkpt lat="41.24099332844723" lon="14.652947744825838"><ele>169.0</ele><time>2026-03-22T10:45:57.998Z</time></trkpt><trkpt lat="41.24087841261905" lon="14.652976898412794"><ele>169.0</ele><time>2026-03-22T10:45:58.998Z</time></trkpt><trkpt lat="41.240754556810806" lon="14.653013030698707"><ele>169.0</ele><time>2026-03-22T10:45:59.998Z</time></trkpt><trkpt lat="41.24062083955012" lon="14.653049544533173"><ele>169.0</ele><time>2026-03-22T10:46:00.998Z</time></trkpt><trkpt lat="41.24047678048446" lon="14.65308402801629"><ele>169.0</ele><time>2026-03-22T10:46:01.998Z</time></trkpt><trkpt lat="41.24033174034994" lon="14.653106926334594"><ele>168.0</ele><time>2026-03-22T10:46:02.998Z</time></trkpt><trkpt lat="41.24019389771177" lon="14.653122166309767"><ele>167.0</ele><time>2026-03-22T10:46:03.998Z</time></trkpt><trkpt lat="41.2400574886314" lon="14.653135204389663"><ele>166.0</ele><time>2026-03-22T10:46:04.998Z</time></trkpt><trkpt lat="41.239917875858765" lon="14.653148357495175"><ele>165.0</ele><time>2026-03-22T10:46:05.998Z</time></trkpt><trkpt lat="41.239778313767054" lon="14.653161505833166"><ele>164.0</ele><time>2026-03-22T10:46:07Z</time></trkpt><trkpt lat="41.23964331659027" lon="14.653173099416534"><ele>163.0</ele><time>2026-03-22T10:46:08Z</time></trkpt><trkpt lat="41.239512972031314" lon="14.653180049710992"><ele>162.0</ele><time>2026-03-22T10:46:09Z</time></trkpt><trkpt lat="41.23938732411628" lon="14.653180801488364"><ele>161.0</ele><time>2026-03-22T10:46:10Z</time></trkpt><trkpt lat="41.23927158639467" lon="14.653171101066858"><ele>161.0</ele><time>2026-03-22T10:46:11Z</time></trkpt><trkpt lat="41.23915585704573" lon="14.653152745371743"><ele>161.0</ele><time>2026-03-22T10:46:12Z</time></trkpt><trkpt lat="41.23903603945162" lon="14.6531337412785"><ele>161.0</ele><time>2026-03-22T10:46:13Z</time></trkpt><trkpt lat="41.23891431098197" lon="14.653111030390127"><ele>161.0</ele><time>2026-03-22T10:46:14Z</time></trkpt><trkpt lat="41.238796127330275" lon="14.65308399503973"><ele>160.0</ele><time>2026-03-22T10:46:15Z</time></trkpt><trkpt lat="41.23868276658287" lon="14.653044509451018"><ele>159.0</ele><time>2026-03-22T10:46:16Z</time></trkpt><trkpt lat="41.23857566257421" lon="14.652995368229586"><ele>158.0</ele><time>2026-03-22T10:46:17Z</time></trkpt><trkpt lat="41.238473543382284" lon="14.652949276724785"><ele>157.0</ele><time>2026-03-22T10:46:18Z</time></trkpt><trkpt lat="41.23838165772824" lon="14.652907021749439"><ele>156.0</ele><time>2026-03-22T10:46:19Z</time></trkpt><trkpt lat="41.238294287344" lon="14.652886553488733"><ele>156.0</ele><time>2026-03-22T10:46:20Z</time></trkpt><trkpt lat="41.23821577673179" lon="14.652845328423645"><ele>156.0</ele><time>2026-03-22T10:46:21Z</time></trkpt><trkpt lat="41.23814045425668" lon="14.65280235021016"><ele>156.0</ele><time>2026-03-22T10:46:22Z</time></trkpt><trkpt lat="41.23807011528882" lon="14.652758689488389"><ele>156.0</ele><time>2026-03-22T10:46:23Z</time></trkpt><trkpt lat="41.23800724082107" lon="14.652716540012229"><ele>156.0</ele><time>2026-03-22T10:46:24Z</time></trkpt><trkpt lat="41.237948321750075" lon="14.652671135439602"><ele>156.0</ele><time>2026-03-22T10:46:25Z</time></trkpt><trkpt lat="41.23789227140638" lon="14.652625810321009"><ele>156.0</ele><time>2026-03-22T10:46:26Z</time></trkpt><trkpt lat="41.23783341634754" lon="14.652576722589037"><ele>156.16666666666666</ele><time>2026-03-22T10:46:27Z</time></trkpt><trkpt lat="41.237724567155844" lon="14.652486082732455"><ele>156.33333333333334</ele><time>2026-03-22T10:46:29Z</time></trkpt><trkpt lat="41.23762174509507" lon="14.652403757931845"><ele>156.5</ele><time>2026-03-22T10:46:31Z</time></trkpt><trkpt lat="41.23756669760263" lon="14.652362434569332"><ele>156.66666666666669</ele><time>2026-03-22T10:46:32Z</time></trkpt><trkpt lat="41.23750462579415" lon="14.65231860722046"><ele>156.83333333333334</ele><time>2026-03-22T10:46:33Z</time></trkpt><trkpt lat="41.23744692286198" lon="14.65227858624832"><ele>157.0</ele><time>2026-03-22T10:46:34Z</time></trkpt><trkpt lat="41.23733618084606" lon="14.652207427914604"><ele>155.6</ele><time>2026-03-22T10:46:36Z</time></trkpt><trkpt lat="41.23723176550063" lon="14.652129449209296"><ele>154.2</ele><time>2026-03-22T10:46:38Z</time></trkpt><trkpt lat="41.237171216643254" lon="14.652099536298179"><ele>152.8</ele><time>2026-03-22T10:46:39Z</time></trkpt><trkpt lat="41.23705534450387" lon="14.65204785002057"><ele>151.4</ele><time>2026-03-22T10:46:41Z</time></trkpt><trkpt lat="41.23692957989446" lon="14.652009331057375"><ele>150.0</ele><time>2026-03-22T10:46:43Z</time></trkpt><trkpt lat="41.23686103141433" lon="14.65199112434562"><ele>150.0</ele><time>2026-03-22T10:46:44Z</time></trkpt><trkpt lat="41.236734777878404" lon="14.651960428892847"><ele>150.0</ele><time>2026-03-22T10:46:46Z</time></trkpt><trkpt lat="41.23666855828697" lon="14.651944039413497"><ele>150.0</ele><time>2026-03-22T10:46:47Z</time></trkpt><trkpt lat="41.23654617478518" lon="14.651908459883858"><ele>150.0</ele><time>2026-03-22T10:46:49Z</time></trkpt><trkpt lat="41.23648458790931" lon="14.651887770870085"><ele>150.0</ele><time>2026-03-22T10:46:50Z</time></trkpt><trkpt lat="41.2363718348151" lon="14.651841521044041"><ele>150.4</ele><time>2026-03-22T10:46:51.999Z</time></trkpt><trkpt lat="41.23625761459887" lon="14.651807550706183"><ele>150.8</ele><time>2026-03-22T10:46:53.999Z</time></trkpt><trkpt lat="41.23617620834071" lon="14.651741681017938"><ele>151.2</ele><time>2026-03-22T10:46:55.999Z</time></trkpt><trkpt lat="41.23609610141176" lon="14.651668859872093"><ele>151.6</ele><time>2026-03-22T10:46:59.999Z</time></trkpt><trkpt lat="41.23602441271692" lon="14.651609471547218"><ele>152.0</ele><time>2026-03-22T10:47:01.999Z</time></trkpt><trkpt lat="41.23596275719925" lon="14.651554085393403"><ele>152.0</ele><time>2026-03-22T10:47:04.999Z</time></trkpt><trkpt lat="41.235912654816325" lon="14.651502610438914"><ele>152.0</ele><time>2026-03-22T10:47:07.999Z</time></trkpt><trkpt lat="41.23585697619501" lon="14.651455922136853"><ele>152.0</ele><time>2026-03-22T10:47:10.999Z</time></trkpt><trkpt lat="41.23580102194175" lon="14.651407962850689"><ele>152.0</ele><time>2026-03-22T10:47:16.999Z</time></trkpt><trkpt lat="41.23573783940737" lon="14.651361086206423"><ele>152.0</ele><time>2026-03-22T10:47:20.999Z</time></trkpt><trkpt lat="41.23567029770335" lon="14.651311907115076"><ele>152.0</ele><time>2026-03-22T10:47:24.999Z</time></trkpt><trkpt lat="41.23560896838741" lon="14.651268368769024"><ele>152.0</ele><time>2026-03-22T10:47:27.999Z</time></trkpt><trkpt lat="41.235547141039014" lon="14.651225114443095"><ele>151.16666666666666</ele><time>2026-03-22T10:47:30.999Z</time></trkpt><trkpt lat="41.235488825528655" lon="14.651184793638954"><ele>150.33333333333331</ele><time>2026-03-22T10:47:32.999Z</time></trkpt><trkpt lat="41.235425481794834" lon="14.651140827238093"><ele>149.5</ele><time>2026-03-22T10:47:34.999Z</time></trkpt><trkpt lat="41.235360070217915" lon="14.651095626616165"><ele>148.66666666666666</ele><time>2026-03-22T10:47:36.999Z</time></trkpt><trkpt lat="41.23528916569138" lon="14.651051014346637"><ele>147.83333333333334</ele><time>2026-03-22T10:47:38.999Z</time></trkpt><trkpt lat="41.235215961992" lon="14.651010658156277"><ele>147.0</ele><time>2026-03-22T10:47:40.999Z</time></trkpt><trkpt lat="41.23514109718734" lon="14.650965122649527"><ele>147.0</ele><time>2026-03-22T10:47:42.999Z</time></trkpt><trkpt lat="41.23505517996551" lon="14.650915431890366"><ele>147.0</ele><time>2026-03-22T10:47:44.999Z</time></trkpt><trkpt lat="41.234957791969315" lon="14.650864410814185"><ele>147.0</ele><time>2026-03-22T10:47:46.999Z</time></trkpt><trkpt lat="41.234869574238836" lon="14.650819203585622"><ele>147.0</ele><time>2026-03-22T10:47:48.999Z</time></trkpt><trkpt lat="41.23476063431572" lon="14.650761790732929"><ele>147.0</ele><time>2026-03-22T10:47:50.999Z</time></trkpt><trkpt lat="41.23469244142534" lon="14.650733622556452"><ele>146.0</ele><time>2026-03-22T10:47:51.999Z</time></trkpt><trkpt lat="41.23463320156558" lon="14.650686399682339"><ele>145.0</ele><time>2026-03-22T10:47:52.999Z</time></trkpt><trkpt lat="41.234571934785876" lon="14.650657331416742"><ele>144.0</ele><time>2026-03-22T10:47:53.999Z</time></trkpt><trkpt lat="41.234505981765174" lon="14.650626039675895"><ele>143.0</ele><time>2026-03-22T10:47:54.999Z</time></trkpt><trkpt lat="41.234435750114294" lon="14.650614731433654"><ele>142.0</ele><time>2026-03-22T10:47:55.999Z</time></trkpt><trkpt lat="41.234368133854396" lon="14.650581483255472"><ele>141.0</ele><time>2026-03-22T10:47:56.999Z</time></trkpt><trkpt lat="41.23430492719222" lon="14.650547946497843"><ele>140.0</ele><time>2026-03-22T10:47:57.999Z</time></trkpt><trkpt lat="41.23424187338889" lon="14.650512849619918"><ele>140.0</ele><time>2026-03-22T10:47:58.999Z</time></trkpt><trkpt lat="41.234171603032365" lon="14.650474049817209"><ele>140.0</ele><time>2026-03-22T10:47:59.999Z</time></trkpt><trkpt lat="41.234099010458486" lon="14.650433650239744"><ele>140.0</ele><time>2026-03-22T10:48:00.999Z</time></trkpt><trkpt lat="41.23402058972582" lon="14.650397070882192"><ele>140.0</ele><time>2026-03-22T10:48:01.999Z</time></trkpt><trkpt lat="41.23394244797229" lon="14.650363201053077"><ele>140.0</ele><time>2026-03-22T10:48:02.999Z</time></trkpt><trkpt lat="41.233863385447975" lon="14.65032916192092"><ele>140.0</ele><time>2026-03-22T10:48:03.999Z</time></trkpt><trkpt lat="41.233783832254005" lon="14.650295605866136"><ele>139.2</ele><time>2026-03-22T10:48:04.998Z</time></trkpt><trkpt lat="41.23370252778899" lon="14.650256060809717"><ele>138.4</ele><time>2026-03-22T10:48:05.998Z</time></trkpt><trkpt lat="41.23361478357141" lon="14.650212892182068"><ele>137.6</ele><time>2026-03-22T10:48:06.998Z</time></trkpt><trkpt lat="41.23351971643344" lon="14.650170114651775"><ele>136.8</ele><time>2026-03-22T10:48:07.998Z</time></trkpt><trkpt lat="41.233423502457235" lon="14.650130449715245"><ele>136.0</ele><time>2026-03-22T10:48:08.998Z</time></trkpt><trkpt lat="41.23333093576255" lon="14.65007051147925"><ele>136.0</ele><time>2026-03-22T10:48:09.998Z</time></trkpt><trkpt lat="41.23323440271365" lon="14.650027449555404"><ele>136.0</ele><time>2026-03-22T10:48:10.998Z</time></trkpt><trkpt lat="41.23313506205486" lon="14.649982799333456"><ele>136.0</ele><time>2026-03-22T10:48:11.998Z</time></trkpt><trkpt lat="41.23303701002307" lon="14.649937463024457"><ele>136.0</ele><time>2026-03-22T10:48:13Z</time></trkpt><trkpt lat="41.23293843619063" lon="14.64989115713821"><ele>136.0</ele><time>2026-03-22T10:48:14Z</time></trkpt><trkpt lat="41.23283927988563" lon="14.649843733268664"><ele>134.83333333333334</ele><time>2026-03-22T10:48:15Z</time></trkpt><trkpt lat="41.23274384181447" lon="14.649796729073985"><ele>133.66666666666669</ele><time>2026-03-22T10:48:16Z</time></trkpt><trkpt lat="41.23266226501233" lon="14.649755586519444"><ele>132.5</ele><time>2026-03-22T10:48:17Z</time></trkpt><trkpt lat="41.23258382549281" lon="14.649715197652691"><ele>131.33333333333334</ele><time>2026-03-22T10:48:18Z</time></trkpt><trkpt lat="41.232509255617146" lon="14.649675819635664"><ele>130.16666666666666</ele><time>2026-03-22T10:48:19Z</time></trkpt><trkpt lat="41.23243512532996" lon="14.649636673839902"><ele>129.0</ele><time>2026-03-22T10:48:20Z</time></trkpt><trkpt lat="41.23236051489581" lon="14.649597274427594"><ele>129.0</ele><time>2026-03-22T10:48:21Z</time></trkpt><trkpt lat="41.232288761735376" lon="14.649559383864407"><ele>129.0</ele><time>2026-03-22T10:48:22Z</time></trkpt><trkpt lat="41.23222381785167" lon="14.649525089084149"><ele>129.0</ele><time>2026-03-22T10:48:23Z</time></trkpt><trkpt lat="41.23216158415448" lon="14.649491374061041"><ele>129.0</ele><time>2026-03-22T10:48:24Z</time></trkpt><trkpt lat="41.23209994705079" lon="14.649457681593455"><ele>129.0</ele><time>2026-03-22T10:48:25Z</time></trkpt><trkpt lat="41.23203742643624" lon="14.649423506205256"><ele>129.0</ele><time>2026-03-22T10:48:26Z</time></trkpt><trkpt lat="41.23192695738409" lon="14.649363120914376"><ele>129.0</ele><time>2026-03-22T10:48:28Z</time></trkpt><trkpt lat="41.23182174272201" lon="14.649305607778178"><ele>129.0</ele><time>2026-03-22T10:48:30Z</time></trkpt><trkpt lat="41.231719735759555" lon="14.649249848145969"><ele>129.0</ele><time>2026-03-22T10:48:32Z</time></trkpt><trkpt lat="41.231635387701864" lon="14.649203051068742"><ele>129.0</ele><time>2026-03-22T10:48:34Z</time></trkpt><trkpt lat="41.23155365394659" lon="14.649157109591696"><ele>129.0</ele><time>2026-03-22T10:48:36Z</time></trkpt><trkpt lat="41.23148721980526" lon="14.649119767827916"><ele>129.0</ele><time>2026-03-22T10:48:38Z</time></trkpt><trkpt lat="41.2314268378756" lon="14.649085827929389"><ele>129.0</ele><time>2026-03-22T10:48:40Z</time></trkpt><trkpt lat="41.23135107077185" lon="14.64904324024331"><ele>129.0</ele><time>2026-03-22T10:48:43Z</time></trkpt><trkpt lat="41.23127731507055" lon="14.64900178312065"><ele>129.0</ele><time>2026-03-22T10:48:46Z</time></trkpt><trkpt lat="41.23120241745042" lon="14.648995356658599"><ele>129.0</ele><time>2026-03-22T10:48:49Z</time></trkpt><trkpt lat="41.23113238583935" lon="14.648956803961074"><ele>129.0</ele><time>2026-03-22T10:48:51.999Z</time></trkpt><trkpt lat="41.23105954623444" lon="14.648915718209903"><ele>128.99999999999997</ele><time>2026-03-22T10:48:55.999Z</time></trkpt><trkpt lat="41.23099644348879" lon="14.648879264908873"><ele>129.0</ele><time>2026-03-22T10:49:00.999Z</time></trkpt><trkpt lat="41.23093228470738" lon="14.648840932241198"><ele>129.0</ele><time>2026-03-22T10:49:05.999Z</time></trkpt><trkpt lat="41.23086507681521" lon="14.648800623608299"><ele>129.0</ele><time>2026-03-22T10:49:12.999Z</time></trkpt><trkpt lat="41.230804944409776" lon="14.648759704881607"><ele>129.0</ele><time>2026-03-22T10:49:15.999Z</time></trkpt><trkpt lat="41.23073610741656" lon="14.648715178606599"><ele>128.99999999999997</ele><time>2026-03-22T10:49:19.999Z</time></trkpt><trkpt lat="41.23066657182716" lon="14.648679758418417"><ele>129.0</ele><time>2026-03-22T10:49:23.999Z</time></trkpt><trkpt lat="41.230606566907205" lon="14.648652316812106"><ele>128.16666666666666</ele><time>2026-03-22T10:49:26.999Z</time></trkpt><trkpt lat="41.23052843008026" lon="14.648626763984044"><ele>127.33333333333334</ele><time>2026-03-22T10:49:30.999Z</time></trkpt><trkpt lat="41.230464468422916" lon="14.648611538348735"><ele>126.5</ele><time>2026-03-22T10:49:33.999Z</time></trkpt><trkpt lat="41.23039292654369" lon="14.648596957934961"><ele>125.66666666666667</ele><time>2026-03-22T10:49:36.999Z</time></trkpt><trkpt lat="41.23031384396844" lon="14.648591645491441"><ele>124.83333333333334</ele><time>2026-03-22T10:49:39.999Z</time></trkpt><trkpt lat="41.23024131108928" lon="14.648588939834221"><ele>124.0</ele><time>2026-03-22T10:49:41.999Z</time></trkpt><trkpt lat="41.23016100523666" lon="14.648591814978467"><ele>124.00000000000001</ele><time>2026-03-22T10:49:43.999Z</time></trkpt><trkpt lat="41.23008361285624" lon="14.64860946392431"><ele>124.0</ele><time>2026-03-22T10:49:45.999Z</time></trkpt><trkpt lat="41.22998278532871" lon="14.648631857619826"><ele>124.0</ele><time>2026-03-22T10:49:47.999Z</time></trkpt><trkpt lat="41.22990877835767" lon="14.648653660701758"><ele>124.0</ele><time>2026-03-22T10:49:48.999Z</time></trkpt><trkpt lat="41.229814131550164" lon="14.648615317061092"><ele>124.00000000000001</ele><time>2026-03-22T10:49:49.999Z</time></trkpt><trkpt lat="41.229736782805766" lon="14.648640429671199"><ele>124.0</ele><time>2026-03-22T10:49:50.999Z</time></trkpt><trkpt lat="41.22965522239739" lon="14.648667664495024"><ele>121.80000000000001</ele><time>2026-03-22T10:49:51.999Z</time></trkpt><trkpt lat="41.229566133390975" lon="14.648698842787798"><ele>119.60000000000001</ele><time>2026-03-22T10:49:52.999Z</time></trkpt><trkpt lat="41.229473789222936" lon="14.64873027524872"><ele>117.4</ele><time>2026-03-22T10:49:53.999Z</time></trkpt><trkpt lat="41.22937797353128" lon="14.64876006921225"><ele>115.2</ele><time>2026-03-22T10:49:54.999Z</time></trkpt><trkpt lat="41.22928587049451" lon="14.648782099307331"><ele>113.0</ele><time>2026-03-22T10:49:55.999Z</time></trkpt><trkpt lat="41.229193407856606" lon="14.648792703490297"><ele>113.0</ele><time>2026-03-22T10:49:56.999Z</time></trkpt><trkpt lat="41.229093054974726" lon="14.648793235496992"><ele>113.00000000000001</ele><time>2026-03-22T10:49:57.999Z</time></trkpt><trkpt lat="41.22898172969441" lon="14.648792801191764"><ele>113.00000000000001</ele><time>2026-03-22T10:49:58.999Z</time></trkpt><trkpt lat="41.22886599353716" lon="14.648787641561192"><ele>113.0</ele><time>2026-03-22T10:49:59.999Z</time></trkpt><trkpt lat="41.22874967511677" lon="14.648773309343875"><ele>113.0</ele><time>2026-03-22T10:50:00.999Z</time></trkpt><trkpt lat="41.22863221042251" lon="14.648749016303455"><ele>112.2</ele><time>2026-03-22T10:50:01.999Z</time></trkpt><trkpt lat="41.22851334786407" lon="14.648721644097257"><ele>111.4</ele><time>2026-03-22T10:50:02.999Z</time></trkpt><trkpt lat="41.22840975512615" lon="14.648712402759209"><ele>110.60000000000001</ele><time>2026-03-22T10:50:03.998Z</time></trkpt><trkpt lat="41.22830718490491" lon="14.648719702251856"><ele>109.80000000000001</ele><time>2026-03-22T10:50:04.998Z</time></trkpt><trkpt lat="41.22821881106512" lon="14.648732865181927"><ele>109.0</ele><time>2026-03-22T10:50:05.998Z</time></trkpt><trkpt lat="41.2281402389863" lon="14.648746381447989"><ele>108.50000000000001</ele><time>2026-03-22T10:50:06.998Z</time></trkpt><trkpt lat="41.2280679162078" lon="14.64875923374734"><ele>108.0</ele><time>2026-03-22T10:50:07.998Z</time></trkpt><trkpt lat="41.22798873694828" lon="14.648773304366305"><ele>107.5</ele><time>2026-03-22T10:50:08.998Z</time></trkpt><trkpt lat="41.22790540111883" lon="14.648789578272995"><ele>107.0</ele><time>2026-03-22T10:50:09.998Z</time></trkpt><trkpt lat="41.2278264922159" lon="14.648803969715349"><ele>106.50000000000001</ele><time>2026-03-22T10:50:10.998Z</time></trkpt><trkpt lat="41.22775051064101" lon="14.648815233230119"><ele>106.0</ele><time>2026-03-22T10:50:11.998Z</time></trkpt><trkpt lat="41.22767565550607" lon="14.648820035482549"><ele>106.0</ele><time>2026-03-22T10:50:12.998Z</time></trkpt><trkpt lat="41.227604697602764" lon="14.648822188969346"><ele>106.0</ele><time>2026-03-22T10:50:13.998Z</time></trkpt><trkpt lat="41.227534775570575" lon="14.648776057958585"><ele>106.0</ele><time>2026-03-22T10:50:14.998Z</time></trkpt><trkpt lat="41.22746352819694" lon="14.648725477582955"><ele>106.0</ele><time>2026-03-22T10:50:15.998Z</time></trkpt><trkpt lat="41.22740108127515" lon="14.648680524114356"><ele>106.0</ele><time>2026-03-22T10:50:16.998Z</time></trkpt><trkpt lat="41.227345965970194" lon="14.648639175691635"><ele>106.0</ele><time>2026-03-22T10:50:17.998Z</time></trkpt><trkpt lat="41.22728504014402" lon="14.648595544156539"><ele>106.0</ele><time>2026-03-22T10:50:19Z</time></trkpt><trkpt lat="41.227216057456985" lon="14.648555853141671"><ele>107.83333333333334</ele><time>2026-03-22T10:50:20Z</time></trkpt><trkpt lat="41.227133038224736" lon="14.648510365874266"><ele>109.66666666666667</ele><time>2026-03-22T10:50:21Z</time></trkpt><trkpt lat="41.22704850016661" lon="14.64847612934189"><ele>111.5</ele><time>2026-03-22T10:50:22Z</time></trkpt><trkpt lat="41.22696016417508" lon="14.648451546084296"><ele>113.33333333333334</ele><time>2026-03-22T10:50:23Z</time></trkpt><trkpt lat="41.22687585474183" lon="14.64843751874459"><ele>115.16666666666667</ele><time>2026-03-22T10:50:24Z</time></trkpt><trkpt lat="41.22679420261732" lon="14.648402947752638"><ele>117.0</ele><time>2026-03-22T10:50:25Z</time></trkpt><trkpt lat="41.226711708799535" lon="14.648391891798136"><ele>117.0</ele><time>2026-03-22T10:50:26Z</time></trkpt><trkpt lat="41.226634151823326" lon="14.648384624314387"><ele>117.0</ele><time>2026-03-22T10:50:27Z</time></trkpt><trkpt lat="41.22656072941485" lon="14.64838283546488"><ele>117.0</ele><time>2026-03-22T10:50:28Z</time></trkpt><trkpt lat="41.226440303634625" lon="14.648397192790364"><ele>117.0</ele><time>2026-03-22T10:50:30Z</time></trkpt><trkpt lat="41.22637760014164" lon="14.64841794606911"><ele>117.0</ele><time>2026-03-22T10:50:31Z</time></trkpt><trkpt lat="41.22627565470222" lon="14.648475931904926"><ele>117.0</ele><time>2026-03-22T10:50:33Z</time></trkpt><trkpt lat="41.22621927719751" lon="14.648517542303178"><ele>117.0</ele><time>2026-03-22T10:50:35Z</time></trkpt><trkpt lat="41.22613431768355" lon="14.64859180009701"><ele>116.99999999999999</ele><time>2026-03-22T10:50:40Z</time></trkpt><trkpt lat="41.22607640842575" lon="14.648646743161953"><ele>116.99999999999999</ele><time>2026-03-22T10:50:41Z</time></trkpt><trkpt lat="41.2259884203989" lon="14.648716780241841"><ele>117.0</ele><time>2026-03-22T10:50:42Z</time></trkpt><trkpt lat="41.225886892486784" lon="14.648782093602877"><ele>117.0</ele><time>2026-03-22T10:50:43Z</time></trkpt><trkpt lat="41.22578141683914" lon="14.648826563586598"><ele>114.0</ele><time>2026-03-22T10:50:44Z</time></trkpt><trkpt lat="41.22566190163357" lon="14.648873292282259"><ele>111.0</ele><time>2026-03-22T10:50:45Z</time></trkpt><trkpt lat="41.22554534473981" lon="14.648913296528084"><ele>108.0</ele><time>2026-03-22T10:50:46Z</time></trkpt><trkpt lat="41.22541825768091" lon="14.64895697588817"><ele>105.0</ele><time>2026-03-22T10:50:47Z</time></trkpt><trkpt lat="41.22527786375321" lon="14.649012184772191"><ele>105.0</ele><time>2026-03-22T10:50:48Z</time></trkpt><trkpt lat="41.22515360229403" lon="14.64906518567238"><ele>105.0</ele><time>2026-03-22T10:50:49Z</time></trkpt><trkpt lat="41.22504688672819" lon="14.649111966748182"><ele>105.0</ele><time>2026-03-22T10:50:50Z</time></trkpt><trkpt lat="41.22493349963738" lon="14.649157359373202"><ele>105.0</ele><time>2026-03-22T10:50:51Z</time></trkpt><trkpt lat="41.22480439213317" lon="14.64919765518964"><ele>104.25</ele><time>2026-03-22T10:50:52Z</time></trkpt><trkpt lat="41.2246725659994" lon="14.64922915670784"><ele>103.5</ele><time>2026-03-22T10:50:53Z</time></trkpt><trkpt lat="41.22455312846253" lon="14.649244157383043"><ele>102.75</ele><time>2026-03-22T10:50:54Z</time></trkpt><trkpt lat="41.22444048701611" lon="14.649244318365419"><ele>102.0</ele><time>2026-03-22T10:50:55Z</time></trkpt><trkpt lat="41.22431357759075" lon="14.649231684646498"><ele>102.0</ele><time>2026-03-22T10:50:56Z</time></trkpt><trkpt lat="41.22417956694204" lon="14.649207499775692"><ele>102.0</ele><time>2026-03-22T10:50:57Z</time></trkpt><trkpt lat="41.224039356594616" lon="14.649171060122542"><ele>102.0</ele><time>2026-03-22T10:50:58Z</time></trkpt><trkpt lat="41.22389822285092" lon="14.649116062695406"><ele>102.0</ele><time>2026-03-22T10:50:59Z</time></trkpt><trkpt lat="41.22376031483751" lon="14.649071142289612"><ele>100.25</ele><time>2026-03-22T10:51:00Z</time></trkpt><trkpt lat="41.2236210891928" lon="14.649006624068036"><ele>98.5</ele><time>2026-03-22T10:51:01Z</time></trkpt><trkpt lat="41.22348282540686" lon="14.648941383984909"><ele>96.75</ele><time>2026-03-22T10:51:02Z</time></trkpt><trkpt lat="41.2233602111644" lon="14.64888323587119"><ele>95.0</ele><time>2026-03-22T10:51:03Z</time></trkpt><trkpt lat="41.223247762894495" lon="14.648827289674035"><ele>93.0</ele><time>2026-03-22T10:51:04Z</time></trkpt><trkpt lat="41.223137367347476" lon="14.648775987617613"><ele>91.0</ele><time>2026-03-22T10:51:05Z</time></trkpt><trkpt lat="41.22302294829046" lon="14.64872722408813"><ele>89.0</ele><time>2026-03-22T10:51:06Z</time></trkpt><trkpt lat="41.2229118974564" lon="14.648680774591353"><ele>87.0</ele><time>2026-03-22T10:51:07Z</time></trkpt><trkpt lat="41.22281143609266" lon="14.648636878312585"><ele>86.0</ele><time>2026-03-22T10:51:08Z</time></trkpt><trkpt lat="41.222712227923104" lon="14.648591366251294"><ele>85.0</ele><time>2026-03-22T10:51:09Z</time></trkpt><trkpt lat="41.222607878825954" lon="14.64854275735376"><ele>84.0</ele><time>2026-03-22T10:51:10Z</time></trkpt><trkpt lat="41.22249667874023" lon="14.64849430308072"><ele>83.0</ele><time>2026-03-22T10:51:10.999Z</time></trkpt><trkpt lat="41.22238694748159" lon="14.64844871727919"><ele>82.0</ele><time>2026-03-22T10:51:11.999Z</time></trkpt><trkpt lat="41.22227969571385" lon="14.64839813504706"><ele>82.0</ele><time>2026-03-22T10:51:12.999Z</time></trkpt><trkpt lat="41.22218138997013" lon="14.648327910600893"><ele>82.0</ele><time>2026-03-22T10:51:13.999Z</time></trkpt><trkpt lat="41.22209648866951" lon="14.648242808414897"><ele>82.0</ele><time>2026-03-22T10:51:14.999Z</time></trkpt><trkpt lat="41.222022241248986" lon="14.64814727496674"><ele>82.0</ele><time>2026-03-22T10:51:15.999Z</time></trkpt><trkpt lat="41.22195248171893" lon="14.648055879734903"><ele>82.0</ele><time>2026-03-22T10:51:16.999Z</time></trkpt><trkpt lat="41.221885164741124" lon="14.647976814820538"><ele>82.0</ele><time>2026-03-22T10:51:17.999Z</time></trkpt><trkpt lat="41.221814265229575" lon="14.64790002423275"><ele>82.0</ele><time>2026-03-22T10:51:18.999Z</time></trkpt><trkpt lat="41.22174103892234" lon="14.647832663344035"><ele>82.0</ele><time>2026-03-22T10:51:19.999Z</time></trkpt><trkpt lat="41.221664673494374" lon="14.647775336785056"><ele>82.0</ele><time>2026-03-22T10:51:20.999Z</time></trkpt><trkpt lat="41.22158285533311" lon="14.647726997931166"><ele>82.0</ele><time>2026-03-22T10:51:21.999Z</time></trkpt><trkpt lat="41.22150559564221" lon="14.647686899445523"><ele>82.0</ele><time>2026-03-22T10:51:22.999Z</time></trkpt><trkpt lat="41.22143904680389" lon="14.647652930373532"><ele>81.19999999999999</ele><time>2026-03-22T10:51:23.999Z</time></trkpt><trkpt lat="41.22134712841089" lon="14.64760552219381"><ele>80.39999999999999</ele><time>2026-03-22T10:51:25.999Z</time></trkpt><trkpt lat="41.22128551200576" lon="14.64756336748196"><ele>79.6</ele><time>2026-03-22T10:51:28.999Z</time></trkpt><trkpt lat="41.22120190514078" lon="14.647653906957538"><ele>78.8</ele><time>2026-03-22T10:51:50.999Z</time></trkpt><trkpt lat="41.221168839653345" lon="14.647760428922075"><ele>78.0</ele><time>2026-03-22T10:51:51.999Z</time></trkpt><trkpt lat="41.22114165610492" lon="14.64790310106115"><ele>78.0</ele><time>2026-03-22T10:51:52.999Z</time></trkpt><trkpt lat="41.2210313125442" lon="14.648021785869798"><ele>78.0</ele><time>2026-03-22T10:51:53.999Z</time></trkpt><trkpt lat="41.22100059389505" lon="14.648150546081279"><ele>78.0</ele><time>2026-03-22T10:51:54.999Z</time></trkpt><trkpt lat="41.22097880311601" lon="14.648241882201077"><ele>78.0</ele><time>2026-03-22T10:51:55.999Z</time></trkpt><trkpt lat="41.22122525043875" lon="14.648426913496873"><ele>78.0</ele><time>2026-03-22T10:51:56.999Z</time></trkpt><trkpt lat="41.22128584905026" lon="14.648572930170504"><ele>78.0</ele><time>2026-03-22T10:51:57.999Z</time></trkpt><trkpt lat="41.22134691748253" lon="14.64871535929276"><ele>78.0</ele><time>2026-03-22T10:51:58.999Z</time></trkpt><trkpt lat="41.22140905344781" lon="14.648879179648814"><ele>78.0</ele><time>2026-03-22T10:51:59.999Z</time></trkpt><trkpt lat="41.221478099458224" lon="14.64906561923944"><ele>78.75</ele><time>2026-03-22T10:52:00.999Z</time></trkpt><trkpt lat="41.22158306144009" lon="14.649211360164598"><ele>79.5</ele><time>2026-03-22T10:52:01.999Z</time></trkpt><trkpt lat="41.22165288296773" lon="14.64938224369752"><ele>80.25</ele><time>2026-03-22T10:52:02.999Z</time></trkpt><trkpt lat="41.22172772653016" lon="14.649547235760494"><ele>81.0</ele><time>2026-03-22T10:52:03.999Z</time></trkpt><trkpt lat="41.22180014161829" lon="14.64971825966764"><ele>81.25</ele><time>2026-03-22T10:52:04.999Z</time></trkpt><trkpt lat="41.22186806274596" lon="14.649889073048602"><ele>81.5</ele><time>2026-03-22T10:52:05.999Z</time></trkpt><trkpt lat="41.22189703753562" lon="14.65008855025845"><ele>81.75</ele><time>2026-03-22T10:52:06.999Z</time></trkpt><trkpt lat="41.22196587538526" lon="14.650257129436959"><ele>82.0</ele><time>2026-03-22T10:52:07.999Z</time></trkpt><trkpt lat="41.222032117823424" lon="14.65041935251718"><ele>83.0</ele><time>2026-03-22T10:52:08.999Z</time></trkpt><trkpt lat="41.22209745598968" lon="14.650579361198366"><ele>84.0</ele><time>2026-03-22T10:52:09.999Z</time></trkpt><trkpt lat="41.222166923083414" lon="14.650747997685286"><ele>85.0</ele><time>2026-03-22T10:52:10.999Z</time></trkpt><trkpt lat="41.22223297963369" lon="14.650907803483703"><ele>86.0</ele><time>2026-03-22T10:52:11.999Z</time></trkpt><trkpt lat="41.22229723096912" lon="14.65106324185585"><ele>88.75</ele><time>2026-03-22T10:52:12.999Z</time></trkpt><trkpt lat="41.222364812629706" lon="14.651225180273173"><ele>91.5</ele><time>2026-03-22T10:52:13.999Z</time></trkpt><trkpt lat="41.22243431009968" lon="14.651390958059386"><ele>94.25</ele><time>2026-03-22T10:52:14.999Z</time></trkpt><trkpt lat="41.22249719812211" lon="14.651538980601043"><ele>97.0</ele><time>2026-03-22T10:52:15.999Z</time></trkpt><trkpt lat="41.22255146290618" lon="14.651662026470039"><ele>97.0</ele><time>2026-03-22T10:52:16.999Z</time></trkpt><trkpt lat="41.2225949705589" lon="14.651760679859038"><ele>97.0</ele><time>2026-03-22T10:52:17.999Z</time></trkpt><trkpt lat="41.22265800449339" lon="14.651865544132237"><ele>97.0</ele><time>2026-03-22T10:52:19.999Z</time></trkpt><trkpt lat="41.222666751123455" lon="14.65200685671877"><ele>97.0</ele><time>2026-03-22T10:52:33Z</time></trkpt><trkpt lat="41.22267159133564" lon="14.65214142225892"><ele>97.0</ele><time>2026-03-22T10:52:34Z</time></trkpt><trkpt lat="41.222538374289094" lon="14.65226188204171"><ele>97.75</ele><time>2026-03-22T10:52:35Z</time></trkpt><trkpt lat="41.22250375166497" lon="14.65242547084794"><ele>98.5</ele><time>2026-03-22T10:52:36Z</time></trkpt><trkpt lat="41.222463159975135" lon="14.65260606711808"><ele>99.25</ele><time>2026-03-22T10:52:37Z</time></trkpt><trkpt lat="41.22241788136395" lon="14.652799347527766"><ele>100.0</ele><time>2026-03-22T10:52:38Z</time></trkpt><trkpt lat="41.222373317974274" lon="14.652989574844167"><ele>101.33333333333334</ele><time>2026-03-22T10:52:39Z</time></trkpt><trkpt lat="41.22233258318435" lon="14.653159980632589"><ele>102.66666666666666</ele><time>2026-03-22T10:52:40Z</time></trkpt><trkpt lat="41.22237378704718" lon="14.653383522271417"><ele>104.0</ele><time>2026-03-22T10:52:41Z</time></trkpt><trkpt lat="41.22232929325067" lon="14.653568803832188"><ele>102.5</ele><time>2026-03-22T10:52:42Z</time></trkpt><trkpt lat="41.22228764125344" lon="14.653742883381323"><ele>101.0</ele><time>2026-03-22T10:52:43Z</time></trkpt><trkpt lat="41.22224853565552" lon="14.65391105871582"><ele>99.5</ele><time>2026-03-22T10:52:44Z</time></trkpt><trkpt lat="41.22220754725558" lon="14.654077496089494"><ele>98.0</ele><time>2026-03-22T10:52:45Z</time></trkpt><trkpt lat="41.22216642035771" lon="14.654264460628905"><ele>98.0</ele><time>2026-03-22T10:52:46Z</time></trkpt><trkpt lat="41.22213338171844" lon="14.654439419737416"><ele>98.0</ele><time>2026-03-22T10:52:47Z</time></trkpt><trkpt lat="41.22210269491588" lon="14.654598131502459"><ele>98.0</ele><time>2026-03-22T10:52:48Z</time></trkpt><trkpt lat="41.22207712927303" lon="14.654749992136557"><ele>98.0</ele><time>2026-03-22T10:52:49Z</time></trkpt><trkpt lat="41.22205061605924" lon="14.654912560015134"><ele>98.5</ele><time>2026-03-22T10:52:50Z</time></trkpt><trkpt lat="41.222003956059304" lon="14.655078679038262"><ele>99.0</ele><time>2026-03-22T10:52:51Z</time></trkpt><trkpt lat="41.22197003452986" lon="14.655257160171372"><ele>99.5</ele><time>2026-03-22T10:52:52Z</time></trkpt><trkpt lat="41.22194074776697" lon="14.655425430754475"><ele>100.0</ele><time>2026-03-22T10:52:53Z</time></trkpt><trkpt lat="41.221977412425105" lon="14.655556106959986"><ele>102.75</ele><time>2026-03-22T10:52:54Z</time></trkpt><trkpt lat="41.2219810108596" lon="14.655666944207416"><ele>105.5</ele><time>2026-03-22T10:52:55Z</time></trkpt><trkpt lat="41.22198405771416" lon="14.655760791614956"><ele>108.25</ele><time>2026-03-22T10:52:56Z</time></trkpt><trkpt lat="41.22210521500399" lon="14.655704999843557"><ele>111.0</ele><time>2026-03-22T10:52:57Z</time></trkpt><trkpt lat="41.22233571401661" lon="14.655551332857227"><ele>113.0</ele><time>2026-03-22T10:53:01Z</time></trkpt><trkpt lat="41.22242942696715" lon="14.655590362494696"><ele>115.0</ele><time>2026-03-22T10:53:02Z</time></trkpt><trkpt lat="41.22253772803633" lon="14.655624453640273"><ele>117.0</ele><time>2026-03-22T10:53:03Z</time></trkpt><trkpt lat="41.222630069431965" lon="14.655644078478375"><ele>119.0</ele><time>2026-03-22T10:53:04Z</time></trkpt><trkpt lat="41.22270678553029" lon="14.655645639945611"><ele>121.0</ele><time>2026-03-22T10:53:05Z</time></trkpt><trkpt lat="41.22277958430942" lon="14.655647988413829"><ele>121.0</ele><time>2026-03-22T10:53:06Z</time></trkpt><trkpt lat="41.22270102523033" lon="14.655639027227625"><ele>121.0</ele><time>2026-03-22T10:53:19Z</time></trkpt><trkpt lat="41.222742711288056" lon="14.656192096134728"><ele>121.00000000000001</ele><time>2026-03-22T10:53:33.999Z</time></trkpt><trkpt lat="41.222688174728766" lon="14.6560936897884"><ele>121.0</ele><time>2026-03-22T10:55:50.999Z</time></trkpt><trkpt lat="41.2226320121039" lon="14.656054172619626"><ele>121.0</ele><time>2026-03-22T10:59:55.999Z</time></trkpt><trkpt lat="41.222557404574175" lon="14.656025354733888"><ele>121.0</ele><time>2026-03-22T10:59:57.999Z</time></trkpt><trkpt lat="41.2224708511401" lon="14.655996627294087"><ele>121.00000000000001</ele><time>2026-03-22T10:59:59.999Z</time></trkpt><trkpt lat="41.2223737379384" lon="14.655959172334617"><ele>121.0</ele><time>2026-03-22T11:00:01.999Z</time></trkpt><trkpt lat="41.22227015662848" lon="14.65592312451871"><ele>119.0</ele><time>2026-03-22T11:00:03.999Z</time></trkpt><trkpt lat="41.22217043417139" lon="14.655895382555164"><ele>117.0</ele><time>2026-03-22T11:00:05.999Z</time></trkpt><trkpt lat="41.222082726322625" lon="14.655866404801722"><ele>115.0</ele><time>2026-03-22T11:00:07.999Z</time></trkpt><trkpt lat="41.221991391492494" lon="14.655840747179388"><ele>113.0</ele><time>2026-03-22T11:00:09.999Z</time></trkpt><trkpt lat="41.22189769868703" lon="14.655811036110222"><ele>111.0</ele><time>2026-03-22T11:00:11.999Z</time></trkpt><trkpt lat="41.221815200650006" lon="14.655778837561773"><ele>111.0</ele><time>2026-03-22T11:00:13.999Z</time></trkpt><trkpt lat="41.221776872930526" lon="14.655663259000727"><ele>111.0</ele><time>2026-03-22T11:00:15.999Z</time></trkpt><trkpt lat="41.221794588682165" lon="14.655580944965644"><ele>111.0</ele><time>2026-03-22T11:00:16.999Z</time></trkpt><trkpt lat="41.22181013939051" lon="14.65549031209889"><ele>111.0</ele><time>2026-03-22T11:00:17.999Z</time></trkpt><trkpt lat="41.22182860471422" lon="14.655398364095008"><ele>111.0</ele><time>2026-03-22T11:00:18.999Z</time></trkpt><trkpt lat="41.221851993422845" lon="14.655305312031903"><ele>111.0</ele><time>2026-03-22T11:00:19.999Z</time></trkpt><trkpt lat="41.221998930262906" lon="14.655233817955175"><ele>108.25</ele><time>2026-03-22T11:00:20.999Z</time></trkpt><trkpt lat="41.22204973573546" lon="14.655028873145442"><ele>105.5</ele><time>2026-03-22T11:00:22.999Z</time></trkpt><trkpt lat="41.22207410062337" lon="14.654909881405763"><ele>102.75</ele><time>2026-03-22T11:00:23.999Z</time></trkpt><trkpt lat="41.222099529289196" lon="14.654785693352217"><ele>100.0</ele><time>2026-03-22T11:00:24.999Z</time></trkpt><trkpt lat="41.222022254512744" lon="14.65462398086651"><ele>100.0</ele><time>2026-03-22T11:00:25.999Z</time></trkpt><trkpt lat="41.22204952079378" lon="14.654491162715978"><ele>100.0</ele><time>2026-03-22T11:00:26.999Z</time></trkpt><trkpt lat="41.2220842878788" lon="14.654345429059248"><ele>100.0</ele><time>2026-03-22T11:00:27.999Z</time></trkpt><trkpt lat="41.2221190386707" lon="14.65419321591403"><ele>100.0</ele><time>2026-03-22T11:00:28.998Z</time></trkpt><trkpt lat="41.22215330803508" lon="14.654025210920498"><ele>99.5</ele><time>2026-03-22T11:00:29.998Z</time></trkpt><trkpt lat="41.22218842232707" lon="14.653850973678257"><ele>99.0</ele><time>2026-03-22T11:00:30.998Z</time></trkpt><trkpt lat="41.22222985065538" lon="14.653671096401238"><ele>98.5</ele><time>2026-03-22T11:00:31.998Z</time></trkpt><trkpt lat="41.22227345584215" lon="14.65349004251944"><ele>98.0</ele><time>2026-03-22T11:00:32.998Z</time></trkpt><trkpt lat="41.222312356418904" lon="14.653321532851898"><ele>98.5</ele><time>2026-03-22T11:00:33.998Z</time></trkpt><trkpt lat="41.22236688983841" lon="14.65316283488065"><ele>99.0</ele><time>2026-03-22T11:00:34.998Z</time></trkpt><trkpt lat="41.22240608649294" lon="14.652998596869034"><ele>99.5</ele><time>2026-03-22T11:00:35.998Z</time></trkpt><trkpt lat="41.222443464732805" lon="14.652839041106471"><ele>100.0</ele><time>2026-03-22T11:00:36.998Z</time></trkpt><trkpt lat="41.222479510222925" lon="14.652685174410966"><ele>100.0</ele><time>2026-03-22T11:00:37.998Z</time></trkpt><trkpt lat="41.222513747625165" lon="14.652537066157164"><ele>100.0</ele><time>2026-03-22T11:00:38.998Z</time></trkpt><trkpt lat="41.22254366987474" lon="14.652402008570022"><ele>100.0</ele><time>2026-03-22T11:00:39.998Z</time></trkpt><trkpt lat="41.22256935982335" lon="14.652279358544122"><ele>100.0</ele><time>2026-03-22T11:00:40.998Z</time></trkpt><trkpt lat="41.22259320683158" lon="14.652158533677701"><ele>100.0</ele><time>2026-03-22T11:00:41.998Z</time></trkpt><trkpt lat="41.22261343137739" lon="14.652059708229498"><ele>100.0</ele><time>2026-03-22T11:00:42.998Z</time></trkpt><trkpt lat="41.222636757076835" lon="14.651954258933415"><ele>100.0</ele><time>2026-03-22T11:00:44.998Z</time></trkpt><trkpt lat="41.22272410792372" lon="14.652051352293988"><ele>100.0</ele><time>2026-03-22T11:00:47.999Z</time></trkpt><trkpt lat="41.222758193109456" lon="14.652145131194176"><ele>100.0</ele><time>2026-03-22T11:00:48.999Z</time></trkpt><trkpt lat="41.222798800924174" lon="14.65224741836405"><ele>100.0</ele><time>2026-03-22T11:00:49.999Z</time></trkpt><trkpt lat="41.22283617875143" lon="14.652363178727196"><ele>100.0</ele><time>2026-03-22T11:00:50.999Z</time></trkpt><trkpt lat="41.222843505922555" lon="14.652503817801776"><ele>100.0</ele><time>2026-03-22T11:00:51.999Z</time></trkpt><trkpt lat="41.22287943313802" lon="14.652645784031636"><ele>100.0</ele><time>2026-03-22T11:00:52.999Z</time></trkpt><trkpt lat="41.222880004890584" lon="14.652804243349323"><ele>100.0</ele><time>2026-03-22T11:00:53.999Z</time></trkpt><trkpt lat="41.22289504908171" lon="14.652969571553362"><ele>101.0</ele><time>2026-03-22T11:00:54.999Z</time></trkpt><trkpt lat="41.22288793189097" lon="14.653141455423706"><ele>102.0</ele><time>2026-03-22T11:00:55.999Z</time></trkpt><trkpt lat="41.2228883529177" lon="14.653318132976855"><ele>103.0</ele><time>2026-03-22T11:00:56.999Z</time></trkpt><trkpt lat="41.222891668092146" lon="14.653494702265766"><ele>104.0</ele><time>2026-03-22T11:00:57.999Z</time></trkpt><trkpt lat="41.22288574238046" lon="14.653675986119177"><ele>104.0</ele><time>2026-03-22T11:00:58.999Z</time></trkpt><trkpt lat="41.22288845901677" lon="14.65384112895153"><ele>104.0</ele><time>2026-03-22T11:00:59.999Z</time></trkpt><trkpt lat="41.22289905052162" lon="14.653963306697129"><ele>104.0</ele><time>2026-03-22T11:01:00.999Z</time></trkpt><trkpt lat="41.22292202554158" lon="14.654045565751806"><ele>104.0</ele><time>2026-03-22T11:01:01.999Z</time></trkpt><trkpt lat="41.22300467022102" lon="14.654107766694173"><ele>104.0</ele><time>2026-03-22T11:01:03.999Z</time></trkpt><trkpt lat="41.223099561655545" lon="14.653998887625415"><ele>104.0</ele><time>2026-03-22T11:01:05.999Z</time></trkpt><trkpt lat="41.22309329870066" lon="14.65385476162771"><ele>104.0</ele><time>2026-03-22T11:01:06.999Z</time></trkpt><trkpt lat="41.22311871961148" lon="14.653718408985169"><ele>104.0</ele><time>2026-03-22T11:01:07.999Z</time></trkpt><trkpt lat="41.22315728600902" lon="14.653573691246951"><ele>104.0</ele><time>2026-03-22T11:01:08.999Z</time></trkpt><trkpt lat="41.223223594811586" lon="14.653423998700791"><ele>109.5</ele><time>2026-03-22T11:01:09.999Z</time></trkpt><trkpt lat="41.223301213495105" lon="14.653286571386714"><ele>115.0</ele><time>2026-03-22T11:01:10.999Z</time></trkpt><trkpt lat="41.22341081756825" lon="14.653192971280992"><ele>120.5</ele><time>2026-03-22T11:01:11.999Z</time></trkpt><trkpt lat="41.22352285254184" lon="14.653117727249622"><ele>126.0</ele><time>2026-03-22T11:01:12.999Z</time></trkpt><trkpt lat="41.22364942815741" lon="14.653064062981906"><ele>126.0</ele><time>2026-03-22T11:01:13.999Z</time></trkpt><trkpt lat="41.223785476196355" lon="14.653024510841295"><ele>126.0</ele><time>2026-03-22T11:01:14.999Z</time></trkpt><trkpt lat="41.22392518747909" lon="14.652981141540623"><ele>126.0</ele><time>2026-03-22T11:01:15.999Z</time></trkpt><trkpt lat="41.224059442771974" lon="14.652960685007013"><ele>126.0</ele><time>2026-03-22T11:01:16.999Z</time></trkpt><trkpt lat="41.22419280200143" lon="14.652912151076636"><ele>127.0</ele><time>2026-03-22T11:01:17.999Z</time></trkpt><trkpt lat="41.22429382323815" lon="14.652855202788887"><ele>128.0</ele><time>2026-03-22T11:01:18.999Z</time></trkpt><trkpt lat="41.224356371567474" lon="14.652793338462478"><ele>129.0</ele><time>2026-03-22T11:01:19.999Z</time></trkpt><trkpt lat="41.22443211948005" lon="14.65278817452981"><ele>130.0</ele><time>2026-03-22T11:01:21.999Z</time></trkpt><trkpt lat="41.224412990344454" lon="14.652941246342387"><ele>131.0</ele><time>2026-03-22T11:01:23.999Z</time></trkpt><trkpt lat="41.224298080506614" lon="14.65301043430924"><ele>129.75</ele><time>2026-03-22T11:01:25.999Z</time></trkpt><trkpt lat="41.22422174702536" lon="14.653069426688951"><ele>128.5</ele><time>2026-03-22T11:01:26.999Z</time></trkpt><trkpt lat="41.224139373400604" lon="14.65312275340107"><ele>127.25</ele><time>2026-03-22T11:01:27.999Z</time></trkpt><trkpt lat="41.223960725004055" lon="14.65320588776156"><ele>126.0</ele><time>2026-03-22T11:01:28.999Z</time></trkpt><trkpt lat="41.22383735700317" lon="14.653291238998989"><ele>126.0</ele><time>2026-03-22T11:01:29.999Z</time></trkpt><trkpt lat="41.223743152055164" lon="14.653360566298907"><ele>126.0</ele><time>2026-03-22T11:01:30.999Z</time></trkpt><trkpt lat="41.22366981604659" lon="14.653441977061895"><ele>126.0</ele><time>2026-03-22T11:01:31.999Z</time></trkpt><trkpt lat="41.22360607994595" lon="14.653505225734138"><ele>126.0</ele><time>2026-03-22T11:01:32.999Z</time></trkpt><trkpt lat="41.22358099934624" lon="14.653604844841869"><ele>126.0</ele><time>2026-03-22T11:01:33.999Z</time></trkpt><trkpt lat="41.223610846771585" lon="14.653733603592608"><ele>124.8</ele><time>2026-03-22T11:01:34.999Z</time></trkpt><trkpt lat="41.223665813795265" lon="14.65382757015059"><ele>123.6</ele><time>2026-03-22T11:01:35.999Z</time></trkpt><trkpt lat="41.22376404282211" lon="14.653882630173666"><ele>122.4</ele><time>2026-03-22T11:01:36.999Z</time></trkpt><trkpt lat="41.22387730939196" lon="14.653876068838153"><ele>121.2</ele><time>2026-03-22T11:01:37.999Z</time></trkpt><trkpt lat="41.223990090753844" lon="14.653846168558504"><ele>120.0</ele><time>2026-03-22T11:01:38.999Z</time></trkpt><trkpt lat="41.224104084241645" lon="14.653779962804386"><ele>123.25</ele><time>2026-03-22T11:01:39.999Z</time></trkpt><trkpt lat="41.224222059925665" lon="14.653707855621125"><ele>126.5</ele><time>2026-03-22T11:01:40.999Z</time></trkpt><trkpt lat="41.224346619619205" lon="14.653637132841045"><ele>129.75</ele><time>2026-03-22T11:01:41.999Z</time></trkpt><trkpt lat="41.22447874663579" lon="14.653574250140991"><ele>133.0</ele><time>2026-03-22T11:01:42.999Z</time></trkpt><trkpt lat="41.22460623205846" lon="14.653517956971065"><ele>135.0</ele><time>2026-03-22T11:01:43.999Z</time></trkpt><trkpt lat="41.224726514018954" lon="14.653459772726677"><ele>137.0</ele><time>2026-03-22T11:01:44.999Z</time></trkpt><trkpt lat="41.224848247838196" lon="14.653397175196355"><ele>139.0</ele><time>2026-03-22T11:01:45.999Z</time></trkpt><trkpt lat="41.224975424998135" lon="14.653324504310193"><ele>141.0</ele><time>2026-03-22T11:01:46.999Z</time></trkpt><trkpt lat="41.22510440736819" lon="14.653249501606913"><ele>142.66666666666666</ele><time>2026-03-22T11:01:47.999Z</time></trkpt><trkpt lat="41.22521473992267" lon="14.653177227735315"><ele>144.33333333333334</ele><time>2026-03-22T11:01:48.999Z</time></trkpt><trkpt lat="41.225294462398075" lon="14.653105541912637"><ele>146.0</ele><time>2026-03-22T11:01:49.999Z</time></trkpt><trkpt lat="41.22534561899935" lon="14.653055931427147"><ele>147.66666666666669</ele><time>2026-03-22T11:01:50.999Z</time></trkpt><trkpt lat="41.22541008980388" lon="14.653009966458129"><ele>149.33333333333334</ele><time>2026-03-22T11:01:52.999Z</time></trkpt><trkpt lat="41.225459761312855" lon="14.653103877444194"><ele>151.0</ele><time>2026-03-22T11:01:53.999Z</time></trkpt><trkpt lat="41.22548283692005" lon="14.653193732863123"><ele>151.0</ele><time>2026-03-22T11:01:55.999Z</time></trkpt></trkseg></trk></gpx>